<?xml version="1.0" encoding="UTF-8" standalone="no" ?>
<gpx xmlns="http://www.topografix.com/GPX/1/1" xmlns:xsi="http://www.w3.org/2001/XMLSchema-instance" xsi:schemaLocation="http://www.topografix.com/GPX/1/1 http://www.topografix.com/GPX/1/1/gpx.xsd" version="1.1" creator="VisuGPX - https://www.visugpx.com">
  <metadata>
    <name>Virée Nocturne</name>
    <desc><![CDATA[Un trail de nuit à Rodez sa vous dit?
Voici la première boucle du circuit que l'on a pu effectuer le 30 janvier 2009.]]></desc>
  </metadata>
  <trk>
    <name><![CDATA[2009-01-30T19_0]]></name>
    <trkseg>
      <trkpt lat="44.35173" lon="2.56924">
        <ele>611.055</ele>
        <time>2009-01-30T19:05:19Z</time>
      </trkpt>
      <trkpt lat="44.35175" lon="2.56919">
        <ele>611.055</ele>
        <time>2009-01-30T19:05:21Z</time>
      </trkpt>
      <trkpt lat="44.35176" lon="2.56917">
        <ele>611.055</ele>
        <time>2009-01-30T19:05:22Z</time>
      </trkpt>
      <trkpt lat="44.35178" lon="2.56915">
        <ele>611.055</ele>
        <time>2009-01-30T19:05:23Z</time>
      </trkpt>
      <trkpt lat="44.35179" lon="2.56912">
        <ele>611.536</ele>
        <time>2009-01-30T19:05:24Z</time>
      </trkpt>
      <trkpt lat="44.3518" lon="2.5691">
        <ele>611.536</ele>
        <time>2009-01-30T19:05:25Z</time>
      </trkpt>
      <trkpt lat="44.35181" lon="2.56907">
        <ele>612.017</ele>
        <time>2009-01-30T19:05:26Z</time>
      </trkpt>
      <trkpt lat="44.35182" lon="2.56905">
        <ele>611.536</ele>
        <time>2009-01-30T19:05:27Z</time>
      </trkpt>
      <trkpt lat="44.35182" lon="2.56903">
        <ele>612.497</ele>
        <time>2009-01-30T19:05:28Z</time>
      </trkpt>
      <trkpt lat="44.35183" lon="2.56899">
        <ele>612.497</ele>
        <time>2009-01-30T19:05:29Z</time>
      </trkpt>
      <trkpt lat="44.35184" lon="2.56897">
        <ele>612.017</ele>
        <time>2009-01-30T19:05:30Z</time>
      </trkpt>
      <trkpt lat="44.35184" lon="2.56894">
        <ele>611.536</ele>
        <time>2009-01-30T19:05:31Z</time>
      </trkpt>
      <trkpt lat="44.35184" lon="2.56892">
        <ele>611.536</ele>
        <time>2009-01-30T19:05:32Z</time>
      </trkpt>
      <trkpt lat="44.35184" lon="2.5689">
        <ele>611.055</ele>
        <time>2009-01-30T19:05:33Z</time>
      </trkpt>
      <trkpt lat="44.35186" lon="2.56887">
        <ele>610.574</ele>
        <time>2009-01-30T19:05:34Z</time>
      </trkpt>
      <trkpt lat="44.35186" lon="2.56884">
        <ele>611.055</ele>
        <time>2009-01-30T19:05:35Z</time>
      </trkpt>
      <trkpt lat="44.35186" lon="2.56881">
        <ele>610.094</ele>
        <time>2009-01-30T19:05:36Z</time>
      </trkpt>
      <trkpt lat="44.35187" lon="2.56878">
        <ele>608.652</ele>
        <time>2009-01-30T19:05:37Z</time>
      </trkpt>
      <trkpt lat="44.35188" lon="2.56876">
        <ele>607.21</ele>
        <time>2009-01-30T19:05:38Z</time>
      </trkpt>
      <trkpt lat="44.35188" lon="2.56873">
        <ele>606.729</ele>
        <time>2009-01-30T19:05:39Z</time>
      </trkpt>
      <trkpt lat="44.35189" lon="2.5687">
        <ele>605.768</ele>
        <time>2009-01-30T19:05:40Z</time>
      </trkpt>
      <trkpt lat="44.3519" lon="2.56867">
        <ele>604.807</ele>
        <time>2009-01-30T19:05:41Z</time>
      </trkpt>
      <trkpt lat="44.35191" lon="2.56862">
        <ele>604.807</ele>
        <time>2009-01-30T19:05:42Z</time>
      </trkpt>
      <trkpt lat="44.35191" lon="2.56859">
        <ele>604.326</ele>
        <time>2009-01-30T19:05:43Z</time>
      </trkpt>
      <trkpt lat="44.35191" lon="2.56855">
        <ele>604.326</ele>
        <time>2009-01-30T19:05:44Z</time>
      </trkpt>
      <trkpt lat="44.35191" lon="2.56851">
        <ele>604.326</ele>
        <time>2009-01-30T19:05:45Z</time>
      </trkpt>
      <trkpt lat="44.35191" lon="2.56849">
        <ele>603.365</ele>
        <time>2009-01-30T19:05:46Z</time>
      </trkpt>
      <trkpt lat="44.35191" lon="2.56846">
        <ele>601.442</ele>
        <time>2009-01-30T19:05:47Z</time>
      </trkpt>
      <trkpt lat="44.35191" lon="2.56844">
        <ele>599.039</ele>
        <time>2009-01-30T19:05:48Z</time>
      </trkpt>
      <trkpt lat="44.35192" lon="2.56842">
        <ele>598.077</ele>
        <time>2009-01-30T19:05:49Z</time>
      </trkpt>
      <trkpt lat="44.35192" lon="2.5684">
        <ele>596.635</ele>
        <time>2009-01-30T19:05:50Z</time>
      </trkpt>
      <trkpt lat="44.35192" lon="2.56836">
        <ele>594.232</ele>
        <time>2009-01-30T19:05:51Z</time>
      </trkpt>
      <trkpt lat="44.35193" lon="2.56831">
        <ele>594.232</ele>
        <time>2009-01-30T19:05:52Z</time>
      </trkpt>
      <trkpt lat="44.35193" lon="2.56827">
        <ele>594.713</ele>
        <time>2009-01-30T19:05:53Z</time>
      </trkpt>
      <trkpt lat="44.35194" lon="2.56822">
        <ele>594.713</ele>
        <time>2009-01-30T19:05:54Z</time>
      </trkpt>
      <trkpt lat="44.35195" lon="2.56818">
        <ele>593.271</ele>
        <time>2009-01-30T19:05:55Z</time>
      </trkpt>
      <trkpt lat="44.35195" lon="2.56814">
        <ele>593.751</ele>
        <time>2009-01-30T19:05:56Z</time>
      </trkpt>
      <trkpt lat="44.35196" lon="2.5681">
        <ele>595.193</ele>
        <time>2009-01-30T19:05:57Z</time>
      </trkpt>
      <trkpt lat="44.35196" lon="2.56806">
        <ele>594.232</ele>
        <time>2009-01-30T19:05:58Z</time>
      </trkpt>
      <trkpt lat="44.35196" lon="2.56803">
        <ele>593.271</ele>
        <time>2009-01-30T19:05:59Z</time>
      </trkpt>
      <trkpt lat="44.35197" lon="2.56799">
        <ele>593.271</ele>
        <time>2009-01-30T19:06:00Z</time>
      </trkpt>
      <trkpt lat="44.35197" lon="2.56796">
        <ele>592.79</ele>
        <time>2009-01-30T19:06:01Z</time>
      </trkpt>
      <trkpt lat="44.35198" lon="2.56792">
        <ele>590.867</ele>
        <time>2009-01-30T19:06:02Z</time>
      </trkpt>
      <trkpt lat="44.352" lon="2.56788">
        <ele>589.426</ele>
        <time>2009-01-30T19:06:03Z</time>
      </trkpt>
      <trkpt lat="44.35201" lon="2.56784">
        <ele>590.387</ele>
        <time>2009-01-30T19:06:04Z</time>
      </trkpt>
      <trkpt lat="44.35202" lon="2.56781">
        <ele>591.348</ele>
        <time>2009-01-30T19:06:05Z</time>
      </trkpt>
      <trkpt lat="44.35202" lon="2.56778">
        <ele>591.348</ele>
        <time>2009-01-30T19:06:06Z</time>
      </trkpt>
      <trkpt lat="44.35203" lon="2.56776">
        <ele>590.387</ele>
        <time>2009-01-30T19:06:07Z</time>
      </trkpt>
      <trkpt lat="44.35203" lon="2.56773">
        <ele>593.271</ele>
        <time>2009-01-30T19:06:08Z</time>
      </trkpt>
      <trkpt lat="44.35204" lon="2.5677">
        <ele>593.751</ele>
        <time>2009-01-30T19:06:09Z</time>
      </trkpt>
      <trkpt lat="44.35204" lon="2.56768">
        <ele>593.271</ele>
        <time>2009-01-30T19:06:10Z</time>
      </trkpt>
      <trkpt lat="44.35205" lon="2.56766">
        <ele>592.79</ele>
        <time>2009-01-30T19:06:11Z</time>
      </trkpt>
      <trkpt lat="44.35206" lon="2.56764">
        <ele>592.79</ele>
        <time>2009-01-30T19:06:12Z</time>
      </trkpt>
      <trkpt lat="44.35208" lon="2.56762">
        <ele>589.906</ele>
        <time>2009-01-30T19:06:13Z</time>
      </trkpt>
      <trkpt lat="44.35209" lon="2.5676">
        <ele>589.426</ele>
        <time>2009-01-30T19:06:14Z</time>
      </trkpt>
      <trkpt lat="44.3521" lon="2.56759">
        <ele>589.426</ele>
        <time>2009-01-30T19:06:15Z</time>
      </trkpt>
      <trkpt lat="44.35211" lon="2.56758">
        <ele>589.426</ele>
        <time>2009-01-30T19:06:16Z</time>
      </trkpt>
      <trkpt lat="44.35211" lon="2.56756">
        <ele>588.945</ele>
        <time>2009-01-30T19:06:17Z</time>
      </trkpt>
      <trkpt lat="44.35212" lon="2.56756">
        <ele>589.906</ele>
        <time>2009-01-30T19:06:18Z</time>
      </trkpt>
      <trkpt lat="44.35216" lon="2.56753">
        <ele>596.155</ele>
        <time>2009-01-30T19:06:23Z</time>
      </trkpt>
      <trkpt lat="44.35216" lon="2.56753">
        <ele>597.116</ele>
        <time>2009-01-30T19:06:24Z</time>
      </trkpt>
      <trkpt lat="44.35218" lon="2.5675">
        <ele>600.481</ele>
        <time>2009-01-30T19:06:27Z</time>
      </trkpt>
      <trkpt lat="44.35218" lon="2.5675">
        <ele>600.481</ele>
        <time>2009-01-30T19:06:28Z</time>
      </trkpt>
      <trkpt lat="44.3522" lon="2.56749">
        <ele>602.403</ele>
        <time>2009-01-30T19:06:30Z</time>
      </trkpt>
      <trkpt lat="44.35221" lon="2.56748">
        <ele>603.365</ele>
        <time>2009-01-30T19:06:31Z</time>
      </trkpt>
      <trkpt lat="44.35223" lon="2.56748">
        <ele>603.365</ele>
        <time>2009-01-30T19:06:32Z</time>
      </trkpt>
      <trkpt lat="44.35224" lon="2.56747">
        <ele>604.326</ele>
        <time>2009-01-30T19:06:33Z</time>
      </trkpt>
      <trkpt lat="44.35226" lon="2.56747">
        <ele>604.326</ele>
        <time>2009-01-30T19:06:34Z</time>
      </trkpt>
      <trkpt lat="44.35228" lon="2.56746">
        <ele>604.807</ele>
        <time>2009-01-30T19:06:35Z</time>
      </trkpt>
      <trkpt lat="44.35231" lon="2.56744">
        <ele>605.768</ele>
        <time>2009-01-30T19:06:36Z</time>
      </trkpt>
      <trkpt lat="44.35233" lon="2.56744">
        <ele>605.768</ele>
        <time>2009-01-30T19:06:37Z</time>
      </trkpt>
      <trkpt lat="44.35236" lon="2.56744">
        <ele>605.287</ele>
        <time>2009-01-30T19:06:38Z</time>
      </trkpt>
      <trkpt lat="44.35239" lon="2.56745">
        <ele>604.807</ele>
        <time>2009-01-30T19:06:39Z</time>
      </trkpt>
      <trkpt lat="44.35241" lon="2.56745">
        <ele>604.326</ele>
        <time>2009-01-30T19:06:40Z</time>
      </trkpt>
      <trkpt lat="44.35243" lon="2.56745">
        <ele>603.365</ele>
        <time>2009-01-30T19:06:41Z</time>
      </trkpt>
      <trkpt lat="44.35247" lon="2.56745">
        <ele>602.403</ele>
        <time>2009-01-30T19:06:42Z</time>
      </trkpt>
      <trkpt lat="44.35249" lon="2.56745">
        <ele>602.403</ele>
        <time>2009-01-30T19:06:43Z</time>
      </trkpt>
      <trkpt lat="44.35252" lon="2.56745">
        <ele>601.923</ele>
        <time>2009-01-30T19:06:44Z</time>
      </trkpt>
      <trkpt lat="44.35255" lon="2.56745">
        <ele>600</ele>
        <time>2009-01-30T19:06:45Z</time>
      </trkpt>
      <trkpt lat="44.35257" lon="2.56746">
        <ele>599.039</ele>
        <time>2009-01-30T19:06:46Z</time>
      </trkpt>
      <trkpt lat="44.35258" lon="2.56746">
        <ele>598.077</ele>
        <time>2009-01-30T19:06:47Z</time>
      </trkpt>
      <trkpt lat="44.35259" lon="2.56746">
        <ele>598.077</ele>
        <time>2009-01-30T19:06:48Z</time>
      </trkpt>
      <trkpt lat="44.35261" lon="2.56746">
        <ele>599.519</ele>
        <time>2009-01-30T19:06:49Z</time>
      </trkpt>
      <trkpt lat="44.35262" lon="2.56746">
        <ele>598.558</ele>
        <time>2009-01-30T19:06:50Z</time>
      </trkpt>
      <trkpt lat="44.35263" lon="2.56746">
        <ele>598.558</ele>
        <time>2009-01-30T19:06:51Z</time>
      </trkpt>
      <trkpt lat="44.35263" lon="2.56746">
        <ele>598.558</ele>
        <time>2009-01-30T19:06:52Z</time>
      </trkpt>
      <trkpt lat="44.35265" lon="2.56746">
        <ele>600.961</ele>
        <time>2009-01-30T19:06:53Z</time>
      </trkpt>
      <trkpt lat="44.35266" lon="2.56746">
        <ele>602.884</ele>
        <time>2009-01-30T19:06:54Z</time>
      </trkpt>
      <trkpt lat="44.35267" lon="2.56747">
        <ele>603.365</ele>
        <time>2009-01-30T19:06:55Z</time>
      </trkpt>
      <trkpt lat="44.35268" lon="2.56747">
        <ele>604.326</ele>
        <time>2009-01-30T19:06:56Z</time>
      </trkpt>
      <trkpt lat="44.35269" lon="2.56747">
        <ele>603.845</ele>
        <time>2009-01-30T19:06:57Z</time>
      </trkpt>
      <trkpt lat="44.3527" lon="2.56748">
        <ele>603.365</ele>
        <time>2009-01-30T19:06:58Z</time>
      </trkpt>
      <trkpt lat="44.35272" lon="2.56748">
        <ele>604.807</ele>
        <time>2009-01-30T19:06:59Z</time>
      </trkpt>
      <trkpt lat="44.35274" lon="2.56748">
        <ele>605.287</ele>
        <time>2009-01-30T19:07:00Z</time>
      </trkpt>
      <trkpt lat="44.35275" lon="2.56748">
        <ele>605.287</ele>
        <time>2009-01-30T19:07:01Z</time>
      </trkpt>
      <trkpt lat="44.35276" lon="2.56748">
        <ele>603.845</ele>
        <time>2009-01-30T19:07:02Z</time>
      </trkpt>
      <trkpt lat="44.35278" lon="2.56748">
        <ele>603.365</ele>
        <time>2009-01-30T19:07:03Z</time>
      </trkpt>
      <trkpt lat="44.3528" lon="2.56749">
        <ele>601.923</ele>
        <time>2009-01-30T19:07:04Z</time>
      </trkpt>
      <trkpt lat="44.35282" lon="2.56749">
        <ele>601.442</ele>
        <time>2009-01-30T19:07:05Z</time>
      </trkpt>
      <trkpt lat="44.35285" lon="2.56749">
        <ele>600.481</ele>
        <time>2009-01-30T19:07:06Z</time>
      </trkpt>
      <trkpt lat="44.35289" lon="2.56748">
        <ele>599.519</ele>
        <time>2009-01-30T19:07:07Z</time>
      </trkpt>
      <trkpt lat="44.35293" lon="2.56747">
        <ele>599.039</ele>
        <time>2009-01-30T19:07:08Z</time>
      </trkpt>
      <trkpt lat="44.35295" lon="2.56747">
        <ele>599.039</ele>
        <time>2009-01-30T19:07:09Z</time>
      </trkpt>
      <trkpt lat="44.35298" lon="2.56748">
        <ele>599.039</ele>
        <time>2009-01-30T19:07:10Z</time>
      </trkpt>
      <trkpt lat="44.353" lon="2.56748">
        <ele>599.519</ele>
        <time>2009-01-30T19:07:11Z</time>
      </trkpt>
      <trkpt lat="44.35302" lon="2.56749">
        <ele>599.519</ele>
        <time>2009-01-30T19:07:12Z</time>
      </trkpt>
      <trkpt lat="44.35304" lon="2.56749">
        <ele>600</ele>
        <time>2009-01-30T19:07:13Z</time>
      </trkpt>
      <trkpt lat="44.35306" lon="2.5675">
        <ele>601.442</ele>
        <time>2009-01-30T19:07:14Z</time>
      </trkpt>
      <trkpt lat="44.35308" lon="2.56751">
        <ele>603.365</ele>
        <time>2009-01-30T19:07:15Z</time>
      </trkpt>
      <trkpt lat="44.3531" lon="2.56753">
        <ele>604.326</ele>
        <time>2009-01-30T19:07:16Z</time>
      </trkpt>
      <trkpt lat="44.35311" lon="2.56755">
        <ele>605.287</ele>
        <time>2009-01-30T19:07:17Z</time>
      </trkpt>
      <trkpt lat="44.35313" lon="2.56757">
        <ele>606.249</ele>
        <time>2009-01-30T19:07:18Z</time>
      </trkpt>
      <trkpt lat="44.35315" lon="2.56758">
        <ele>606.729</ele>
        <time>2009-01-30T19:07:19Z</time>
      </trkpt>
      <trkpt lat="44.35317" lon="2.5676">
        <ele>607.691</ele>
        <time>2009-01-30T19:07:20Z</time>
      </trkpt>
      <trkpt lat="44.35318" lon="2.56762">
        <ele>609.133</ele>
        <time>2009-01-30T19:07:21Z</time>
      </trkpt>
      <trkpt lat="44.35319" lon="2.56763">
        <ele>610.094</ele>
        <time>2009-01-30T19:07:22Z</time>
      </trkpt>
      <trkpt lat="44.3532" lon="2.56764">
        <ele>611.055</ele>
        <time>2009-01-30T19:07:23Z</time>
      </trkpt>
      <trkpt lat="44.35319" lon="2.56766">
        <ele>612.497</ele>
        <time>2009-01-30T19:07:24Z</time>
      </trkpt>
      <trkpt lat="44.35319" lon="2.56767">
        <ele>612.978</ele>
        <time>2009-01-30T19:07:25Z</time>
      </trkpt>
      <trkpt lat="44.35319" lon="2.56768">
        <ele>613.939</ele>
        <time>2009-01-30T19:07:26Z</time>
      </trkpt>
      <trkpt lat="44.35319" lon="2.56769">
        <ele>614.42</ele>
        <time>2009-01-30T19:07:27Z</time>
      </trkpt>
      <trkpt lat="44.35319" lon="2.56771">
        <ele>614.9</ele>
        <time>2009-01-30T19:07:28Z</time>
      </trkpt>
      <trkpt lat="44.3532" lon="2.56772">
        <ele>615.381</ele>
        <time>2009-01-30T19:07:29Z</time>
      </trkpt>
      <trkpt lat="44.3532" lon="2.56773">
        <ele>615.862</ele>
        <time>2009-01-30T19:07:30Z</time>
      </trkpt>
      <trkpt lat="44.3532" lon="2.56774">
        <ele>615.862</ele>
        <time>2009-01-30T19:07:31Z</time>
      </trkpt>
      <trkpt lat="44.3532" lon="2.56776">
        <ele>614.9</ele>
        <time>2009-01-30T19:07:32Z</time>
      </trkpt>
      <trkpt lat="44.3532" lon="2.56777">
        <ele>614.42</ele>
        <time>2009-01-30T19:07:33Z</time>
      </trkpt>
      <trkpt lat="44.3532" lon="2.56779">
        <ele>613.458</ele>
        <time>2009-01-30T19:07:34Z</time>
      </trkpt>
      <trkpt lat="44.35319" lon="2.5678">
        <ele>612.497</ele>
        <time>2009-01-30T19:07:35Z</time>
      </trkpt>
      <trkpt lat="44.35319" lon="2.56781">
        <ele>612.017</ele>
        <time>2009-01-30T19:07:36Z</time>
      </trkpt>
      <trkpt lat="44.35319" lon="2.56782">
        <ele>609.613</ele>
        <time>2009-01-30T19:07:37Z</time>
      </trkpt>
      <trkpt lat="44.35319" lon="2.56782">
        <ele>608.652</ele>
        <time>2009-01-30T19:07:38Z</time>
      </trkpt>
      <trkpt lat="44.35318" lon="2.56783">
        <ele>607.21</ele>
        <time>2009-01-30T19:07:39Z</time>
      </trkpt>
      <trkpt lat="44.35318" lon="2.56784">
        <ele>606.729</ele>
        <time>2009-01-30T19:07:40Z</time>
      </trkpt>
      <trkpt lat="44.35318" lon="2.56784">
        <ele>606.729</ele>
        <time>2009-01-30T19:07:41Z</time>
      </trkpt>
      <trkpt lat="44.35321" lon="2.56787">
        <ele>606.249</ele>
        <time>2009-01-30T19:07:50Z</time>
      </trkpt>
      <trkpt lat="44.3532" lon="2.56787">
        <ele>606.729</ele>
        <time>2009-01-30T19:07:51Z</time>
      </trkpt>
      <trkpt lat="44.3532" lon="2.56787">
        <ele>607.21</ele>
        <time>2009-01-30T19:07:52Z</time>
      </trkpt>
      <trkpt lat="44.3532" lon="2.56788">
        <ele>607.21</ele>
        <time>2009-01-30T19:07:53Z</time>
      </trkpt>
      <trkpt lat="44.35319" lon="2.56789">
        <ele>605.768</ele>
        <time>2009-01-30T19:07:56Z</time>
      </trkpt>
      <trkpt lat="44.3532" lon="2.5679">
        <ele>604.807</ele>
        <time>2009-01-30T19:07:57Z</time>
      </trkpt>
      <trkpt lat="44.3532" lon="2.5679">
        <ele>603.845</ele>
        <time>2009-01-30T19:07:58Z</time>
      </trkpt>
      <trkpt lat="44.35321" lon="2.56791">
        <ele>603.845</ele>
        <time>2009-01-30T19:07:59Z</time>
      </trkpt>
      <trkpt lat="44.35321" lon="2.56792">
        <ele>602.884</ele>
        <time>2009-01-30T19:08:00Z</time>
      </trkpt>
      <trkpt lat="44.35321" lon="2.56792">
        <ele>603.845</ele>
        <time>2009-01-30T19:08:01Z</time>
      </trkpt>
      <trkpt lat="44.35321" lon="2.56791">
        <ele>604.326</ele>
        <time>2009-01-30T19:08:02Z</time>
      </trkpt>
      <trkpt lat="44.35321" lon="2.5679">
        <ele>604.326</ele>
        <time>2009-01-30T19:08:03Z</time>
      </trkpt>
      <trkpt lat="44.35312" lon="2.56795">
        <ele>602.884</ele>
        <time>2009-01-30T19:08:06Z</time>
      </trkpt>
      <trkpt lat="44.35309" lon="2.56797">
        <ele>602.884</ele>
        <time>2009-01-30T19:08:07Z</time>
      </trkpt>
      <trkpt lat="44.35309" lon="2.56797">
        <ele>602.403</ele>
        <time>2009-01-30T19:08:08Z</time>
      </trkpt>
      <trkpt lat="44.35304" lon="2.56805">
        <ele>602.403</ele>
        <time>2009-01-30T19:08:10Z</time>
      </trkpt>
      <trkpt lat="44.35301" lon="2.56809">
        <ele>602.884</ele>
        <time>2009-01-30T19:08:11Z</time>
      </trkpt>
      <trkpt lat="44.353" lon="2.5681">
        <ele>604.807</ele>
        <time>2009-01-30T19:08:12Z</time>
      </trkpt>
      <trkpt lat="44.35299" lon="2.56811">
        <ele>605.768</ele>
        <time>2009-01-30T19:08:13Z</time>
      </trkpt>
      <trkpt lat="44.35298" lon="2.56812">
        <ele>605.768</ele>
        <time>2009-01-30T19:08:14Z</time>
      </trkpt>
      <trkpt lat="44.35306" lon="2.56797">
        <ele>605.768</ele>
        <time>2009-01-30T19:08:17Z</time>
      </trkpt>
      <trkpt lat="44.35307" lon="2.56796">
        <ele>605.287</ele>
        <time>2009-01-30T19:08:18Z</time>
      </trkpt>
      <trkpt lat="44.35307" lon="2.56794">
        <ele>605.768</ele>
        <time>2009-01-30T19:08:19Z</time>
      </trkpt>
      <trkpt lat="44.35305" lon="2.56794">
        <ele>605.768</ele>
        <time>2009-01-30T19:08:20Z</time>
      </trkpt>
      <trkpt lat="44.35305" lon="2.56795">
        <ele>606.249</ele>
        <time>2009-01-30T19:08:21Z</time>
      </trkpt>
      <trkpt lat="44.35305" lon="2.56795">
        <ele>607.691</ele>
        <time>2009-01-30T19:08:22Z</time>
      </trkpt>
      <trkpt lat="44.35305" lon="2.56797">
        <ele>608.171</ele>
        <time>2009-01-30T19:08:23Z</time>
      </trkpt>
      <trkpt lat="44.35304" lon="2.56798">
        <ele>610.094</ele>
        <time>2009-01-30T19:08:24Z</time>
      </trkpt>
      <trkpt lat="44.35305" lon="2.56797">
        <ele>611.536</ele>
        <time>2009-01-30T19:08:25Z</time>
      </trkpt>
      <trkpt lat="44.35308" lon="2.56802">
        <ele>606.729</ele>
        <time>2009-01-30T19:08:27Z</time>
      </trkpt>
      <trkpt lat="44.35307" lon="2.56806">
        <ele>607.21</ele>
        <time>2009-01-30T19:08:28Z</time>
      </trkpt>
      <trkpt lat="44.35308" lon="2.5681">
        <ele>606.249</ele>
        <time>2009-01-30T19:08:38Z</time>
      </trkpt>
      <trkpt lat="44.35308" lon="2.5681">
        <ele>606.249</ele>
        <time>2009-01-30T19:08:39Z</time>
      </trkpt>
      <trkpt lat="44.35309" lon="2.5681">
        <ele>604.807</ele>
        <time>2009-01-30T19:08:41Z</time>
      </trkpt>
      <trkpt lat="44.35308" lon="2.56811">
        <ele>603.845</ele>
        <time>2009-01-30T19:08:42Z</time>
      </trkpt>
      <trkpt lat="44.35307" lon="2.56811">
        <ele>603.845</ele>
        <time>2009-01-30T19:08:43Z</time>
      </trkpt>
      <trkpt lat="44.35307" lon="2.5681">
        <ele>603.365</ele>
        <time>2009-01-30T19:08:44Z</time>
      </trkpt>
      <trkpt lat="44.35307" lon="2.56809">
        <ele>602.884</ele>
        <time>2009-01-30T19:08:45Z</time>
      </trkpt>
      <trkpt lat="44.35307" lon="2.56809">
        <ele>602.884</ele>
        <time>2009-01-30T19:08:46Z</time>
      </trkpt>
      <trkpt lat="44.35307" lon="2.56807">
        <ele>602.884</ele>
        <time>2009-01-30T19:08:47Z</time>
      </trkpt>
      <trkpt lat="44.35307" lon="2.56806">
        <ele>602.403</ele>
        <time>2009-01-30T19:08:48Z</time>
      </trkpt>
      <trkpt lat="44.35308" lon="2.56804">
        <ele>601.923</ele>
        <time>2009-01-30T19:08:49Z</time>
      </trkpt>
      <trkpt lat="44.35308" lon="2.56802">
        <ele>601.923</ele>
        <time>2009-01-30T19:08:50Z</time>
      </trkpt>
      <trkpt lat="44.35308" lon="2.568">
        <ele>601.923</ele>
        <time>2009-01-30T19:08:51Z</time>
      </trkpt>
      <trkpt lat="44.35307" lon="2.56797">
        <ele>601.923</ele>
        <time>2009-01-30T19:08:52Z</time>
      </trkpt>
      <trkpt lat="44.35306" lon="2.56795">
        <ele>600.961</ele>
        <time>2009-01-30T19:08:53Z</time>
      </trkpt>
      <trkpt lat="44.35306" lon="2.56792">
        <ele>600.481</ele>
        <time>2009-01-30T19:08:54Z</time>
      </trkpt>
      <trkpt lat="44.35307" lon="2.56789">
        <ele>600</ele>
        <time>2009-01-30T19:08:55Z</time>
      </trkpt>
      <trkpt lat="44.35309" lon="2.56785">
        <ele>599.039</ele>
        <time>2009-01-30T19:08:56Z</time>
      </trkpt>
      <trkpt lat="44.35311" lon="2.56781">
        <ele>598.077</ele>
        <time>2009-01-30T19:08:57Z</time>
      </trkpt>
      <trkpt lat="44.35312" lon="2.56778">
        <ele>596.635</ele>
        <time>2009-01-30T19:08:58Z</time>
      </trkpt>
      <trkpt lat="44.35313" lon="2.56776">
        <ele>593.751</ele>
        <time>2009-01-30T19:08:59Z</time>
      </trkpt>
      <trkpt lat="44.35315" lon="2.56774">
        <ele>591.829</ele>
        <time>2009-01-30T19:09:00Z</time>
      </trkpt>
      <trkpt lat="44.35316" lon="2.56771">
        <ele>591.829</ele>
        <time>2009-01-30T19:09:01Z</time>
      </trkpt>
      <trkpt lat="44.35318" lon="2.56768">
        <ele>592.31</ele>
        <time>2009-01-30T19:09:02Z</time>
      </trkpt>
      <trkpt lat="44.3532" lon="2.56763">
        <ele>591.829</ele>
        <time>2009-01-30T19:09:03Z</time>
      </trkpt>
      <trkpt lat="44.35321" lon="2.5676">
        <ele>590.867</ele>
        <time>2009-01-30T19:09:04Z</time>
      </trkpt>
      <trkpt lat="44.35323" lon="2.56758">
        <ele>589.426</ele>
        <time>2009-01-30T19:09:05Z</time>
      </trkpt>
      <trkpt lat="44.35324" lon="2.56757">
        <ele>588.945</ele>
        <time>2009-01-30T19:09:06Z</time>
      </trkpt>
      <trkpt lat="44.35325" lon="2.56756">
        <ele>587.983</ele>
        <time>2009-01-30T19:09:07Z</time>
      </trkpt>
      <trkpt lat="44.35325" lon="2.56756">
        <ele>587.022</ele>
        <time>2009-01-30T19:09:08Z</time>
      </trkpt>
      <trkpt lat="44.35328" lon="2.5675">
        <ele>588.945</ele>
        <time>2009-01-30T19:09:23Z</time>
      </trkpt>
      <trkpt lat="44.35327" lon="2.5675">
        <ele>588.945</ele>
        <time>2009-01-30T19:09:24Z</time>
      </trkpt>
      <trkpt lat="44.35326" lon="2.5675">
        <ele>587.503</ele>
        <time>2009-01-30T19:09:25Z</time>
      </trkpt>
      <trkpt lat="44.35325" lon="2.56751">
        <ele>586.542</ele>
        <time>2009-01-30T19:09:26Z</time>
      </trkpt>
      <trkpt lat="44.35324" lon="2.56751">
        <ele>584.138</ele>
        <time>2009-01-30T19:09:27Z</time>
      </trkpt>
      <trkpt lat="44.35323" lon="2.56753">
        <ele>583.177</ele>
        <time>2009-01-30T19:09:28Z</time>
      </trkpt>
      <trkpt lat="44.35322" lon="2.56753">
        <ele>581.735</ele>
        <time>2009-01-30T19:09:29Z</time>
      </trkpt>
      <trkpt lat="44.35321" lon="2.56753">
        <ele>581.254</ele>
        <time>2009-01-30T19:09:30Z</time>
      </trkpt>
      <trkpt lat="44.35321" lon="2.56752">
        <ele>580.293</ele>
        <time>2009-01-30T19:09:31Z</time>
      </trkpt>
      <trkpt lat="44.35321" lon="2.56751">
        <ele>580.293</ele>
        <time>2009-01-30T19:09:32Z</time>
      </trkpt>
      <trkpt lat="44.35321" lon="2.5675">
        <ele>580.293</ele>
        <time>2009-01-30T19:09:33Z</time>
      </trkpt>
      <trkpt lat="44.35322" lon="2.56748">
        <ele>579.812</ele>
        <time>2009-01-30T19:09:34Z</time>
      </trkpt>
      <trkpt lat="44.35322" lon="2.56748">
        <ele>579.332</ele>
        <time>2009-01-30T19:09:35Z</time>
      </trkpt>
      <trkpt lat="44.35323" lon="2.56747">
        <ele>579.332</ele>
        <time>2009-01-30T19:09:36Z</time>
      </trkpt>
      <trkpt lat="44.35323" lon="2.56747">
        <ele>579.332</ele>
        <time>2009-01-30T19:09:37Z</time>
      </trkpt>
      <trkpt lat="44.35324" lon="2.56747">
        <ele>579.812</ele>
        <time>2009-01-30T19:09:38Z</time>
      </trkpt>
      <trkpt lat="44.35324" lon="2.56747">
        <ele>580.293</ele>
        <time>2009-01-30T19:09:39Z</time>
      </trkpt>
      <trkpt lat="44.35325" lon="2.56747">
        <ele>583.657</ele>
        <time>2009-01-30T19:09:42Z</time>
      </trkpt>
      <trkpt lat="44.35325" lon="2.56747">
        <ele>584.619</ele>
        <time>2009-01-30T19:09:43Z</time>
      </trkpt>
      <trkpt lat="44.35325" lon="2.56748">
        <ele>585.58</ele>
        <time>2009-01-30T19:09:44Z</time>
      </trkpt>
      <trkpt lat="44.35326" lon="2.56749">
        <ele>586.061</ele>
        <time>2009-01-30T19:09:45Z</time>
      </trkpt>
      <trkpt lat="44.35328" lon="2.56751">
        <ele>586.542</ele>
        <time>2009-01-30T19:09:46Z</time>
      </trkpt>
      <trkpt lat="44.3533" lon="2.56754">
        <ele>587.022</ele>
        <time>2009-01-30T19:09:47Z</time>
      </trkpt>
      <trkpt lat="44.35331" lon="2.56759">
        <ele>587.503</ele>
        <time>2009-01-30T19:09:48Z</time>
      </trkpt>
      <trkpt lat="44.35333" lon="2.56761">
        <ele>587.503</ele>
        <time>2009-01-30T19:09:49Z</time>
      </trkpt>
      <trkpt lat="44.35336" lon="2.56763">
        <ele>588.464</ele>
        <time>2009-01-30T19:09:50Z</time>
      </trkpt>
      <trkpt lat="44.35337" lon="2.56766">
        <ele>589.906</ele>
        <time>2009-01-30T19:09:51Z</time>
      </trkpt>
      <trkpt lat="44.35339" lon="2.56766">
        <ele>591.829</ele>
        <time>2009-01-30T19:09:52Z</time>
      </trkpt>
      <trkpt lat="44.3534" lon="2.56766">
        <ele>593.271</ele>
        <time>2009-01-30T19:09:53Z</time>
      </trkpt>
      <trkpt lat="44.35341" lon="2.56767">
        <ele>593.751</ele>
        <time>2009-01-30T19:09:54Z</time>
      </trkpt>
      <trkpt lat="44.35342" lon="2.56766">
        <ele>593.751</ele>
        <time>2009-01-30T19:09:55Z</time>
      </trkpt>
      <trkpt lat="44.35343" lon="2.56766">
        <ele>594.232</ele>
        <time>2009-01-30T19:09:56Z</time>
      </trkpt>
      <trkpt lat="44.35344" lon="2.56766">
        <ele>593.751</ele>
        <time>2009-01-30T19:09:57Z</time>
      </trkpt>
      <trkpt lat="44.35346" lon="2.56765">
        <ele>594.232</ele>
        <time>2009-01-30T19:09:58Z</time>
      </trkpt>
      <trkpt lat="44.35348" lon="2.56764">
        <ele>595.674</ele>
        <time>2009-01-30T19:09:59Z</time>
      </trkpt>
      <trkpt lat="44.35349" lon="2.56764">
        <ele>596.155</ele>
        <time>2009-01-30T19:10:00Z</time>
      </trkpt>
      <trkpt lat="44.3535" lon="2.56764">
        <ele>597.116</ele>
        <time>2009-01-30T19:10:01Z</time>
      </trkpt>
      <trkpt lat="44.35351" lon="2.56764">
        <ele>596.635</ele>
        <time>2009-01-30T19:10:02Z</time>
      </trkpt>
      <trkpt lat="44.35353" lon="2.56764">
        <ele>597.116</ele>
        <time>2009-01-30T19:10:03Z</time>
      </trkpt>
      <trkpt lat="44.35354" lon="2.56765">
        <ele>596.635</ele>
        <time>2009-01-30T19:10:04Z</time>
      </trkpt>
      <trkpt lat="44.35355" lon="2.56765">
        <ele>596.155</ele>
        <time>2009-01-30T19:10:05Z</time>
      </trkpt>
      <trkpt lat="44.35356" lon="2.56765">
        <ele>596.155</ele>
        <time>2009-01-30T19:10:06Z</time>
      </trkpt>
      <trkpt lat="44.35358" lon="2.56766">
        <ele>593.751</ele>
        <time>2009-01-30T19:10:07Z</time>
      </trkpt>
      <trkpt lat="44.35359" lon="2.56766">
        <ele>592.31</ele>
        <time>2009-01-30T19:10:08Z</time>
      </trkpt>
      <trkpt lat="44.3536" lon="2.56767">
        <ele>589.906</ele>
        <time>2009-01-30T19:10:09Z</time>
      </trkpt>
      <trkpt lat="44.35361" lon="2.56767">
        <ele>588.464</ele>
        <time>2009-01-30T19:10:10Z</time>
      </trkpt>
      <trkpt lat="44.35363" lon="2.56766">
        <ele>587.022</ele>
        <time>2009-01-30T19:10:11Z</time>
      </trkpt>
      <trkpt lat="44.35364" lon="2.56765">
        <ele>586.542</ele>
        <time>2009-01-30T19:10:12Z</time>
      </trkpt>
      <trkpt lat="44.35366" lon="2.56763">
        <ele>586.061</ele>
        <time>2009-01-30T19:10:13Z</time>
      </trkpt>
      <trkpt lat="44.35368" lon="2.56761">
        <ele>585.58</ele>
        <time>2009-01-30T19:10:14Z</time>
      </trkpt>
      <trkpt lat="44.3537" lon="2.56758">
        <ele>585.1</ele>
        <time>2009-01-30T19:10:15Z</time>
      </trkpt>
      <trkpt lat="44.35372" lon="2.56756">
        <ele>584.138</ele>
        <time>2009-01-30T19:10:16Z</time>
      </trkpt>
      <trkpt lat="44.35374" lon="2.56754">
        <ele>583.657</ele>
        <time>2009-01-30T19:10:17Z</time>
      </trkpt>
      <trkpt lat="44.35376" lon="2.56753">
        <ele>582.696</ele>
        <time>2009-01-30T19:10:18Z</time>
      </trkpt>
      <trkpt lat="44.35379" lon="2.56751">
        <ele>582.216</ele>
        <time>2009-01-30T19:10:19Z</time>
      </trkpt>
      <trkpt lat="44.35381" lon="2.56749">
        <ele>581.254</ele>
        <time>2009-01-30T19:10:20Z</time>
      </trkpt>
      <trkpt lat="44.35383" lon="2.56747">
        <ele>580.293</ele>
        <time>2009-01-30T19:10:21Z</time>
      </trkpt>
      <trkpt lat="44.35385" lon="2.56746">
        <ele>578.851</ele>
        <time>2009-01-30T19:10:22Z</time>
      </trkpt>
      <trkpt lat="44.35386" lon="2.56745">
        <ele>578.37</ele>
        <time>2009-01-30T19:10:23Z</time>
      </trkpt>
      <trkpt lat="44.35387" lon="2.56744">
        <ele>578.37</ele>
        <time>2009-01-30T19:10:24Z</time>
      </trkpt>
      <trkpt lat="44.35388" lon="2.56743">
        <ele>577.89</ele>
        <time>2009-01-30T19:10:25Z</time>
      </trkpt>
      <trkpt lat="44.35388" lon="2.56741">
        <ele>577.409</ele>
        <time>2009-01-30T19:10:26Z</time>
      </trkpt>
      <trkpt lat="44.35389" lon="2.56739">
        <ele>576.928</ele>
        <time>2009-01-30T19:10:27Z</time>
      </trkpt>
      <trkpt lat="44.35389" lon="2.56737">
        <ele>576.928</ele>
        <time>2009-01-30T19:10:28Z</time>
      </trkpt>
      <trkpt lat="44.35389" lon="2.56736">
        <ele>577.409</ele>
        <time>2009-01-30T19:10:29Z</time>
      </trkpt>
      <trkpt lat="44.3539" lon="2.56734">
        <ele>577.409</ele>
        <time>2009-01-30T19:10:30Z</time>
      </trkpt>
      <trkpt lat="44.35391" lon="2.56732">
        <ele>577.409</ele>
        <time>2009-01-30T19:10:31Z</time>
      </trkpt>
      <trkpt lat="44.35392" lon="2.56731">
        <ele>576.448</ele>
        <time>2009-01-30T19:10:32Z</time>
      </trkpt>
      <trkpt lat="44.35393" lon="2.56729">
        <ele>575.486</ele>
        <time>2009-01-30T19:10:33Z</time>
      </trkpt>
      <trkpt lat="44.35394" lon="2.56727">
        <ele>574.044</ele>
        <time>2009-01-30T19:10:34Z</time>
      </trkpt>
      <trkpt lat="44.35396" lon="2.56725">
        <ele>573.083</ele>
        <time>2009-01-30T19:10:35Z</time>
      </trkpt>
      <trkpt lat="44.35398" lon="2.56723">
        <ele>572.122</ele>
        <time>2009-01-30T19:10:36Z</time>
      </trkpt>
      <trkpt lat="44.354" lon="2.5672">
        <ele>571.16</ele>
        <time>2009-01-30T19:10:37Z</time>
      </trkpt>
      <trkpt lat="44.35401" lon="2.56717">
        <ele>570.199</ele>
        <time>2009-01-30T19:10:38Z</time>
      </trkpt>
      <trkpt lat="44.35402" lon="2.56715">
        <ele>569.238</ele>
        <time>2009-01-30T19:10:39Z</time>
      </trkpt>
      <trkpt lat="44.35404" lon="2.56713">
        <ele>571.16</ele>
        <time>2009-01-30T19:10:40Z</time>
      </trkpt>
      <trkpt lat="44.35405" lon="2.5671">
        <ele>571.16</ele>
        <time>2009-01-30T19:10:41Z</time>
      </trkpt>
      <trkpt lat="44.35406" lon="2.56707">
        <ele>571.641</ele>
        <time>2009-01-30T19:10:42Z</time>
      </trkpt>
      <trkpt lat="44.35408" lon="2.56703">
        <ele>571.641</ele>
        <time>2009-01-30T19:10:43Z</time>
      </trkpt>
      <trkpt lat="44.35411" lon="2.56699">
        <ele>572.603</ele>
        <time>2009-01-30T19:10:44Z</time>
      </trkpt>
      <trkpt lat="44.35413" lon="2.56696">
        <ele>572.122</ele>
        <time>2009-01-30T19:10:45Z</time>
      </trkpt>
      <trkpt lat="44.35415" lon="2.56693">
        <ele>572.122</ele>
        <time>2009-01-30T19:10:46Z</time>
      </trkpt>
      <trkpt lat="44.35417" lon="2.56691">
        <ele>571.641</ele>
        <time>2009-01-30T19:10:47Z</time>
      </trkpt>
      <trkpt lat="44.35419" lon="2.56689">
        <ele>570.199</ele>
        <time>2009-01-30T19:10:48Z</time>
      </trkpt>
      <trkpt lat="44.3542" lon="2.56687">
        <ele>569.238</ele>
        <time>2009-01-30T19:10:49Z</time>
      </trkpt>
      <trkpt lat="44.35422" lon="2.56685">
        <ele>569.238</ele>
        <time>2009-01-30T19:10:50Z</time>
      </trkpt>
      <trkpt lat="44.35423" lon="2.56682">
        <ele>569.238</ele>
        <time>2009-01-30T19:10:51Z</time>
      </trkpt>
      <trkpt lat="44.35425" lon="2.56679">
        <ele>568.757</ele>
        <time>2009-01-30T19:10:52Z</time>
      </trkpt>
      <trkpt lat="44.35426" lon="2.56676">
        <ele>568.276</ele>
        <time>2009-01-30T19:10:53Z</time>
      </trkpt>
      <trkpt lat="44.35427" lon="2.56673">
        <ele>568.276</ele>
        <time>2009-01-30T19:10:54Z</time>
      </trkpt>
      <trkpt lat="44.35429" lon="2.5667">
        <ele>567.796</ele>
        <time>2009-01-30T19:10:55Z</time>
      </trkpt>
      <trkpt lat="44.3543" lon="2.56668">
        <ele>567.796</ele>
        <time>2009-01-30T19:10:56Z</time>
      </trkpt>
      <trkpt lat="44.3543" lon="2.56666">
        <ele>567.796</ele>
        <time>2009-01-30T19:10:57Z</time>
      </trkpt>
      <trkpt lat="44.3543" lon="2.56664">
        <ele>567.315</ele>
        <time>2009-01-30T19:10:58Z</time>
      </trkpt>
      <trkpt lat="44.3543" lon="2.56663">
        <ele>566.354</ele>
        <time>2009-01-30T19:10:59Z</time>
      </trkpt>
      <trkpt lat="44.35429" lon="2.56662">
        <ele>566.834</ele>
        <time>2009-01-30T19:11:00Z</time>
      </trkpt>
      <trkpt lat="44.35429" lon="2.56662">
        <ele>566.834</ele>
        <time>2009-01-30T19:11:01Z</time>
      </trkpt>
      <trkpt lat="44.35429" lon="2.56662">
        <ele>567.796</ele>
        <time>2009-01-30T19:11:05Z</time>
      </trkpt>
      <trkpt lat="44.35429" lon="2.56663">
        <ele>567.796</ele>
        <time>2009-01-30T19:11:06Z</time>
      </trkpt>
      <trkpt lat="44.3543" lon="2.56664">
        <ele>568.276</ele>
        <time>2009-01-30T19:11:07Z</time>
      </trkpt>
      <trkpt lat="44.35431" lon="2.56665">
        <ele>568.757</ele>
        <time>2009-01-30T19:11:08Z</time>
      </trkpt>
      <trkpt lat="44.35432" lon="2.56666">
        <ele>569.238</ele>
        <time>2009-01-30T19:11:09Z</time>
      </trkpt>
      <trkpt lat="44.35433" lon="2.56666">
        <ele>570.68</ele>
        <time>2009-01-30T19:11:11Z</time>
      </trkpt>
      <trkpt lat="44.35433" lon="2.56666">
        <ele>571.16</ele>
        <time>2009-01-30T19:11:12Z</time>
      </trkpt>
      <trkpt lat="44.35434" lon="2.56666">
        <ele>571.641</ele>
        <time>2009-01-30T19:11:13Z</time>
      </trkpt>
      <trkpt lat="44.35435" lon="2.56665">
        <ele>570.68</ele>
        <time>2009-01-30T19:11:21Z</time>
      </trkpt>
      <trkpt lat="44.35435" lon="2.56664">
        <ele>571.641</ele>
        <time>2009-01-30T19:11:22Z</time>
      </trkpt>
      <trkpt lat="44.35436" lon="2.56664">
        <ele>572.122</ele>
        <time>2009-01-30T19:11:23Z</time>
      </trkpt>
      <trkpt lat="44.35436" lon="2.56664">
        <ele>571.641</ele>
        <time>2009-01-30T19:11:24Z</time>
      </trkpt>
      <trkpt lat="44.35436" lon="2.56665">
        <ele>571.641</ele>
        <time>2009-01-30T19:11:25Z</time>
      </trkpt>
      <trkpt lat="44.35436" lon="2.56666">
        <ele>571.641</ele>
        <time>2009-01-30T19:11:28Z</time>
      </trkpt>
      <trkpt lat="44.35437" lon="2.56666">
        <ele>571.641</ele>
        <time>2009-01-30T19:11:29Z</time>
      </trkpt>
      <trkpt lat="44.35437" lon="2.56666">
        <ele>571.641</ele>
        <time>2009-01-30T19:11:30Z</time>
      </trkpt>
      <trkpt lat="44.35437" lon="2.56665">
        <ele>571.16</ele>
        <time>2009-01-30T19:11:31Z</time>
      </trkpt>
      <trkpt lat="44.35438" lon="2.56665">
        <ele>570.68</ele>
        <time>2009-01-30T19:11:32Z</time>
      </trkpt>
      <trkpt lat="44.35438" lon="2.56665">
        <ele>570.199</ele>
        <time>2009-01-30T19:11:33Z</time>
      </trkpt>
      <trkpt lat="44.3544" lon="2.56664">
        <ele>570.68</ele>
        <time>2009-01-30T19:11:34Z</time>
      </trkpt>
      <trkpt lat="44.35441" lon="2.56663">
        <ele>571.16</ele>
        <time>2009-01-30T19:11:35Z</time>
      </trkpt>
      <trkpt lat="44.35442" lon="2.56662">
        <ele>571.16</ele>
        <time>2009-01-30T19:11:36Z</time>
      </trkpt>
      <trkpt lat="44.35442" lon="2.56662">
        <ele>570.199</ele>
        <time>2009-01-30T19:11:37Z</time>
      </trkpt>
      <trkpt lat="44.35443" lon="2.56661">
        <ele>570.199</ele>
        <time>2009-01-30T19:11:38Z</time>
      </trkpt>
      <trkpt lat="44.35443" lon="2.5666">
        <ele>570.199</ele>
        <time>2009-01-30T19:11:39Z</time>
      </trkpt>
      <trkpt lat="44.35444" lon="2.56659">
        <ele>569.719</ele>
        <time>2009-01-30T19:11:40Z</time>
      </trkpt>
      <trkpt lat="44.35444" lon="2.56658">
        <ele>569.719</ele>
        <time>2009-01-30T19:11:41Z</time>
      </trkpt>
      <trkpt lat="44.35445" lon="2.56658">
        <ele>567.796</ele>
        <time>2009-01-30T19:11:42Z</time>
      </trkpt>
      <trkpt lat="44.35445" lon="2.56657">
        <ele>566.834</ele>
        <time>2009-01-30T19:11:43Z</time>
      </trkpt>
      <trkpt lat="44.35446" lon="2.56655">
        <ele>565.873</ele>
        <time>2009-01-30T19:11:44Z</time>
      </trkpt>
      <trkpt lat="44.35448" lon="2.56652">
        <ele>565.873</ele>
        <time>2009-01-30T19:11:45Z</time>
      </trkpt>
      <trkpt lat="44.3545" lon="2.5665">
        <ele>565.393</ele>
        <time>2009-01-30T19:11:46Z</time>
      </trkpt>
      <trkpt lat="44.35451" lon="2.56647">
        <ele>564.912</ele>
        <time>2009-01-30T19:11:47Z</time>
      </trkpt>
      <trkpt lat="44.35453" lon="2.56645">
        <ele>563.95</ele>
        <time>2009-01-30T19:11:48Z</time>
      </trkpt>
      <trkpt lat="44.35454" lon="2.56643">
        <ele>563.47</ele>
        <time>2009-01-30T19:11:49Z</time>
      </trkpt>
      <trkpt lat="44.35456" lon="2.56641">
        <ele>563.95</ele>
        <time>2009-01-30T19:11:50Z</time>
      </trkpt>
      <trkpt lat="44.35457" lon="2.56638">
        <ele>563.95</ele>
        <time>2009-01-30T19:11:51Z</time>
      </trkpt>
      <trkpt lat="44.35459" lon="2.56635">
        <ele>563.47</ele>
        <time>2009-01-30T19:11:52Z</time>
      </trkpt>
      <trkpt lat="44.3546" lon="2.56632">
        <ele>563.47</ele>
        <time>2009-01-30T19:11:53Z</time>
      </trkpt>
      <trkpt lat="44.35462" lon="2.56628">
        <ele>562.028</ele>
        <time>2009-01-30T19:11:54Z</time>
      </trkpt>
      <trkpt lat="44.35465" lon="2.56625">
        <ele>561.547</ele>
        <time>2009-01-30T19:11:55Z</time>
      </trkpt>
      <trkpt lat="44.35467" lon="2.56621">
        <ele>560.586</ele>
        <time>2009-01-30T19:11:56Z</time>
      </trkpt>
      <trkpt lat="44.35469" lon="2.56618">
        <ele>559.625</ele>
        <time>2009-01-30T19:11:57Z</time>
      </trkpt>
      <trkpt lat="44.35471" lon="2.56615">
        <ele>559.144</ele>
        <time>2009-01-30T19:11:58Z</time>
      </trkpt>
      <trkpt lat="44.35473" lon="2.56612">
        <ele>558.663</ele>
        <time>2009-01-30T19:11:59Z</time>
      </trkpt>
      <trkpt lat="44.35475" lon="2.56609">
        <ele>558.183</ele>
        <time>2009-01-30T19:12:00Z</time>
      </trkpt>
      <trkpt lat="44.35477" lon="2.56607">
        <ele>557.702</ele>
        <time>2009-01-30T19:12:01Z</time>
      </trkpt>
      <trkpt lat="44.35478" lon="2.56605">
        <ele>556.741</ele>
        <time>2009-01-30T19:12:02Z</time>
      </trkpt>
      <trkpt lat="44.35479" lon="2.56604">
        <ele>556.741</ele>
        <time>2009-01-30T19:12:03Z</time>
      </trkpt>
      <trkpt lat="44.3548" lon="2.56604">
        <ele>556.26</ele>
        <time>2009-01-30T19:12:04Z</time>
      </trkpt>
      <trkpt lat="44.35482" lon="2.56603">
        <ele>556.26</ele>
        <time>2009-01-30T19:12:05Z</time>
      </trkpt>
      <trkpt lat="44.35484" lon="2.56604">
        <ele>556.26</ele>
        <time>2009-01-30T19:12:06Z</time>
      </trkpt>
      <trkpt lat="44.35486" lon="2.56606">
        <ele>556.26</ele>
        <time>2009-01-30T19:12:07Z</time>
      </trkpt>
      <trkpt lat="44.35489" lon="2.56608">
        <ele>556.26</ele>
        <time>2009-01-30T19:12:08Z</time>
      </trkpt>
      <trkpt lat="44.35491" lon="2.5661">
        <ele>556.26</ele>
        <time>2009-01-30T19:12:09Z</time>
      </trkpt>
      <trkpt lat="44.35494" lon="2.56612">
        <ele>557.221</ele>
        <time>2009-01-30T19:12:10Z</time>
      </trkpt>
      <trkpt lat="44.35496" lon="2.56614">
        <ele>557.702</ele>
        <time>2009-01-30T19:12:11Z</time>
      </trkpt>
      <trkpt lat="44.35498" lon="2.56615">
        <ele>557.702</ele>
        <time>2009-01-30T19:12:12Z</time>
      </trkpt>
      <trkpt lat="44.35501" lon="2.56617">
        <ele>557.702</ele>
        <time>2009-01-30T19:12:13Z</time>
      </trkpt>
      <trkpt lat="44.35504" lon="2.56618">
        <ele>557.702</ele>
        <time>2009-01-30T19:12:14Z</time>
      </trkpt>
      <trkpt lat="44.35506" lon="2.5662">
        <ele>557.221</ele>
        <time>2009-01-30T19:12:15Z</time>
      </trkpt>
      <trkpt lat="44.35508" lon="2.56622">
        <ele>556.741</ele>
        <time>2009-01-30T19:12:16Z</time>
      </trkpt>
      <trkpt lat="44.3551" lon="2.56624">
        <ele>557.221</ele>
        <time>2009-01-30T19:12:17Z</time>
      </trkpt>
      <trkpt lat="44.35512" lon="2.56626">
        <ele>557.702</ele>
        <time>2009-01-30T19:12:18Z</time>
      </trkpt>
      <trkpt lat="44.35515" lon="2.56627">
        <ele>557.221</ele>
        <time>2009-01-30T19:12:19Z</time>
      </trkpt>
      <trkpt lat="44.35517" lon="2.56629">
        <ele>557.702</ele>
        <time>2009-01-30T19:12:20Z</time>
      </trkpt>
      <trkpt lat="44.35519" lon="2.56632">
        <ele>559.144</ele>
        <time>2009-01-30T19:12:21Z</time>
      </trkpt>
      <trkpt lat="44.35522" lon="2.56634">
        <ele>560.586</ele>
        <time>2009-01-30T19:12:22Z</time>
      </trkpt>
      <trkpt lat="44.35524" lon="2.56636">
        <ele>561.067</ele>
        <time>2009-01-30T19:12:23Z</time>
      </trkpt>
      <trkpt lat="44.35527" lon="2.56638">
        <ele>561.547</ele>
        <time>2009-01-30T19:12:24Z</time>
      </trkpt>
      <trkpt lat="44.35529" lon="2.5664">
        <ele>561.547</ele>
        <time>2009-01-30T19:12:25Z</time>
      </trkpt>
      <trkpt lat="44.35532" lon="2.56642">
        <ele>561.547</ele>
        <time>2009-01-30T19:12:26Z</time>
      </trkpt>
      <trkpt lat="44.35534" lon="2.56644">
        <ele>562.509</ele>
        <time>2009-01-30T19:12:27Z</time>
      </trkpt>
      <trkpt lat="44.35537" lon="2.56645">
        <ele>563.95</ele>
        <time>2009-01-30T19:12:28Z</time>
      </trkpt>
      <trkpt lat="44.3554" lon="2.56647">
        <ele>564.431</ele>
        <time>2009-01-30T19:12:29Z</time>
      </trkpt>
      <trkpt lat="44.35542" lon="2.56649">
        <ele>563.95</ele>
        <time>2009-01-30T19:12:30Z</time>
      </trkpt>
      <trkpt lat="44.35545" lon="2.56649">
        <ele>566.354</ele>
        <time>2009-01-30T19:12:31Z</time>
      </trkpt>
      <trkpt lat="44.35548" lon="2.56647">
        <ele>568.276</ele>
        <time>2009-01-30T19:12:32Z</time>
      </trkpt>
      <trkpt lat="44.3555" lon="2.56646">
        <ele>568.276</ele>
        <time>2009-01-30T19:12:33Z</time>
      </trkpt>
      <trkpt lat="44.3555" lon="2.56644">
        <ele>568.276</ele>
        <time>2009-01-30T19:12:34Z</time>
      </trkpt>
      <trkpt lat="44.3555" lon="2.56643">
        <ele>568.276</ele>
        <time>2009-01-30T19:12:35Z</time>
      </trkpt>
      <trkpt lat="44.3555" lon="2.56643">
        <ele>568.276</ele>
        <time>2009-01-30T19:12:36Z</time>
      </trkpt>
      <trkpt lat="44.35552" lon="2.56643">
        <ele>571.641</ele>
        <time>2009-01-30T19:12:39Z</time>
      </trkpt>
      <trkpt lat="44.35553" lon="2.56644">
        <ele>573.083</ele>
        <time>2009-01-30T19:12:40Z</time>
      </trkpt>
      <trkpt lat="44.35553" lon="2.56644">
        <ele>575.006</ele>
        <time>2009-01-30T19:12:41Z</time>
      </trkpt>
      <trkpt lat="44.35553" lon="2.56643">
        <ele>575.006</ele>
        <time>2009-01-30T19:12:42Z</time>
      </trkpt>
      <trkpt lat="44.35553" lon="2.56642">
        <ele>574.044</ele>
        <time>2009-01-30T19:12:43Z</time>
      </trkpt>
      <trkpt lat="44.35554" lon="2.56641">
        <ele>574.044</ele>
        <time>2009-01-30T19:12:44Z</time>
      </trkpt>
      <trkpt lat="44.35556" lon="2.56638">
        <ele>575.967</ele>
        <time>2009-01-30T19:12:45Z</time>
      </trkpt>
      <trkpt lat="44.35559" lon="2.56636">
        <ele>578.851</ele>
        <time>2009-01-30T19:12:46Z</time>
      </trkpt>
      <trkpt lat="44.3556" lon="2.56636">
        <ele>579.812</ele>
        <time>2009-01-30T19:12:47Z</time>
      </trkpt>
      <trkpt lat="44.35563" lon="2.56635">
        <ele>579.812</ele>
        <time>2009-01-30T19:12:48Z</time>
      </trkpt>
      <trkpt lat="44.35567" lon="2.56634">
        <ele>581.254</ele>
        <time>2009-01-30T19:12:49Z</time>
      </trkpt>
      <trkpt lat="44.3557" lon="2.56634">
        <ele>579.812</ele>
        <time>2009-01-30T19:12:50Z</time>
      </trkpt>
      <trkpt lat="44.35572" lon="2.56634">
        <ele>576.928</ele>
        <time>2009-01-30T19:12:51Z</time>
      </trkpt>
      <trkpt lat="44.35576" lon="2.56634">
        <ele>575.006</ele>
        <time>2009-01-30T19:12:52Z</time>
      </trkpt>
      <trkpt lat="44.35579" lon="2.56632">
        <ele>574.525</ele>
        <time>2009-01-30T19:12:53Z</time>
      </trkpt>
      <trkpt lat="44.35582" lon="2.56631">
        <ele>573.083</ele>
        <time>2009-01-30T19:12:54Z</time>
      </trkpt>
      <trkpt lat="44.35585" lon="2.5663">
        <ele>571.641</ele>
        <time>2009-01-30T19:12:55Z</time>
      </trkpt>
      <trkpt lat="44.35587" lon="2.56628">
        <ele>569.719</ele>
        <time>2009-01-30T19:12:56Z</time>
      </trkpt>
      <trkpt lat="44.35589" lon="2.56627">
        <ele>568.276</ele>
        <time>2009-01-30T19:12:57Z</time>
      </trkpt>
      <trkpt lat="44.35592" lon="2.56626">
        <ele>566.354</ele>
        <time>2009-01-30T19:12:58Z</time>
      </trkpt>
      <trkpt lat="44.35594" lon="2.56625">
        <ele>564.912</ele>
        <time>2009-01-30T19:12:59Z</time>
      </trkpt>
      <trkpt lat="44.35597" lon="2.56625">
        <ele>563.95</ele>
        <time>2009-01-30T19:13:00Z</time>
      </trkpt>
      <trkpt lat="44.35599" lon="2.56625">
        <ele>563.95</ele>
        <time>2009-01-30T19:13:01Z</time>
      </trkpt>
      <trkpt lat="44.35601" lon="2.56624">
        <ele>564.431</ele>
        <time>2009-01-30T19:13:02Z</time>
      </trkpt>
      <trkpt lat="44.35603" lon="2.56623">
        <ele>563.47</ele>
        <time>2009-01-30T19:13:03Z</time>
      </trkpt>
      <trkpt lat="44.35606" lon="2.56622">
        <ele>562.509</ele>
        <time>2009-01-30T19:13:04Z</time>
      </trkpt>
      <trkpt lat="44.35609" lon="2.56622">
        <ele>561.067</ele>
        <time>2009-01-30T19:13:05Z</time>
      </trkpt>
      <trkpt lat="44.3561" lon="2.56623">
        <ele>560.105</ele>
        <time>2009-01-30T19:13:06Z</time>
      </trkpt>
      <trkpt lat="44.35613" lon="2.56622">
        <ele>559.144</ele>
        <time>2009-01-30T19:13:07Z</time>
      </trkpt>
      <trkpt lat="44.35615" lon="2.56622">
        <ele>556.26</ele>
        <time>2009-01-30T19:13:08Z</time>
      </trkpt>
      <trkpt lat="44.35617" lon="2.56621">
        <ele>554.337</ele>
        <time>2009-01-30T19:13:09Z</time>
      </trkpt>
      <trkpt lat="44.35619" lon="2.5662">
        <ele>552.415</ele>
        <time>2009-01-30T19:13:10Z</time>
      </trkpt>
      <trkpt lat="44.35622" lon="2.5662">
        <ele>551.934</ele>
        <time>2009-01-30T19:13:11Z</time>
      </trkpt>
      <trkpt lat="44.35625" lon="2.5662">
        <ele>550.492</ele>
        <time>2009-01-30T19:13:12Z</time>
      </trkpt>
      <trkpt lat="44.35628" lon="2.56619">
        <ele>548.569</ele>
        <time>2009-01-30T19:13:13Z</time>
      </trkpt>
      <trkpt lat="44.3563" lon="2.56619">
        <ele>547.127</ele>
        <time>2009-01-30T19:13:14Z</time>
      </trkpt>
      <trkpt lat="44.35632" lon="2.56619">
        <ele>546.166</ele>
        <time>2009-01-30T19:13:15Z</time>
      </trkpt>
      <trkpt lat="44.35635" lon="2.56619">
        <ele>545.205</ele>
        <time>2009-01-30T19:13:16Z</time>
      </trkpt>
      <trkpt lat="44.35637" lon="2.56618">
        <ele>544.244</ele>
        <time>2009-01-30T19:13:17Z</time>
      </trkpt>
      <trkpt lat="44.35639" lon="2.56617">
        <ele>543.282</ele>
        <time>2009-01-30T19:13:18Z</time>
      </trkpt>
      <trkpt lat="44.35641" lon="2.56617">
        <ele>541.84</ele>
        <time>2009-01-30T19:13:19Z</time>
      </trkpt>
      <trkpt lat="44.35643" lon="2.56616">
        <ele>541.84</ele>
        <time>2009-01-30T19:13:20Z</time>
      </trkpt>
      <trkpt lat="44.35645" lon="2.56615">
        <ele>541.359</ele>
        <time>2009-01-30T19:13:21Z</time>
      </trkpt>
      <trkpt lat="44.35647" lon="2.56616">
        <ele>539.918</ele>
        <time>2009-01-30T19:13:22Z</time>
      </trkpt>
      <trkpt lat="44.35649" lon="2.56616">
        <ele>538.956</ele>
        <time>2009-01-30T19:13:23Z</time>
      </trkpt>
      <trkpt lat="44.35652" lon="2.56616">
        <ele>538.476</ele>
        <time>2009-01-30T19:13:24Z</time>
      </trkpt>
      <trkpt lat="44.35655" lon="2.56617">
        <ele>537.034</ele>
        <time>2009-01-30T19:13:25Z</time>
      </trkpt>
      <trkpt lat="44.35657" lon="2.56617">
        <ele>537.034</ele>
        <time>2009-01-30T19:13:26Z</time>
      </trkpt>
      <trkpt lat="44.35659" lon="2.56617">
        <ele>536.072</ele>
        <time>2009-01-30T19:13:27Z</time>
      </trkpt>
      <trkpt lat="44.35662" lon="2.56617">
        <ele>535.592</ele>
        <time>2009-01-30T19:13:28Z</time>
      </trkpt>
      <trkpt lat="44.35664" lon="2.56616">
        <ele>535.111</ele>
        <time>2009-01-30T19:13:29Z</time>
      </trkpt>
      <trkpt lat="44.35666" lon="2.56617">
        <ele>534.63</ele>
        <time>2009-01-30T19:13:30Z</time>
      </trkpt>
      <trkpt lat="44.35668" lon="2.56617">
        <ele>534.15</ele>
        <time>2009-01-30T19:13:31Z</time>
      </trkpt>
      <trkpt lat="44.3567" lon="2.56616">
        <ele>532.708</ele>
        <time>2009-01-30T19:13:32Z</time>
      </trkpt>
      <trkpt lat="44.35673" lon="2.56616">
        <ele>531.266</ele>
        <time>2009-01-30T19:13:33Z</time>
      </trkpt>
      <trkpt lat="44.35676" lon="2.56615">
        <ele>530.785</ele>
        <time>2009-01-30T19:13:34Z</time>
      </trkpt>
      <trkpt lat="44.35678" lon="2.56614">
        <ele>531.746</ele>
        <time>2009-01-30T19:13:35Z</time>
      </trkpt>
      <trkpt lat="44.3568" lon="2.56613">
        <ele>531.266</ele>
        <time>2009-01-30T19:13:36Z</time>
      </trkpt>
      <trkpt lat="44.35683" lon="2.56613">
        <ele>531.746</ele>
        <time>2009-01-30T19:13:37Z</time>
      </trkpt>
      <trkpt lat="44.35685" lon="2.56612">
        <ele>531.746</ele>
        <time>2009-01-30T19:13:38Z</time>
      </trkpt>
      <trkpt lat="44.35687" lon="2.56611">
        <ele>530.304</ele>
        <time>2009-01-30T19:13:39Z</time>
      </trkpt>
      <trkpt lat="44.3569" lon="2.56611">
        <ele>529.343</ele>
        <time>2009-01-30T19:13:40Z</time>
      </trkpt>
      <trkpt lat="44.35691" lon="2.56611">
        <ele>528.382</ele>
        <time>2009-01-30T19:13:41Z</time>
      </trkpt>
      <trkpt lat="44.35694" lon="2.56611">
        <ele>526.94</ele>
        <time>2009-01-30T19:13:42Z</time>
      </trkpt>
      <trkpt lat="44.35695" lon="2.56611">
        <ele>525.498</ele>
        <time>2009-01-30T19:13:43Z</time>
      </trkpt>
      <trkpt lat="44.35698" lon="2.56611">
        <ele>525.017</ele>
        <time>2009-01-30T19:13:44Z</time>
      </trkpt>
      <trkpt lat="44.35699" lon="2.5661">
        <ele>524.536</ele>
        <time>2009-01-30T19:13:45Z</time>
      </trkpt>
      <trkpt lat="44.35701" lon="2.5661">
        <ele>523.575</ele>
        <time>2009-01-30T19:13:46Z</time>
      </trkpt>
      <trkpt lat="44.35703" lon="2.56609">
        <ele>522.614</ele>
        <time>2009-01-30T19:13:47Z</time>
      </trkpt>
      <trkpt lat="44.35704" lon="2.56609">
        <ele>521.653</ele>
        <time>2009-01-30T19:13:48Z</time>
      </trkpt>
      <trkpt lat="44.35705" lon="2.56609">
        <ele>520.211</ele>
        <time>2009-01-30T19:13:49Z</time>
      </trkpt>
      <trkpt lat="44.35707" lon="2.56608">
        <ele>519.249</ele>
        <time>2009-01-30T19:13:50Z</time>
      </trkpt>
      <trkpt lat="44.35709" lon="2.56607">
        <ele>521.653</ele>
        <time>2009-01-30T19:13:51Z</time>
      </trkpt>
      <trkpt lat="44.35711" lon="2.56605">
        <ele>523.575</ele>
        <time>2009-01-30T19:13:52Z</time>
      </trkpt>
      <trkpt lat="44.35713" lon="2.56603">
        <ele>524.056</ele>
        <time>2009-01-30T19:13:53Z</time>
      </trkpt>
      <trkpt lat="44.35714" lon="2.56601">
        <ele>524.056</ele>
        <time>2009-01-30T19:13:54Z</time>
      </trkpt>
      <trkpt lat="44.35716" lon="2.56599">
        <ele>525.017</ele>
        <time>2009-01-30T19:13:55Z</time>
      </trkpt>
      <trkpt lat="44.35717" lon="2.56597">
        <ele>525.498</ele>
        <time>2009-01-30T19:13:56Z</time>
      </trkpt>
      <trkpt lat="44.35719" lon="2.56595">
        <ele>526.94</ele>
        <time>2009-01-30T19:13:57Z</time>
      </trkpt>
      <trkpt lat="44.3572" lon="2.56594">
        <ele>525.498</ele>
        <time>2009-01-30T19:13:58Z</time>
      </trkpt>
      <trkpt lat="44.35721" lon="2.56592">
        <ele>526.459</ele>
        <time>2009-01-30T19:13:59Z</time>
      </trkpt>
      <trkpt lat="44.35722" lon="2.56591">
        <ele>526.459</ele>
        <time>2009-01-30T19:14:00Z</time>
      </trkpt>
      <trkpt lat="44.35722" lon="2.56589">
        <ele>525.017</ele>
        <time>2009-01-30T19:14:01Z</time>
      </trkpt>
      <trkpt lat="44.35723" lon="2.56587">
        <ele>524.056</ele>
        <time>2009-01-30T19:14:02Z</time>
      </trkpt>
      <trkpt lat="44.35724" lon="2.56586">
        <ele>523.575</ele>
        <time>2009-01-30T19:14:03Z</time>
      </trkpt>
      <trkpt lat="44.35726" lon="2.56584">
        <ele>522.133</ele>
        <time>2009-01-30T19:14:04Z</time>
      </trkpt>
      <trkpt lat="44.35728" lon="2.56583">
        <ele>521.653</ele>
        <time>2009-01-30T19:14:05Z</time>
      </trkpt>
      <trkpt lat="44.35729" lon="2.56581">
        <ele>520.211</ele>
        <time>2009-01-30T19:14:06Z</time>
      </trkpt>
      <trkpt lat="44.3573" lon="2.56579">
        <ele>520.211</ele>
        <time>2009-01-30T19:14:07Z</time>
      </trkpt>
      <trkpt lat="44.35732" lon="2.56578">
        <ele>518.769</ele>
        <time>2009-01-30T19:14:08Z</time>
      </trkpt>
      <trkpt lat="44.35733" lon="2.56576">
        <ele>518.288</ele>
        <time>2009-01-30T19:14:09Z</time>
      </trkpt>
      <trkpt lat="44.35735" lon="2.56575">
        <ele>517.327</ele>
        <time>2009-01-30T19:14:10Z</time>
      </trkpt>
      <trkpt lat="44.35737" lon="2.56574">
        <ele>516.365</ele>
        <time>2009-01-30T19:14:11Z</time>
      </trkpt>
      <trkpt lat="44.3574" lon="2.56573">
        <ele>514.923</ele>
        <time>2009-01-30T19:14:12Z</time>
      </trkpt>
      <trkpt lat="44.35744" lon="2.56571">
        <ele>513.962</ele>
        <time>2009-01-30T19:14:13Z</time>
      </trkpt>
      <trkpt lat="44.35746" lon="2.5657">
        <ele>512.039</ele>
        <time>2009-01-30T19:14:14Z</time>
      </trkpt>
      <trkpt lat="44.35749" lon="2.56568">
        <ele>510.117</ele>
        <time>2009-01-30T19:14:15Z</time>
      </trkpt>
      <trkpt lat="44.35752" lon="2.56567">
        <ele>509.155</ele>
        <time>2009-01-30T19:14:16Z</time>
      </trkpt>
      <trkpt lat="44.35754" lon="2.56567">
        <ele>507.233</ele>
        <time>2009-01-30T19:14:17Z</time>
      </trkpt>
      <trkpt lat="44.35757" lon="2.56565">
        <ele>506.271</ele>
        <time>2009-01-30T19:14:18Z</time>
      </trkpt>
      <trkpt lat="44.35759" lon="2.56564">
        <ele>505.31</ele>
        <time>2009-01-30T19:14:19Z</time>
      </trkpt>
      <trkpt lat="44.35761" lon="2.56563">
        <ele>503.868</ele>
        <time>2009-01-30T19:14:20Z</time>
      </trkpt>
      <trkpt lat="44.35763" lon="2.56561">
        <ele>503.387</ele>
        <time>2009-01-30T19:14:21Z</time>
      </trkpt>
      <trkpt lat="44.35766" lon="2.5656">
        <ele>502.907</ele>
        <time>2009-01-30T19:14:22Z</time>
      </trkpt>
      <trkpt lat="44.35768" lon="2.56558">
        <ele>502.426</ele>
        <time>2009-01-30T19:14:23Z</time>
      </trkpt>
      <trkpt lat="44.35771" lon="2.56556">
        <ele>501.946</ele>
        <time>2009-01-30T19:14:24Z</time>
      </trkpt>
      <trkpt lat="44.35773" lon="2.56554">
        <ele>501.946</ele>
        <time>2009-01-30T19:14:25Z</time>
      </trkpt>
      <trkpt lat="44.35775" lon="2.56552">
        <ele>502.426</ele>
        <time>2009-01-30T19:14:26Z</time>
      </trkpt>
      <trkpt lat="44.35777" lon="2.5655">
        <ele>502.907</ele>
        <time>2009-01-30T19:14:27Z</time>
      </trkpt>
      <trkpt lat="44.35779" lon="2.56548">
        <ele>503.868</ele>
        <time>2009-01-30T19:14:28Z</time>
      </trkpt>
      <trkpt lat="44.35781" lon="2.56545">
        <ele>504.349</ele>
        <time>2009-01-30T19:14:29Z</time>
      </trkpt>
      <trkpt lat="44.35783" lon="2.56542">
        <ele>504.349</ele>
        <time>2009-01-30T19:14:30Z</time>
      </trkpt>
      <trkpt lat="44.35784" lon="2.56539">
        <ele>505.31</ele>
        <time>2009-01-30T19:14:31Z</time>
      </trkpt>
      <trkpt lat="44.35785" lon="2.56537">
        <ele>506.271</ele>
        <time>2009-01-30T19:14:32Z</time>
      </trkpt>
      <trkpt lat="44.35786" lon="2.56534">
        <ele>506.271</ele>
        <time>2009-01-30T19:14:33Z</time>
      </trkpt>
      <trkpt lat="44.35787" lon="2.56531">
        <ele>506.271</ele>
        <time>2009-01-30T19:14:34Z</time>
      </trkpt>
      <trkpt lat="44.35788" lon="2.56528">
        <ele>506.271</ele>
        <time>2009-01-30T19:14:35Z</time>
      </trkpt>
      <trkpt lat="44.35789" lon="2.56525">
        <ele>508.194</ele>
        <time>2009-01-30T19:14:36Z</time>
      </trkpt>
      <trkpt lat="44.35789" lon="2.56522">
        <ele>508.194</ele>
        <time>2009-01-30T19:14:37Z</time>
      </trkpt>
      <trkpt lat="44.3579" lon="2.56519">
        <ele>509.155</ele>
        <time>2009-01-30T19:14:38Z</time>
      </trkpt>
      <trkpt lat="44.35791" lon="2.56517">
        <ele>509.636</ele>
        <time>2009-01-30T19:14:39Z</time>
      </trkpt>
      <trkpt lat="44.35792" lon="2.56514">
        <ele>510.117</ele>
        <time>2009-01-30T19:14:40Z</time>
      </trkpt>
      <trkpt lat="44.35792" lon="2.56511">
        <ele>510.117</ele>
        <time>2009-01-30T19:14:41Z</time>
      </trkpt>
      <trkpt lat="44.35793" lon="2.56508">
        <ele>510.117</ele>
        <time>2009-01-30T19:14:42Z</time>
      </trkpt>
      <trkpt lat="44.35794" lon="2.56505">
        <ele>510.597</ele>
        <time>2009-01-30T19:14:43Z</time>
      </trkpt>
      <trkpt lat="44.35795" lon="2.56501">
        <ele>511.078</ele>
        <time>2009-01-30T19:14:44Z</time>
      </trkpt>
      <trkpt lat="44.35796" lon="2.56498">
        <ele>511.559</ele>
        <time>2009-01-30T19:14:45Z</time>
      </trkpt>
      <trkpt lat="44.35797" lon="2.56494">
        <ele>512.039</ele>
        <time>2009-01-30T19:14:46Z</time>
      </trkpt>
      <trkpt lat="44.35798" lon="2.56491">
        <ele>512.52</ele>
        <time>2009-01-30T19:14:47Z</time>
      </trkpt>
      <trkpt lat="44.35799" lon="2.56488">
        <ele>513.962</ele>
        <time>2009-01-30T19:14:48Z</time>
      </trkpt>
      <trkpt lat="44.358" lon="2.56484">
        <ele>515.404</ele>
        <time>2009-01-30T19:14:49Z</time>
      </trkpt>
      <trkpt lat="44.35801" lon="2.56481">
        <ele>516.365</ele>
        <time>2009-01-30T19:14:50Z</time>
      </trkpt>
      <trkpt lat="44.35802" lon="2.56478">
        <ele>516.846</ele>
        <time>2009-01-30T19:14:51Z</time>
      </trkpt>
      <trkpt lat="44.35803" lon="2.56475">
        <ele>517.807</ele>
        <time>2009-01-30T19:14:52Z</time>
      </trkpt>
      <trkpt lat="44.35804" lon="2.56471">
        <ele>517.807</ele>
        <time>2009-01-30T19:14:53Z</time>
      </trkpt>
      <trkpt lat="44.35805" lon="2.56467">
        <ele>517.807</ele>
        <time>2009-01-30T19:14:54Z</time>
      </trkpt>
      <trkpt lat="44.35806" lon="2.56464">
        <ele>517.807</ele>
        <time>2009-01-30T19:14:55Z</time>
      </trkpt>
      <trkpt lat="44.35807" lon="2.5646">
        <ele>518.769</ele>
        <time>2009-01-30T19:14:56Z</time>
      </trkpt>
      <trkpt lat="44.35808" lon="2.56457">
        <ele>518.769</ele>
        <time>2009-01-30T19:14:57Z</time>
      </trkpt>
      <trkpt lat="44.3581" lon="2.56453">
        <ele>518.769</ele>
        <time>2009-01-30T19:14:58Z</time>
      </trkpt>
      <trkpt lat="44.35811" lon="2.5645">
        <ele>519.249</ele>
        <time>2009-01-30T19:14:59Z</time>
      </trkpt>
      <trkpt lat="44.35813" lon="2.56446">
        <ele>519.73</ele>
        <time>2009-01-30T19:15:00Z</time>
      </trkpt>
      <trkpt lat="44.35816" lon="2.56444">
        <ele>520.691</ele>
        <time>2009-01-30T19:15:01Z</time>
      </trkpt>
      <trkpt lat="44.35818" lon="2.56442">
        <ele>520.211</ele>
        <time>2009-01-30T19:15:02Z</time>
      </trkpt>
      <trkpt lat="44.3582" lon="2.56442">
        <ele>519.73</ele>
        <time>2009-01-30T19:15:03Z</time>
      </trkpt>
      <trkpt lat="44.35822" lon="2.56441">
        <ele>519.249</ele>
        <time>2009-01-30T19:15:04Z</time>
      </trkpt>
      <trkpt lat="44.35824" lon="2.56442">
        <ele>518.288</ele>
        <time>2009-01-30T19:15:05Z</time>
      </trkpt>
      <trkpt lat="44.35826" lon="2.56442">
        <ele>517.327</ele>
        <time>2009-01-30T19:15:06Z</time>
      </trkpt>
      <trkpt lat="44.35828" lon="2.56443">
        <ele>516.365</ele>
        <time>2009-01-30T19:15:07Z</time>
      </trkpt>
      <trkpt lat="44.35831" lon="2.56443">
        <ele>515.404</ele>
        <time>2009-01-30T19:15:08Z</time>
      </trkpt>
      <trkpt lat="44.35833" lon="2.56444">
        <ele>514.443</ele>
        <time>2009-01-30T19:15:09Z</time>
      </trkpt>
      <trkpt lat="44.35835" lon="2.56444">
        <ele>513.962</ele>
        <time>2009-01-30T19:15:10Z</time>
      </trkpt>
      <trkpt lat="44.35836" lon="2.56442">
        <ele>513.481</ele>
        <time>2009-01-30T19:15:11Z</time>
      </trkpt>
      <trkpt lat="44.35838" lon="2.56441">
        <ele>513.962</ele>
        <time>2009-01-30T19:15:12Z</time>
      </trkpt>
      <trkpt lat="44.35839" lon="2.5644">
        <ele>514.443</ele>
        <time>2009-01-30T19:15:13Z</time>
      </trkpt>
      <trkpt lat="44.3584" lon="2.5644">
        <ele>517.807</ele>
        <time>2009-01-30T19:15:18Z</time>
      </trkpt>
      <trkpt lat="44.3584" lon="2.56439">
        <ele>519.73</ele>
        <time>2009-01-30T19:15:19Z</time>
      </trkpt>
      <trkpt lat="44.35841" lon="2.56439">
        <ele>520.691</ele>
        <time>2009-01-30T19:15:20Z</time>
      </trkpt>
      <trkpt lat="44.35841" lon="2.56439">
        <ele>521.653</ele>
        <time>2009-01-30T19:15:21Z</time>
      </trkpt>
      <trkpt lat="44.35842" lon="2.56439">
        <ele>521.172</ele>
        <time>2009-01-30T19:15:23Z</time>
      </trkpt>
      <trkpt lat="44.35842" lon="2.56439">
        <ele>520.691</ele>
        <time>2009-01-30T19:15:24Z</time>
      </trkpt>
      <trkpt lat="44.35846" lon="2.56436">
        <ele>521.172</ele>
        <time>2009-01-30T19:15:36Z</time>
      </trkpt>
      <trkpt lat="44.35846" lon="2.56436">
        <ele>522.614</ele>
        <time>2009-01-30T19:15:37Z</time>
      </trkpt>
      <trkpt lat="44.35846" lon="2.56436">
        <ele>522.614</ele>
        <time>2009-01-30T19:15:38Z</time>
      </trkpt>
      <trkpt lat="44.35846" lon="2.56435">
        <ele>523.575</ele>
        <time>2009-01-30T19:15:39Z</time>
      </trkpt>
      <trkpt lat="44.35846" lon="2.56434">
        <ele>524.536</ele>
        <time>2009-01-30T19:15:41Z</time>
      </trkpt>
      <trkpt lat="44.35846" lon="2.56434">
        <ele>525.498</ele>
        <time>2009-01-30T19:15:42Z</time>
      </trkpt>
      <trkpt lat="44.35846" lon="2.56433">
        <ele>525.978</ele>
        <time>2009-01-30T19:15:44Z</time>
      </trkpt>
      <trkpt lat="44.35846" lon="2.56432">
        <ele>526.459</ele>
        <time>2009-01-30T19:15:45Z</time>
      </trkpt>
      <trkpt lat="44.35846" lon="2.56431">
        <ele>526.94</ele>
        <time>2009-01-30T19:15:46Z</time>
      </trkpt>
      <trkpt lat="44.35846" lon="2.5643">
        <ele>527.42</ele>
        <time>2009-01-30T19:15:47Z</time>
      </trkpt>
      <trkpt lat="44.35847" lon="2.56429">
        <ele>527.901</ele>
        <time>2009-01-30T19:15:49Z</time>
      </trkpt>
      <trkpt lat="44.35846" lon="2.56428">
        <ele>528.863</ele>
        <time>2009-01-30T19:15:50Z</time>
      </trkpt>
      <trkpt lat="44.35846" lon="2.56427">
        <ele>529.343</ele>
        <time>2009-01-30T19:15:51Z</time>
      </trkpt>
      <trkpt lat="44.35847" lon="2.56426">
        <ele>530.785</ele>
        <time>2009-01-30T19:15:53Z</time>
      </trkpt>
      <trkpt lat="44.35848" lon="2.56425">
        <ele>531.746</ele>
        <time>2009-01-30T19:15:54Z</time>
      </trkpt>
      <trkpt lat="44.35841" lon="2.56427">
        <ele>542.321</ele>
        <time>2009-01-30T19:16:26Z</time>
      </trkpt>
      <trkpt lat="44.3584" lon="2.56428">
        <ele>542.802</ele>
        <time>2009-01-30T19:16:27Z</time>
      </trkpt>
      <trkpt lat="44.35839" lon="2.56429">
        <ele>543.282</ele>
        <time>2009-01-30T19:16:28Z</time>
      </trkpt>
      <trkpt lat="44.35839" lon="2.56429">
        <ele>543.282</ele>
        <time>2009-01-30T19:16:29Z</time>
      </trkpt>
      <trkpt lat="44.35859" lon="2.56419">
        <ele>534.63</ele>
        <time>2009-01-30T19:21:13Z</time>
      </trkpt>
      <trkpt lat="44.3586" lon="2.56419">
        <ele>535.111</ele>
        <time>2009-01-30T19:21:14Z</time>
      </trkpt>
      <trkpt lat="44.3586" lon="2.56419">
        <ele>535.111</ele>
        <time>2009-01-30T19:21:15Z</time>
      </trkpt>
      <trkpt lat="44.35863" lon="2.5642">
        <ele>537.514</ele>
        <time>2009-01-30T19:21:40Z</time>
      </trkpt>
      <trkpt lat="44.35863" lon="2.5642">
        <ele>537.034</ele>
        <time>2009-01-30T19:21:41Z</time>
      </trkpt>
      <trkpt lat="44.35863" lon="2.5642">
        <ele>537.034</ele>
        <time>2009-01-30T19:21:42Z</time>
      </trkpt>
      <trkpt lat="44.35863" lon="2.5642">
        <ele>537.514</ele>
        <time>2009-01-30T19:21:43Z</time>
      </trkpt>
      <trkpt lat="44.35863" lon="2.5642">
        <ele>537.995</ele>
        <time>2009-01-30T19:21:44Z</time>
      </trkpt>
      <trkpt lat="44.35864" lon="2.5642">
        <ele>537.514</ele>
        <time>2009-01-30T19:21:45Z</time>
      </trkpt>
      <trkpt lat="44.35864" lon="2.5642">
        <ele>537.514</ele>
        <time>2009-01-30T19:21:46Z</time>
      </trkpt>
      <trkpt lat="44.35865" lon="2.5642">
        <ele>537.995</ele>
        <time>2009-01-30T19:21:47Z</time>
      </trkpt>
      <trkpt lat="44.35865" lon="2.5642">
        <ele>537.995</ele>
        <time>2009-01-30T19:21:48Z</time>
      </trkpt>
      <trkpt lat="44.35865" lon="2.56422">
        <ele>539.437</ele>
        <time>2009-01-30T19:21:59Z</time>
      </trkpt>
      <trkpt lat="44.35865" lon="2.56422">
        <ele>539.437</ele>
        <time>2009-01-30T19:22:00Z</time>
      </trkpt>
      <trkpt lat="44.35865" lon="2.56423">
        <ele>539.437</ele>
        <time>2009-01-30T19:22:01Z</time>
      </trkpt>
      <trkpt lat="44.35866" lon="2.56422">
        <ele>539.437</ele>
        <time>2009-01-30T19:22:02Z</time>
      </trkpt>
      <trkpt lat="44.35864" lon="2.56424">
        <ele>540.398</ele>
        <time>2009-01-30T19:22:03Z</time>
      </trkpt>
      <trkpt lat="44.35865" lon="2.56429">
        <ele>540.398</ele>
        <time>2009-01-30T19:22:11Z</time>
      </trkpt>
      <trkpt lat="44.35866" lon="2.56428">
        <ele>540.879</ele>
        <time>2009-01-30T19:22:12Z</time>
      </trkpt>
      <trkpt lat="44.35866" lon="2.56428">
        <ele>540.879</ele>
        <time>2009-01-30T19:22:13Z</time>
      </trkpt>
      <trkpt lat="44.35867" lon="2.56426">
        <ele>540.879</ele>
        <time>2009-01-30T19:22:14Z</time>
      </trkpt>
      <trkpt lat="44.35867" lon="2.56428">
        <ele>541.84</ele>
        <time>2009-01-30T19:22:28Z</time>
      </trkpt>
      <trkpt lat="44.35868" lon="2.56428">
        <ele>541.84</ele>
        <time>2009-01-30T19:22:29Z</time>
      </trkpt>
      <trkpt lat="44.35868" lon="2.56428">
        <ele>541.84</ele>
        <time>2009-01-30T19:22:30Z</time>
      </trkpt>
      <trkpt lat="44.35871" lon="2.56423">
        <ele>541.84</ele>
        <time>2009-01-30T19:22:41Z</time>
      </trkpt>
      <trkpt lat="44.35871" lon="2.56423">
        <ele>541.84</ele>
        <time>2009-01-30T19:22:42Z</time>
      </trkpt>
      <trkpt lat="44.35872" lon="2.56422">
        <ele>541.359</ele>
        <time>2009-01-30T19:22:43Z</time>
      </trkpt>
      <trkpt lat="44.35873" lon="2.56421">
        <ele>540.879</ele>
        <time>2009-01-30T19:22:48Z</time>
      </trkpt>
      <trkpt lat="44.35874" lon="2.56421">
        <ele>540.879</ele>
        <time>2009-01-30T19:22:49Z</time>
      </trkpt>
      <trkpt lat="44.35875" lon="2.56421">
        <ele>540.879</ele>
        <time>2009-01-30T19:22:50Z</time>
      </trkpt>
      <trkpt lat="44.35877" lon="2.5642">
        <ele>543.763</ele>
        <time>2009-01-30T19:22:59Z</time>
      </trkpt>
      <trkpt lat="44.35877" lon="2.5642">
        <ele>543.282</ele>
        <time>2009-01-30T19:23:00Z</time>
      </trkpt>
      <trkpt lat="44.35878" lon="2.56425">
        <ele>539.437</ele>
        <time>2009-01-30T19:23:17Z</time>
      </trkpt>
      <trkpt lat="44.35879" lon="2.56425">
        <ele>538.956</ele>
        <time>2009-01-30T19:23:18Z</time>
      </trkpt>
      <trkpt lat="44.35883" lon="2.56422">
        <ele>535.111</ele>
        <time>2009-01-30T19:23:31Z</time>
      </trkpt>
      <trkpt lat="44.35884" lon="2.56422">
        <ele>535.111</ele>
        <time>2009-01-30T19:23:32Z</time>
      </trkpt>
      <trkpt lat="44.35887" lon="2.56422">
        <ele>537.995</ele>
        <time>2009-01-30T19:23:41Z</time>
      </trkpt>
      <trkpt lat="44.35887" lon="2.56422">
        <ele>538.476</ele>
        <time>2009-01-30T19:23:42Z</time>
      </trkpt>
      <trkpt lat="44.35887" lon="2.56422">
        <ele>538.476</ele>
        <time>2009-01-30T19:23:43Z</time>
      </trkpt>
      <trkpt lat="44.35888" lon="2.56422">
        <ele>538.956</ele>
        <time>2009-01-30T19:23:44Z</time>
      </trkpt>
      <trkpt lat="44.35888" lon="2.56423">
        <ele>539.918</ele>
        <time>2009-01-30T19:23:45Z</time>
      </trkpt>
      <trkpt lat="44.35888" lon="2.56423">
        <ele>540.879</ele>
        <time>2009-01-30T19:23:46Z</time>
      </trkpt>
      <trkpt lat="44.35888" lon="2.56423">
        <ele>541.359</ele>
        <time>2009-01-30T19:23:47Z</time>
      </trkpt>
      <trkpt lat="44.35889" lon="2.56422">
        <ele>541.84</ele>
        <time>2009-01-30T19:23:55Z</time>
      </trkpt>
      <trkpt lat="44.3589" lon="2.56421">
        <ele>542.802</ele>
        <time>2009-01-30T19:23:56Z</time>
      </trkpt>
      <trkpt lat="44.3589" lon="2.56421">
        <ele>542.802</ele>
        <time>2009-01-30T19:23:57Z</time>
      </trkpt>
      <trkpt lat="44.35891" lon="2.56421">
        <ele>543.282</ele>
        <time>2009-01-30T19:24:00Z</time>
      </trkpt>
      <trkpt lat="44.35892" lon="2.5642">
        <ele>543.763</ele>
        <time>2009-01-30T19:24:01Z</time>
      </trkpt>
      <trkpt lat="44.35892" lon="2.5642">
        <ele>543.763</ele>
        <time>2009-01-30T19:24:02Z</time>
      </trkpt>
      <trkpt lat="44.35892" lon="2.56419">
        <ele>543.763</ele>
        <time>2009-01-30T19:24:03Z</time>
      </trkpt>
      <trkpt lat="44.35893" lon="2.56418">
        <ele>543.763</ele>
        <time>2009-01-30T19:24:04Z</time>
      </trkpt>
      <trkpt lat="44.35894" lon="2.56417">
        <ele>543.763</ele>
        <time>2009-01-30T19:24:05Z</time>
      </trkpt>
      <trkpt lat="44.35895" lon="2.56417">
        <ele>543.763</ele>
        <time>2009-01-30T19:24:06Z</time>
      </trkpt>
      <trkpt lat="44.35896" lon="2.56417">
        <ele>543.763</ele>
        <time>2009-01-30T19:24:07Z</time>
      </trkpt>
      <trkpt lat="44.35896" lon="2.56417">
        <ele>544.244</ele>
        <time>2009-01-30T19:24:08Z</time>
      </trkpt>
      <trkpt lat="44.35896" lon="2.56416">
        <ele>544.724</ele>
        <time>2009-01-30T19:24:09Z</time>
      </trkpt>
      <trkpt lat="44.35896" lon="2.56416">
        <ele>544.724</ele>
        <time>2009-01-30T19:24:10Z</time>
      </trkpt>
      <trkpt lat="44.35897" lon="2.56411">
        <ele>544.244</ele>
        <time>2009-01-30T19:24:25Z</time>
      </trkpt>
      <trkpt lat="44.35897" lon="2.56411">
        <ele>544.244</ele>
        <time>2009-01-30T19:24:26Z</time>
      </trkpt>
      <trkpt lat="44.35898" lon="2.5641">
        <ele>544.724</ele>
        <time>2009-01-30T19:24:30Z</time>
      </trkpt>
      <trkpt lat="44.35898" lon="2.56411">
        <ele>544.724</ele>
        <time>2009-01-30T19:24:31Z</time>
      </trkpt>
      <trkpt lat="44.35899" lon="2.56411">
        <ele>545.686</ele>
        <time>2009-01-30T19:24:32Z</time>
      </trkpt>
      <trkpt lat="44.35899" lon="2.56412">
        <ele>546.166</ele>
        <time>2009-01-30T19:24:33Z</time>
      </trkpt>
      <trkpt lat="44.35899" lon="2.56412">
        <ele>546.166</ele>
        <time>2009-01-30T19:24:34Z</time>
      </trkpt>
      <trkpt lat="44.359" lon="2.56412">
        <ele>546.166</ele>
        <time>2009-01-30T19:24:35Z</time>
      </trkpt>
      <trkpt lat="44.359" lon="2.56412">
        <ele>546.166</ele>
        <time>2009-01-30T19:24:36Z</time>
      </trkpt>
      <trkpt lat="44.35902" lon="2.56409">
        <ele>546.166</ele>
        <time>2009-01-30T19:24:45Z</time>
      </trkpt>
      <trkpt lat="44.35902" lon="2.56408">
        <ele>546.166</ele>
        <time>2009-01-30T19:24:46Z</time>
      </trkpt>
      <trkpt lat="44.35903" lon="2.56408">
        <ele>546.166</ele>
        <time>2009-01-30T19:24:47Z</time>
      </trkpt>
      <trkpt lat="44.35903" lon="2.56409">
        <ele>545.686</ele>
        <time>2009-01-30T19:24:48Z</time>
      </trkpt>
      <trkpt lat="44.35904" lon="2.56408">
        <ele>544.724</ele>
        <time>2009-01-30T19:24:50Z</time>
      </trkpt>
      <trkpt lat="44.35905" lon="2.56407">
        <ele>543.282</ele>
        <time>2009-01-30T19:24:51Z</time>
      </trkpt>
      <trkpt lat="44.35905" lon="2.56407">
        <ele>542.802</ele>
        <time>2009-01-30T19:24:52Z</time>
      </trkpt>
      <trkpt lat="44.35906" lon="2.56406">
        <ele>541.84</ele>
        <time>2009-01-30T19:24:54Z</time>
      </trkpt>
      <trkpt lat="44.35908" lon="2.56406">
        <ele>541.359</ele>
        <time>2009-01-30T19:24:55Z</time>
      </trkpt>
      <trkpt lat="44.35909" lon="2.56405">
        <ele>540.879</ele>
        <time>2009-01-30T19:24:56Z</time>
      </trkpt>
      <trkpt lat="44.3591" lon="2.56405">
        <ele>541.359</ele>
        <time>2009-01-30T19:24:57Z</time>
      </trkpt>
      <trkpt lat="44.35912" lon="2.56405">
        <ele>540.879</ele>
        <time>2009-01-30T19:24:58Z</time>
      </trkpt>
      <trkpt lat="44.35913" lon="2.56404">
        <ele>541.359</ele>
        <time>2009-01-30T19:24:59Z</time>
      </trkpt>
      <trkpt lat="44.35913" lon="2.56404">
        <ele>541.84</ele>
        <time>2009-01-30T19:25:00Z</time>
      </trkpt>
      <trkpt lat="44.35914" lon="2.56403">
        <ele>542.321</ele>
        <time>2009-01-30T19:25:01Z</time>
      </trkpt>
      <trkpt lat="44.35915" lon="2.56402">
        <ele>541.84</ele>
        <time>2009-01-30T19:25:02Z</time>
      </trkpt>
      <trkpt lat="44.35915" lon="2.56402">
        <ele>540.879</ele>
        <time>2009-01-30T19:25:03Z</time>
      </trkpt>
      <trkpt lat="44.35916" lon="2.56401">
        <ele>541.359</ele>
        <time>2009-01-30T19:25:04Z</time>
      </trkpt>
      <trkpt lat="44.35917" lon="2.56401">
        <ele>541.359</ele>
        <time>2009-01-30T19:25:05Z</time>
      </trkpt>
      <trkpt lat="44.35917" lon="2.56401">
        <ele>542.321</ele>
        <time>2009-01-30T19:25:06Z</time>
      </trkpt>
      <trkpt lat="44.35919" lon="2.564">
        <ele>544.244</ele>
        <time>2009-01-30T19:25:07Z</time>
      </trkpt>
      <trkpt lat="44.3592" lon="2.56401">
        <ele>545.686</ele>
        <time>2009-01-30T19:25:08Z</time>
      </trkpt>
      <trkpt lat="44.35921" lon="2.56399">
        <ele>546.647</ele>
        <time>2009-01-30T19:25:09Z</time>
      </trkpt>
      <trkpt lat="44.35922" lon="2.564">
        <ele>549.05</ele>
        <time>2009-01-30T19:25:10Z</time>
      </trkpt>
      <trkpt lat="44.35922" lon="2.56401">
        <ele>550.011</ele>
        <time>2009-01-30T19:25:11Z</time>
      </trkpt>
      <trkpt lat="44.35923" lon="2.56402">
        <ele>550.973</ele>
        <time>2009-01-30T19:25:12Z</time>
      </trkpt>
      <trkpt lat="44.35924" lon="2.56401">
        <ele>551.453</ele>
        <time>2009-01-30T19:25:13Z</time>
      </trkpt>
      <trkpt lat="44.35926" lon="2.564">
        <ele>550.973</ele>
        <time>2009-01-30T19:25:14Z</time>
      </trkpt>
      <trkpt lat="44.35926" lon="2.56399">
        <ele>550.973</ele>
        <time>2009-01-30T19:25:15Z</time>
      </trkpt>
      <trkpt lat="44.35927" lon="2.56399">
        <ele>550.973</ele>
        <time>2009-01-30T19:25:16Z</time>
      </trkpt>
      <trkpt lat="44.35928" lon="2.56399">
        <ele>550.973</ele>
        <time>2009-01-30T19:25:17Z</time>
      </trkpt>
      <trkpt lat="44.35929" lon="2.56398">
        <ele>550.492</ele>
        <time>2009-01-30T19:25:18Z</time>
      </trkpt>
      <trkpt lat="44.3593" lon="2.56398">
        <ele>552.415</ele>
        <time>2009-01-30T19:25:19Z</time>
      </trkpt>
      <trkpt lat="44.3593" lon="2.56398">
        <ele>553.376</ele>
        <time>2009-01-30T19:25:20Z</time>
      </trkpt>
      <trkpt lat="44.35931" lon="2.56398">
        <ele>554.818</ele>
        <time>2009-01-30T19:25:21Z</time>
      </trkpt>
      <trkpt lat="44.3593" lon="2.56397">
        <ele>554.818</ele>
        <time>2009-01-30T19:25:22Z</time>
      </trkpt>
      <trkpt lat="44.35931" lon="2.56395">
        <ele>555.779</ele>
        <time>2009-01-30T19:25:23Z</time>
      </trkpt>
      <trkpt lat="44.35932" lon="2.56394">
        <ele>556.741</ele>
        <time>2009-01-30T19:25:24Z</time>
      </trkpt>
      <trkpt lat="44.35933" lon="2.56392">
        <ele>556.741</ele>
        <time>2009-01-30T19:25:25Z</time>
      </trkpt>
      <trkpt lat="44.35932" lon="2.56391">
        <ele>556.26</ele>
        <time>2009-01-30T19:25:26Z</time>
      </trkpt>
      <trkpt lat="44.35932" lon="2.56391">
        <ele>555.299</ele>
        <time>2009-01-30T19:25:27Z</time>
      </trkpt>
      <trkpt lat="44.35932" lon="2.5639">
        <ele>555.299</ele>
        <time>2009-01-30T19:25:28Z</time>
      </trkpt>
      <trkpt lat="44.35932" lon="2.5639">
        <ele>554.818</ele>
        <time>2009-01-30T19:25:29Z</time>
      </trkpt>
      <trkpt lat="44.35933" lon="2.56389">
        <ele>553.376</ele>
        <time>2009-01-30T19:25:30Z</time>
      </trkpt>
      <trkpt lat="44.35933" lon="2.56388">
        <ele>552.895</ele>
        <time>2009-01-30T19:25:31Z</time>
      </trkpt>
      <trkpt lat="44.35933" lon="2.56387">
        <ele>551.934</ele>
        <time>2009-01-30T19:25:32Z</time>
      </trkpt>
      <trkpt lat="44.35932" lon="2.56387">
        <ele>551.453</ele>
        <time>2009-01-30T19:25:41Z</time>
      </trkpt>
      <trkpt lat="44.35932" lon="2.56387">
        <ele>552.415</ele>
        <time>2009-01-30T19:25:42Z</time>
      </trkpt>
      <trkpt lat="44.35935" lon="2.56382">
        <ele>553.376</ele>
        <time>2009-01-30T19:25:46Z</time>
      </trkpt>
      <trkpt lat="44.35936" lon="2.56381">
        <ele>553.376</ele>
        <time>2009-01-30T19:25:47Z</time>
      </trkpt>
      <trkpt lat="44.35937" lon="2.5638">
        <ele>554.337</ele>
        <time>2009-01-30T19:25:48Z</time>
      </trkpt>
      <trkpt lat="44.35936" lon="2.56374">
        <ele>558.183</ele>
        <time>2009-01-30T19:26:03Z</time>
      </trkpt>
      <trkpt lat="44.35936" lon="2.56374">
        <ele>557.221</ele>
        <time>2009-01-30T19:26:04Z</time>
      </trkpt>
      <trkpt lat="44.35935" lon="2.56367">
        <ele>562.028</ele>
        <time>2009-01-30T19:26:37Z</time>
      </trkpt>
      <trkpt lat="44.35935" lon="2.56366">
        <ele>561.547</ele>
        <time>2009-01-30T19:26:38Z</time>
      </trkpt>
      <trkpt lat="44.35935" lon="2.56365">
        <ele>561.547</ele>
        <time>2009-01-30T19:26:39Z</time>
      </trkpt>
      <trkpt lat="44.35935" lon="2.56365">
        <ele>561.547</ele>
        <time>2009-01-30T19:26:40Z</time>
      </trkpt>
      <trkpt lat="44.35935" lon="2.56364">
        <ele>561.547</ele>
        <time>2009-01-30T19:26:41Z</time>
      </trkpt>
      <trkpt lat="44.35935" lon="2.56363">
        <ele>561.547</ele>
        <time>2009-01-30T19:26:42Z</time>
      </trkpt>
      <trkpt lat="44.35934" lon="2.56362">
        <ele>562.028</ele>
        <time>2009-01-30T19:26:43Z</time>
      </trkpt>
      <trkpt lat="44.35934" lon="2.56361">
        <ele>561.547</ele>
        <time>2009-01-30T19:26:44Z</time>
      </trkpt>
      <trkpt lat="44.35934" lon="2.5636">
        <ele>562.028</ele>
        <time>2009-01-30T19:26:45Z</time>
      </trkpt>
      <trkpt lat="44.35935" lon="2.56358">
        <ele>562.509</ele>
        <time>2009-01-30T19:26:46Z</time>
      </trkpt>
      <trkpt lat="44.35935" lon="2.56357">
        <ele>562.509</ele>
        <time>2009-01-30T19:26:47Z</time>
      </trkpt>
      <trkpt lat="44.35935" lon="2.56355">
        <ele>562.509</ele>
        <time>2009-01-30T19:26:48Z</time>
      </trkpt>
      <trkpt lat="44.35935" lon="2.56353">
        <ele>563.47</ele>
        <time>2009-01-30T19:26:49Z</time>
      </trkpt>
      <trkpt lat="44.35935" lon="2.56351">
        <ele>563.47</ele>
        <time>2009-01-30T19:26:50Z</time>
      </trkpt>
      <trkpt lat="44.35936" lon="2.56349">
        <ele>563.95</ele>
        <time>2009-01-30T19:26:51Z</time>
      </trkpt>
      <trkpt lat="44.35936" lon="2.56347">
        <ele>564.431</ele>
        <time>2009-01-30T19:26:52Z</time>
      </trkpt>
      <trkpt lat="44.35937" lon="2.56344">
        <ele>564.912</ele>
        <time>2009-01-30T19:26:53Z</time>
      </trkpt>
      <trkpt lat="44.35937" lon="2.56342">
        <ele>564.912</ele>
        <time>2009-01-30T19:26:54Z</time>
      </trkpt>
      <trkpt lat="44.35937" lon="2.5634">
        <ele>564.912</ele>
        <time>2009-01-30T19:26:55Z</time>
      </trkpt>
      <trkpt lat="44.35938" lon="2.56337">
        <ele>564.912</ele>
        <time>2009-01-30T19:26:56Z</time>
      </trkpt>
      <trkpt lat="44.35938" lon="2.56335">
        <ele>564.912</ele>
        <time>2009-01-30T19:26:57Z</time>
      </trkpt>
      <trkpt lat="44.35939" lon="2.56332">
        <ele>564.912</ele>
        <time>2009-01-30T19:26:58Z</time>
      </trkpt>
      <trkpt lat="44.35939" lon="2.5633">
        <ele>564.912</ele>
        <time>2009-01-30T19:26:59Z</time>
      </trkpt>
      <trkpt lat="44.3594" lon="2.56328">
        <ele>565.393</ele>
        <time>2009-01-30T19:27:00Z</time>
      </trkpt>
      <trkpt lat="44.3594" lon="2.56325">
        <ele>565.873</ele>
        <time>2009-01-30T19:27:01Z</time>
      </trkpt>
      <trkpt lat="44.3594" lon="2.56323">
        <ele>565.873</ele>
        <time>2009-01-30T19:27:02Z</time>
      </trkpt>
      <trkpt lat="44.3594" lon="2.56321">
        <ele>565.873</ele>
        <time>2009-01-30T19:27:03Z</time>
      </trkpt>
      <trkpt lat="44.3594" lon="2.56319">
        <ele>565.873</ele>
        <time>2009-01-30T19:27:04Z</time>
      </trkpt>
      <trkpt lat="44.35941" lon="2.56317">
        <ele>565.873</ele>
        <time>2009-01-30T19:27:05Z</time>
      </trkpt>
      <trkpt lat="44.35941" lon="2.56315">
        <ele>565.873</ele>
        <time>2009-01-30T19:27:06Z</time>
      </trkpt>
      <trkpt lat="44.35942" lon="2.56312">
        <ele>566.354</ele>
        <time>2009-01-30T19:27:07Z</time>
      </trkpt>
      <trkpt lat="44.35942" lon="2.5631">
        <ele>566.354</ele>
        <time>2009-01-30T19:27:08Z</time>
      </trkpt>
      <trkpt lat="44.35942" lon="2.56308">
        <ele>565.873</ele>
        <time>2009-01-30T19:27:09Z</time>
      </trkpt>
      <trkpt lat="44.35943" lon="2.56305">
        <ele>565.393</ele>
        <time>2009-01-30T19:27:10Z</time>
      </trkpt>
      <trkpt lat="44.35943" lon="2.56303">
        <ele>565.393</ele>
        <time>2009-01-30T19:27:11Z</time>
      </trkpt>
      <trkpt lat="44.35942" lon="2.56301">
        <ele>565.393</ele>
        <time>2009-01-30T19:27:12Z</time>
      </trkpt>
      <trkpt lat="44.35942" lon="2.56299">
        <ele>565.393</ele>
        <time>2009-01-30T19:27:13Z</time>
      </trkpt>
      <trkpt lat="44.35942" lon="2.56297">
        <ele>565.393</ele>
        <time>2009-01-30T19:27:14Z</time>
      </trkpt>
      <trkpt lat="44.35942" lon="2.56294">
        <ele>565.393</ele>
        <time>2009-01-30T19:27:15Z</time>
      </trkpt>
      <trkpt lat="44.35942" lon="2.56292">
        <ele>564.912</ele>
        <time>2009-01-30T19:27:16Z</time>
      </trkpt>
      <trkpt lat="44.35943" lon="2.5629">
        <ele>564.912</ele>
        <time>2009-01-30T19:27:17Z</time>
      </trkpt>
      <trkpt lat="44.35943" lon="2.56288">
        <ele>565.393</ele>
        <time>2009-01-30T19:27:18Z</time>
      </trkpt>
      <trkpt lat="44.35943" lon="2.56285">
        <ele>565.393</ele>
        <time>2009-01-30T19:27:19Z</time>
      </trkpt>
      <trkpt lat="44.35943" lon="2.56283">
        <ele>565.873</ele>
        <time>2009-01-30T19:27:20Z</time>
      </trkpt>
      <trkpt lat="44.35943" lon="2.56281">
        <ele>565.873</ele>
        <time>2009-01-30T19:27:21Z</time>
      </trkpt>
      <trkpt lat="44.35943" lon="2.56279">
        <ele>565.873</ele>
        <time>2009-01-30T19:27:22Z</time>
      </trkpt>
      <trkpt lat="44.35943" lon="2.56277">
        <ele>566.354</ele>
        <time>2009-01-30T19:27:23Z</time>
      </trkpt>
      <trkpt lat="44.35943" lon="2.56275">
        <ele>566.354</ele>
        <time>2009-01-30T19:27:24Z</time>
      </trkpt>
      <trkpt lat="44.35943" lon="2.56273">
        <ele>566.834</ele>
        <time>2009-01-30T19:27:25Z</time>
      </trkpt>
      <trkpt lat="44.35943" lon="2.56271">
        <ele>566.834</ele>
        <time>2009-01-30T19:27:26Z</time>
      </trkpt>
      <trkpt lat="44.35943" lon="2.5627">
        <ele>566.834</ele>
        <time>2009-01-30T19:27:27Z</time>
      </trkpt>
      <trkpt lat="44.35942" lon="2.56268">
        <ele>567.315</ele>
        <time>2009-01-30T19:27:28Z</time>
      </trkpt>
      <trkpt lat="44.35942" lon="2.56266">
        <ele>567.315</ele>
        <time>2009-01-30T19:27:29Z</time>
      </trkpt>
      <trkpt lat="44.35942" lon="2.56264">
        <ele>567.315</ele>
        <time>2009-01-30T19:27:30Z</time>
      </trkpt>
      <trkpt lat="44.35942" lon="2.56262">
        <ele>567.315</ele>
        <time>2009-01-30T19:27:31Z</time>
      </trkpt>
      <trkpt lat="44.35942" lon="2.5626">
        <ele>567.315</ele>
        <time>2009-01-30T19:27:32Z</time>
      </trkpt>
      <trkpt lat="44.35942" lon="2.56258">
        <ele>567.315</ele>
        <time>2009-01-30T19:27:33Z</time>
      </trkpt>
      <trkpt lat="44.35942" lon="2.56257">
        <ele>567.796</ele>
        <time>2009-01-30T19:27:34Z</time>
      </trkpt>
      <trkpt lat="44.35942" lon="2.56255">
        <ele>568.757</ele>
        <time>2009-01-30T19:27:35Z</time>
      </trkpt>
      <trkpt lat="44.35941" lon="2.56253">
        <ele>569.238</ele>
        <time>2009-01-30T19:27:36Z</time>
      </trkpt>
      <trkpt lat="44.35941" lon="2.56252">
        <ele>570.199</ele>
        <time>2009-01-30T19:27:37Z</time>
      </trkpt>
      <trkpt lat="44.35941" lon="2.5625">
        <ele>570.68</ele>
        <time>2009-01-30T19:27:38Z</time>
      </trkpt>
      <trkpt lat="44.35941" lon="2.56249">
        <ele>571.16</ele>
        <time>2009-01-30T19:27:39Z</time>
      </trkpt>
      <trkpt lat="44.35941" lon="2.56247">
        <ele>571.16</ele>
        <time>2009-01-30T19:27:40Z</time>
      </trkpt>
      <trkpt lat="44.3594" lon="2.56246">
        <ele>571.641</ele>
        <time>2009-01-30T19:27:41Z</time>
      </trkpt>
      <trkpt lat="44.3594" lon="2.56245">
        <ele>572.122</ele>
        <time>2009-01-30T19:27:42Z</time>
      </trkpt>
      <trkpt lat="44.3594" lon="2.56244">
        <ele>572.122</ele>
        <time>2009-01-30T19:27:43Z</time>
      </trkpt>
      <trkpt lat="44.3594" lon="2.56243">
        <ele>572.603</ele>
        <time>2009-01-30T19:27:44Z</time>
      </trkpt>
      <trkpt lat="44.3594" lon="2.56242">
        <ele>572.603</ele>
        <time>2009-01-30T19:27:45Z</time>
      </trkpt>
      <trkpt lat="44.35939" lon="2.56241">
        <ele>572.603</ele>
        <time>2009-01-30T19:27:46Z</time>
      </trkpt>
      <trkpt lat="44.35939" lon="2.56241">
        <ele>572.603</ele>
        <time>2009-01-30T19:27:47Z</time>
      </trkpt>
      <trkpt lat="44.35939" lon="2.5624">
        <ele>572.122</ele>
        <time>2009-01-30T19:27:48Z</time>
      </trkpt>
      <trkpt lat="44.35939" lon="2.56239">
        <ele>572.122</ele>
        <time>2009-01-30T19:27:49Z</time>
      </trkpt>
      <trkpt lat="44.35942" lon="2.56231">
        <ele>573.564</ele>
        <time>2009-01-30T19:28:15Z</time>
      </trkpt>
      <trkpt lat="44.35942" lon="2.5623">
        <ele>573.564</ele>
        <time>2009-01-30T19:28:16Z</time>
      </trkpt>
      <trkpt lat="44.35941" lon="2.56225">
        <ele>577.409</ele>
        <time>2009-01-30T19:28:50Z</time>
      </trkpt>
      <trkpt lat="44.35941" lon="2.56224">
        <ele>577.89</ele>
        <time>2009-01-30T19:28:51Z</time>
      </trkpt>
      <trkpt lat="44.35941" lon="2.56223">
        <ele>577.89</ele>
        <time>2009-01-30T19:28:52Z</time>
      </trkpt>
      <trkpt lat="44.35941" lon="2.56222">
        <ele>577.409</ele>
        <time>2009-01-30T19:28:53Z</time>
      </trkpt>
      <trkpt lat="44.3594" lon="2.56222">
        <ele>577.409</ele>
        <time>2009-01-30T19:28:54Z</time>
      </trkpt>
      <trkpt lat="44.3594" lon="2.56221">
        <ele>577.89</ele>
        <time>2009-01-30T19:28:55Z</time>
      </trkpt>
      <trkpt lat="44.3594" lon="2.56221">
        <ele>578.37</ele>
        <time>2009-01-30T19:28:56Z</time>
      </trkpt>
      <trkpt lat="44.35939" lon="2.5622">
        <ele>578.37</ele>
        <time>2009-01-30T19:28:57Z</time>
      </trkpt>
      <trkpt lat="44.35939" lon="2.5622">
        <ele>578.851</ele>
        <time>2009-01-30T19:28:58Z</time>
      </trkpt>
      <trkpt lat="44.35938" lon="2.56219">
        <ele>579.332</ele>
        <time>2009-01-30T19:29:00Z</time>
      </trkpt>
      <trkpt lat="44.35938" lon="2.56218">
        <ele>579.332</ele>
        <time>2009-01-30T19:29:01Z</time>
      </trkpt>
      <trkpt lat="44.35937" lon="2.56218">
        <ele>579.812</ele>
        <time>2009-01-30T19:29:02Z</time>
      </trkpt>
      <trkpt lat="44.35937" lon="2.56217">
        <ele>579.812</ele>
        <time>2009-01-30T19:29:03Z</time>
      </trkpt>
      <trkpt lat="44.35936" lon="2.56217">
        <ele>581.254</ele>
        <time>2009-01-30T19:29:04Z</time>
      </trkpt>
      <trkpt lat="44.35936" lon="2.56216">
        <ele>581.735</ele>
        <time>2009-01-30T19:29:05Z</time>
      </trkpt>
      <trkpt lat="44.35935" lon="2.56216">
        <ele>581.735</ele>
        <time>2009-01-30T19:29:06Z</time>
      </trkpt>
      <trkpt lat="44.35934" lon="2.56216">
        <ele>581.735</ele>
        <time>2009-01-30T19:29:07Z</time>
      </trkpt>
      <trkpt lat="44.35932" lon="2.56215">
        <ele>581.254</ele>
        <time>2009-01-30T19:29:08Z</time>
      </trkpt>
      <trkpt lat="44.35931" lon="2.56215">
        <ele>581.254</ele>
        <time>2009-01-30T19:29:09Z</time>
      </trkpt>
      <trkpt lat="44.35929" lon="2.56214">
        <ele>581.735</ele>
        <time>2009-01-30T19:29:10Z</time>
      </trkpt>
      <trkpt lat="44.35927" lon="2.56213">
        <ele>581.735</ele>
        <time>2009-01-30T19:29:11Z</time>
      </trkpt>
      <trkpt lat="44.35925" lon="2.56213">
        <ele>581.254</ele>
        <time>2009-01-30T19:29:12Z</time>
      </trkpt>
      <trkpt lat="44.35923" lon="2.56213">
        <ele>581.254</ele>
        <time>2009-01-30T19:29:13Z</time>
      </trkpt>
      <trkpt lat="44.35921" lon="2.56213">
        <ele>580.774</ele>
        <time>2009-01-30T19:29:14Z</time>
      </trkpt>
      <trkpt lat="44.35918" lon="2.56212">
        <ele>580.774</ele>
        <time>2009-01-30T19:29:15Z</time>
      </trkpt>
      <trkpt lat="44.35916" lon="2.56212">
        <ele>580.774</ele>
        <time>2009-01-30T19:29:16Z</time>
      </trkpt>
      <trkpt lat="44.35913" lon="2.56212">
        <ele>580.293</ele>
        <time>2009-01-30T19:29:17Z</time>
      </trkpt>
      <trkpt lat="44.35911" lon="2.56212">
        <ele>579.812</ele>
        <time>2009-01-30T19:29:18Z</time>
      </trkpt>
      <trkpt lat="44.35909" lon="2.56212">
        <ele>579.332</ele>
        <time>2009-01-30T19:29:19Z</time>
      </trkpt>
      <trkpt lat="44.35906" lon="2.56212">
        <ele>579.332</ele>
        <time>2009-01-30T19:29:20Z</time>
      </trkpt>
      <trkpt lat="44.35904" lon="2.56211">
        <ele>578.851</ele>
        <time>2009-01-30T19:29:21Z</time>
      </trkpt>
      <trkpt lat="44.35901" lon="2.5621">
        <ele>578.37</ele>
        <time>2009-01-30T19:29:22Z</time>
      </trkpt>
      <trkpt lat="44.35898" lon="2.5621">
        <ele>578.851</ele>
        <time>2009-01-30T19:29:23Z</time>
      </trkpt>
      <trkpt lat="44.35895" lon="2.56209">
        <ele>578.851</ele>
        <time>2009-01-30T19:29:24Z</time>
      </trkpt>
      <trkpt lat="44.35893" lon="2.56209">
        <ele>578.851</ele>
        <time>2009-01-30T19:29:25Z</time>
      </trkpt>
      <trkpt lat="44.35891" lon="2.56208">
        <ele>578.851</ele>
        <time>2009-01-30T19:29:26Z</time>
      </trkpt>
      <trkpt lat="44.35888" lon="2.56207">
        <ele>579.332</ele>
        <time>2009-01-30T19:29:27Z</time>
      </trkpt>
      <trkpt lat="44.35886" lon="2.56207">
        <ele>579.812</ele>
        <time>2009-01-30T19:29:28Z</time>
      </trkpt>
      <trkpt lat="44.35884" lon="2.56206">
        <ele>579.812</ele>
        <time>2009-01-30T19:29:29Z</time>
      </trkpt>
      <trkpt lat="44.35882" lon="2.56204">
        <ele>579.812</ele>
        <time>2009-01-30T19:29:30Z</time>
      </trkpt>
      <trkpt lat="44.3588" lon="2.56203">
        <ele>579.812</ele>
        <time>2009-01-30T19:29:31Z</time>
      </trkpt>
      <trkpt lat="44.35879" lon="2.56202">
        <ele>579.812</ele>
        <time>2009-01-30T19:29:32Z</time>
      </trkpt>
      <trkpt lat="44.35877" lon="2.56202">
        <ele>579.812</ele>
        <time>2009-01-30T19:29:33Z</time>
      </trkpt>
      <trkpt lat="44.35876" lon="2.56201">
        <ele>579.812</ele>
        <time>2009-01-30T19:29:34Z</time>
      </trkpt>
      <trkpt lat="44.35874" lon="2.56201">
        <ele>579.332</ele>
        <time>2009-01-30T19:29:35Z</time>
      </trkpt>
      <trkpt lat="44.35873" lon="2.56201">
        <ele>579.332</ele>
        <time>2009-01-30T19:29:36Z</time>
      </trkpt>
      <trkpt lat="44.35872" lon="2.562">
        <ele>579.332</ele>
        <time>2009-01-30T19:29:37Z</time>
      </trkpt>
      <trkpt lat="44.35871" lon="2.56199">
        <ele>578.851</ele>
        <time>2009-01-30T19:29:38Z</time>
      </trkpt>
      <trkpt lat="44.35869" lon="2.56198">
        <ele>578.851</ele>
        <time>2009-01-30T19:29:39Z</time>
      </trkpt>
      <trkpt lat="44.35868" lon="2.56197">
        <ele>578.851</ele>
        <time>2009-01-30T19:29:40Z</time>
      </trkpt>
      <trkpt lat="44.35867" lon="2.56194">
        <ele>579.332</ele>
        <time>2009-01-30T19:29:41Z</time>
      </trkpt>
      <trkpt lat="44.35866" lon="2.56192">
        <ele>579.332</ele>
        <time>2009-01-30T19:29:42Z</time>
      </trkpt>
      <trkpt lat="44.35865" lon="2.56189">
        <ele>579.332</ele>
        <time>2009-01-30T19:29:43Z</time>
      </trkpt>
      <trkpt lat="44.35865" lon="2.56185">
        <ele>579.332</ele>
        <time>2009-01-30T19:29:44Z</time>
      </trkpt>
      <trkpt lat="44.35864" lon="2.56182">
        <ele>578.851</ele>
        <time>2009-01-30T19:29:45Z</time>
      </trkpt>
      <trkpt lat="44.35864" lon="2.56178">
        <ele>578.37</ele>
        <time>2009-01-30T19:29:46Z</time>
      </trkpt>
      <trkpt lat="44.35863" lon="2.56174">
        <ele>578.851</ele>
        <time>2009-01-30T19:29:47Z</time>
      </trkpt>
      <trkpt lat="44.35862" lon="2.56171">
        <ele>578.851</ele>
        <time>2009-01-30T19:29:48Z</time>
      </trkpt>
      <trkpt lat="44.35862" lon="2.56167">
        <ele>578.851</ele>
        <time>2009-01-30T19:29:49Z</time>
      </trkpt>
      <trkpt lat="44.3586" lon="2.56163">
        <ele>578.851</ele>
        <time>2009-01-30T19:29:50Z</time>
      </trkpt>
      <trkpt lat="44.35859" lon="2.5616">
        <ele>578.851</ele>
        <time>2009-01-30T19:29:51Z</time>
      </trkpt>
      <trkpt lat="44.35858" lon="2.56156">
        <ele>578.851</ele>
        <time>2009-01-30T19:29:52Z</time>
      </trkpt>
      <trkpt lat="44.35857" lon="2.56153">
        <ele>578.851</ele>
        <time>2009-01-30T19:29:53Z</time>
      </trkpt>
      <trkpt lat="44.35856" lon="2.5615">
        <ele>578.851</ele>
        <time>2009-01-30T19:29:54Z</time>
      </trkpt>
      <trkpt lat="44.35855" lon="2.56147">
        <ele>579.332</ele>
        <time>2009-01-30T19:29:55Z</time>
      </trkpt>
      <trkpt lat="44.35854" lon="2.56143">
        <ele>579.332</ele>
        <time>2009-01-30T19:29:56Z</time>
      </trkpt>
      <trkpt lat="44.35853" lon="2.5614">
        <ele>579.812</ele>
        <time>2009-01-30T19:29:57Z</time>
      </trkpt>
      <trkpt lat="44.35852" lon="2.56136">
        <ele>579.812</ele>
        <time>2009-01-30T19:29:58Z</time>
      </trkpt>
      <trkpt lat="44.35852" lon="2.56133">
        <ele>580.293</ele>
        <time>2009-01-30T19:29:59Z</time>
      </trkpt>
      <trkpt lat="44.35851" lon="2.56129">
        <ele>579.812</ele>
        <time>2009-01-30T19:30:00Z</time>
      </trkpt>
      <trkpt lat="44.35851" lon="2.56125">
        <ele>579.812</ele>
        <time>2009-01-30T19:30:01Z</time>
      </trkpt>
      <trkpt lat="44.3585" lon="2.56122">
        <ele>579.812</ele>
        <time>2009-01-30T19:30:02Z</time>
      </trkpt>
      <trkpt lat="44.3585" lon="2.56118">
        <ele>580.293</ele>
        <time>2009-01-30T19:30:03Z</time>
      </trkpt>
      <trkpt lat="44.35849" lon="2.56114">
        <ele>581.254</ele>
        <time>2009-01-30T19:30:04Z</time>
      </trkpt>
      <trkpt lat="44.35849" lon="2.5611">
        <ele>581.254</ele>
        <time>2009-01-30T19:30:05Z</time>
      </trkpt>
      <trkpt lat="44.35849" lon="2.56106">
        <ele>581.254</ele>
        <time>2009-01-30T19:30:06Z</time>
      </trkpt>
      <trkpt lat="44.35848" lon="2.56103">
        <ele>581.254</ele>
        <time>2009-01-30T19:30:07Z</time>
      </trkpt>
      <trkpt lat="44.35848" lon="2.56099">
        <ele>581.254</ele>
        <time>2009-01-30T19:30:08Z</time>
      </trkpt>
      <trkpt lat="44.35847" lon="2.56095">
        <ele>580.774</ele>
        <time>2009-01-30T19:30:09Z</time>
      </trkpt>
      <trkpt lat="44.35847" lon="2.56091">
        <ele>580.774</ele>
        <time>2009-01-30T19:30:10Z</time>
      </trkpt>
      <trkpt lat="44.35847" lon="2.56087">
        <ele>580.774</ele>
        <time>2009-01-30T19:30:11Z</time>
      </trkpt>
      <trkpt lat="44.35846" lon="2.56083">
        <ele>581.254</ele>
        <time>2009-01-30T19:30:12Z</time>
      </trkpt>
      <trkpt lat="44.35845" lon="2.5608">
        <ele>581.254</ele>
        <time>2009-01-30T19:30:13Z</time>
      </trkpt>
      <trkpt lat="44.35844" lon="2.56077">
        <ele>581.254</ele>
        <time>2009-01-30T19:30:14Z</time>
      </trkpt>
      <trkpt lat="44.35844" lon="2.56073">
        <ele>581.254</ele>
        <time>2009-01-30T19:30:15Z</time>
      </trkpt>
      <trkpt lat="44.35843" lon="2.5607">
        <ele>580.774</ele>
        <time>2009-01-30T19:30:16Z</time>
      </trkpt>
      <trkpt lat="44.35842" lon="2.56067">
        <ele>581.254</ele>
        <time>2009-01-30T19:30:17Z</time>
      </trkpt>
      <trkpt lat="44.3584" lon="2.56064">
        <ele>580.774</ele>
        <time>2009-01-30T19:30:18Z</time>
      </trkpt>
      <trkpt lat="44.35838" lon="2.5606">
        <ele>580.293</ele>
        <time>2009-01-30T19:30:19Z</time>
      </trkpt>
      <trkpt lat="44.35837" lon="2.56057">
        <ele>579.812</ele>
        <time>2009-01-30T19:30:20Z</time>
      </trkpt>
      <trkpt lat="44.35835" lon="2.56053">
        <ele>580.774</ele>
        <time>2009-01-30T19:30:21Z</time>
      </trkpt>
      <trkpt lat="44.35833" lon="2.56051">
        <ele>580.293</ele>
        <time>2009-01-30T19:30:22Z</time>
      </trkpt>
      <trkpt lat="44.35831" lon="2.56049">
        <ele>579.812</ele>
        <time>2009-01-30T19:30:23Z</time>
      </trkpt>
      <trkpt lat="44.3583" lon="2.56047">
        <ele>579.812</ele>
        <time>2009-01-30T19:30:24Z</time>
      </trkpt>
      <trkpt lat="44.35828" lon="2.56045">
        <ele>579.812</ele>
        <time>2009-01-30T19:30:25Z</time>
      </trkpt>
      <trkpt lat="44.35826" lon="2.56044">
        <ele>579.332</ele>
        <time>2009-01-30T19:30:26Z</time>
      </trkpt>
      <trkpt lat="44.35824" lon="2.56043">
        <ele>578.851</ele>
        <time>2009-01-30T19:30:27Z</time>
      </trkpt>
      <trkpt lat="44.35822" lon="2.56042">
        <ele>578.851</ele>
        <time>2009-01-30T19:30:28Z</time>
      </trkpt>
      <trkpt lat="44.35819" lon="2.56041">
        <ele>578.851</ele>
        <time>2009-01-30T19:30:29Z</time>
      </trkpt>
      <trkpt lat="44.35817" lon="2.5604">
        <ele>577.89</ele>
        <time>2009-01-30T19:30:30Z</time>
      </trkpt>
      <trkpt lat="44.35815" lon="2.56038">
        <ele>577.409</ele>
        <time>2009-01-30T19:30:31Z</time>
      </trkpt>
      <trkpt lat="44.35813" lon="2.56034">
        <ele>579.332</ele>
        <time>2009-01-30T19:30:32Z</time>
      </trkpt>
      <trkpt lat="44.3581" lon="2.56032">
        <ele>581.254</ele>
        <time>2009-01-30T19:30:33Z</time>
      </trkpt>
      <trkpt lat="44.35808" lon="2.5603">
        <ele>582.696</ele>
        <time>2009-01-30T19:30:34Z</time>
      </trkpt>
      <trkpt lat="44.35806" lon="2.5603">
        <ele>584.138</ele>
        <time>2009-01-30T19:30:35Z</time>
      </trkpt>
      <trkpt lat="44.35804" lon="2.56029">
        <ele>585.1</ele>
        <time>2009-01-30T19:30:36Z</time>
      </trkpt>
      <trkpt lat="44.35803" lon="2.56029">
        <ele>584.619</ele>
        <time>2009-01-30T19:30:37Z</time>
      </trkpt>
      <trkpt lat="44.35801" lon="2.56029">
        <ele>585.1</ele>
        <time>2009-01-30T19:30:38Z</time>
      </trkpt>
      <trkpt lat="44.35799" lon="2.56029">
        <ele>585.1</ele>
        <time>2009-01-30T19:30:39Z</time>
      </trkpt>
      <trkpt lat="44.35796" lon="2.56029">
        <ele>584.138</ele>
        <time>2009-01-30T19:30:40Z</time>
      </trkpt>
      <trkpt lat="44.35793" lon="2.5603">
        <ele>582.696</ele>
        <time>2009-01-30T19:30:41Z</time>
      </trkpt>
      <trkpt lat="44.3579" lon="2.56031">
        <ele>581.735</ele>
        <time>2009-01-30T19:30:42Z</time>
      </trkpt>
      <trkpt lat="44.35788" lon="2.56032">
        <ele>580.774</ele>
        <time>2009-01-30T19:30:43Z</time>
      </trkpt>
      <trkpt lat="44.35785" lon="2.56034">
        <ele>580.774</ele>
        <time>2009-01-30T19:30:44Z</time>
      </trkpt>
      <trkpt lat="44.35784" lon="2.56036">
        <ele>580.293</ele>
        <time>2009-01-30T19:30:45Z</time>
      </trkpt>
      <trkpt lat="44.35782" lon="2.56037">
        <ele>579.812</ele>
        <time>2009-01-30T19:30:46Z</time>
      </trkpt>
      <trkpt lat="44.3578" lon="2.56038">
        <ele>579.812</ele>
        <time>2009-01-30T19:30:47Z</time>
      </trkpt>
      <trkpt lat="44.35779" lon="2.56039">
        <ele>579.812</ele>
        <time>2009-01-30T19:30:48Z</time>
      </trkpt>
      <trkpt lat="44.35777" lon="2.56039">
        <ele>578.37</ele>
        <time>2009-01-30T19:30:49Z</time>
      </trkpt>
      <trkpt lat="44.35776" lon="2.56039">
        <ele>576.928</ele>
        <time>2009-01-30T19:30:50Z</time>
      </trkpt>
      <trkpt lat="44.35774" lon="2.56039">
        <ele>576.448</ele>
        <time>2009-01-30T19:30:51Z</time>
      </trkpt>
      <trkpt lat="44.35771" lon="2.56039">
        <ele>576.448</ele>
        <time>2009-01-30T19:30:52Z</time>
      </trkpt>
      <trkpt lat="44.35769" lon="2.56039">
        <ele>576.448</ele>
        <time>2009-01-30T19:30:53Z</time>
      </trkpt>
      <trkpt lat="44.35766" lon="2.56039">
        <ele>576.928</ele>
        <time>2009-01-30T19:30:54Z</time>
      </trkpt>
      <trkpt lat="44.35764" lon="2.56039">
        <ele>577.409</ele>
        <time>2009-01-30T19:30:55Z</time>
      </trkpt>
      <trkpt lat="44.35763" lon="2.56039">
        <ele>577.409</ele>
        <time>2009-01-30T19:30:56Z</time>
      </trkpt>
      <trkpt lat="44.35762" lon="2.5604">
        <ele>576.928</ele>
        <time>2009-01-30T19:30:57Z</time>
      </trkpt>
      <trkpt lat="44.3576" lon="2.5604">
        <ele>576.448</ele>
        <time>2009-01-30T19:30:58Z</time>
      </trkpt>
      <trkpt lat="44.35759" lon="2.5604">
        <ele>576.448</ele>
        <time>2009-01-30T19:30:59Z</time>
      </trkpt>
      <trkpt lat="44.35756" lon="2.5604">
        <ele>575.967</ele>
        <time>2009-01-30T19:31:00Z</time>
      </trkpt>
      <trkpt lat="44.35753" lon="2.5604">
        <ele>576.448</ele>
        <time>2009-01-30T19:31:01Z</time>
      </trkpt>
      <trkpt lat="44.35751" lon="2.5604">
        <ele>576.928</ele>
        <time>2009-01-30T19:31:02Z</time>
      </trkpt>
      <trkpt lat="44.35748" lon="2.56041">
        <ele>576.448</ele>
        <time>2009-01-30T19:31:03Z</time>
      </trkpt>
      <trkpt lat="44.35745" lon="2.56041">
        <ele>576.448</ele>
        <time>2009-01-30T19:31:04Z</time>
      </trkpt>
      <trkpt lat="44.35742" lon="2.56041">
        <ele>576.448</ele>
        <time>2009-01-30T19:31:05Z</time>
      </trkpt>
      <trkpt lat="44.3574" lon="2.56041">
        <ele>576.448</ele>
        <time>2009-01-30T19:31:06Z</time>
      </trkpt>
      <trkpt lat="44.35738" lon="2.5604">
        <ele>575.967</ele>
        <time>2009-01-30T19:31:07Z</time>
      </trkpt>
      <trkpt lat="44.35735" lon="2.5604">
        <ele>575.486</ele>
        <time>2009-01-30T19:31:08Z</time>
      </trkpt>
      <trkpt lat="44.35732" lon="2.5604">
        <ele>575.006</ele>
        <time>2009-01-30T19:31:09Z</time>
      </trkpt>
      <trkpt lat="44.35729" lon="2.56039">
        <ele>575.967</ele>
        <time>2009-01-30T19:31:10Z</time>
      </trkpt>
      <trkpt lat="44.35726" lon="2.56038">
        <ele>575.967</ele>
        <time>2009-01-30T19:31:11Z</time>
      </trkpt>
      <trkpt lat="44.35724" lon="2.56037">
        <ele>575.967</ele>
        <time>2009-01-30T19:31:12Z</time>
      </trkpt>
      <trkpt lat="44.35721" lon="2.56036">
        <ele>575.486</ele>
        <time>2009-01-30T19:31:13Z</time>
      </trkpt>
      <trkpt lat="44.35719" lon="2.56035">
        <ele>575.486</ele>
        <time>2009-01-30T19:31:14Z</time>
      </trkpt>
      <trkpt lat="44.35716" lon="2.56034">
        <ele>575.006</ele>
        <time>2009-01-30T19:31:15Z</time>
      </trkpt>
      <trkpt lat="44.35714" lon="2.56032">
        <ele>575.006</ele>
        <time>2009-01-30T19:31:16Z</time>
      </trkpt>
      <trkpt lat="44.35711" lon="2.56031">
        <ele>574.525</ele>
        <time>2009-01-30T19:31:17Z</time>
      </trkpt>
      <trkpt lat="44.35709" lon="2.56029">
        <ele>574.525</ele>
        <time>2009-01-30T19:31:18Z</time>
      </trkpt>
      <trkpt lat="44.35706" lon="2.56027">
        <ele>574.044</ele>
        <time>2009-01-30T19:31:19Z</time>
      </trkpt>
      <trkpt lat="44.35704" lon="2.56025">
        <ele>573.564</ele>
        <time>2009-01-30T19:31:20Z</time>
      </trkpt>
      <trkpt lat="44.35702" lon="2.56024">
        <ele>572.603</ele>
        <time>2009-01-30T19:31:21Z</time>
      </trkpt>
      <trkpt lat="44.357" lon="2.56022">
        <ele>571.641</ele>
        <time>2009-01-30T19:31:22Z</time>
      </trkpt>
      <trkpt lat="44.35697" lon="2.5602">
        <ele>571.16</ele>
        <time>2009-01-30T19:31:23Z</time>
      </trkpt>
      <trkpt lat="44.35696" lon="2.56018">
        <ele>570.199</ele>
        <time>2009-01-30T19:31:24Z</time>
      </trkpt>
      <trkpt lat="44.35694" lon="2.56015">
        <ele>569.238</ele>
        <time>2009-01-30T19:31:25Z</time>
      </trkpt>
      <trkpt lat="44.35692" lon="2.56013">
        <ele>568.757</ele>
        <time>2009-01-30T19:31:26Z</time>
      </trkpt>
      <trkpt lat="44.3569" lon="2.5601">
        <ele>568.276</ele>
        <time>2009-01-30T19:31:27Z</time>
      </trkpt>
      <trkpt lat="44.35688" lon="2.56007">
        <ele>567.315</ele>
        <time>2009-01-30T19:31:28Z</time>
      </trkpt>
      <trkpt lat="44.35687" lon="2.56005">
        <ele>566.354</ele>
        <time>2009-01-30T19:31:29Z</time>
      </trkpt>
      <trkpt lat="44.35685" lon="2.56003">
        <ele>565.873</ele>
        <time>2009-01-30T19:31:30Z</time>
      </trkpt>
      <trkpt lat="44.35684" lon="2.56">
        <ele>566.834</ele>
        <time>2009-01-30T19:31:31Z</time>
      </trkpt>
      <trkpt lat="44.35681" lon="2.55997">
        <ele>568.276</ele>
        <time>2009-01-30T19:31:32Z</time>
      </trkpt>
      <trkpt lat="44.35679" lon="2.55996">
        <ele>568.276</ele>
        <time>2009-01-30T19:31:33Z</time>
      </trkpt>
      <trkpt lat="44.35678" lon="2.55994">
        <ele>569.238</ele>
        <time>2009-01-30T19:31:34Z</time>
      </trkpt>
      <trkpt lat="44.35676" lon="2.55992">
        <ele>570.199</ele>
        <time>2009-01-30T19:31:35Z</time>
      </trkpt>
      <trkpt lat="44.35675" lon="2.55989">
        <ele>571.16</ele>
        <time>2009-01-30T19:31:36Z</time>
      </trkpt>
      <trkpt lat="44.35673" lon="2.55985">
        <ele>571.16</ele>
        <time>2009-01-30T19:31:37Z</time>
      </trkpt>
      <trkpt lat="44.35673" lon="2.55983">
        <ele>570.68</ele>
        <time>2009-01-30T19:31:38Z</time>
      </trkpt>
      <trkpt lat="44.35673" lon="2.55982">
        <ele>570.199</ele>
        <time>2009-01-30T19:31:39Z</time>
      </trkpt>
      <trkpt lat="44.35674" lon="2.5598">
        <ele>569.719</ele>
        <time>2009-01-30T19:31:40Z</time>
      </trkpt>
      <trkpt lat="44.35674" lon="2.55978">
        <ele>569.238</ele>
        <time>2009-01-30T19:31:41Z</time>
      </trkpt>
      <trkpt lat="44.35675" lon="2.55977">
        <ele>569.238</ele>
        <time>2009-01-30T19:31:42Z</time>
      </trkpt>
      <trkpt lat="44.35675" lon="2.55978">
        <ele>569.719</ele>
        <time>2009-01-30T19:31:43Z</time>
      </trkpt>
      <trkpt lat="44.35675" lon="2.55978">
        <ele>570.68</ele>
        <time>2009-01-30T19:31:45Z</time>
      </trkpt>
      <trkpt lat="44.35676" lon="2.55978">
        <ele>570.199</ele>
        <time>2009-01-30T19:31:46Z</time>
      </trkpt>
      <trkpt lat="44.35679" lon="2.55977">
        <ele>570.199</ele>
        <time>2009-01-30T19:31:47Z</time>
      </trkpt>
      <trkpt lat="44.35681" lon="2.55977">
        <ele>570.199</ele>
        <time>2009-01-30T19:31:48Z</time>
      </trkpt>
      <trkpt lat="44.35682" lon="2.55977">
        <ele>571.641</ele>
        <time>2009-01-30T19:31:49Z</time>
      </trkpt>
      <trkpt lat="44.35683" lon="2.55977">
        <ele>573.083</ele>
        <time>2009-01-30T19:31:50Z</time>
      </trkpt>
      <trkpt lat="44.35685" lon="2.55976">
        <ele>572.122</ele>
        <time>2009-01-30T19:31:51Z</time>
      </trkpt>
      <trkpt lat="44.35685" lon="2.55977">
        <ele>572.603</ele>
        <time>2009-01-30T19:31:52Z</time>
      </trkpt>
      <trkpt lat="44.35686" lon="2.55977">
        <ele>574.044</ele>
        <time>2009-01-30T19:31:53Z</time>
      </trkpt>
      <trkpt lat="44.35687" lon="2.55977">
        <ele>575.006</ele>
        <time>2009-01-30T19:31:54Z</time>
      </trkpt>
      <trkpt lat="44.35688" lon="2.55976">
        <ele>575.967</ele>
        <time>2009-01-30T19:31:55Z</time>
      </trkpt>
      <trkpt lat="44.35689" lon="2.55976">
        <ele>576.928</ele>
        <time>2009-01-30T19:31:56Z</time>
      </trkpt>
      <trkpt lat="44.35689" lon="2.55974">
        <ele>578.851</ele>
        <time>2009-01-30T19:31:57Z</time>
      </trkpt>
      <trkpt lat="44.3569" lon="2.55973">
        <ele>579.812</ele>
        <time>2009-01-30T19:31:58Z</time>
      </trkpt>
      <trkpt lat="44.35691" lon="2.55971">
        <ele>580.293</ele>
        <time>2009-01-30T19:31:59Z</time>
      </trkpt>
      <trkpt lat="44.35691" lon="2.55969">
        <ele>580.293</ele>
        <time>2009-01-30T19:32:00Z</time>
      </trkpt>
      <trkpt lat="44.35691" lon="2.55967">
        <ele>580.774</ele>
        <time>2009-01-30T19:32:01Z</time>
      </trkpt>
      <trkpt lat="44.35691" lon="2.55965">
        <ele>581.254</ele>
        <time>2009-01-30T19:32:02Z</time>
      </trkpt>
      <trkpt lat="44.35691" lon="2.55965">
        <ele>581.735</ele>
        <time>2009-01-30T19:32:03Z</time>
      </trkpt>
      <trkpt lat="44.3569" lon="2.55964">
        <ele>581.254</ele>
        <time>2009-01-30T19:32:04Z</time>
      </trkpt>
      <trkpt lat="44.3569" lon="2.55962">
        <ele>581.735</ele>
        <time>2009-01-30T19:32:09Z</time>
      </trkpt>
      <trkpt lat="44.35689" lon="2.55962">
        <ele>581.735</ele>
        <time>2009-01-30T19:32:10Z</time>
      </trkpt>
      <trkpt lat="44.35689" lon="2.55962">
        <ele>581.254</ele>
        <time>2009-01-30T19:32:11Z</time>
      </trkpt>
      <trkpt lat="44.35688" lon="2.55962">
        <ele>581.254</ele>
        <time>2009-01-30T19:32:12Z</time>
      </trkpt>
      <trkpt lat="44.35687" lon="2.55962">
        <ele>581.254</ele>
        <time>2009-01-30T19:32:13Z</time>
      </trkpt>
      <trkpt lat="44.35686" lon="2.55963">
        <ele>581.254</ele>
        <time>2009-01-30T19:32:14Z</time>
      </trkpt>
      <trkpt lat="44.35685" lon="2.55964">
        <ele>581.254</ele>
        <time>2009-01-30T19:32:15Z</time>
      </trkpt>
      <trkpt lat="44.35684" lon="2.55964">
        <ele>581.254</ele>
        <time>2009-01-30T19:32:16Z</time>
      </trkpt>
      <trkpt lat="44.35684" lon="2.55965">
        <ele>580.774</ele>
        <time>2009-01-30T19:32:17Z</time>
      </trkpt>
      <trkpt lat="44.35682" lon="2.55962">
        <ele>583.657</ele>
        <time>2009-01-30T19:32:26Z</time>
      </trkpt>
      <trkpt lat="44.35681" lon="2.55963">
        <ele>583.657</ele>
        <time>2009-01-30T19:32:27Z</time>
      </trkpt>
      <trkpt lat="44.3568" lon="2.55964">
        <ele>583.657</ele>
        <time>2009-01-30T19:32:28Z</time>
      </trkpt>
      <trkpt lat="44.35678" lon="2.55967">
        <ele>583.657</ele>
        <time>2009-01-30T19:32:29Z</time>
      </trkpt>
      <trkpt lat="44.35676" lon="2.5597">
        <ele>583.177</ele>
        <time>2009-01-30T19:32:30Z</time>
      </trkpt>
      <trkpt lat="44.35674" lon="2.55973">
        <ele>582.696</ele>
        <time>2009-01-30T19:32:31Z</time>
      </trkpt>
      <trkpt lat="44.35673" lon="2.55976">
        <ele>582.696</ele>
        <time>2009-01-30T19:32:32Z</time>
      </trkpt>
      <trkpt lat="44.35671" lon="2.55979">
        <ele>582.696</ele>
        <time>2009-01-30T19:32:33Z</time>
      </trkpt>
      <trkpt lat="44.35669" lon="2.55982">
        <ele>582.696</ele>
        <time>2009-01-30T19:32:34Z</time>
      </trkpt>
      <trkpt lat="44.35667" lon="2.55984">
        <ele>582.696</ele>
        <time>2009-01-30T19:32:35Z</time>
      </trkpt>
      <trkpt lat="44.35665" lon="2.55987">
        <ele>582.216</ele>
        <time>2009-01-30T19:32:36Z</time>
      </trkpt>
      <trkpt lat="44.35663" lon="2.5599">
        <ele>581.735</ele>
        <time>2009-01-30T19:32:37Z</time>
      </trkpt>
      <trkpt lat="44.35662" lon="2.55992">
        <ele>581.254</ele>
        <time>2009-01-30T19:32:38Z</time>
      </trkpt>
      <trkpt lat="44.3566" lon="2.55994">
        <ele>581.254</ele>
        <time>2009-01-30T19:32:39Z</time>
      </trkpt>
      <trkpt lat="44.35658" lon="2.55997">
        <ele>580.774</ele>
        <time>2009-01-30T19:32:40Z</time>
      </trkpt>
      <trkpt lat="44.35655" lon="2.56">
        <ele>580.293</ele>
        <time>2009-01-30T19:32:41Z</time>
      </trkpt>
      <trkpt lat="44.35653" lon="2.56003">
        <ele>580.293</ele>
        <time>2009-01-30T19:32:42Z</time>
      </trkpt>
      <trkpt lat="44.35652" lon="2.56006">
        <ele>580.293</ele>
        <time>2009-01-30T19:32:43Z</time>
      </trkpt>
      <trkpt lat="44.3565" lon="2.56009">
        <ele>579.812</ele>
        <time>2009-01-30T19:32:44Z</time>
      </trkpt>
      <trkpt lat="44.35648" lon="2.56011">
        <ele>579.812</ele>
        <time>2009-01-30T19:32:45Z</time>
      </trkpt>
      <trkpt lat="44.35647" lon="2.56014">
        <ele>580.293</ele>
        <time>2009-01-30T19:32:46Z</time>
      </trkpt>
      <trkpt lat="44.35645" lon="2.56016">
        <ele>580.293</ele>
        <time>2009-01-30T19:32:47Z</time>
      </trkpt>
      <trkpt lat="44.35643" lon="2.56018">
        <ele>580.293</ele>
        <time>2009-01-30T19:32:48Z</time>
      </trkpt>
      <trkpt lat="44.35642" lon="2.56021">
        <ele>581.254</ele>
        <time>2009-01-30T19:32:49Z</time>
      </trkpt>
      <trkpt lat="44.3564" lon="2.56024">
        <ele>581.254</ele>
        <time>2009-01-30T19:32:50Z</time>
      </trkpt>
      <trkpt lat="44.35638" lon="2.56028">
        <ele>581.735</ele>
        <time>2009-01-30T19:32:51Z</time>
      </trkpt>
      <trkpt lat="44.35637" lon="2.5603">
        <ele>581.735</ele>
        <time>2009-01-30T19:32:52Z</time>
      </trkpt>
      <trkpt lat="44.35635" lon="2.56033">
        <ele>581.735</ele>
        <time>2009-01-30T19:32:53Z</time>
      </trkpt>
      <trkpt lat="44.35633" lon="2.56036">
        <ele>581.254</ele>
        <time>2009-01-30T19:32:54Z</time>
      </trkpt>
      <trkpt lat="44.35631" lon="2.56038">
        <ele>580.774</ele>
        <time>2009-01-30T19:32:55Z</time>
      </trkpt>
      <trkpt lat="44.3563" lon="2.56041">
        <ele>581.254</ele>
        <time>2009-01-30T19:32:56Z</time>
      </trkpt>
      <trkpt lat="44.35628" lon="2.56044">
        <ele>581.254</ele>
        <time>2009-01-30T19:32:57Z</time>
      </trkpt>
      <trkpt lat="44.35626" lon="2.56046">
        <ele>581.254</ele>
        <time>2009-01-30T19:32:58Z</time>
      </trkpt>
      <trkpt lat="44.35624" lon="2.56049">
        <ele>581.254</ele>
        <time>2009-01-30T19:32:59Z</time>
      </trkpt>
      <trkpt lat="44.35622" lon="2.56052">
        <ele>581.254</ele>
        <time>2009-01-30T19:33:00Z</time>
      </trkpt>
      <trkpt lat="44.3562" lon="2.56054">
        <ele>581.254</ele>
        <time>2009-01-30T19:33:01Z</time>
      </trkpt>
      <trkpt lat="44.35618" lon="2.56057">
        <ele>581.254</ele>
        <time>2009-01-30T19:33:02Z</time>
      </trkpt>
      <trkpt lat="44.35616" lon="2.5606">
        <ele>581.735</ele>
        <time>2009-01-30T19:33:03Z</time>
      </trkpt>
      <trkpt lat="44.35614" lon="2.56062">
        <ele>582.216</ele>
        <time>2009-01-30T19:33:04Z</time>
      </trkpt>
      <trkpt lat="44.35612" lon="2.56065">
        <ele>582.216</ele>
        <time>2009-01-30T19:33:05Z</time>
      </trkpt>
      <trkpt lat="44.35611" lon="2.56067">
        <ele>582.216</ele>
        <time>2009-01-30T19:33:06Z</time>
      </trkpt>
      <trkpt lat="44.35609" lon="2.5607">
        <ele>581.735</ele>
        <time>2009-01-30T19:33:07Z</time>
      </trkpt>
      <trkpt lat="44.35607" lon="2.56072">
        <ele>581.254</ele>
        <time>2009-01-30T19:33:08Z</time>
      </trkpt>
      <trkpt lat="44.35605" lon="2.56075">
        <ele>581.254</ele>
        <time>2009-01-30T19:33:09Z</time>
      </trkpt>
      <trkpt lat="44.35604" lon="2.56077">
        <ele>580.774</ele>
        <time>2009-01-30T19:33:10Z</time>
      </trkpt>
      <trkpt lat="44.35602" lon="2.5608">
        <ele>580.774</ele>
        <time>2009-01-30T19:33:11Z</time>
      </trkpt>
      <trkpt lat="44.356" lon="2.56083">
        <ele>580.293</ele>
        <time>2009-01-30T19:33:12Z</time>
      </trkpt>
      <trkpt lat="44.35598" lon="2.56085">
        <ele>580.293</ele>
        <time>2009-01-30T19:33:13Z</time>
      </trkpt>
      <trkpt lat="44.35597" lon="2.56087">
        <ele>580.293</ele>
        <time>2009-01-30T19:33:14Z</time>
      </trkpt>
      <trkpt lat="44.35595" lon="2.5609">
        <ele>580.293</ele>
        <time>2009-01-30T19:33:15Z</time>
      </trkpt>
      <trkpt lat="44.35593" lon="2.56093">
        <ele>580.293</ele>
        <time>2009-01-30T19:33:16Z</time>
      </trkpt>
      <trkpt lat="44.35591" lon="2.56095">
        <ele>580.293</ele>
        <time>2009-01-30T19:33:17Z</time>
      </trkpt>
      <trkpt lat="44.35589" lon="2.56098">
        <ele>580.774</ele>
        <time>2009-01-30T19:33:18Z</time>
      </trkpt>
      <trkpt lat="44.35587" lon="2.56101">
        <ele>580.774</ele>
        <time>2009-01-30T19:33:19Z</time>
      </trkpt>
      <trkpt lat="44.35585" lon="2.56104">
        <ele>580.774</ele>
        <time>2009-01-30T19:33:20Z</time>
      </trkpt>
      <trkpt lat="44.35583" lon="2.56106">
        <ele>580.774</ele>
        <time>2009-01-30T19:33:21Z</time>
      </trkpt>
      <trkpt lat="44.35582" lon="2.56109">
        <ele>580.774</ele>
        <time>2009-01-30T19:33:22Z</time>
      </trkpt>
      <trkpt lat="44.3558" lon="2.56112">
        <ele>580.774</ele>
        <time>2009-01-30T19:33:23Z</time>
      </trkpt>
      <trkpt lat="44.35578" lon="2.56114">
        <ele>581.254</ele>
        <time>2009-01-30T19:33:24Z</time>
      </trkpt>
      <trkpt lat="44.35575" lon="2.56117">
        <ele>581.735</ele>
        <time>2009-01-30T19:33:25Z</time>
      </trkpt>
      <trkpt lat="44.35573" lon="2.56119">
        <ele>581.735</ele>
        <time>2009-01-30T19:33:26Z</time>
      </trkpt>
      <trkpt lat="44.35572" lon="2.56122">
        <ele>581.735</ele>
        <time>2009-01-30T19:33:27Z</time>
      </trkpt>
      <trkpt lat="44.3557" lon="2.56124">
        <ele>582.216</ele>
        <time>2009-01-30T19:33:28Z</time>
      </trkpt>
      <trkpt lat="44.35568" lon="2.56127">
        <ele>582.696</ele>
        <time>2009-01-30T19:33:29Z</time>
      </trkpt>
      <trkpt lat="44.35566" lon="2.5613">
        <ele>583.177</ele>
        <time>2009-01-30T19:33:30Z</time>
      </trkpt>
      <trkpt lat="44.35564" lon="2.56133">
        <ele>583.177</ele>
        <time>2009-01-30T19:33:31Z</time>
      </trkpt>
      <trkpt lat="44.35562" lon="2.56136">
        <ele>583.657</ele>
        <time>2009-01-30T19:33:32Z</time>
      </trkpt>
      <trkpt lat="44.3556" lon="2.56138">
        <ele>583.657</ele>
        <time>2009-01-30T19:33:33Z</time>
      </trkpt>
      <trkpt lat="44.35558" lon="2.56141">
        <ele>583.657</ele>
        <time>2009-01-30T19:33:34Z</time>
      </trkpt>
      <trkpt lat="44.35557" lon="2.56144">
        <ele>583.657</ele>
        <time>2009-01-30T19:33:35Z</time>
      </trkpt>
      <trkpt lat="44.35555" lon="2.56147">
        <ele>584.138</ele>
        <time>2009-01-30T19:33:36Z</time>
      </trkpt>
      <trkpt lat="44.35553" lon="2.5615">
        <ele>584.138</ele>
        <time>2009-01-30T19:33:37Z</time>
      </trkpt>
      <trkpt lat="44.35551" lon="2.56153">
        <ele>584.138</ele>
        <time>2009-01-30T19:33:38Z</time>
      </trkpt>
      <trkpt lat="44.35549" lon="2.56157">
        <ele>584.138</ele>
        <time>2009-01-30T19:33:39Z</time>
      </trkpt>
      <trkpt lat="44.35547" lon="2.5616">
        <ele>584.138</ele>
        <time>2009-01-30T19:33:40Z</time>
      </trkpt>
      <trkpt lat="44.35545" lon="2.56163">
        <ele>584.138</ele>
        <time>2009-01-30T19:33:41Z</time>
      </trkpt>
      <trkpt lat="44.35543" lon="2.56166">
        <ele>584.138</ele>
        <time>2009-01-30T19:33:42Z</time>
      </trkpt>
      <trkpt lat="44.35541" lon="2.56169">
        <ele>584.619</ele>
        <time>2009-01-30T19:33:43Z</time>
      </trkpt>
      <trkpt lat="44.35539" lon="2.56172">
        <ele>584.619</ele>
        <time>2009-01-30T19:33:44Z</time>
      </trkpt>
      <trkpt lat="44.35537" lon="2.56175">
        <ele>585.1</ele>
        <time>2009-01-30T19:33:45Z</time>
      </trkpt>
      <trkpt lat="44.35535" lon="2.56178">
        <ele>585.58</ele>
        <time>2009-01-30T19:33:46Z</time>
      </trkpt>
      <trkpt lat="44.35533" lon="2.56181">
        <ele>585.58</ele>
        <time>2009-01-30T19:33:47Z</time>
      </trkpt>
      <trkpt lat="44.35531" lon="2.56184">
        <ele>585.58</ele>
        <time>2009-01-30T19:33:48Z</time>
      </trkpt>
      <trkpt lat="44.3553" lon="2.56186">
        <ele>585.1</ele>
        <time>2009-01-30T19:33:49Z</time>
      </trkpt>
      <trkpt lat="44.35528" lon="2.56189">
        <ele>584.619</ele>
        <time>2009-01-30T19:33:50Z</time>
      </trkpt>
      <trkpt lat="44.35526" lon="2.56192">
        <ele>584.619</ele>
        <time>2009-01-30T19:33:51Z</time>
      </trkpt>
      <trkpt lat="44.35524" lon="2.56195">
        <ele>584.138</ele>
        <time>2009-01-30T19:33:52Z</time>
      </trkpt>
      <trkpt lat="44.35522" lon="2.56198">
        <ele>584.138</ele>
        <time>2009-01-30T19:33:53Z</time>
      </trkpt>
      <trkpt lat="44.3552" lon="2.56201">
        <ele>583.657</ele>
        <time>2009-01-30T19:33:54Z</time>
      </trkpt>
      <trkpt lat="44.35519" lon="2.56204">
        <ele>583.657</ele>
        <time>2009-01-30T19:33:55Z</time>
      </trkpt>
      <trkpt lat="44.35517" lon="2.56206">
        <ele>583.177</ele>
        <time>2009-01-30T19:33:56Z</time>
      </trkpt>
      <trkpt lat="44.35515" lon="2.56208">
        <ele>583.177</ele>
        <time>2009-01-30T19:33:57Z</time>
      </trkpt>
      <trkpt lat="44.35513" lon="2.56211">
        <ele>583.177</ele>
        <time>2009-01-30T19:33:58Z</time>
      </trkpt>
      <trkpt lat="44.35511" lon="2.56213">
        <ele>583.657</ele>
        <time>2009-01-30T19:33:59Z</time>
      </trkpt>
      <trkpt lat="44.35509" lon="2.56216">
        <ele>583.657</ele>
        <time>2009-01-30T19:34:00Z</time>
      </trkpt>
      <trkpt lat="44.35508" lon="2.56218">
        <ele>583.657</ele>
        <time>2009-01-30T19:34:01Z</time>
      </trkpt>
      <trkpt lat="44.35506" lon="2.5622">
        <ele>583.657</ele>
        <time>2009-01-30T19:34:02Z</time>
      </trkpt>
      <trkpt lat="44.35504" lon="2.56223">
        <ele>583.657</ele>
        <time>2009-01-30T19:34:03Z</time>
      </trkpt>
      <trkpt lat="44.35503" lon="2.56225">
        <ele>583.657</ele>
        <time>2009-01-30T19:34:04Z</time>
      </trkpt>
      <trkpt lat="44.35501" lon="2.56227">
        <ele>584.138</ele>
        <time>2009-01-30T19:34:05Z</time>
      </trkpt>
      <trkpt lat="44.355" lon="2.56228">
        <ele>584.138</ele>
        <time>2009-01-30T19:34:06Z</time>
      </trkpt>
      <trkpt lat="44.35498" lon="2.5623">
        <ele>584.138</ele>
        <time>2009-01-30T19:34:07Z</time>
      </trkpt>
      <trkpt lat="44.35497" lon="2.56233">
        <ele>583.657</ele>
        <time>2009-01-30T19:34:08Z</time>
      </trkpt>
      <trkpt lat="44.35496" lon="2.56234">
        <ele>583.657</ele>
        <time>2009-01-30T19:34:09Z</time>
      </trkpt>
      <trkpt lat="44.35495" lon="2.56235">
        <ele>584.138</ele>
        <time>2009-01-30T19:34:10Z</time>
      </trkpt>
      <trkpt lat="44.35494" lon="2.56236">
        <ele>584.138</ele>
        <time>2009-01-30T19:34:11Z</time>
      </trkpt>
      <trkpt lat="44.35493" lon="2.56238">
        <ele>584.138</ele>
        <time>2009-01-30T19:34:12Z</time>
      </trkpt>
      <trkpt lat="44.35491" lon="2.56239">
        <ele>583.657</ele>
        <time>2009-01-30T19:34:13Z</time>
      </trkpt>
      <trkpt lat="44.3549" lon="2.56241">
        <ele>583.657</ele>
        <time>2009-01-30T19:34:14Z</time>
      </trkpt>
      <trkpt lat="44.35489" lon="2.56243">
        <ele>583.657</ele>
        <time>2009-01-30T19:34:15Z</time>
      </trkpt>
      <trkpt lat="44.35488" lon="2.56244">
        <ele>583.657</ele>
        <time>2009-01-30T19:34:16Z</time>
      </trkpt>
      <trkpt lat="44.35487" lon="2.56246">
        <ele>583.657</ele>
        <time>2009-01-30T19:34:17Z</time>
      </trkpt>
      <trkpt lat="44.35486" lon="2.56247">
        <ele>583.177</ele>
        <time>2009-01-30T19:34:18Z</time>
      </trkpt>
      <trkpt lat="44.35485" lon="2.56249">
        <ele>582.696</ele>
        <time>2009-01-30T19:34:19Z</time>
      </trkpt>
      <trkpt lat="44.35484" lon="2.5625">
        <ele>582.216</ele>
        <time>2009-01-30T19:34:20Z</time>
      </trkpt>
      <trkpt lat="44.35483" lon="2.56252">
        <ele>582.696</ele>
        <time>2009-01-30T19:34:21Z</time>
      </trkpt>
      <trkpt lat="44.35482" lon="2.56252">
        <ele>582.696</ele>
        <time>2009-01-30T19:34:22Z</time>
      </trkpt>
      <trkpt lat="44.35481" lon="2.56255">
        <ele>582.696</ele>
        <time>2009-01-30T19:34:26Z</time>
      </trkpt>
      <trkpt lat="44.3548" lon="2.56256">
        <ele>583.177</ele>
        <time>2009-01-30T19:34:27Z</time>
      </trkpt>
      <trkpt lat="44.35479" lon="2.56258">
        <ele>583.177</ele>
        <time>2009-01-30T19:34:28Z</time>
      </trkpt>
      <trkpt lat="44.35477" lon="2.5626">
        <ele>583.657</ele>
        <time>2009-01-30T19:34:29Z</time>
      </trkpt>
      <trkpt lat="44.35476" lon="2.56262">
        <ele>583.657</ele>
        <time>2009-01-30T19:34:30Z</time>
      </trkpt>
      <trkpt lat="44.35475" lon="2.56264">
        <ele>584.138</ele>
        <time>2009-01-30T19:34:31Z</time>
      </trkpt>
      <trkpt lat="44.35474" lon="2.56266">
        <ele>583.657</ele>
        <time>2009-01-30T19:34:32Z</time>
      </trkpt>
      <trkpt lat="44.35473" lon="2.56269">
        <ele>584.138</ele>
        <time>2009-01-30T19:34:33Z</time>
      </trkpt>
      <trkpt lat="44.35472" lon="2.56271">
        <ele>584.138</ele>
        <time>2009-01-30T19:34:34Z</time>
      </trkpt>
      <trkpt lat="44.35471" lon="2.56273">
        <ele>583.657</ele>
        <time>2009-01-30T19:34:35Z</time>
      </trkpt>
      <trkpt lat="44.3547" lon="2.56275">
        <ele>583.177</ele>
        <time>2009-01-30T19:34:36Z</time>
      </trkpt>
      <trkpt lat="44.35469" lon="2.56277">
        <ele>583.657</ele>
        <time>2009-01-30T19:34:37Z</time>
      </trkpt>
      <trkpt lat="44.35469" lon="2.5628">
        <ele>583.657</ele>
        <time>2009-01-30T19:34:38Z</time>
      </trkpt>
      <trkpt lat="44.35468" lon="2.56282">
        <ele>583.177</ele>
        <time>2009-01-30T19:34:39Z</time>
      </trkpt>
      <trkpt lat="44.35469" lon="2.56284">
        <ele>582.696</ele>
        <time>2009-01-30T19:34:40Z</time>
      </trkpt>
      <trkpt lat="44.3547" lon="2.56288">
        <ele>582.696</ele>
        <time>2009-01-30T19:34:41Z</time>
      </trkpt>
      <trkpt lat="44.35471" lon="2.56291">
        <ele>583.177</ele>
        <time>2009-01-30T19:34:42Z</time>
      </trkpt>
      <trkpt lat="44.35472" lon="2.56294">
        <ele>583.177</ele>
        <time>2009-01-30T19:34:43Z</time>
      </trkpt>
      <trkpt lat="44.35473" lon="2.56297">
        <ele>583.177</ele>
        <time>2009-01-30T19:34:44Z</time>
      </trkpt>
      <trkpt lat="44.35474" lon="2.563">
        <ele>583.657</ele>
        <time>2009-01-30T19:34:45Z</time>
      </trkpt>
      <trkpt lat="44.35474" lon="2.56302">
        <ele>583.657</ele>
        <time>2009-01-30T19:34:46Z</time>
      </trkpt>
      <trkpt lat="44.35474" lon="2.56304">
        <ele>583.657</ele>
        <time>2009-01-30T19:34:47Z</time>
      </trkpt>
      <trkpt lat="44.35474" lon="2.56306">
        <ele>583.657</ele>
        <time>2009-01-30T19:34:48Z</time>
      </trkpt>
      <trkpt lat="44.35474" lon="2.56307">
        <ele>584.619</ele>
        <time>2009-01-30T19:34:49Z</time>
      </trkpt>
      <trkpt lat="44.35474" lon="2.56309">
        <ele>584.619</ele>
        <time>2009-01-30T19:34:50Z</time>
      </trkpt>
      <trkpt lat="44.35474" lon="2.5631">
        <ele>585.1</ele>
        <time>2009-01-30T19:34:51Z</time>
      </trkpt>
      <trkpt lat="44.35474" lon="2.56311">
        <ele>585.1</ele>
        <time>2009-01-30T19:34:52Z</time>
      </trkpt>
      <trkpt lat="44.35473" lon="2.56314">
        <ele>585.1</ele>
        <time>2009-01-30T19:34:53Z</time>
      </trkpt>
      <trkpt lat="44.35473" lon="2.56316">
        <ele>585.1</ele>
        <time>2009-01-30T19:34:54Z</time>
      </trkpt>
      <trkpt lat="44.35473" lon="2.56318">
        <ele>585.1</ele>
        <time>2009-01-30T19:34:55Z</time>
      </trkpt>
      <trkpt lat="44.35472" lon="2.5632">
        <ele>585.1</ele>
        <time>2009-01-30T19:34:56Z</time>
      </trkpt>
      <trkpt lat="44.35471" lon="2.56322">
        <ele>585.1</ele>
        <time>2009-01-30T19:34:57Z</time>
      </trkpt>
      <trkpt lat="44.35471" lon="2.56324">
        <ele>584.619</ele>
        <time>2009-01-30T19:34:58Z</time>
      </trkpt>
      <trkpt lat="44.35471" lon="2.56326">
        <ele>584.138</ele>
        <time>2009-01-30T19:34:59Z</time>
      </trkpt>
      <trkpt lat="44.3547" lon="2.56328">
        <ele>583.657</ele>
        <time>2009-01-30T19:35:00Z</time>
      </trkpt>
      <trkpt lat="44.3547" lon="2.56329">
        <ele>583.177</ele>
        <time>2009-01-30T19:35:01Z</time>
      </trkpt>
      <trkpt lat="44.3547" lon="2.56331">
        <ele>583.177</ele>
        <time>2009-01-30T19:35:02Z</time>
      </trkpt>
      <trkpt lat="44.3547" lon="2.56332">
        <ele>583.177</ele>
        <time>2009-01-30T19:35:03Z</time>
      </trkpt>
      <trkpt lat="44.3547" lon="2.56333">
        <ele>583.657</ele>
        <time>2009-01-30T19:35:04Z</time>
      </trkpt>
      <trkpt lat="44.3547" lon="2.56335">
        <ele>583.657</ele>
        <time>2009-01-30T19:35:12Z</time>
      </trkpt>
      <trkpt lat="44.3547" lon="2.56337">
        <ele>584.138</ele>
        <time>2009-01-30T19:35:13Z</time>
      </trkpt>
      <trkpt lat="44.35471" lon="2.56338">
        <ele>584.138</ele>
        <time>2009-01-30T19:35:14Z</time>
      </trkpt>
      <trkpt lat="44.3547" lon="2.56339">
        <ele>584.138</ele>
        <time>2009-01-30T19:35:15Z</time>
      </trkpt>
      <trkpt lat="44.3547" lon="2.5634">
        <ele>584.619</ele>
        <time>2009-01-30T19:35:16Z</time>
      </trkpt>
      <trkpt lat="44.3547" lon="2.56341">
        <ele>585.1</ele>
        <time>2009-01-30T19:35:17Z</time>
      </trkpt>
      <trkpt lat="44.3547" lon="2.56343">
        <ele>585.1</ele>
        <time>2009-01-30T19:35:18Z</time>
      </trkpt>
      <trkpt lat="44.3547" lon="2.56344">
        <ele>585.1</ele>
        <time>2009-01-30T19:35:19Z</time>
      </trkpt>
      <trkpt lat="44.3547" lon="2.56345">
        <ele>586.061</ele>
        <time>2009-01-30T19:35:20Z</time>
      </trkpt>
      <trkpt lat="44.3547" lon="2.56346">
        <ele>586.061</ele>
        <time>2009-01-30T19:35:21Z</time>
      </trkpt>
      <trkpt lat="44.35469" lon="2.56346">
        <ele>586.542</ele>
        <time>2009-01-30T19:35:22Z</time>
      </trkpt>
      <trkpt lat="44.35469" lon="2.56347">
        <ele>586.542</ele>
        <time>2009-01-30T19:35:23Z</time>
      </trkpt>
      <trkpt lat="44.35467" lon="2.56352">
        <ele>588.945</ele>
        <time>2009-01-30T19:35:34Z</time>
      </trkpt>
      <trkpt lat="44.35466" lon="2.56352">
        <ele>589.426</ele>
        <time>2009-01-30T19:35:35Z</time>
      </trkpt>
      <trkpt lat="44.35465" lon="2.56354">
        <ele>588.945</ele>
        <time>2009-01-30T19:35:36Z</time>
      </trkpt>
      <trkpt lat="44.35465" lon="2.56355">
        <ele>588.945</ele>
        <time>2009-01-30T19:35:37Z</time>
      </trkpt>
      <trkpt lat="44.35465" lon="2.56357">
        <ele>588.945</ele>
        <time>2009-01-30T19:35:38Z</time>
      </trkpt>
      <trkpt lat="44.35466" lon="2.56358">
        <ele>587.983</ele>
        <time>2009-01-30T19:35:39Z</time>
      </trkpt>
      <trkpt lat="44.35466" lon="2.5636">
        <ele>587.503</ele>
        <time>2009-01-30T19:35:40Z</time>
      </trkpt>
      <trkpt lat="44.35466" lon="2.56361">
        <ele>587.983</ele>
        <time>2009-01-30T19:35:41Z</time>
      </trkpt>
      <trkpt lat="44.35466" lon="2.56362">
        <ele>587.503</ele>
        <time>2009-01-30T19:35:42Z</time>
      </trkpt>
      <trkpt lat="44.35466" lon="2.56361">
        <ele>586.542</ele>
        <time>2009-01-30T19:35:46Z</time>
      </trkpt>
      <trkpt lat="44.35466" lon="2.5636">
        <ele>586.061</ele>
        <time>2009-01-30T19:35:47Z</time>
      </trkpt>
      <trkpt lat="44.35467" lon="2.56359">
        <ele>585.58</ele>
        <time>2009-01-30T19:35:48Z</time>
      </trkpt>
      <trkpt lat="44.35467" lon="2.56358">
        <ele>586.061</ele>
        <time>2009-01-30T19:35:49Z</time>
      </trkpt>
      <trkpt lat="44.35469" lon="2.56358">
        <ele>586.542</ele>
        <time>2009-01-30T19:35:53Z</time>
      </trkpt>
      <trkpt lat="44.35469" lon="2.56358">
        <ele>587.022</ele>
        <time>2009-01-30T19:35:54Z</time>
      </trkpt>
      <trkpt lat="44.35469" lon="2.56359">
        <ele>586.061</ele>
        <time>2009-01-30T19:35:55Z</time>
      </trkpt>
      <trkpt lat="44.35469" lon="2.5636">
        <ele>585.58</ele>
        <time>2009-01-30T19:35:56Z</time>
      </trkpt>
      <trkpt lat="44.35469" lon="2.5636">
        <ele>584.619</ele>
        <time>2009-01-30T19:35:57Z</time>
      </trkpt>
      <trkpt lat="44.35468" lon="2.56362">
        <ele>584.619</ele>
        <time>2009-01-30T19:35:58Z</time>
      </trkpt>
      <trkpt lat="44.35468" lon="2.56362">
        <ele>584.138</ele>
        <time>2009-01-30T19:35:59Z</time>
      </trkpt>
      <trkpt lat="44.35469" lon="2.56363">
        <ele>583.657</ele>
        <time>2009-01-30T19:36:00Z</time>
      </trkpt>
      <trkpt lat="44.3547" lon="2.56363">
        <ele>581.735</ele>
        <time>2009-01-30T19:36:01Z</time>
      </trkpt>
      <trkpt lat="44.3547" lon="2.56364">
        <ele>581.254</ele>
        <time>2009-01-30T19:36:02Z</time>
      </trkpt>
      <trkpt lat="44.35471" lon="2.56364">
        <ele>581.254</ele>
        <time>2009-01-30T19:36:03Z</time>
      </trkpt>
      <trkpt lat="44.35472" lon="2.56365">
        <ele>580.774</ele>
        <time>2009-01-30T19:36:04Z</time>
      </trkpt>
      <trkpt lat="44.35473" lon="2.56365">
        <ele>580.774</ele>
        <time>2009-01-30T19:36:05Z</time>
      </trkpt>
      <trkpt lat="44.35474" lon="2.56366">
        <ele>580.774</ele>
        <time>2009-01-30T19:36:06Z</time>
      </trkpt>
      <trkpt lat="44.35475" lon="2.56366">
        <ele>580.293</ele>
        <time>2009-01-30T19:36:07Z</time>
      </trkpt>
      <trkpt lat="44.35476" lon="2.56367">
        <ele>579.812</ele>
        <time>2009-01-30T19:36:08Z</time>
      </trkpt>
      <trkpt lat="44.35477" lon="2.56368">
        <ele>579.812</ele>
        <time>2009-01-30T19:36:09Z</time>
      </trkpt>
      <trkpt lat="44.35478" lon="2.56368">
        <ele>580.293</ele>
        <time>2009-01-30T19:36:10Z</time>
      </trkpt>
      <trkpt lat="44.35479" lon="2.56369">
        <ele>580.293</ele>
        <time>2009-01-30T19:36:11Z</time>
      </trkpt>
      <trkpt lat="44.35479" lon="2.5637">
        <ele>580.774</ele>
        <time>2009-01-30T19:36:12Z</time>
      </trkpt>
      <trkpt lat="44.3548" lon="2.56371">
        <ele>580.774</ele>
        <time>2009-01-30T19:36:13Z</time>
      </trkpt>
      <trkpt lat="44.3548" lon="2.56372">
        <ele>580.293</ele>
        <time>2009-01-30T19:36:14Z</time>
      </trkpt>
      <trkpt lat="44.3548" lon="2.56372">
        <ele>579.812</ele>
        <time>2009-01-30T19:36:15Z</time>
      </trkpt>
      <trkpt lat="44.35481" lon="2.56373">
        <ele>579.332</ele>
        <time>2009-01-30T19:36:16Z</time>
      </trkpt>
      <trkpt lat="44.35482" lon="2.56373">
        <ele>578.37</ele>
        <time>2009-01-30T19:36:17Z</time>
      </trkpt>
      <trkpt lat="44.35482" lon="2.56374">
        <ele>577.89</ele>
        <time>2009-01-30T19:36:18Z</time>
      </trkpt>
      <trkpt lat="44.35483" lon="2.56375">
        <ele>577.89</ele>
        <time>2009-01-30T19:36:19Z</time>
      </trkpt>
      <trkpt lat="44.35484" lon="2.56375">
        <ele>577.409</ele>
        <time>2009-01-30T19:36:20Z</time>
      </trkpt>
      <trkpt lat="44.35485" lon="2.56375">
        <ele>576.928</ele>
        <time>2009-01-30T19:36:21Z</time>
      </trkpt>
      <trkpt lat="44.35485" lon="2.56376">
        <ele>576.928</ele>
        <time>2009-01-30T19:36:22Z</time>
      </trkpt>
      <trkpt lat="44.35486" lon="2.56376">
        <ele>576.448</ele>
        <time>2009-01-30T19:36:23Z</time>
      </trkpt>
      <trkpt lat="44.35486" lon="2.56376">
        <ele>576.448</ele>
        <time>2009-01-30T19:36:24Z</time>
      </trkpt>
      <trkpt lat="44.35486" lon="2.56377">
        <ele>575.967</ele>
        <time>2009-01-30T19:36:25Z</time>
      </trkpt>
      <trkpt lat="44.35487" lon="2.56377">
        <ele>575.967</ele>
        <time>2009-01-30T19:36:26Z</time>
      </trkpt>
      <trkpt lat="44.35488" lon="2.56377">
        <ele>575.967</ele>
        <time>2009-01-30T19:36:27Z</time>
      </trkpt>
      <trkpt lat="44.35488" lon="2.56378">
        <ele>575.006</ele>
        <time>2009-01-30T19:36:28Z</time>
      </trkpt>
      <trkpt lat="44.35489" lon="2.56379">
        <ele>574.525</ele>
        <time>2009-01-30T19:36:29Z</time>
      </trkpt>
      <trkpt lat="44.3549" lon="2.56379">
        <ele>574.044</ele>
        <time>2009-01-30T19:36:30Z</time>
      </trkpt>
      <trkpt lat="44.35491" lon="2.5638">
        <ele>573.564</ele>
        <time>2009-01-30T19:36:31Z</time>
      </trkpt>
      <trkpt lat="44.35491" lon="2.5638">
        <ele>572.603</ele>
        <time>2009-01-30T19:36:32Z</time>
      </trkpt>
      <trkpt lat="44.35492" lon="2.56381">
        <ele>572.122</ele>
        <time>2009-01-30T19:36:33Z</time>
      </trkpt>
      <trkpt lat="44.35493" lon="2.56381">
        <ele>572.122</ele>
        <time>2009-01-30T19:36:34Z</time>
      </trkpt>
      <trkpt lat="44.35494" lon="2.56382">
        <ele>572.122</ele>
        <time>2009-01-30T19:36:35Z</time>
      </trkpt>
      <trkpt lat="44.35495" lon="2.56382">
        <ele>572.122</ele>
        <time>2009-01-30T19:36:36Z</time>
      </trkpt>
      <trkpt lat="44.35495" lon="2.56383">
        <ele>571.16</ele>
        <time>2009-01-30T19:36:37Z</time>
      </trkpt>
      <trkpt lat="44.35496" lon="2.56383">
        <ele>571.16</ele>
        <time>2009-01-30T19:36:38Z</time>
      </trkpt>
      <trkpt lat="44.35497" lon="2.56383">
        <ele>570.68</ele>
        <time>2009-01-30T19:36:39Z</time>
      </trkpt>
      <trkpt lat="44.35498" lon="2.56383">
        <ele>571.16</ele>
        <time>2009-01-30T19:36:40Z</time>
      </trkpt>
      <trkpt lat="44.35498" lon="2.56382">
        <ele>570.199</ele>
        <time>2009-01-30T19:36:41Z</time>
      </trkpt>
      <trkpt lat="44.35499" lon="2.56381">
        <ele>570.199</ele>
        <time>2009-01-30T19:36:42Z</time>
      </trkpt>
      <trkpt lat="44.35501" lon="2.5638">
        <ele>570.68</ele>
        <time>2009-01-30T19:36:43Z</time>
      </trkpt>
      <trkpt lat="44.35503" lon="2.56378">
        <ele>570.68</ele>
        <time>2009-01-30T19:36:44Z</time>
      </trkpt>
      <trkpt lat="44.35505" lon="2.56375">
        <ele>570.68</ele>
        <time>2009-01-30T19:36:45Z</time>
      </trkpt>
      <trkpt lat="44.35506" lon="2.56372">
        <ele>570.68</ele>
        <time>2009-01-30T19:36:46Z</time>
      </trkpt>
      <trkpt lat="44.35508" lon="2.56369">
        <ele>570.68</ele>
        <time>2009-01-30T19:36:47Z</time>
      </trkpt>
      <trkpt lat="44.35509" lon="2.56366">
        <ele>570.68</ele>
        <time>2009-01-30T19:36:48Z</time>
      </trkpt>
      <trkpt lat="44.3551" lon="2.56363">
        <ele>570.68</ele>
        <time>2009-01-30T19:36:49Z</time>
      </trkpt>
      <trkpt lat="44.35511" lon="2.5636">
        <ele>570.199</ele>
        <time>2009-01-30T19:36:50Z</time>
      </trkpt>
      <trkpt lat="44.35512" lon="2.56357">
        <ele>570.199</ele>
        <time>2009-01-30T19:36:51Z</time>
      </trkpt>
      <trkpt lat="44.35513" lon="2.56354">
        <ele>570.68</ele>
        <time>2009-01-30T19:36:52Z</time>
      </trkpt>
      <trkpt lat="44.35514" lon="2.56351">
        <ele>569.719</ele>
        <time>2009-01-30T19:36:53Z</time>
      </trkpt>
      <trkpt lat="44.35515" lon="2.56348">
        <ele>569.719</ele>
        <time>2009-01-30T19:36:54Z</time>
      </trkpt>
      <trkpt lat="44.35516" lon="2.56345">
        <ele>569.238</ele>
        <time>2009-01-30T19:36:55Z</time>
      </trkpt>
      <trkpt lat="44.35517" lon="2.56342">
        <ele>569.238</ele>
        <time>2009-01-30T19:36:56Z</time>
      </trkpt>
      <trkpt lat="44.35518" lon="2.56339">
        <ele>569.238</ele>
        <time>2009-01-30T19:36:57Z</time>
      </trkpt>
      <trkpt lat="44.35518" lon="2.56336">
        <ele>569.719</ele>
        <time>2009-01-30T19:36:58Z</time>
      </trkpt>
      <trkpt lat="44.35519" lon="2.56333">
        <ele>569.238</ele>
        <time>2009-01-30T19:36:59Z</time>
      </trkpt>
      <trkpt lat="44.3552" lon="2.5633">
        <ele>569.719</ele>
        <time>2009-01-30T19:37:00Z</time>
      </trkpt>
      <trkpt lat="44.3552" lon="2.56327">
        <ele>569.238</ele>
        <time>2009-01-30T19:37:01Z</time>
      </trkpt>
      <trkpt lat="44.35521" lon="2.56323">
        <ele>569.238</ele>
        <time>2009-01-30T19:37:02Z</time>
      </trkpt>
      <trkpt lat="44.35521" lon="2.5632">
        <ele>568.276</ele>
        <time>2009-01-30T19:37:03Z</time>
      </trkpt>
      <trkpt lat="44.35521" lon="2.56317">
        <ele>567.796</ele>
        <time>2009-01-30T19:37:04Z</time>
      </trkpt>
      <trkpt lat="44.35521" lon="2.56314">
        <ele>567.315</ele>
        <time>2009-01-30T19:37:05Z</time>
      </trkpt>
      <trkpt lat="44.35521" lon="2.5631">
        <ele>567.315</ele>
        <time>2009-01-30T19:37:06Z</time>
      </trkpt>
      <trkpt lat="44.35521" lon="2.56307">
        <ele>566.834</ele>
        <time>2009-01-30T19:37:07Z</time>
      </trkpt>
      <trkpt lat="44.35521" lon="2.56303">
        <ele>566.834</ele>
        <time>2009-01-30T19:37:08Z</time>
      </trkpt>
      <trkpt lat="44.35521" lon="2.563">
        <ele>566.834</ele>
        <time>2009-01-30T19:37:09Z</time>
      </trkpt>
      <trkpt lat="44.3552" lon="2.56296">
        <ele>566.834</ele>
        <time>2009-01-30T19:37:10Z</time>
      </trkpt>
      <trkpt lat="44.3552" lon="2.56293">
        <ele>566.354</ele>
        <time>2009-01-30T19:37:11Z</time>
      </trkpt>
      <trkpt lat="44.3552" lon="2.56289">
        <ele>566.834</ele>
        <time>2009-01-30T19:37:12Z</time>
      </trkpt>
      <trkpt lat="44.35519" lon="2.56286">
        <ele>566.354</ele>
        <time>2009-01-30T19:37:13Z</time>
      </trkpt>
      <trkpt lat="44.35518" lon="2.56282">
        <ele>566.354</ele>
        <time>2009-01-30T19:37:14Z</time>
      </trkpt>
      <trkpt lat="44.35518" lon="2.56278">
        <ele>566.354</ele>
        <time>2009-01-30T19:37:15Z</time>
      </trkpt>
      <trkpt lat="44.35517" lon="2.56275">
        <ele>565.393</ele>
        <time>2009-01-30T19:37:16Z</time>
      </trkpt>
      <trkpt lat="44.35516" lon="2.56271">
        <ele>565.393</ele>
        <time>2009-01-30T19:37:17Z</time>
      </trkpt>
      <trkpt lat="44.35515" lon="2.56267">
        <ele>565.393</ele>
        <time>2009-01-30T19:37:18Z</time>
      </trkpt>
      <trkpt lat="44.35515" lon="2.56264">
        <ele>565.393</ele>
        <time>2009-01-30T19:37:19Z</time>
      </trkpt>
      <trkpt lat="44.35514" lon="2.56261">
        <ele>564.912</ele>
        <time>2009-01-30T19:37:20Z</time>
      </trkpt>
      <trkpt lat="44.35513" lon="2.56258">
        <ele>564.431</ele>
        <time>2009-01-30T19:37:21Z</time>
      </trkpt>
      <trkpt lat="44.35512" lon="2.56254">
        <ele>563.95</ele>
        <time>2009-01-30T19:37:22Z</time>
      </trkpt>
      <trkpt lat="44.35512" lon="2.5625">
        <ele>563.95</ele>
        <time>2009-01-30T19:37:23Z</time>
      </trkpt>
      <trkpt lat="44.35511" lon="2.56247">
        <ele>563.47</ele>
        <time>2009-01-30T19:37:24Z</time>
      </trkpt>
      <trkpt lat="44.3551" lon="2.56243">
        <ele>563.95</ele>
        <time>2009-01-30T19:37:25Z</time>
      </trkpt>
      <trkpt lat="44.35509" lon="2.56239">
        <ele>563.95</ele>
        <time>2009-01-30T19:37:26Z</time>
      </trkpt>
      <trkpt lat="44.35508" lon="2.56236">
        <ele>563.47</ele>
        <time>2009-01-30T19:37:27Z</time>
      </trkpt>
      <trkpt lat="44.35506" lon="2.56233">
        <ele>562.509</ele>
        <time>2009-01-30T19:37:28Z</time>
      </trkpt>
      <trkpt lat="44.35505" lon="2.56229">
        <ele>562.028</ele>
        <time>2009-01-30T19:37:29Z</time>
      </trkpt>
      <trkpt lat="44.35503" lon="2.56226">
        <ele>562.028</ele>
        <time>2009-01-30T19:37:30Z</time>
      </trkpt>
      <trkpt lat="44.35502" lon="2.56223">
        <ele>562.028</ele>
        <time>2009-01-30T19:37:31Z</time>
      </trkpt>
      <trkpt lat="44.355" lon="2.5622">
        <ele>561.547</ele>
        <time>2009-01-30T19:37:32Z</time>
      </trkpt>
      <trkpt lat="44.35499" lon="2.56217">
        <ele>561.547</ele>
        <time>2009-01-30T19:37:33Z</time>
      </trkpt>
      <trkpt lat="44.35497" lon="2.56214">
        <ele>561.067</ele>
        <time>2009-01-30T19:37:34Z</time>
      </trkpt>
      <trkpt lat="44.35495" lon="2.56212">
        <ele>560.586</ele>
        <time>2009-01-30T19:37:35Z</time>
      </trkpt>
      <trkpt lat="44.35493" lon="2.56209">
        <ele>560.105</ele>
        <time>2009-01-30T19:37:36Z</time>
      </trkpt>
      <trkpt lat="44.35491" lon="2.56207">
        <ele>559.625</ele>
        <time>2009-01-30T19:37:37Z</time>
      </trkpt>
      <trkpt lat="44.35489" lon="2.56205">
        <ele>559.144</ele>
        <time>2009-01-30T19:37:38Z</time>
      </trkpt>
      <trkpt lat="44.35486" lon="2.56204">
        <ele>558.183</ele>
        <time>2009-01-30T19:37:39Z</time>
      </trkpt>
      <trkpt lat="44.35485" lon="2.56203">
        <ele>557.702</ele>
        <time>2009-01-30T19:37:40Z</time>
      </trkpt>
      <trkpt lat="44.35482" lon="2.56202">
        <ele>557.702</ele>
        <time>2009-01-30T19:37:41Z</time>
      </trkpt>
      <trkpt lat="44.3548" lon="2.56201">
        <ele>556.741</ele>
        <time>2009-01-30T19:37:42Z</time>
      </trkpt>
      <trkpt lat="44.35478" lon="2.56201">
        <ele>556.26</ele>
        <time>2009-01-30T19:37:43Z</time>
      </trkpt>
      <trkpt lat="44.35476" lon="2.562">
        <ele>555.299</ele>
        <time>2009-01-30T19:37:44Z</time>
      </trkpt>
      <trkpt lat="44.35473" lon="2.56199">
        <ele>553.857</ele>
        <time>2009-01-30T19:37:45Z</time>
      </trkpt>
      <trkpt lat="44.3547" lon="2.56198">
        <ele>553.376</ele>
        <time>2009-01-30T19:37:46Z</time>
      </trkpt>
      <trkpt lat="44.35468" lon="2.56196">
        <ele>552.895</ele>
        <time>2009-01-30T19:37:47Z</time>
      </trkpt>
      <trkpt lat="44.35465" lon="2.56195">
        <ele>551.934</ele>
        <time>2009-01-30T19:37:48Z</time>
      </trkpt>
      <trkpt lat="44.35462" lon="2.56193">
        <ele>550.492</ele>
        <time>2009-01-30T19:37:49Z</time>
      </trkpt>
      <trkpt lat="44.3546" lon="2.56192">
        <ele>549.05</ele>
        <time>2009-01-30T19:37:50Z</time>
      </trkpt>
      <trkpt lat="44.35458" lon="2.5619">
        <ele>548.089</ele>
        <time>2009-01-30T19:37:51Z</time>
      </trkpt>
      <trkpt lat="44.35457" lon="2.56187">
        <ele>547.608</ele>
        <time>2009-01-30T19:37:52Z</time>
      </trkpt>
      <trkpt lat="44.35457" lon="2.56181">
        <ele>550.011</ele>
        <time>2009-01-30T19:37:53Z</time>
      </trkpt>
      <trkpt lat="44.35457" lon="2.56175">
        <ele>551.453</ele>
        <time>2009-01-30T19:37:54Z</time>
      </trkpt>
      <trkpt lat="44.35457" lon="2.5617">
        <ele>552.895</ele>
        <time>2009-01-30T19:37:55Z</time>
      </trkpt>
      <trkpt lat="44.35458" lon="2.56165">
        <ele>553.857</ele>
        <time>2009-01-30T19:37:56Z</time>
      </trkpt>
      <trkpt lat="44.35459" lon="2.5616">
        <ele>555.299</ele>
        <time>2009-01-30T19:37:57Z</time>
      </trkpt>
      <trkpt lat="44.3546" lon="2.56155">
        <ele>556.741</ele>
        <time>2009-01-30T19:37:58Z</time>
      </trkpt>
      <trkpt lat="44.35462" lon="2.56151">
        <ele>558.183</ele>
        <time>2009-01-30T19:37:59Z</time>
      </trkpt>
      <trkpt lat="44.35463" lon="2.56147">
        <ele>558.663</ele>
        <time>2009-01-30T19:38:00Z</time>
      </trkpt>
      <trkpt lat="44.35464" lon="2.56143">
        <ele>558.663</ele>
        <time>2009-01-30T19:38:01Z</time>
      </trkpt>
      <trkpt lat="44.35466" lon="2.56139">
        <ele>560.105</ele>
        <time>2009-01-30T19:38:02Z</time>
      </trkpt>
      <trkpt lat="44.35468" lon="2.56135">
        <ele>560.586</ele>
        <time>2009-01-30T19:38:03Z</time>
      </trkpt>
      <trkpt lat="44.35469" lon="2.56131">
        <ele>561.067</ele>
        <time>2009-01-30T19:38:04Z</time>
      </trkpt>
      <trkpt lat="44.35471" lon="2.56128">
        <ele>561.067</ele>
        <time>2009-01-30T19:38:05Z</time>
      </trkpt>
      <trkpt lat="44.35472" lon="2.56124">
        <ele>561.067</ele>
        <time>2009-01-30T19:38:06Z</time>
      </trkpt>
      <trkpt lat="44.35473" lon="2.56121">
        <ele>561.067</ele>
        <time>2009-01-30T19:38:07Z</time>
      </trkpt>
      <trkpt lat="44.35474" lon="2.56119">
        <ele>561.067</ele>
        <time>2009-01-30T19:38:08Z</time>
      </trkpt>
      <trkpt lat="44.35475" lon="2.56117">
        <ele>560.586</ele>
        <time>2009-01-30T19:38:09Z</time>
      </trkpt>
      <trkpt lat="44.35475" lon="2.56116">
        <ele>560.105</ele>
        <time>2009-01-30T19:38:10Z</time>
      </trkpt>
      <trkpt lat="44.35475" lon="2.56114">
        <ele>560.105</ele>
        <time>2009-01-30T19:38:11Z</time>
      </trkpt>
      <trkpt lat="44.35475" lon="2.56113">
        <ele>559.625</ele>
        <time>2009-01-30T19:38:12Z</time>
      </trkpt>
      <trkpt lat="44.35475" lon="2.56111">
        <ele>559.625</ele>
        <time>2009-01-30T19:38:13Z</time>
      </trkpt>
      <trkpt lat="44.35475" lon="2.56109">
        <ele>559.144</ele>
        <time>2009-01-30T19:38:14Z</time>
      </trkpt>
      <trkpt lat="44.35475" lon="2.56108">
        <ele>558.663</ele>
        <time>2009-01-30T19:38:15Z</time>
      </trkpt>
      <trkpt lat="44.35474" lon="2.56106">
        <ele>557.702</ele>
        <time>2009-01-30T19:38:16Z</time>
      </trkpt>
      <trkpt lat="44.35473" lon="2.56104">
        <ele>556.741</ele>
        <time>2009-01-30T19:38:17Z</time>
      </trkpt>
      <trkpt lat="44.35473" lon="2.56103">
        <ele>556.26</ele>
        <time>2009-01-30T19:38:18Z</time>
      </trkpt>
      <trkpt lat="44.35472" lon="2.56102">
        <ele>555.779</ele>
        <time>2009-01-30T19:38:19Z</time>
      </trkpt>
      <trkpt lat="44.35471" lon="2.56101">
        <ele>555.299</ele>
        <time>2009-01-30T19:38:20Z</time>
      </trkpt>
      <trkpt lat="44.3547" lon="2.56101">
        <ele>555.299</ele>
        <time>2009-01-30T19:38:21Z</time>
      </trkpt>
      <trkpt lat="44.35468" lon="2.561">
        <ele>554.818</ele>
        <time>2009-01-30T19:38:25Z</time>
      </trkpt>
      <trkpt lat="44.35468" lon="2.561">
        <ele>554.337</ele>
        <time>2009-01-30T19:38:26Z</time>
      </trkpt>
      <trkpt lat="44.35465" lon="2.56096">
        <ele>559.144</ele>
        <time>2009-01-30T19:39:27Z</time>
      </trkpt>
      <trkpt lat="44.35466" lon="2.56097">
        <ele>560.105</ele>
        <time>2009-01-30T19:39:28Z</time>
      </trkpt>
      <trkpt lat="44.35467" lon="2.56098">
        <ele>561.067</ele>
        <time>2009-01-30T19:39:29Z</time>
      </trkpt>
      <trkpt lat="44.35467" lon="2.56099">
        <ele>560.105</ele>
        <time>2009-01-30T19:39:30Z</time>
      </trkpt>
      <trkpt lat="44.35467" lon="2.56099">
        <ele>558.663</ele>
        <time>2009-01-30T19:39:31Z</time>
      </trkpt>
      <trkpt lat="44.35466" lon="2.56099">
        <ele>554.337</ele>
        <time>2009-01-30T19:39:40Z</time>
      </trkpt>
      <trkpt lat="44.35465" lon="2.561">
        <ele>555.299</ele>
        <time>2009-01-30T19:39:41Z</time>
      </trkpt>
      <trkpt lat="44.35465" lon="2.561">
        <ele>555.299</ele>
        <time>2009-01-30T19:39:42Z</time>
      </trkpt>
      <trkpt lat="44.35465" lon="2.56099">
        <ele>555.779</ele>
        <time>2009-01-30T19:39:47Z</time>
      </trkpt>
      <trkpt lat="44.35465" lon="2.56099">
        <ele>555.779</ele>
        <time>2009-01-30T19:39:48Z</time>
      </trkpt>
      <trkpt lat="44.35465" lon="2.56098">
        <ele>555.779</ele>
        <time>2009-01-30T19:39:56Z</time>
      </trkpt>
      <trkpt lat="44.35464" lon="2.56097">
        <ele>555.299</ele>
        <time>2009-01-30T19:39:57Z</time>
      </trkpt>
      <trkpt lat="44.35464" lon="2.56096">
        <ele>555.779</ele>
        <time>2009-01-30T19:39:58Z</time>
      </trkpt>
      <trkpt lat="44.35464" lon="2.56096">
        <ele>555.779</ele>
        <time>2009-01-30T19:39:59Z</time>
      </trkpt>
      <trkpt lat="44.35464" lon="2.56096">
        <ele>555.779</ele>
        <time>2009-01-30T19:40:00Z</time>
      </trkpt>
      <trkpt lat="44.35464" lon="2.56095">
        <ele>556.26</ele>
        <time>2009-01-30T19:40:01Z</time>
      </trkpt>
      <trkpt lat="44.35463" lon="2.56094">
        <ele>556.26</ele>
        <time>2009-01-30T19:40:04Z</time>
      </trkpt>
      <trkpt lat="44.35462" lon="2.56094">
        <ele>556.26</ele>
        <time>2009-01-30T19:40:05Z</time>
      </trkpt>
      <trkpt lat="44.35462" lon="2.56093">
        <ele>556.26</ele>
        <time>2009-01-30T19:40:06Z</time>
      </trkpt>
      <trkpt lat="44.35462" lon="2.56093">
        <ele>556.741</ele>
        <time>2009-01-30T19:40:07Z</time>
      </trkpt>
      <trkpt lat="44.35461" lon="2.56091">
        <ele>554.337</ele>
        <time>2009-01-30T19:40:14Z</time>
      </trkpt>
      <trkpt lat="44.35461" lon="2.5609">
        <ele>554.337</ele>
        <time>2009-01-30T19:40:15Z</time>
      </trkpt>
      <trkpt lat="44.3546" lon="2.5609">
        <ele>553.857</ele>
        <time>2009-01-30T19:40:16Z</time>
      </trkpt>
      <trkpt lat="44.35459" lon="2.56089">
        <ele>552.895</ele>
        <time>2009-01-30T19:40:17Z</time>
      </trkpt>
      <trkpt lat="44.35459" lon="2.56089">
        <ele>552.415</ele>
        <time>2009-01-30T19:40:18Z</time>
      </trkpt>
      <trkpt lat="44.35458" lon="2.56089">
        <ele>552.415</ele>
        <time>2009-01-30T19:40:19Z</time>
      </trkpt>
      <trkpt lat="44.35458" lon="2.56089">
        <ele>551.934</ele>
        <time>2009-01-30T19:40:20Z</time>
      </trkpt>
      <trkpt lat="44.35457" lon="2.56087">
        <ele>550.011</ele>
        <time>2009-01-30T19:40:26Z</time>
      </trkpt>
      <trkpt lat="44.35456" lon="2.56087">
        <ele>549.531</ele>
        <time>2009-01-30T19:40:27Z</time>
      </trkpt>
      <trkpt lat="44.35456" lon="2.56085">
        <ele>549.531</ele>
        <time>2009-01-30T19:40:29Z</time>
      </trkpt>
      <trkpt lat="44.35456" lon="2.56084">
        <ele>549.531</ele>
        <time>2009-01-30T19:40:30Z</time>
      </trkpt>
      <trkpt lat="44.35455" lon="2.56083">
        <ele>550.492</ele>
        <time>2009-01-30T19:40:31Z</time>
      </trkpt>
      <trkpt lat="44.35455" lon="2.56081">
        <ele>550.973</ele>
        <time>2009-01-30T19:40:32Z</time>
      </trkpt>
      <trkpt lat="44.35454" lon="2.5608">
        <ele>551.453</ele>
        <time>2009-01-30T19:40:33Z</time>
      </trkpt>
      <trkpt lat="44.35453" lon="2.56079">
        <ele>551.453</ele>
        <time>2009-01-30T19:40:34Z</time>
      </trkpt>
      <trkpt lat="44.35452" lon="2.56078">
        <ele>551.453</ele>
        <time>2009-01-30T19:40:35Z</time>
      </trkpt>
      <trkpt lat="44.35451" lon="2.56078">
        <ele>551.453</ele>
        <time>2009-01-30T19:40:36Z</time>
      </trkpt>
      <trkpt lat="44.3545" lon="2.56078">
        <ele>551.934</ele>
        <time>2009-01-30T19:40:37Z</time>
      </trkpt>
      <trkpt lat="44.3545" lon="2.56078">
        <ele>552.895</ele>
        <time>2009-01-30T19:40:38Z</time>
      </trkpt>
      <trkpt lat="44.35449" lon="2.56077">
        <ele>553.376</ele>
        <time>2009-01-30T19:40:39Z</time>
      </trkpt>
      <trkpt lat="44.35448" lon="2.56075">
        <ele>553.857</ele>
        <time>2009-01-30T19:40:43Z</time>
      </trkpt>
      <trkpt lat="44.35448" lon="2.56074">
        <ele>554.337</ele>
        <time>2009-01-30T19:40:44Z</time>
      </trkpt>
      <trkpt lat="44.35448" lon="2.56074">
        <ele>553.857</ele>
        <time>2009-01-30T19:40:45Z</time>
      </trkpt>
      <trkpt lat="44.35447" lon="2.56073">
        <ele>553.376</ele>
        <time>2009-01-30T19:40:47Z</time>
      </trkpt>
      <trkpt lat="44.35447" lon="2.56073">
        <ele>553.857</ele>
        <time>2009-01-30T19:40:48Z</time>
      </trkpt>
      <trkpt lat="44.35446" lon="2.56072">
        <ele>553.376</ele>
        <time>2009-01-30T19:40:52Z</time>
      </trkpt>
      <trkpt lat="44.35445" lon="2.56071">
        <ele>553.376</ele>
        <time>2009-01-30T19:40:53Z</time>
      </trkpt>
      <trkpt lat="44.35442" lon="2.56068">
        <ele>550.011</ele>
        <time>2009-01-30T19:41:10Z</time>
      </trkpt>
      <trkpt lat="44.35441" lon="2.56068">
        <ele>549.531</ele>
        <time>2009-01-30T19:41:11Z</time>
      </trkpt>
      <trkpt lat="44.3544" lon="2.56068">
        <ele>549.05</ele>
        <time>2009-01-30T19:41:12Z</time>
      </trkpt>
      <trkpt lat="44.3544" lon="2.56068">
        <ele>549.05</ele>
        <time>2009-01-30T19:41:13Z</time>
      </trkpt>
      <trkpt lat="44.35439" lon="2.56067">
        <ele>549.05</ele>
        <time>2009-01-30T19:41:14Z</time>
      </trkpt>
      <trkpt lat="44.35438" lon="2.56068">
        <ele>547.127</ele>
        <time>2009-01-30T19:41:15Z</time>
      </trkpt>
      <trkpt lat="44.35436" lon="2.56068">
        <ele>545.205</ele>
        <time>2009-01-30T19:41:16Z</time>
      </trkpt>
      <trkpt lat="44.35435" lon="2.56068">
        <ele>545.205</ele>
        <time>2009-01-30T19:41:17Z</time>
      </trkpt>
      <trkpt lat="44.35434" lon="2.56067">
        <ele>544.724</ele>
        <time>2009-01-30T19:41:18Z</time>
      </trkpt>
      <trkpt lat="44.35433" lon="2.56067">
        <ele>545.205</ele>
        <time>2009-01-30T19:41:19Z</time>
      </trkpt>
      <trkpt lat="44.35432" lon="2.56067">
        <ele>545.686</ele>
        <time>2009-01-30T19:41:20Z</time>
      </trkpt>
      <trkpt lat="44.3543" lon="2.56066">
        <ele>545.205</ele>
        <time>2009-01-30T19:41:21Z</time>
      </trkpt>
      <trkpt lat="44.35429" lon="2.56065">
        <ele>545.205</ele>
        <time>2009-01-30T19:41:22Z</time>
      </trkpt>
      <trkpt lat="44.35429" lon="2.56064">
        <ele>545.686</ele>
        <time>2009-01-30T19:41:23Z</time>
      </trkpt>
      <trkpt lat="44.35428" lon="2.56063">
        <ele>546.647</ele>
        <time>2009-01-30T19:41:24Z</time>
      </trkpt>
      <trkpt lat="44.35427" lon="2.56061">
        <ele>546.647</ele>
        <time>2009-01-30T19:41:25Z</time>
      </trkpt>
      <trkpt lat="44.35425" lon="2.56061">
        <ele>545.205</ele>
        <time>2009-01-30T19:41:26Z</time>
      </trkpt>
      <trkpt lat="44.35425" lon="2.56059">
        <ele>545.205</ele>
        <time>2009-01-30T19:41:27Z</time>
      </trkpt>
      <trkpt lat="44.35423" lon="2.56057">
        <ele>544.244</ele>
        <time>2009-01-30T19:41:28Z</time>
      </trkpt>
      <trkpt lat="44.35422" lon="2.56056">
        <ele>543.282</ele>
        <time>2009-01-30T19:41:29Z</time>
      </trkpt>
      <trkpt lat="44.3542" lon="2.56055">
        <ele>542.321</ele>
        <time>2009-01-30T19:41:30Z</time>
      </trkpt>
      <trkpt lat="44.35419" lon="2.56054">
        <ele>542.321</ele>
        <time>2009-01-30T19:41:31Z</time>
      </trkpt>
      <trkpt lat="44.35418" lon="2.56053">
        <ele>541.84</ele>
        <time>2009-01-30T19:41:32Z</time>
      </trkpt>
      <trkpt lat="44.35416" lon="2.56052">
        <ele>541.84</ele>
        <time>2009-01-30T19:41:33Z</time>
      </trkpt>
      <trkpt lat="44.35415" lon="2.56052">
        <ele>541.359</ele>
        <time>2009-01-30T19:41:34Z</time>
      </trkpt>
      <trkpt lat="44.35413" lon="2.56052">
        <ele>540.398</ele>
        <time>2009-01-30T19:41:35Z</time>
      </trkpt>
      <trkpt lat="44.35412" lon="2.56051">
        <ele>540.398</ele>
        <time>2009-01-30T19:41:36Z</time>
      </trkpt>
      <trkpt lat="44.3541" lon="2.5605">
        <ele>539.918</ele>
        <time>2009-01-30T19:41:37Z</time>
      </trkpt>
      <trkpt lat="44.35409" lon="2.56049">
        <ele>539.918</ele>
        <time>2009-01-30T19:41:38Z</time>
      </trkpt>
      <trkpt lat="44.35407" lon="2.56048">
        <ele>538.956</ele>
        <time>2009-01-30T19:41:39Z</time>
      </trkpt>
      <trkpt lat="44.35406" lon="2.56047">
        <ele>538.956</ele>
        <time>2009-01-30T19:41:40Z</time>
      </trkpt>
      <trkpt lat="44.35405" lon="2.56046">
        <ele>537.995</ele>
        <time>2009-01-30T19:41:41Z</time>
      </trkpt>
      <trkpt lat="44.35403" lon="2.56045">
        <ele>537.995</ele>
        <time>2009-01-30T19:41:42Z</time>
      </trkpt>
      <trkpt lat="44.35403" lon="2.56044">
        <ele>538.476</ele>
        <time>2009-01-30T19:41:43Z</time>
      </trkpt>
      <trkpt lat="44.35402" lon="2.56043">
        <ele>538.956</ele>
        <time>2009-01-30T19:41:44Z</time>
      </trkpt>
      <trkpt lat="44.35402" lon="2.56042">
        <ele>538.956</ele>
        <time>2009-01-30T19:41:45Z</time>
      </trkpt>
      <trkpt lat="44.35401" lon="2.56041">
        <ele>538.956</ele>
        <time>2009-01-30T19:41:46Z</time>
      </trkpt>
      <trkpt lat="44.354" lon="2.56041">
        <ele>538.476</ele>
        <time>2009-01-30T19:41:47Z</time>
      </trkpt>
      <trkpt lat="44.35398" lon="2.5604">
        <ele>538.476</ele>
        <time>2009-01-30T19:41:48Z</time>
      </trkpt>
      <trkpt lat="44.35397" lon="2.56039">
        <ele>537.995</ele>
        <time>2009-01-30T19:41:49Z</time>
      </trkpt>
      <trkpt lat="44.35396" lon="2.56039">
        <ele>536.553</ele>
        <time>2009-01-30T19:41:50Z</time>
      </trkpt>
      <trkpt lat="44.35395" lon="2.56039">
        <ele>536.072</ele>
        <time>2009-01-30T19:41:51Z</time>
      </trkpt>
      <trkpt lat="44.35393" lon="2.56038">
        <ele>535.592</ele>
        <time>2009-01-30T19:41:52Z</time>
      </trkpt>
      <trkpt lat="44.35392" lon="2.56038">
        <ele>535.592</ele>
        <time>2009-01-30T19:41:53Z</time>
      </trkpt>
      <trkpt lat="44.3539" lon="2.56037">
        <ele>534.15</ele>
        <time>2009-01-30T19:41:54Z</time>
      </trkpt>
      <trkpt lat="44.35389" lon="2.56037">
        <ele>533.188</ele>
        <time>2009-01-30T19:41:55Z</time>
      </trkpt>
      <trkpt lat="44.35387" lon="2.56036">
        <ele>532.227</ele>
        <time>2009-01-30T19:41:56Z</time>
      </trkpt>
      <trkpt lat="44.35386" lon="2.56035">
        <ele>532.227</ele>
        <time>2009-01-30T19:41:57Z</time>
      </trkpt>
      <trkpt lat="44.35384" lon="2.56034">
        <ele>533.669</ele>
        <time>2009-01-30T19:41:58Z</time>
      </trkpt>
      <trkpt lat="44.35383" lon="2.56033">
        <ele>533.669</ele>
        <time>2009-01-30T19:41:59Z</time>
      </trkpt>
      <trkpt lat="44.35381" lon="2.56031">
        <ele>532.708</ele>
        <time>2009-01-30T19:42:00Z</time>
      </trkpt>
      <trkpt lat="44.3538" lon="2.56029">
        <ele>532.708</ele>
        <time>2009-01-30T19:42:01Z</time>
      </trkpt>
      <trkpt lat="44.35378" lon="2.56028">
        <ele>531.746</ele>
        <time>2009-01-30T19:42:02Z</time>
      </trkpt>
      <trkpt lat="44.35377" lon="2.56025">
        <ele>531.746</ele>
        <time>2009-01-30T19:42:03Z</time>
      </trkpt>
      <trkpt lat="44.35375" lon="2.56023">
        <ele>531.266</ele>
        <time>2009-01-30T19:42:04Z</time>
      </trkpt>
      <trkpt lat="44.35374" lon="2.5602">
        <ele>532.227</ele>
        <time>2009-01-30T19:42:05Z</time>
      </trkpt>
      <trkpt lat="44.35373" lon="2.56016">
        <ele>532.708</ele>
        <time>2009-01-30T19:42:06Z</time>
      </trkpt>
      <trkpt lat="44.35372" lon="2.56014">
        <ele>533.669</ele>
        <time>2009-01-30T19:42:07Z</time>
      </trkpt>
      <trkpt lat="44.35371" lon="2.56011">
        <ele>533.669</ele>
        <time>2009-01-30T19:42:08Z</time>
      </trkpt>
      <trkpt lat="44.3537" lon="2.56008">
        <ele>534.15</ele>
        <time>2009-01-30T19:42:09Z</time>
      </trkpt>
      <trkpt lat="44.35368" lon="2.56006">
        <ele>533.188</ele>
        <time>2009-01-30T19:42:10Z</time>
      </trkpt>
      <trkpt lat="44.35366" lon="2.56004">
        <ele>534.15</ele>
        <time>2009-01-30T19:42:11Z</time>
      </trkpt>
      <trkpt lat="44.35364" lon="2.56002">
        <ele>535.111</ele>
        <time>2009-01-30T19:42:12Z</time>
      </trkpt>
      <trkpt lat="44.35362" lon="2.56">
        <ele>535.592</ele>
        <time>2009-01-30T19:42:13Z</time>
      </trkpt>
      <trkpt lat="44.35361" lon="2.55999">
        <ele>535.592</ele>
        <time>2009-01-30T19:42:14Z</time>
      </trkpt>
      <trkpt lat="44.35359" lon="2.55998">
        <ele>534.15</ele>
        <time>2009-01-30T19:42:15Z</time>
      </trkpt>
      <trkpt lat="44.35358" lon="2.55997">
        <ele>534.63</ele>
        <time>2009-01-30T19:42:16Z</time>
      </trkpt>
      <trkpt lat="44.35357" lon="2.55995">
        <ele>533.669</ele>
        <time>2009-01-30T19:42:17Z</time>
      </trkpt>
      <trkpt lat="44.35355" lon="2.55994">
        <ele>532.708</ele>
        <time>2009-01-30T19:42:18Z</time>
      </trkpt>
      <trkpt lat="44.35353" lon="2.55992">
        <ele>531.746</ele>
        <time>2009-01-30T19:42:19Z</time>
      </trkpt>
      <trkpt lat="44.35352" lon="2.55991">
        <ele>530.304</ele>
        <time>2009-01-30T19:42:20Z</time>
      </trkpt>
      <trkpt lat="44.35351" lon="2.55989">
        <ele>529.824</ele>
        <time>2009-01-30T19:42:21Z</time>
      </trkpt>
      <trkpt lat="44.3535" lon="2.55987">
        <ele>530.304</ele>
        <time>2009-01-30T19:42:22Z</time>
      </trkpt>
      <trkpt lat="44.35349" lon="2.55983">
        <ele>531.266</ele>
        <time>2009-01-30T19:42:23Z</time>
      </trkpt>
      <trkpt lat="44.35349" lon="2.55981">
        <ele>531.746</ele>
        <time>2009-01-30T19:42:24Z</time>
      </trkpt>
      <trkpt lat="44.35347" lon="2.5598">
        <ele>531.746</ele>
        <time>2009-01-30T19:42:25Z</time>
      </trkpt>
      <trkpt lat="44.35347" lon="2.55978">
        <ele>531.746</ele>
        <time>2009-01-30T19:42:26Z</time>
      </trkpt>
      <trkpt lat="44.35347" lon="2.55975">
        <ele>534.15</ele>
        <time>2009-01-30T19:42:27Z</time>
      </trkpt>
      <trkpt lat="44.35347" lon="2.55972">
        <ele>535.592</ele>
        <time>2009-01-30T19:42:28Z</time>
      </trkpt>
      <trkpt lat="44.35347" lon="2.5597">
        <ele>536.553</ele>
        <time>2009-01-30T19:42:29Z</time>
      </trkpt>
      <trkpt lat="44.35346" lon="2.55967">
        <ele>536.553</ele>
        <time>2009-01-30T19:42:30Z</time>
      </trkpt>
      <trkpt lat="44.35346" lon="2.55965">
        <ele>536.072</ele>
        <time>2009-01-30T19:42:31Z</time>
      </trkpt>
      <trkpt lat="44.35345" lon="2.55964">
        <ele>536.072</ele>
        <time>2009-01-30T19:42:32Z</time>
      </trkpt>
      <trkpt lat="44.35344" lon="2.55963">
        <ele>535.592</ele>
        <time>2009-01-30T19:42:33Z</time>
      </trkpt>
      <trkpt lat="44.35343" lon="2.55961">
        <ele>536.072</ele>
        <time>2009-01-30T19:42:34Z</time>
      </trkpt>
      <trkpt lat="44.35342" lon="2.55958">
        <ele>536.553</ele>
        <time>2009-01-30T19:42:35Z</time>
      </trkpt>
      <trkpt lat="44.35341" lon="2.55956">
        <ele>536.553</ele>
        <time>2009-01-30T19:42:36Z</time>
      </trkpt>
      <trkpt lat="44.3534" lon="2.55954">
        <ele>536.553</ele>
        <time>2009-01-30T19:42:37Z</time>
      </trkpt>
      <trkpt lat="44.3534" lon="2.55952">
        <ele>537.995</ele>
        <time>2009-01-30T19:42:38Z</time>
      </trkpt>
      <trkpt lat="44.35339" lon="2.55949">
        <ele>537.514</ele>
        <time>2009-01-30T19:42:39Z</time>
      </trkpt>
      <trkpt lat="44.35337" lon="2.55947">
        <ele>538.476</ele>
        <time>2009-01-30T19:42:40Z</time>
      </trkpt>
      <trkpt lat="44.35336" lon="2.55946">
        <ele>538.956</ele>
        <time>2009-01-30T19:42:41Z</time>
      </trkpt>
      <trkpt lat="44.35335" lon="2.55944">
        <ele>539.918</ele>
        <time>2009-01-30T19:42:42Z</time>
      </trkpt>
      <trkpt lat="44.35334" lon="2.55942">
        <ele>540.398</ele>
        <time>2009-01-30T19:42:43Z</time>
      </trkpt>
      <trkpt lat="44.35333" lon="2.5594">
        <ele>540.879</ele>
        <time>2009-01-30T19:42:44Z</time>
      </trkpt>
      <trkpt lat="44.35331" lon="2.55939">
        <ele>541.359</ele>
        <time>2009-01-30T19:42:45Z</time>
      </trkpt>
      <trkpt lat="44.3533" lon="2.55938">
        <ele>541.359</ele>
        <time>2009-01-30T19:42:46Z</time>
      </trkpt>
      <trkpt lat="44.35329" lon="2.55935">
        <ele>541.359</ele>
        <time>2009-01-30T19:42:47Z</time>
      </trkpt>
      <trkpt lat="44.35328" lon="2.55933">
        <ele>542.321</ele>
        <time>2009-01-30T19:42:48Z</time>
      </trkpt>
      <trkpt lat="44.35327" lon="2.55931">
        <ele>541.84</ele>
        <time>2009-01-30T19:42:49Z</time>
      </trkpt>
      <trkpt lat="44.35325" lon="2.55929">
        <ele>542.321</ele>
        <time>2009-01-30T19:42:50Z</time>
      </trkpt>
      <trkpt lat="44.35323" lon="2.55928">
        <ele>542.321</ele>
        <time>2009-01-30T19:42:51Z</time>
      </trkpt>
      <trkpt lat="44.35322" lon="2.55927">
        <ele>543.282</ele>
        <time>2009-01-30T19:42:52Z</time>
      </trkpt>
      <trkpt lat="44.35321" lon="2.55925">
        <ele>544.724</ele>
        <time>2009-01-30T19:42:53Z</time>
      </trkpt>
      <trkpt lat="44.3532" lon="2.55923">
        <ele>544.244</ele>
        <time>2009-01-30T19:42:54Z</time>
      </trkpt>
      <trkpt lat="44.35319" lon="2.55922">
        <ele>544.724</ele>
        <time>2009-01-30T19:42:55Z</time>
      </trkpt>
      <trkpt lat="44.35318" lon="2.5592">
        <ele>544.244</ele>
        <time>2009-01-30T19:42:56Z</time>
      </trkpt>
      <trkpt lat="44.35317" lon="2.55919">
        <ele>544.244</ele>
        <time>2009-01-30T19:42:57Z</time>
      </trkpt>
      <trkpt lat="44.35315" lon="2.55918">
        <ele>543.763</ele>
        <time>2009-01-30T19:42:58Z</time>
      </trkpt>
      <trkpt lat="44.35314" lon="2.55917">
        <ele>543.763</ele>
        <time>2009-01-30T19:42:59Z</time>
      </trkpt>
      <trkpt lat="44.35312" lon="2.55916">
        <ele>543.763</ele>
        <time>2009-01-30T19:43:00Z</time>
      </trkpt>
      <trkpt lat="44.3531" lon="2.55915">
        <ele>544.244</ele>
        <time>2009-01-30T19:43:01Z</time>
      </trkpt>
      <trkpt lat="44.35309" lon="2.55914">
        <ele>544.724</ele>
        <time>2009-01-30T19:43:02Z</time>
      </trkpt>
      <trkpt lat="44.35307" lon="2.55913">
        <ele>544.724</ele>
        <time>2009-01-30T19:43:03Z</time>
      </trkpt>
      <trkpt lat="44.35306" lon="2.55912">
        <ele>545.205</ele>
        <time>2009-01-30T19:43:04Z</time>
      </trkpt>
      <trkpt lat="44.35304" lon="2.55911">
        <ele>545.205</ele>
        <time>2009-01-30T19:43:05Z</time>
      </trkpt>
      <trkpt lat="44.35303" lon="2.55911">
        <ele>545.205</ele>
        <time>2009-01-30T19:43:06Z</time>
      </trkpt>
      <trkpt lat="44.35301" lon="2.5591">
        <ele>545.205</ele>
        <time>2009-01-30T19:43:07Z</time>
      </trkpt>
      <trkpt lat="44.353" lon="2.55909">
        <ele>545.686</ele>
        <time>2009-01-30T19:43:08Z</time>
      </trkpt>
      <trkpt lat="44.35298" lon="2.55908">
        <ele>547.127</ele>
        <time>2009-01-30T19:43:09Z</time>
      </trkpt>
      <trkpt lat="44.35296" lon="2.55906">
        <ele>548.569</ele>
        <time>2009-01-30T19:43:10Z</time>
      </trkpt>
      <trkpt lat="44.35295" lon="2.55906">
        <ele>549.05</ele>
        <time>2009-01-30T19:43:11Z</time>
      </trkpt>
      <trkpt lat="44.35292" lon="2.55898">
        <ele>555.779</ele>
        <time>2009-01-30T19:43:12Z</time>
      </trkpt>
      <trkpt lat="44.3529" lon="2.55897">
        <ele>557.221</ele>
        <time>2009-01-30T19:43:13Z</time>
      </trkpt>
      <trkpt lat="44.35287" lon="2.55895">
        <ele>559.625</ele>
        <time>2009-01-30T19:43:14Z</time>
      </trkpt>
      <trkpt lat="44.35285" lon="2.55892">
        <ele>562.509</ele>
        <time>2009-01-30T19:43:15Z</time>
      </trkpt>
      <trkpt lat="44.35282" lon="2.5589">
        <ele>564.912</ele>
        <time>2009-01-30T19:43:16Z</time>
      </trkpt>
      <trkpt lat="44.3528" lon="2.55889">
        <ele>566.834</ele>
        <time>2009-01-30T19:43:17Z</time>
      </trkpt>
      <trkpt lat="44.35278" lon="2.55888">
        <ele>568.276</ele>
        <time>2009-01-30T19:43:18Z</time>
      </trkpt>
      <trkpt lat="44.35275" lon="2.55887">
        <ele>569.238</ele>
        <time>2009-01-30T19:43:19Z</time>
      </trkpt>
      <trkpt lat="44.35273" lon="2.55887">
        <ele>570.199</ele>
        <time>2009-01-30T19:43:20Z</time>
      </trkpt>
      <trkpt lat="44.3527" lon="2.55887">
        <ele>570.199</ele>
        <time>2009-01-30T19:43:21Z</time>
      </trkpt>
      <trkpt lat="44.35267" lon="2.55886">
        <ele>570.68</ele>
        <time>2009-01-30T19:43:22Z</time>
      </trkpt>
      <trkpt lat="44.35264" lon="2.55886">
        <ele>571.16</ele>
        <time>2009-01-30T19:43:23Z</time>
      </trkpt>
      <trkpt lat="44.35262" lon="2.55886">
        <ele>571.641</ele>
        <time>2009-01-30T19:43:24Z</time>
      </trkpt>
      <trkpt lat="44.35259" lon="2.55886">
        <ele>572.122</ele>
        <time>2009-01-30T19:43:25Z</time>
      </trkpt>
      <trkpt lat="44.35256" lon="2.55885">
        <ele>572.603</ele>
        <time>2009-01-30T19:43:26Z</time>
      </trkpt>
      <trkpt lat="44.35254" lon="2.55885">
        <ele>573.083</ele>
        <time>2009-01-30T19:43:27Z</time>
      </trkpt>
      <trkpt lat="44.35251" lon="2.55885">
        <ele>572.603</ele>
        <time>2009-01-30T19:43:28Z</time>
      </trkpt>
      <trkpt lat="44.35248" lon="2.55885">
        <ele>572.603</ele>
        <time>2009-01-30T19:43:29Z</time>
      </trkpt>
      <trkpt lat="44.35245" lon="2.55885">
        <ele>572.122</ele>
        <time>2009-01-30T19:43:30Z</time>
      </trkpt>
      <trkpt lat="44.35242" lon="2.55884">
        <ele>572.603</ele>
        <time>2009-01-30T19:43:31Z</time>
      </trkpt>
      <trkpt lat="44.35239" lon="2.55883">
        <ele>573.083</ele>
        <time>2009-01-30T19:43:32Z</time>
      </trkpt>
      <trkpt lat="44.35237" lon="2.55882">
        <ele>573.083</ele>
        <time>2009-01-30T19:43:33Z</time>
      </trkpt>
      <trkpt lat="44.35234" lon="2.55882">
        <ele>573.083</ele>
        <time>2009-01-30T19:43:34Z</time>
      </trkpt>
      <trkpt lat="44.35232" lon="2.55881">
        <ele>573.083</ele>
        <time>2009-01-30T19:43:35Z</time>
      </trkpt>
      <trkpt lat="44.35229" lon="2.55881">
        <ele>573.083</ele>
        <time>2009-01-30T19:43:36Z</time>
      </trkpt>
      <trkpt lat="44.35226" lon="2.5588">
        <ele>573.083</ele>
        <time>2009-01-30T19:43:37Z</time>
      </trkpt>
      <trkpt lat="44.35224" lon="2.55879">
        <ele>573.083</ele>
        <time>2009-01-30T19:43:38Z</time>
      </trkpt>
      <trkpt lat="44.35222" lon="2.55879">
        <ele>573.083</ele>
        <time>2009-01-30T19:43:39Z</time>
      </trkpt>
      <trkpt lat="44.3522" lon="2.55878">
        <ele>573.083</ele>
        <time>2009-01-30T19:43:40Z</time>
      </trkpt>
      <trkpt lat="44.35218" lon="2.55877">
        <ele>572.603</ele>
        <time>2009-01-30T19:43:41Z</time>
      </trkpt>
      <trkpt lat="44.35217" lon="2.55877">
        <ele>572.603</ele>
        <time>2009-01-30T19:43:42Z</time>
      </trkpt>
      <trkpt lat="44.35215" lon="2.55876">
        <ele>572.603</ele>
        <time>2009-01-30T19:43:43Z</time>
      </trkpt>
      <trkpt lat="44.35213" lon="2.55875">
        <ele>572.122</ele>
        <time>2009-01-30T19:43:44Z</time>
      </trkpt>
      <trkpt lat="44.35211" lon="2.55874">
        <ele>572.122</ele>
        <time>2009-01-30T19:43:45Z</time>
      </trkpt>
      <trkpt lat="44.35209" lon="2.55873">
        <ele>572.122</ele>
        <time>2009-01-30T19:43:46Z</time>
      </trkpt>
      <trkpt lat="44.35207" lon="2.55873">
        <ele>571.641</ele>
        <time>2009-01-30T19:43:47Z</time>
      </trkpt>
      <trkpt lat="44.35205" lon="2.55872">
        <ele>571.641</ele>
        <time>2009-01-30T19:43:48Z</time>
      </trkpt>
      <trkpt lat="44.35203" lon="2.55871">
        <ele>571.641</ele>
        <time>2009-01-30T19:43:49Z</time>
      </trkpt>
      <trkpt lat="44.35201" lon="2.5587">
        <ele>571.641</ele>
        <time>2009-01-30T19:43:50Z</time>
      </trkpt>
      <trkpt lat="44.35199" lon="2.55869">
        <ele>571.16</ele>
        <time>2009-01-30T19:43:51Z</time>
      </trkpt>
      <trkpt lat="44.35197" lon="2.55869">
        <ele>571.16</ele>
        <time>2009-01-30T19:43:52Z</time>
      </trkpt>
      <trkpt lat="44.35195" lon="2.55868">
        <ele>571.16</ele>
        <time>2009-01-30T19:43:53Z</time>
      </trkpt>
      <trkpt lat="44.35193" lon="2.55866">
        <ele>570.68</ele>
        <time>2009-01-30T19:43:54Z</time>
      </trkpt>
      <trkpt lat="44.35191" lon="2.55865">
        <ele>570.68</ele>
        <time>2009-01-30T19:43:55Z</time>
      </trkpt>
      <trkpt lat="44.35189" lon="2.55864">
        <ele>570.199</ele>
        <time>2009-01-30T19:43:56Z</time>
      </trkpt>
      <trkpt lat="44.35187" lon="2.55863">
        <ele>570.199</ele>
        <time>2009-01-30T19:43:57Z</time>
      </trkpt>
      <trkpt lat="44.35184" lon="2.55862">
        <ele>570.199</ele>
        <time>2009-01-30T19:43:58Z</time>
      </trkpt>
      <trkpt lat="44.35182" lon="2.55861">
        <ele>570.199</ele>
        <time>2009-01-30T19:43:59Z</time>
      </trkpt>
      <trkpt lat="44.3518" lon="2.55861">
        <ele>569.719</ele>
        <time>2009-01-30T19:44:00Z</time>
      </trkpt>
      <trkpt lat="44.35178" lon="2.5586">
        <ele>569.719</ele>
        <time>2009-01-30T19:44:01Z</time>
      </trkpt>
      <trkpt lat="44.35175" lon="2.55859">
        <ele>569.719</ele>
        <time>2009-01-30T19:44:02Z</time>
      </trkpt>
      <trkpt lat="44.35173" lon="2.55858">
        <ele>569.719</ele>
        <time>2009-01-30T19:44:03Z</time>
      </trkpt>
      <trkpt lat="44.3517" lon="2.55857">
        <ele>570.199</ele>
        <time>2009-01-30T19:44:04Z</time>
      </trkpt>
      <trkpt lat="44.35167" lon="2.55857">
        <ele>570.199</ele>
        <time>2009-01-30T19:44:05Z</time>
      </trkpt>
      <trkpt lat="44.35165" lon="2.55857">
        <ele>570.199</ele>
        <time>2009-01-30T19:44:06Z</time>
      </trkpt>
      <trkpt lat="44.35162" lon="2.55856">
        <ele>570.199</ele>
        <time>2009-01-30T19:44:07Z</time>
      </trkpt>
      <trkpt lat="44.3516" lon="2.55856">
        <ele>570.199</ele>
        <time>2009-01-30T19:44:08Z</time>
      </trkpt>
      <trkpt lat="44.35157" lon="2.55855">
        <ele>570.199</ele>
        <time>2009-01-30T19:44:09Z</time>
      </trkpt>
      <trkpt lat="44.35155" lon="2.55854">
        <ele>569.719</ele>
        <time>2009-01-30T19:44:10Z</time>
      </trkpt>
      <trkpt lat="44.35152" lon="2.55853">
        <ele>569.719</ele>
        <time>2009-01-30T19:44:11Z</time>
      </trkpt>
      <trkpt lat="44.3515" lon="2.55852">
        <ele>569.719</ele>
        <time>2009-01-30T19:44:12Z</time>
      </trkpt>
      <trkpt lat="44.35148" lon="2.55851">
        <ele>570.199</ele>
        <time>2009-01-30T19:44:13Z</time>
      </trkpt>
      <trkpt lat="44.35145" lon="2.5585">
        <ele>569.719</ele>
        <time>2009-01-30T19:44:14Z</time>
      </trkpt>
      <trkpt lat="44.35143" lon="2.55849">
        <ele>569.719</ele>
        <time>2009-01-30T19:44:15Z</time>
      </trkpt>
      <trkpt lat="44.35141" lon="2.55848">
        <ele>569.719</ele>
        <time>2009-01-30T19:44:16Z</time>
      </trkpt>
      <trkpt lat="44.35139" lon="2.55847">
        <ele>569.238</ele>
        <time>2009-01-30T19:44:17Z</time>
      </trkpt>
      <trkpt lat="44.35137" lon="2.55846">
        <ele>569.238</ele>
        <time>2009-01-30T19:44:18Z</time>
      </trkpt>
      <trkpt lat="44.35135" lon="2.55844">
        <ele>569.238</ele>
        <time>2009-01-30T19:44:19Z</time>
      </trkpt>
      <trkpt lat="44.35133" lon="2.55843">
        <ele>568.757</ele>
        <time>2009-01-30T19:44:20Z</time>
      </trkpt>
      <trkpt lat="44.35131" lon="2.55841">
        <ele>568.757</ele>
        <time>2009-01-30T19:44:21Z</time>
      </trkpt>
      <trkpt lat="44.35129" lon="2.5584">
        <ele>568.757</ele>
        <time>2009-01-30T19:44:22Z</time>
      </trkpt>
      <trkpt lat="44.35127" lon="2.55838">
        <ele>568.276</ele>
        <time>2009-01-30T19:44:23Z</time>
      </trkpt>
      <trkpt lat="44.35126" lon="2.55836">
        <ele>568.276</ele>
        <time>2009-01-30T19:44:24Z</time>
      </trkpt>
      <trkpt lat="44.35125" lon="2.55835">
        <ele>567.796</ele>
        <time>2009-01-30T19:44:25Z</time>
      </trkpt>
      <trkpt lat="44.35123" lon="2.55833">
        <ele>567.315</ele>
        <time>2009-01-30T19:44:26Z</time>
      </trkpt>
      <trkpt lat="44.35122" lon="2.55831">
        <ele>567.315</ele>
        <time>2009-01-30T19:44:27Z</time>
      </trkpt>
      <trkpt lat="44.35121" lon="2.55829">
        <ele>566.834</ele>
        <time>2009-01-30T19:44:28Z</time>
      </trkpt>
      <trkpt lat="44.3512" lon="2.55828">
        <ele>566.834</ele>
        <time>2009-01-30T19:44:29Z</time>
      </trkpt>
      <trkpt lat="44.3512" lon="2.55827">
        <ele>566.354</ele>
        <time>2009-01-30T19:44:30Z</time>
      </trkpt>
      <trkpt lat="44.35119" lon="2.55825">
        <ele>566.354</ele>
        <time>2009-01-30T19:44:31Z</time>
      </trkpt>
      <trkpt lat="44.35118" lon="2.55824">
        <ele>566.354</ele>
        <time>2009-01-30T19:44:32Z</time>
      </trkpt>
      <trkpt lat="44.35118" lon="2.55823">
        <ele>565.873</ele>
        <time>2009-01-30T19:44:33Z</time>
      </trkpt>
      <trkpt lat="44.35117" lon="2.55822">
        <ele>565.873</ele>
        <time>2009-01-30T19:44:34Z</time>
      </trkpt>
      <trkpt lat="44.35117" lon="2.55822">
        <ele>565.873</ele>
        <time>2009-01-30T19:44:37Z</time>
      </trkpt>
      <trkpt lat="44.35116" lon="2.55822">
        <ele>565.873</ele>
        <time>2009-01-30T19:44:38Z</time>
      </trkpt>
      <trkpt lat="44.35115" lon="2.55822">
        <ele>565.873</ele>
        <time>2009-01-30T19:44:39Z</time>
      </trkpt>
      <trkpt lat="44.35115" lon="2.55822">
        <ele>565.873</ele>
        <time>2009-01-30T19:44:40Z</time>
      </trkpt>
      <trkpt lat="44.35114" lon="2.55822">
        <ele>566.354</ele>
        <time>2009-01-30T19:44:41Z</time>
      </trkpt>
      <trkpt lat="44.35114" lon="2.55821">
        <ele>566.834</ele>
        <time>2009-01-30T19:44:42Z</time>
      </trkpt>
      <trkpt lat="44.35114" lon="2.55819">
        <ele>567.315</ele>
        <time>2009-01-30T19:44:50Z</time>
      </trkpt>
      <trkpt lat="44.35114" lon="2.55819">
        <ele>567.315</ele>
        <time>2009-01-30T19:44:51Z</time>
      </trkpt>
      <trkpt lat="44.35114" lon="2.55818">
        <ele>566.834</ele>
        <time>2009-01-30T19:44:52Z</time>
      </trkpt>
      <trkpt lat="44.35114" lon="2.55818">
        <ele>566.834</ele>
        <time>2009-01-30T19:44:53Z</time>
      </trkpt>
      <trkpt lat="44.35114" lon="2.55817">
        <ele>566.834</ele>
        <time>2009-01-30T19:44:54Z</time>
      </trkpt>
      <trkpt lat="44.35112" lon="2.55816">
        <ele>564.912</ele>
        <time>2009-01-30T19:45:09Z</time>
      </trkpt>
      <trkpt lat="44.35112" lon="2.55817">
        <ele>564.912</ele>
        <time>2009-01-30T19:45:10Z</time>
      </trkpt>
      <trkpt lat="44.35111" lon="2.55816">
        <ele>564.431</ele>
        <time>2009-01-30T19:45:14Z</time>
      </trkpt>
      <trkpt lat="44.35107" lon="2.55819">
        <ele>564.431</ele>
        <time>2009-01-30T19:45:15Z</time>
      </trkpt>
      <trkpt lat="44.35105" lon="2.55821">
        <ele>564.431</ele>
        <time>2009-01-30T19:45:16Z</time>
      </trkpt>
      <trkpt lat="44.35103" lon="2.55822">
        <ele>563.95</ele>
        <time>2009-01-30T19:45:17Z</time>
      </trkpt>
      <trkpt lat="44.351" lon="2.55823">
        <ele>563.95</ele>
        <time>2009-01-30T19:45:18Z</time>
      </trkpt>
      <trkpt lat="44.35098" lon="2.55824">
        <ele>563.95</ele>
        <time>2009-01-30T19:45:19Z</time>
      </trkpt>
      <trkpt lat="44.35096" lon="2.55825">
        <ele>563.47</ele>
        <time>2009-01-30T19:45:20Z</time>
      </trkpt>
      <trkpt lat="44.35094" lon="2.55827">
        <ele>563.47</ele>
        <time>2009-01-30T19:45:21Z</time>
      </trkpt>
      <trkpt lat="44.35091" lon="2.55827">
        <ele>563.95</ele>
        <time>2009-01-30T19:45:22Z</time>
      </trkpt>
      <trkpt lat="44.35088" lon="2.55828">
        <ele>563.95</ele>
        <time>2009-01-30T19:45:23Z</time>
      </trkpt>
      <trkpt lat="44.35086" lon="2.55829">
        <ele>563.95</ele>
        <time>2009-01-30T19:45:24Z</time>
      </trkpt>
      <trkpt lat="44.35083" lon="2.55831">
        <ele>563.95</ele>
        <time>2009-01-30T19:45:25Z</time>
      </trkpt>
      <trkpt lat="44.35081" lon="2.55832">
        <ele>563.95</ele>
        <time>2009-01-30T19:45:26Z</time>
      </trkpt>
      <trkpt lat="44.35079" lon="2.55834">
        <ele>563.47</ele>
        <time>2009-01-30T19:45:27Z</time>
      </trkpt>
      <trkpt lat="44.35077" lon="2.55836">
        <ele>564.431</ele>
        <time>2009-01-30T19:45:28Z</time>
      </trkpt>
      <trkpt lat="44.35075" lon="2.55837">
        <ele>564.912</ele>
        <time>2009-01-30T19:45:29Z</time>
      </trkpt>
      <trkpt lat="44.35073" lon="2.5584">
        <ele>564.431</ele>
        <time>2009-01-30T19:45:30Z</time>
      </trkpt>
      <trkpt lat="44.35072" lon="2.55843">
        <ele>563.95</ele>
        <time>2009-01-30T19:45:31Z</time>
      </trkpt>
      <trkpt lat="44.35072" lon="2.55844">
        <ele>563.95</ele>
        <time>2009-01-30T19:45:32Z</time>
      </trkpt>
      <trkpt lat="44.3507" lon="2.55848">
        <ele>563.95</ele>
        <time>2009-01-30T19:45:33Z</time>
      </trkpt>
      <trkpt lat="44.3507" lon="2.55851">
        <ele>563.95</ele>
        <time>2009-01-30T19:45:34Z</time>
      </trkpt>
      <trkpt lat="44.35069" lon="2.55854">
        <ele>563.95</ele>
        <time>2009-01-30T19:45:35Z</time>
      </trkpt>
      <trkpt lat="44.35068" lon="2.55856">
        <ele>564.431</ele>
        <time>2009-01-30T19:45:36Z</time>
      </trkpt>
      <trkpt lat="44.35067" lon="2.55859">
        <ele>564.431</ele>
        <time>2009-01-30T19:45:37Z</time>
      </trkpt>
      <trkpt lat="44.35066" lon="2.55862">
        <ele>564.431</ele>
        <time>2009-01-30T19:45:38Z</time>
      </trkpt>
      <trkpt lat="44.35064" lon="2.55866">
        <ele>564.431</ele>
        <time>2009-01-30T19:45:39Z</time>
      </trkpt>
      <trkpt lat="44.35063" lon="2.55869">
        <ele>563.95</ele>
        <time>2009-01-30T19:45:40Z</time>
      </trkpt>
      <trkpt lat="44.35062" lon="2.55872">
        <ele>563.47</ele>
        <time>2009-01-30T19:45:41Z</time>
      </trkpt>
      <trkpt lat="44.35061" lon="2.55875">
        <ele>562.989</ele>
        <time>2009-01-30T19:45:42Z</time>
      </trkpt>
      <trkpt lat="44.3506" lon="2.55878">
        <ele>562.509</ele>
        <time>2009-01-30T19:45:43Z</time>
      </trkpt>
      <trkpt lat="44.35059" lon="2.5588">
        <ele>561.067</ele>
        <time>2009-01-30T19:45:44Z</time>
      </trkpt>
      <trkpt lat="44.35058" lon="2.55883">
        <ele>560.586</ele>
        <time>2009-01-30T19:45:45Z</time>
      </trkpt>
      <trkpt lat="44.35057" lon="2.55887">
        <ele>560.105</ele>
        <time>2009-01-30T19:45:46Z</time>
      </trkpt>
      <trkpt lat="44.35056" lon="2.5589">
        <ele>560.105</ele>
        <time>2009-01-30T19:45:47Z</time>
      </trkpt>
      <trkpt lat="44.35056" lon="2.55891">
        <ele>560.586</ele>
        <time>2009-01-30T19:45:48Z</time>
      </trkpt>
      <trkpt lat="44.35055" lon="2.55894">
        <ele>561.067</ele>
        <time>2009-01-30T19:45:49Z</time>
      </trkpt>
      <trkpt lat="44.35054" lon="2.55896">
        <ele>561.547</ele>
        <time>2009-01-30T19:45:50Z</time>
      </trkpt>
      <trkpt lat="44.35054" lon="2.55899">
        <ele>561.547</ele>
        <time>2009-01-30T19:45:51Z</time>
      </trkpt>
      <trkpt lat="44.35054" lon="2.55901">
        <ele>562.028</ele>
        <time>2009-01-30T19:45:52Z</time>
      </trkpt>
      <trkpt lat="44.35053" lon="2.55904">
        <ele>562.509</ele>
        <time>2009-01-30T19:45:53Z</time>
      </trkpt>
      <trkpt lat="44.35053" lon="2.55906">
        <ele>563.47</ele>
        <time>2009-01-30T19:45:54Z</time>
      </trkpt>
      <trkpt lat="44.35053" lon="2.55908">
        <ele>563.47</ele>
        <time>2009-01-30T19:45:55Z</time>
      </trkpt>
      <trkpt lat="44.35053" lon="2.55911">
        <ele>564.431</ele>
        <time>2009-01-30T19:45:56Z</time>
      </trkpt>
      <trkpt lat="44.35052" lon="2.55914">
        <ele>564.912</ele>
        <time>2009-01-30T19:45:57Z</time>
      </trkpt>
      <trkpt lat="44.35051" lon="2.55918">
        <ele>565.393</ele>
        <time>2009-01-30T19:45:58Z</time>
      </trkpt>
      <trkpt lat="44.3505" lon="2.55922">
        <ele>567.315</ele>
        <time>2009-01-30T19:45:59Z</time>
      </trkpt>
      <trkpt lat="44.35049" lon="2.55926">
        <ele>568.276</ele>
        <time>2009-01-30T19:46:00Z</time>
      </trkpt>
      <trkpt lat="44.35048" lon="2.55931">
        <ele>569.238</ele>
        <time>2009-01-30T19:46:01Z</time>
      </trkpt>
      <trkpt lat="44.35047" lon="2.55934">
        <ele>568.757</ele>
        <time>2009-01-30T19:46:02Z</time>
      </trkpt>
      <trkpt lat="44.35047" lon="2.55937">
        <ele>568.757</ele>
        <time>2009-01-30T19:46:03Z</time>
      </trkpt>
      <trkpt lat="44.35047" lon="2.55941">
        <ele>568.757</ele>
        <time>2009-01-30T19:46:04Z</time>
      </trkpt>
      <trkpt lat="44.35046" lon="2.55944">
        <ele>569.719</ele>
        <time>2009-01-30T19:46:05Z</time>
      </trkpt>
      <trkpt lat="44.35044" lon="2.55949">
        <ele>570.199</ele>
        <time>2009-01-30T19:46:06Z</time>
      </trkpt>
      <trkpt lat="44.35042" lon="2.55953">
        <ele>570.68</ele>
        <time>2009-01-30T19:46:07Z</time>
      </trkpt>
      <trkpt lat="44.35042" lon="2.55957">
        <ele>570.68</ele>
        <time>2009-01-30T19:46:08Z</time>
      </trkpt>
      <trkpt lat="44.35041" lon="2.55961">
        <ele>571.16</ele>
        <time>2009-01-30T19:46:09Z</time>
      </trkpt>
      <trkpt lat="44.3504" lon="2.55965">
        <ele>571.641</ele>
        <time>2009-01-30T19:46:10Z</time>
      </trkpt>
      <trkpt lat="44.35039" lon="2.55969">
        <ele>571.16</ele>
        <time>2009-01-30T19:46:11Z</time>
      </trkpt>
      <trkpt lat="44.35038" lon="2.55973">
        <ele>570.68</ele>
        <time>2009-01-30T19:46:12Z</time>
      </trkpt>
      <trkpt lat="44.35038" lon="2.55976">
        <ele>571.16</ele>
        <time>2009-01-30T19:46:13Z</time>
      </trkpt>
      <trkpt lat="44.35038" lon="2.5598">
        <ele>571.16</ele>
        <time>2009-01-30T19:46:14Z</time>
      </trkpt>
      <trkpt lat="44.35038" lon="2.55983">
        <ele>571.16</ele>
        <time>2009-01-30T19:46:15Z</time>
      </trkpt>
      <trkpt lat="44.35036" lon="2.55988">
        <ele>571.641</ele>
        <time>2009-01-30T19:46:16Z</time>
      </trkpt>
      <trkpt lat="44.35034" lon="2.55993">
        <ele>571.641</ele>
        <time>2009-01-30T19:46:17Z</time>
      </trkpt>
      <trkpt lat="44.35034" lon="2.55997">
        <ele>572.603</ele>
        <time>2009-01-30T19:46:18Z</time>
      </trkpt>
      <trkpt lat="44.35032" lon="2.56001">
        <ele>572.603</ele>
        <time>2009-01-30T19:46:19Z</time>
      </trkpt>
      <trkpt lat="44.35032" lon="2.56004">
        <ele>572.603</ele>
        <time>2009-01-30T19:46:20Z</time>
      </trkpt>
      <trkpt lat="44.35031" lon="2.56006">
        <ele>572.603</ele>
        <time>2009-01-30T19:46:21Z</time>
      </trkpt>
      <trkpt lat="44.35031" lon="2.56009">
        <ele>572.122</ele>
        <time>2009-01-30T19:46:22Z</time>
      </trkpt>
      <trkpt lat="44.3503" lon="2.56012">
        <ele>571.641</ele>
        <time>2009-01-30T19:46:23Z</time>
      </trkpt>
      <trkpt lat="44.3503" lon="2.56014">
        <ele>571.641</ele>
        <time>2009-01-30T19:46:24Z</time>
      </trkpt>
      <trkpt lat="44.35029" lon="2.56017">
        <ele>571.16</ele>
        <time>2009-01-30T19:46:25Z</time>
      </trkpt>
      <trkpt lat="44.35028" lon="2.56019">
        <ele>570.199</ele>
        <time>2009-01-30T19:46:26Z</time>
      </trkpt>
      <trkpt lat="44.35027" lon="2.56021">
        <ele>570.199</ele>
        <time>2009-01-30T19:46:27Z</time>
      </trkpt>
      <trkpt lat="44.35026" lon="2.56023">
        <ele>569.719</ele>
        <time>2009-01-30T19:46:28Z</time>
      </trkpt>
      <trkpt lat="44.35025" lon="2.56025">
        <ele>569.719</ele>
        <time>2009-01-30T19:46:29Z</time>
      </trkpt>
      <trkpt lat="44.35024" lon="2.56027">
        <ele>569.238</ele>
        <time>2009-01-30T19:46:30Z</time>
      </trkpt>
      <trkpt lat="44.35022" lon="2.56028">
        <ele>568.757</ele>
        <time>2009-01-30T19:46:31Z</time>
      </trkpt>
      <trkpt lat="44.35019" lon="2.5603">
        <ele>568.276</ele>
        <time>2009-01-30T19:46:32Z</time>
      </trkpt>
      <trkpt lat="44.35017" lon="2.5603">
        <ele>568.276</ele>
        <time>2009-01-30T19:46:33Z</time>
      </trkpt>
      <trkpt lat="44.35014" lon="2.56029">
        <ele>568.276</ele>
        <time>2009-01-30T19:46:34Z</time>
      </trkpt>
      <trkpt lat="44.35012" lon="2.56027">
        <ele>567.796</ele>
        <time>2009-01-30T19:46:35Z</time>
      </trkpt>
      <trkpt lat="44.3501" lon="2.56025">
        <ele>567.315</ele>
        <time>2009-01-30T19:46:36Z</time>
      </trkpt>
      <trkpt lat="44.35008" lon="2.56022">
        <ele>567.315</ele>
        <time>2009-01-30T19:46:37Z</time>
      </trkpt>
      <trkpt lat="44.35005" lon="2.5602">
        <ele>567.315</ele>
        <time>2009-01-30T19:46:38Z</time>
      </trkpt>
      <trkpt lat="44.35003" lon="2.56017">
        <ele>567.796</ele>
        <time>2009-01-30T19:46:39Z</time>
      </trkpt>
      <trkpt lat="44.35001" lon="2.56014">
        <ele>567.796</ele>
        <time>2009-01-30T19:46:40Z</time>
      </trkpt>
      <trkpt lat="44.34999" lon="2.56011">
        <ele>567.796</ele>
        <time>2009-01-30T19:46:41Z</time>
      </trkpt>
      <trkpt lat="44.34997" lon="2.56009">
        <ele>567.315</ele>
        <time>2009-01-30T19:46:42Z</time>
      </trkpt>
      <trkpt lat="44.34995" lon="2.56007">
        <ele>567.796</ele>
        <time>2009-01-30T19:46:43Z</time>
      </trkpt>
      <trkpt lat="44.34992" lon="2.56005">
        <ele>567.315</ele>
        <time>2009-01-30T19:46:44Z</time>
      </trkpt>
      <trkpt lat="44.3499" lon="2.56003">
        <ele>566.834</ele>
        <time>2009-01-30T19:46:45Z</time>
      </trkpt>
      <trkpt lat="44.34988" lon="2.56001">
        <ele>565.873</ele>
        <time>2009-01-30T19:46:46Z</time>
      </trkpt>
      <trkpt lat="44.34986" lon="2.55999">
        <ele>566.354</ele>
        <time>2009-01-30T19:46:47Z</time>
      </trkpt>
      <trkpt lat="44.34985" lon="2.55996">
        <ele>567.315</ele>
        <time>2009-01-30T19:46:48Z</time>
      </trkpt>
      <trkpt lat="44.34984" lon="2.55996">
        <ele>566.354</ele>
        <time>2009-01-30T19:46:49Z</time>
      </trkpt>
      <trkpt lat="44.34982" lon="2.55995">
        <ele>566.354</ele>
        <time>2009-01-30T19:46:50Z</time>
      </trkpt>
      <trkpt lat="44.3498" lon="2.55994">
        <ele>566.834</ele>
        <time>2009-01-30T19:46:51Z</time>
      </trkpt>
      <trkpt lat="44.34977" lon="2.55993">
        <ele>566.834</ele>
        <time>2009-01-30T19:46:52Z</time>
      </trkpt>
      <trkpt lat="44.34974" lon="2.55992">
        <ele>566.834</ele>
        <time>2009-01-30T19:46:53Z</time>
      </trkpt>
      <trkpt lat="44.34972" lon="2.55992">
        <ele>566.834</ele>
        <time>2009-01-30T19:46:54Z</time>
      </trkpt>
      <trkpt lat="44.34969" lon="2.55989">
        <ele>567.796</ele>
        <time>2009-01-30T19:46:55Z</time>
      </trkpt>
      <trkpt lat="44.34967" lon="2.55987">
        <ele>568.757</ele>
        <time>2009-01-30T19:46:56Z</time>
      </trkpt>
      <trkpt lat="44.34965" lon="2.55983">
        <ele>571.641</ele>
        <time>2009-01-30T19:46:57Z</time>
      </trkpt>
      <trkpt lat="44.34963" lon="2.5598">
        <ele>574.525</ele>
        <time>2009-01-30T19:46:58Z</time>
      </trkpt>
      <trkpt lat="44.34961" lon="2.55977">
        <ele>577.409</ele>
        <time>2009-01-30T19:46:59Z</time>
      </trkpt>
      <trkpt lat="44.34959" lon="2.55976">
        <ele>579.332</ele>
        <time>2009-01-30T19:47:00Z</time>
      </trkpt>
      <trkpt lat="44.34957" lon="2.55974">
        <ele>580.774</ele>
        <time>2009-01-30T19:47:01Z</time>
      </trkpt>
      <trkpt lat="44.34954" lon="2.55974">
        <ele>582.216</ele>
        <time>2009-01-30T19:47:02Z</time>
      </trkpt>
      <trkpt lat="44.34951" lon="2.55974">
        <ele>582.696</ele>
        <time>2009-01-30T19:47:03Z</time>
      </trkpt>
      <trkpt lat="44.34948" lon="2.55974">
        <ele>583.657</ele>
        <time>2009-01-30T19:47:04Z</time>
      </trkpt>
      <trkpt lat="44.34945" lon="2.55974">
        <ele>584.138</ele>
        <time>2009-01-30T19:47:05Z</time>
      </trkpt>
      <trkpt lat="44.34942" lon="2.55976">
        <ele>583.177</ele>
        <time>2009-01-30T19:47:06Z</time>
      </trkpt>
      <trkpt lat="44.3494" lon="2.55977">
        <ele>583.177</ele>
        <time>2009-01-30T19:47:07Z</time>
      </trkpt>
      <trkpt lat="44.34938" lon="2.55978">
        <ele>582.696</ele>
        <time>2009-01-30T19:47:08Z</time>
      </trkpt>
      <trkpt lat="44.34936" lon="2.5598">
        <ele>581.254</ele>
        <time>2009-01-30T19:47:09Z</time>
      </trkpt>
      <trkpt lat="44.34934" lon="2.55981">
        <ele>580.774</ele>
        <time>2009-01-30T19:47:10Z</time>
      </trkpt>
      <trkpt lat="44.34932" lon="2.55982">
        <ele>580.293</ele>
        <time>2009-01-30T19:47:11Z</time>
      </trkpt>
      <trkpt lat="44.34931" lon="2.55983">
        <ele>579.812</ele>
        <time>2009-01-30T19:47:12Z</time>
      </trkpt>
      <trkpt lat="44.34929" lon="2.55985">
        <ele>578.851</ele>
        <time>2009-01-30T19:47:13Z</time>
      </trkpt>
      <trkpt lat="44.34928" lon="2.55985">
        <ele>578.851</ele>
        <time>2009-01-30T19:47:14Z</time>
      </trkpt>
      <trkpt lat="44.34926" lon="2.55986">
        <ele>578.37</ele>
        <time>2009-01-30T19:47:17Z</time>
      </trkpt>
      <trkpt lat="44.34924" lon="2.55987">
        <ele>578.851</ele>
        <time>2009-01-30T19:47:18Z</time>
      </trkpt>
      <trkpt lat="44.34922" lon="2.55989">
        <ele>578.37</ele>
        <time>2009-01-30T19:47:19Z</time>
      </trkpt>
      <trkpt lat="44.3492" lon="2.5599">
        <ele>578.37</ele>
        <time>2009-01-30T19:47:20Z</time>
      </trkpt>
      <trkpt lat="44.34918" lon="2.55993">
        <ele>577.409</ele>
        <time>2009-01-30T19:47:21Z</time>
      </trkpt>
      <trkpt lat="44.34917" lon="2.55995">
        <ele>577.409</ele>
        <time>2009-01-30T19:47:22Z</time>
      </trkpt>
      <trkpt lat="44.34916" lon="2.55997">
        <ele>576.928</ele>
        <time>2009-01-30T19:47:23Z</time>
      </trkpt>
      <trkpt lat="44.34915" lon="2.55999">
        <ele>576.928</ele>
        <time>2009-01-30T19:47:24Z</time>
      </trkpt>
      <trkpt lat="44.34914" lon="2.56">
        <ele>575.967</ele>
        <time>2009-01-30T19:47:25Z</time>
      </trkpt>
      <trkpt lat="44.34913" lon="2.56002">
        <ele>575.006</ele>
        <time>2009-01-30T19:47:26Z</time>
      </trkpt>
      <trkpt lat="44.34912" lon="2.56004">
        <ele>574.044</ele>
        <time>2009-01-30T19:47:27Z</time>
      </trkpt>
      <trkpt lat="44.3491" lon="2.56007">
        <ele>573.564</ele>
        <time>2009-01-30T19:47:28Z</time>
      </trkpt>
      <trkpt lat="44.34908" lon="2.5601">
        <ele>573.083</ele>
        <time>2009-01-30T19:47:29Z</time>
      </trkpt>
      <trkpt lat="44.34906" lon="2.56013">
        <ele>572.122</ele>
        <time>2009-01-30T19:47:30Z</time>
      </trkpt>
      <trkpt lat="44.34905" lon="2.56016">
        <ele>571.16</ele>
        <time>2009-01-30T19:47:31Z</time>
      </trkpt>
      <trkpt lat="44.34903" lon="2.5602">
        <ele>571.16</ele>
        <time>2009-01-30T19:47:32Z</time>
      </trkpt>
      <trkpt lat="44.34902" lon="2.56024">
        <ele>571.16</ele>
        <time>2009-01-30T19:47:33Z</time>
      </trkpt>
      <trkpt lat="44.34901" lon="2.56027">
        <ele>571.641</ele>
        <time>2009-01-30T19:47:34Z</time>
      </trkpt>
      <trkpt lat="44.34898" lon="2.56031">
        <ele>572.603</ele>
        <time>2009-01-30T19:47:35Z</time>
      </trkpt>
      <trkpt lat="44.34892" lon="2.56035">
        <ele>571.16</ele>
        <time>2009-01-30T19:47:36Z</time>
      </trkpt>
      <trkpt lat="44.34888" lon="2.56037">
        <ele>570.199</ele>
        <time>2009-01-30T19:47:37Z</time>
      </trkpt>
      <trkpt lat="44.34884" lon="2.56038">
        <ele>570.199</ele>
        <time>2009-01-30T19:47:38Z</time>
      </trkpt>
      <trkpt lat="44.34881" lon="2.56037">
        <ele>570.199</ele>
        <time>2009-01-30T19:47:39Z</time>
      </trkpt>
      <trkpt lat="44.34877" lon="2.56036">
        <ele>570.199</ele>
        <time>2009-01-30T19:47:40Z</time>
      </trkpt>
      <trkpt lat="44.34875" lon="2.56033">
        <ele>569.719</ele>
        <time>2009-01-30T19:47:41Z</time>
      </trkpt>
      <trkpt lat="44.34873" lon="2.56031">
        <ele>569.719</ele>
        <time>2009-01-30T19:47:42Z</time>
      </trkpt>
      <trkpt lat="44.34872" lon="2.56028">
        <ele>569.719</ele>
        <time>2009-01-30T19:47:43Z</time>
      </trkpt>
      <trkpt lat="44.34872" lon="2.56025">
        <ele>569.719</ele>
        <time>2009-01-30T19:47:44Z</time>
      </trkpt>
      <trkpt lat="44.34873" lon="2.56023">
        <ele>569.719</ele>
        <time>2009-01-30T19:47:45Z</time>
      </trkpt>
      <trkpt lat="44.34873" lon="2.5602">
        <ele>569.719</ele>
        <time>2009-01-30T19:47:46Z</time>
      </trkpt>
      <trkpt lat="44.34874" lon="2.56018">
        <ele>569.238</ele>
        <time>2009-01-30T19:47:47Z</time>
      </trkpt>
      <trkpt lat="44.34874" lon="2.56016">
        <ele>569.238</ele>
        <time>2009-01-30T19:47:48Z</time>
      </trkpt>
      <trkpt lat="44.34875" lon="2.56014">
        <ele>568.757</ele>
        <time>2009-01-30T19:47:49Z</time>
      </trkpt>
      <trkpt lat="44.34875" lon="2.56012">
        <ele>568.757</ele>
        <time>2009-01-30T19:47:50Z</time>
      </trkpt>
      <trkpt lat="44.34876" lon="2.56009">
        <ele>568.757</ele>
        <time>2009-01-30T19:47:51Z</time>
      </trkpt>
      <trkpt lat="44.34877" lon="2.56007">
        <ele>568.276</ele>
        <time>2009-01-30T19:47:52Z</time>
      </trkpt>
      <trkpt lat="44.34878" lon="2.56004">
        <ele>568.276</ele>
        <time>2009-01-30T19:47:53Z</time>
      </trkpt>
      <trkpt lat="44.34879" lon="2.56002">
        <ele>567.796</ele>
        <time>2009-01-30T19:47:54Z</time>
      </trkpt>
      <trkpt lat="44.34879" lon="2.56">
        <ele>567.796</ele>
        <time>2009-01-30T19:47:55Z</time>
      </trkpt>
      <trkpt lat="44.3488" lon="2.55998">
        <ele>567.796</ele>
        <time>2009-01-30T19:47:56Z</time>
      </trkpt>
      <trkpt lat="44.34881" lon="2.55995">
        <ele>567.315</ele>
        <time>2009-01-30T19:47:57Z</time>
      </trkpt>
      <trkpt lat="44.34882" lon="2.55992">
        <ele>567.315</ele>
        <time>2009-01-30T19:47:58Z</time>
      </trkpt>
      <trkpt lat="44.34882" lon="2.5599">
        <ele>567.796</ele>
        <time>2009-01-30T19:47:59Z</time>
      </trkpt>
      <trkpt lat="44.34882" lon="2.55989">
        <ele>567.315</ele>
        <time>2009-01-30T19:48:00Z</time>
      </trkpt>
      <trkpt lat="44.34882" lon="2.55989">
        <ele>566.834</ele>
        <time>2009-01-30T19:48:01Z</time>
      </trkpt>
      <trkpt lat="44.34881" lon="2.55989">
        <ele>565.873</ele>
        <time>2009-01-30T19:48:05Z</time>
      </trkpt>
      <trkpt lat="44.34882" lon="2.55988">
        <ele>565.873</ele>
        <time>2009-01-30T19:48:06Z</time>
      </trkpt>
      <trkpt lat="44.34882" lon="2.55988">
        <ele>565.873</ele>
        <time>2009-01-30T19:48:07Z</time>
      </trkpt>
      <trkpt lat="44.34883" lon="2.55988">
        <ele>565.873</ele>
        <time>2009-01-30T19:48:08Z</time>
      </trkpt>
      <trkpt lat="44.34883" lon="2.55988">
        <ele>565.873</ele>
        <time>2009-01-30T19:48:09Z</time>
      </trkpt>
      <trkpt lat="44.34883" lon="2.55988">
        <ele>565.393</ele>
        <time>2009-01-30T19:48:10Z</time>
      </trkpt>
      <trkpt lat="44.34882" lon="2.55988">
        <ele>565.873</ele>
        <time>2009-01-30T19:48:11Z</time>
      </trkpt>
      <trkpt lat="44.34881" lon="2.55987">
        <ele>565.873</ele>
        <time>2009-01-30T19:48:12Z</time>
      </trkpt>
      <trkpt lat="44.3488" lon="2.55986">
        <ele>565.393</ele>
        <time>2009-01-30T19:48:13Z</time>
      </trkpt>
      <trkpt lat="44.34879" lon="2.55985">
        <ele>565.393</ele>
        <time>2009-01-30T19:48:14Z</time>
      </trkpt>
      <trkpt lat="44.34878" lon="2.55984">
        <ele>565.393</ele>
        <time>2009-01-30T19:48:15Z</time>
      </trkpt>
      <trkpt lat="44.34877" lon="2.55982">
        <ele>565.873</ele>
        <time>2009-01-30T19:48:16Z</time>
      </trkpt>
      <trkpt lat="44.34877" lon="2.55981">
        <ele>565.873</ele>
        <time>2009-01-30T19:48:17Z</time>
      </trkpt>
      <trkpt lat="44.34876" lon="2.5598">
        <ele>565.393</ele>
        <time>2009-01-30T19:48:18Z</time>
      </trkpt>
      <trkpt lat="44.34876" lon="2.5598">
        <ele>565.393</ele>
        <time>2009-01-30T19:48:19Z</time>
      </trkpt>
      <trkpt lat="44.34875" lon="2.55979">
        <ele>565.393</ele>
        <time>2009-01-30T19:48:20Z</time>
      </trkpt>
      <trkpt lat="44.34875" lon="2.55979">
        <ele>565.393</ele>
        <time>2009-01-30T19:48:21Z</time>
      </trkpt>
      <trkpt lat="44.34875" lon="2.55979">
        <ele>565.393</ele>
        <time>2009-01-30T19:48:22Z</time>
      </trkpt>
      <trkpt lat="44.34873" lon="2.55976">
        <ele>563.95</ele>
        <time>2009-01-30T19:48:32Z</time>
      </trkpt>
      <trkpt lat="44.34872" lon="2.55976">
        <ele>563.47</ele>
        <time>2009-01-30T19:48:33Z</time>
      </trkpt>
      <trkpt lat="44.34872" lon="2.55975">
        <ele>562.989</ele>
        <time>2009-01-30T19:48:34Z</time>
      </trkpt>
      <trkpt lat="44.34871" lon="2.55975">
        <ele>562.509</ele>
        <time>2009-01-30T19:48:35Z</time>
      </trkpt>
      <trkpt lat="44.3487" lon="2.55974">
        <ele>562.028</ele>
        <time>2009-01-30T19:48:36Z</time>
      </trkpt>
      <trkpt lat="44.34868" lon="2.55974">
        <ele>561.547</ele>
        <time>2009-01-30T19:48:37Z</time>
      </trkpt>
      <trkpt lat="44.34867" lon="2.55973">
        <ele>561.067</ele>
        <time>2009-01-30T19:48:38Z</time>
      </trkpt>
      <trkpt lat="44.34866" lon="2.55972">
        <ele>560.586</ele>
        <time>2009-01-30T19:48:39Z</time>
      </trkpt>
      <trkpt lat="44.34865" lon="2.55971">
        <ele>560.105</ele>
        <time>2009-01-30T19:48:40Z</time>
      </trkpt>
      <trkpt lat="44.34863" lon="2.5597">
        <ele>559.625</ele>
        <time>2009-01-30T19:48:41Z</time>
      </trkpt>
      <trkpt lat="44.34862" lon="2.55968">
        <ele>558.663</ele>
        <time>2009-01-30T19:48:42Z</time>
      </trkpt>
      <trkpt lat="44.34861" lon="2.55968">
        <ele>558.183</ele>
        <time>2009-01-30T19:48:43Z</time>
      </trkpt>
      <trkpt lat="44.3486" lon="2.55967">
        <ele>557.702</ele>
        <time>2009-01-30T19:48:44Z</time>
      </trkpt>
      <trkpt lat="44.3486" lon="2.55967">
        <ele>557.221</ele>
        <time>2009-01-30T19:48:45Z</time>
      </trkpt>
      <trkpt lat="44.34859" lon="2.55966">
        <ele>556.26</ele>
        <time>2009-01-30T19:48:46Z</time>
      </trkpt>
      <trkpt lat="44.34858" lon="2.55966">
        <ele>555.779</ele>
        <time>2009-01-30T19:48:47Z</time>
      </trkpt>
      <trkpt lat="44.34856" lon="2.55965">
        <ele>555.299</ele>
        <time>2009-01-30T19:48:48Z</time>
      </trkpt>
      <trkpt lat="44.34855" lon="2.55963">
        <ele>554.818</ele>
        <time>2009-01-30T19:48:49Z</time>
      </trkpt>
      <trkpt lat="44.34853" lon="2.55961">
        <ele>554.337</ele>
        <time>2009-01-30T19:48:50Z</time>
      </trkpt>
      <trkpt lat="44.34852" lon="2.55959">
        <ele>553.376</ele>
        <time>2009-01-30T19:48:51Z</time>
      </trkpt>
      <trkpt lat="44.34852" lon="2.55957">
        <ele>553.857</ele>
        <time>2009-01-30T19:48:52Z</time>
      </trkpt>
      <trkpt lat="44.34851" lon="2.55956">
        <ele>554.337</ele>
        <time>2009-01-30T19:48:53Z</time>
      </trkpt>
      <trkpt lat="44.3485" lon="2.55954">
        <ele>554.818</ele>
        <time>2009-01-30T19:48:54Z</time>
      </trkpt>
      <trkpt lat="44.3485" lon="2.55954">
        <ele>554.337</ele>
        <time>2009-01-30T19:48:55Z</time>
      </trkpt>
      <trkpt lat="44.34849" lon="2.55955">
        <ele>554.818</ele>
        <time>2009-01-30T19:49:14Z</time>
      </trkpt>
      <trkpt lat="44.34849" lon="2.55955">
        <ele>554.818</ele>
        <time>2009-01-30T19:49:15Z</time>
      </trkpt>
      <trkpt lat="44.34846" lon="2.55949">
        <ele>558.183</ele>
        <time>2009-01-30T19:49:36Z</time>
      </trkpt>
      <trkpt lat="44.34845" lon="2.55949">
        <ele>557.702</ele>
        <time>2009-01-30T19:49:37Z</time>
      </trkpt>
      <trkpt lat="44.34845" lon="2.55948">
        <ele>557.221</ele>
        <time>2009-01-30T19:49:38Z</time>
      </trkpt>
      <trkpt lat="44.34843" lon="2.55946">
        <ele>552.895</ele>
        <time>2009-01-30T19:49:57Z</time>
      </trkpt>
      <trkpt lat="44.34843" lon="2.55946">
        <ele>552.895</ele>
        <time>2009-01-30T19:49:58Z</time>
      </trkpt>
      <trkpt lat="44.34843" lon="2.55945">
        <ele>552.415</ele>
        <time>2009-01-30T19:49:59Z</time>
      </trkpt>
      <trkpt lat="44.34842" lon="2.55944">
        <ele>552.415</ele>
        <time>2009-01-30T19:50:00Z</time>
      </trkpt>
      <trkpt lat="44.34842" lon="2.55943">
        <ele>551.934</ele>
        <time>2009-01-30T19:50:01Z</time>
      </trkpt>
      <trkpt lat="44.34841" lon="2.55942">
        <ele>551.453</ele>
        <time>2009-01-30T19:50:02Z</time>
      </trkpt>
      <trkpt lat="44.34841" lon="2.55941">
        <ele>550.973</ele>
        <time>2009-01-30T19:50:03Z</time>
      </trkpt>
      <trkpt lat="44.3484" lon="2.55941">
        <ele>550.492</ele>
        <time>2009-01-30T19:50:04Z</time>
      </trkpt>
      <trkpt lat="44.3484" lon="2.55941">
        <ele>550.492</ele>
        <time>2009-01-30T19:50:05Z</time>
      </trkpt>
      <trkpt lat="44.34838" lon="2.55934">
        <ele>555.299</ele>
        <time>2009-01-30T19:51:26Z</time>
      </trkpt>
      <trkpt lat="44.34837" lon="2.55934">
        <ele>555.779</ele>
        <time>2009-01-30T19:51:27Z</time>
      </trkpt>
      <trkpt lat="44.34836" lon="2.55933">
        <ele>552.895</ele>
        <time>2009-01-30T19:51:31Z</time>
      </trkpt>
      <trkpt lat="44.34836" lon="2.55933">
        <ele>552.895</ele>
        <time>2009-01-30T19:51:32Z</time>
      </trkpt>
      <trkpt lat="44.34843" lon="2.55925">
        <ele>539.918</ele>
        <time>2009-01-30T19:53:42Z</time>
      </trkpt>
      <trkpt lat="44.34843" lon="2.55924">
        <ele>539.918</ele>
        <time>2009-01-30T19:53:43Z</time>
      </trkpt>
      <trkpt lat="44.34843" lon="2.55923">
        <ele>539.918</ele>
        <time>2009-01-30T19:53:44Z</time>
      </trkpt>
      <trkpt lat="44.34843" lon="2.55922">
        <ele>539.437</ele>
        <time>2009-01-30T19:53:45Z</time>
      </trkpt>
      <trkpt lat="44.34843" lon="2.55921">
        <ele>539.437</ele>
        <time>2009-01-30T19:53:46Z</time>
      </trkpt>
      <trkpt lat="44.34849" lon="2.55916">
        <ele>545.686</ele>
        <time>2009-01-30T19:54:19Z</time>
      </trkpt>
      <trkpt lat="44.34849" lon="2.55916">
        <ele>546.166</ele>
        <time>2009-01-30T19:54:20Z</time>
      </trkpt>
      <trkpt lat="44.3485" lon="2.55915">
        <ele>546.166</ele>
        <time>2009-01-30T19:54:21Z</time>
      </trkpt>
      <trkpt lat="44.3485" lon="2.55914">
        <ele>546.166</ele>
        <time>2009-01-30T19:54:22Z</time>
      </trkpt>
      <trkpt lat="44.34851" lon="2.55913">
        <ele>546.166</ele>
        <time>2009-01-30T19:54:23Z</time>
      </trkpt>
      <trkpt lat="44.34851" lon="2.55912">
        <ele>546.166</ele>
        <time>2009-01-30T19:54:24Z</time>
      </trkpt>
      <trkpt lat="44.34852" lon="2.55911">
        <ele>546.166</ele>
        <time>2009-01-30T19:54:25Z</time>
      </trkpt>
      <trkpt lat="44.34852" lon="2.5591">
        <ele>546.166</ele>
        <time>2009-01-30T19:54:26Z</time>
      </trkpt>
      <trkpt lat="44.34852" lon="2.55909">
        <ele>546.166</ele>
        <time>2009-01-30T19:54:27Z</time>
      </trkpt>
      <trkpt lat="44.34853" lon="2.55908">
        <ele>546.166</ele>
        <time>2009-01-30T19:54:28Z</time>
      </trkpt>
      <trkpt lat="44.34853" lon="2.55908">
        <ele>545.686</ele>
        <time>2009-01-30T19:54:29Z</time>
      </trkpt>
      <trkpt lat="44.34853" lon="2.55907">
        <ele>545.686</ele>
        <time>2009-01-30T19:54:30Z</time>
      </trkpt>
      <trkpt lat="44.34854" lon="2.55907">
        <ele>545.205</ele>
        <time>2009-01-30T19:54:31Z</time>
      </trkpt>
      <trkpt lat="44.34854" lon="2.55906">
        <ele>545.205</ele>
        <time>2009-01-30T19:54:32Z</time>
      </trkpt>
      <trkpt lat="44.34854" lon="2.55905">
        <ele>545.205</ele>
        <time>2009-01-30T19:54:33Z</time>
      </trkpt>
      <trkpt lat="44.34854" lon="2.55905">
        <ele>545.205</ele>
        <time>2009-01-30T19:54:34Z</time>
      </trkpt>
      <trkpt lat="44.34855" lon="2.55904">
        <ele>544.724</ele>
        <time>2009-01-30T19:54:35Z</time>
      </trkpt>
      <trkpt lat="44.34855" lon="2.55903">
        <ele>544.724</ele>
        <time>2009-01-30T19:54:36Z</time>
      </trkpt>
      <trkpt lat="44.34855" lon="2.55902">
        <ele>544.724</ele>
        <time>2009-01-30T19:54:37Z</time>
      </trkpt>
      <trkpt lat="44.34856" lon="2.55901">
        <ele>544.724</ele>
        <time>2009-01-30T19:54:38Z</time>
      </trkpt>
      <trkpt lat="44.34857" lon="2.559">
        <ele>544.724</ele>
        <time>2009-01-30T19:54:39Z</time>
      </trkpt>
      <trkpt lat="44.34857" lon="2.55899">
        <ele>544.244</ele>
        <time>2009-01-30T19:54:40Z</time>
      </trkpt>
      <trkpt lat="44.34857" lon="2.55898">
        <ele>544.244</ele>
        <time>2009-01-30T19:54:41Z</time>
      </trkpt>
      <trkpt lat="44.34858" lon="2.55897">
        <ele>543.763</ele>
        <time>2009-01-30T19:54:42Z</time>
      </trkpt>
      <trkpt lat="44.34859" lon="2.55897">
        <ele>543.763</ele>
        <time>2009-01-30T19:54:43Z</time>
      </trkpt>
      <trkpt lat="44.3486" lon="2.55896">
        <ele>543.282</ele>
        <time>2009-01-30T19:54:44Z</time>
      </trkpt>
      <trkpt lat="44.34862" lon="2.55895">
        <ele>543.282</ele>
        <time>2009-01-30T19:54:45Z</time>
      </trkpt>
      <trkpt lat="44.34864" lon="2.55895">
        <ele>543.282</ele>
        <time>2009-01-30T19:54:46Z</time>
      </trkpt>
      <trkpt lat="44.34865" lon="2.55894">
        <ele>542.802</ele>
        <time>2009-01-30T19:54:47Z</time>
      </trkpt>
      <trkpt lat="44.34866" lon="2.55893">
        <ele>543.282</ele>
        <time>2009-01-30T19:54:48Z</time>
      </trkpt>
      <trkpt lat="44.34867" lon="2.55893">
        <ele>543.282</ele>
        <time>2009-01-30T19:54:49Z</time>
      </trkpt>
      <trkpt lat="44.34867" lon="2.55892">
        <ele>543.763</ele>
        <time>2009-01-30T19:54:50Z</time>
      </trkpt>
      <trkpt lat="44.34868" lon="2.55891">
        <ele>543.763</ele>
        <time>2009-01-30T19:54:51Z</time>
      </trkpt>
      <trkpt lat="44.34869" lon="2.55891">
        <ele>543.763</ele>
        <time>2009-01-30T19:54:52Z</time>
      </trkpt>
      <trkpt lat="44.34871" lon="2.5589">
        <ele>543.282</ele>
        <time>2009-01-30T19:54:53Z</time>
      </trkpt>
      <trkpt lat="44.34872" lon="2.55889">
        <ele>543.282</ele>
        <time>2009-01-30T19:54:54Z</time>
      </trkpt>
      <trkpt lat="44.34873" lon="2.55888">
        <ele>543.282</ele>
        <time>2009-01-30T19:54:55Z</time>
      </trkpt>
      <trkpt lat="44.34875" lon="2.55887">
        <ele>543.282</ele>
        <time>2009-01-30T19:54:56Z</time>
      </trkpt>
      <trkpt lat="44.34877" lon="2.55887">
        <ele>542.802</ele>
        <time>2009-01-30T19:54:57Z</time>
      </trkpt>
      <trkpt lat="44.34878" lon="2.55886">
        <ele>542.802</ele>
        <time>2009-01-30T19:54:58Z</time>
      </trkpt>
      <trkpt lat="44.34879" lon="2.55886">
        <ele>542.802</ele>
        <time>2009-01-30T19:54:59Z</time>
      </trkpt>
      <trkpt lat="44.34881" lon="2.55885">
        <ele>542.802</ele>
        <time>2009-01-30T19:55:00Z</time>
      </trkpt>
      <trkpt lat="44.34882" lon="2.55884">
        <ele>542.321</ele>
        <time>2009-01-30T19:55:01Z</time>
      </trkpt>
      <trkpt lat="44.34884" lon="2.55883">
        <ele>541.84</ele>
        <time>2009-01-30T19:55:02Z</time>
      </trkpt>
      <trkpt lat="44.34886" lon="2.55882">
        <ele>541.84</ele>
        <time>2009-01-30T19:55:03Z</time>
      </trkpt>
      <trkpt lat="44.34887" lon="2.55881">
        <ele>541.359</ele>
        <time>2009-01-30T19:55:04Z</time>
      </trkpt>
      <trkpt lat="44.34888" lon="2.5588">
        <ele>541.359</ele>
        <time>2009-01-30T19:55:05Z</time>
      </trkpt>
      <trkpt lat="44.3489" lon="2.55879">
        <ele>541.84</ele>
        <time>2009-01-30T19:55:06Z</time>
      </trkpt>
      <trkpt lat="44.34892" lon="2.55878">
        <ele>541.84</ele>
        <time>2009-01-30T19:55:07Z</time>
      </trkpt>
      <trkpt lat="44.34893" lon="2.55877">
        <ele>541.84</ele>
        <time>2009-01-30T19:55:08Z</time>
      </trkpt>
      <trkpt lat="44.34894" lon="2.55876">
        <ele>541.84</ele>
        <time>2009-01-30T19:55:09Z</time>
      </trkpt>
      <trkpt lat="44.34895" lon="2.55875">
        <ele>541.84</ele>
        <time>2009-01-30T19:55:10Z</time>
      </trkpt>
      <trkpt lat="44.34897" lon="2.55874">
        <ele>541.84</ele>
        <time>2009-01-30T19:55:11Z</time>
      </trkpt>
      <trkpt lat="44.34898" lon="2.55873">
        <ele>541.84</ele>
        <time>2009-01-30T19:55:12Z</time>
      </trkpt>
      <trkpt lat="44.349" lon="2.55871">
        <ele>541.84</ele>
        <time>2009-01-30T19:55:13Z</time>
      </trkpt>
      <trkpt lat="44.34902" lon="2.5587">
        <ele>541.359</ele>
        <time>2009-01-30T19:55:14Z</time>
      </trkpt>
      <trkpt lat="44.34903" lon="2.55868">
        <ele>541.359</ele>
        <time>2009-01-30T19:55:15Z</time>
      </trkpt>
      <trkpt lat="44.34905" lon="2.55866">
        <ele>540.879</ele>
        <time>2009-01-30T19:55:16Z</time>
      </trkpt>
      <trkpt lat="44.34906" lon="2.55865">
        <ele>540.879</ele>
        <time>2009-01-30T19:55:17Z</time>
      </trkpt>
      <trkpt lat="44.34908" lon="2.55863">
        <ele>540.879</ele>
        <time>2009-01-30T19:55:18Z</time>
      </trkpt>
      <trkpt lat="44.34909" lon="2.55862">
        <ele>540.879</ele>
        <time>2009-01-30T19:55:19Z</time>
      </trkpt>
      <trkpt lat="44.34911" lon="2.55861">
        <ele>540.879</ele>
        <time>2009-01-30T19:55:20Z</time>
      </trkpt>
      <trkpt lat="44.34913" lon="2.55859">
        <ele>540.879</ele>
        <time>2009-01-30T19:55:21Z</time>
      </trkpt>
      <trkpt lat="44.34914" lon="2.55858">
        <ele>540.398</ele>
        <time>2009-01-30T19:55:22Z</time>
      </trkpt>
      <trkpt lat="44.34916" lon="2.55856">
        <ele>540.879</ele>
        <time>2009-01-30T19:55:23Z</time>
      </trkpt>
      <trkpt lat="44.34918" lon="2.55854">
        <ele>540.879</ele>
        <time>2009-01-30T19:55:24Z</time>
      </trkpt>
      <trkpt lat="44.34919" lon="2.55853">
        <ele>540.879</ele>
        <time>2009-01-30T19:55:25Z</time>
      </trkpt>
      <trkpt lat="44.34921" lon="2.55851">
        <ele>541.359</ele>
        <time>2009-01-30T19:55:26Z</time>
      </trkpt>
      <trkpt lat="44.34922" lon="2.5585">
        <ele>541.359</ele>
        <time>2009-01-30T19:55:27Z</time>
      </trkpt>
      <trkpt lat="44.34924" lon="2.55849">
        <ele>541.359</ele>
        <time>2009-01-30T19:55:28Z</time>
      </trkpt>
      <trkpt lat="44.34926" lon="2.55847">
        <ele>541.84</ele>
        <time>2009-01-30T19:55:29Z</time>
      </trkpt>
      <trkpt lat="44.34928" lon="2.55846">
        <ele>541.84</ele>
        <time>2009-01-30T19:55:30Z</time>
      </trkpt>
      <trkpt lat="44.34929" lon="2.55844">
        <ele>541.84</ele>
        <time>2009-01-30T19:55:31Z</time>
      </trkpt>
      <trkpt lat="44.34931" lon="2.55843">
        <ele>541.84</ele>
        <time>2009-01-30T19:55:32Z</time>
      </trkpt>
      <trkpt lat="44.34932" lon="2.55841">
        <ele>541.84</ele>
        <time>2009-01-30T19:55:33Z</time>
      </trkpt>
      <trkpt lat="44.34934" lon="2.5584">
        <ele>541.84</ele>
        <time>2009-01-30T19:55:34Z</time>
      </trkpt>
      <trkpt lat="44.34935" lon="2.55839">
        <ele>541.84</ele>
        <time>2009-01-30T19:55:35Z</time>
      </trkpt>
      <trkpt lat="44.34937" lon="2.55838">
        <ele>542.321</ele>
        <time>2009-01-30T19:55:36Z</time>
      </trkpt>
      <trkpt lat="44.34938" lon="2.55836">
        <ele>541.84</ele>
        <time>2009-01-30T19:55:37Z</time>
      </trkpt>
      <trkpt lat="44.34939" lon="2.55835">
        <ele>541.84</ele>
        <time>2009-01-30T19:55:38Z</time>
      </trkpt>
      <trkpt lat="44.34941" lon="2.55834">
        <ele>541.84</ele>
        <time>2009-01-30T19:55:39Z</time>
      </trkpt>
      <trkpt lat="44.34942" lon="2.55832">
        <ele>541.84</ele>
        <time>2009-01-30T19:55:40Z</time>
      </trkpt>
      <trkpt lat="44.34944" lon="2.55831">
        <ele>542.321</ele>
        <time>2009-01-30T19:55:41Z</time>
      </trkpt>
      <trkpt lat="44.34945" lon="2.5583">
        <ele>541.84</ele>
        <time>2009-01-30T19:55:42Z</time>
      </trkpt>
      <trkpt lat="44.34946" lon="2.55828">
        <ele>541.359</ele>
        <time>2009-01-30T19:55:43Z</time>
      </trkpt>
      <trkpt lat="44.34947" lon="2.55827">
        <ele>541.359</ele>
        <time>2009-01-30T19:55:44Z</time>
      </trkpt>
      <trkpt lat="44.34948" lon="2.55826">
        <ele>541.359</ele>
        <time>2009-01-30T19:55:45Z</time>
      </trkpt>
      <trkpt lat="44.34949" lon="2.55825">
        <ele>541.359</ele>
        <time>2009-01-30T19:55:46Z</time>
      </trkpt>
      <trkpt lat="44.3495" lon="2.55824">
        <ele>540.879</ele>
        <time>2009-01-30T19:55:47Z</time>
      </trkpt>
      <trkpt lat="44.34951" lon="2.55822">
        <ele>540.879</ele>
        <time>2009-01-30T19:55:48Z</time>
      </trkpt>
      <trkpt lat="44.34952" lon="2.55821">
        <ele>540.398</ele>
        <time>2009-01-30T19:55:49Z</time>
      </trkpt>
      <trkpt lat="44.34953" lon="2.55821">
        <ele>540.398</ele>
        <time>2009-01-30T19:55:50Z</time>
      </trkpt>
      <trkpt lat="44.34954" lon="2.5582">
        <ele>539.918</ele>
        <time>2009-01-30T19:55:51Z</time>
      </trkpt>
      <trkpt lat="44.34956" lon="2.55819">
        <ele>539.918</ele>
        <time>2009-01-30T19:55:52Z</time>
      </trkpt>
      <trkpt lat="44.34957" lon="2.55818">
        <ele>539.918</ele>
        <time>2009-01-30T19:55:53Z</time>
      </trkpt>
      <trkpt lat="44.34959" lon="2.55816">
        <ele>539.918</ele>
        <time>2009-01-30T19:55:54Z</time>
      </trkpt>
      <trkpt lat="44.3496" lon="2.55815">
        <ele>539.437</ele>
        <time>2009-01-30T19:55:55Z</time>
      </trkpt>
      <trkpt lat="44.34962" lon="2.55815">
        <ele>539.437</ele>
        <time>2009-01-30T19:55:56Z</time>
      </trkpt>
      <trkpt lat="44.34963" lon="2.55814">
        <ele>539.437</ele>
        <time>2009-01-30T19:55:57Z</time>
      </trkpt>
      <trkpt lat="44.34965" lon="2.55814">
        <ele>539.437</ele>
        <time>2009-01-30T19:55:58Z</time>
      </trkpt>
      <trkpt lat="44.34966" lon="2.55814">
        <ele>539.437</ele>
        <time>2009-01-30T19:55:59Z</time>
      </trkpt>
      <trkpt lat="44.34966" lon="2.55813">
        <ele>539.437</ele>
        <time>2009-01-30T19:56:00Z</time>
      </trkpt>
      <trkpt lat="44.34967" lon="2.55813">
        <ele>538.956</ele>
        <time>2009-01-30T19:56:01Z</time>
      </trkpt>
      <trkpt lat="44.34967" lon="2.55814">
        <ele>538.956</ele>
        <time>2009-01-30T19:56:02Z</time>
      </trkpt>
      <trkpt lat="44.34968" lon="2.55814">
        <ele>538.956</ele>
        <time>2009-01-30T19:56:03Z</time>
      </trkpt>
      <trkpt lat="44.34969" lon="2.55814">
        <ele>538.956</ele>
        <time>2009-01-30T19:56:04Z</time>
      </trkpt>
      <trkpt lat="44.34969" lon="2.55814">
        <ele>539.437</ele>
        <time>2009-01-30T19:56:05Z</time>
      </trkpt>
      <trkpt lat="44.3497" lon="2.55814">
        <ele>539.918</ele>
        <time>2009-01-30T19:56:06Z</time>
      </trkpt>
      <trkpt lat="44.34971" lon="2.55815">
        <ele>539.918</ele>
        <time>2009-01-30T19:56:08Z</time>
      </trkpt>
      <trkpt lat="44.34972" lon="2.55815">
        <ele>540.879</ele>
        <time>2009-01-30T19:56:09Z</time>
      </trkpt>
      <trkpt lat="44.34973" lon="2.55815">
        <ele>540.879</ele>
        <time>2009-01-30T19:56:10Z</time>
      </trkpt>
      <trkpt lat="44.34974" lon="2.55814">
        <ele>540.879</ele>
        <time>2009-01-30T19:56:11Z</time>
      </trkpt>
      <trkpt lat="44.34975" lon="2.55813">
        <ele>540.398</ele>
        <time>2009-01-30T19:56:12Z</time>
      </trkpt>
      <trkpt lat="44.34977" lon="2.55812">
        <ele>540.398</ele>
        <time>2009-01-30T19:56:13Z</time>
      </trkpt>
      <trkpt lat="44.34978" lon="2.5581">
        <ele>539.918</ele>
        <time>2009-01-30T19:56:14Z</time>
      </trkpt>
      <trkpt lat="44.34978" lon="2.55809">
        <ele>539.437</ele>
        <time>2009-01-30T19:56:15Z</time>
      </trkpt>
      <trkpt lat="44.34979" lon="2.55807">
        <ele>538.956</ele>
        <time>2009-01-30T19:56:16Z</time>
      </trkpt>
      <trkpt lat="44.34979" lon="2.55806">
        <ele>538.476</ele>
        <time>2009-01-30T19:56:17Z</time>
      </trkpt>
      <trkpt lat="44.3498" lon="2.55805">
        <ele>538.476</ele>
        <time>2009-01-30T19:56:18Z</time>
      </trkpt>
      <trkpt lat="44.3498" lon="2.55804">
        <ele>537.995</ele>
        <time>2009-01-30T19:56:19Z</time>
      </trkpt>
      <trkpt lat="44.34981" lon="2.55803">
        <ele>537.514</ele>
        <time>2009-01-30T19:56:20Z</time>
      </trkpt>
      <trkpt lat="44.34981" lon="2.55803">
        <ele>537.514</ele>
        <time>2009-01-30T19:56:21Z</time>
      </trkpt>
      <trkpt lat="44.34981" lon="2.55802">
        <ele>537.034</ele>
        <time>2009-01-30T19:56:22Z</time>
      </trkpt>
      <trkpt lat="44.34981" lon="2.55796">
        <ele>535.592</ele>
        <time>2009-01-30T19:56:38Z</time>
      </trkpt>
      <trkpt lat="44.34982" lon="2.55795">
        <ele>535.111</ele>
        <time>2009-01-30T19:56:39Z</time>
      </trkpt>
      <trkpt lat="44.34982" lon="2.55794">
        <ele>535.111</ele>
        <time>2009-01-30T19:56:40Z</time>
      </trkpt>
      <trkpt lat="44.34983" lon="2.55792">
        <ele>534.63</ele>
        <time>2009-01-30T19:56:47Z</time>
      </trkpt>
      <trkpt lat="44.34983" lon="2.55791">
        <ele>534.63</ele>
        <time>2009-01-30T19:56:48Z</time>
      </trkpt>
      <trkpt lat="44.34983" lon="2.5579">
        <ele>534.15</ele>
        <time>2009-01-30T19:56:49Z</time>
      </trkpt>
      <trkpt lat="44.34983" lon="2.5579">
        <ele>534.15</ele>
        <time>2009-01-30T19:56:50Z</time>
      </trkpt>
      <trkpt lat="44.34983" lon="2.55788">
        <ele>533.669</ele>
        <time>2009-01-30T19:56:54Z</time>
      </trkpt>
      <trkpt lat="44.34983" lon="2.55788">
        <ele>533.188</ele>
        <time>2009-01-30T19:56:55Z</time>
      </trkpt>
      <trkpt lat="44.34983" lon="2.55786">
        <ele>533.188</ele>
        <time>2009-01-30T19:56:58Z</time>
      </trkpt>
      <trkpt lat="44.34983" lon="2.55785">
        <ele>532.708</ele>
        <time>2009-01-30T19:56:59Z</time>
      </trkpt>
      <trkpt lat="44.34984" lon="2.55784">
        <ele>532.708</ele>
        <time>2009-01-30T19:57:00Z</time>
      </trkpt>
      <trkpt lat="44.34984" lon="2.55783">
        <ele>532.227</ele>
        <time>2009-01-30T19:57:01Z</time>
      </trkpt>
      <trkpt lat="44.34984" lon="2.55782">
        <ele>532.227</ele>
        <time>2009-01-30T19:57:02Z</time>
      </trkpt>
      <trkpt lat="44.34985" lon="2.55781">
        <ele>532.227</ele>
        <time>2009-01-30T19:57:03Z</time>
      </trkpt>
      <trkpt lat="44.34985" lon="2.55779">
        <ele>531.746</ele>
        <time>2009-01-30T19:57:04Z</time>
      </trkpt>
      <trkpt lat="44.34985" lon="2.55778">
        <ele>531.746</ele>
        <time>2009-01-30T19:57:05Z</time>
      </trkpt>
      <trkpt lat="44.34986" lon="2.55775">
        <ele>531.746</ele>
        <time>2009-01-30T19:57:06Z</time>
      </trkpt>
      <trkpt lat="44.34986" lon="2.55773">
        <ele>531.266</ele>
        <time>2009-01-30T19:57:07Z</time>
      </trkpt>
      <trkpt lat="44.34987" lon="2.5577">
        <ele>531.266</ele>
        <time>2009-01-30T19:57:08Z</time>
      </trkpt>
      <trkpt lat="44.34987" lon="2.55768">
        <ele>530.785</ele>
        <time>2009-01-30T19:57:09Z</time>
      </trkpt>
      <trkpt lat="44.34988" lon="2.55766">
        <ele>529.824</ele>
        <time>2009-01-30T19:57:10Z</time>
      </trkpt>
      <trkpt lat="44.34988" lon="2.55763">
        <ele>529.824</ele>
        <time>2009-01-30T19:57:11Z</time>
      </trkpt>
      <trkpt lat="44.34989" lon="2.5576">
        <ele>529.343</ele>
        <time>2009-01-30T19:57:12Z</time>
      </trkpt>
      <trkpt lat="44.3499" lon="2.55757">
        <ele>529.343</ele>
        <time>2009-01-30T19:57:13Z</time>
      </trkpt>
      <trkpt lat="44.34991" lon="2.55754">
        <ele>529.343</ele>
        <time>2009-01-30T19:57:14Z</time>
      </trkpt>
      <trkpt lat="44.34992" lon="2.55752">
        <ele>529.343</ele>
        <time>2009-01-30T19:57:15Z</time>
      </trkpt>
      <trkpt lat="44.34993" lon="2.55751">
        <ele>529.343</ele>
        <time>2009-01-30T19:57:16Z</time>
      </trkpt>
      <trkpt lat="44.34995" lon="2.55749">
        <ele>529.824</ele>
        <time>2009-01-30T19:57:17Z</time>
      </trkpt>
      <trkpt lat="44.34996" lon="2.55748">
        <ele>529.824</ele>
        <time>2009-01-30T19:57:18Z</time>
      </trkpt>
      <trkpt lat="44.34998" lon="2.55747">
        <ele>530.304</ele>
        <time>2009-01-30T19:57:19Z</time>
      </trkpt>
      <trkpt lat="44.34999" lon="2.55747">
        <ele>530.304</ele>
        <time>2009-01-30T19:57:20Z</time>
      </trkpt>
      <trkpt lat="44.35" lon="2.55746">
        <ele>530.785</ele>
        <time>2009-01-30T19:57:21Z</time>
      </trkpt>
      <trkpt lat="44.35001" lon="2.55746">
        <ele>530.785</ele>
        <time>2009-01-30T19:57:22Z</time>
      </trkpt>
      <trkpt lat="44.35003" lon="2.55746">
        <ele>530.785</ele>
        <time>2009-01-30T19:57:23Z</time>
      </trkpt>
      <trkpt lat="44.35004" lon="2.55746">
        <ele>530.785</ele>
        <time>2009-01-30T19:57:24Z</time>
      </trkpt>
      <trkpt lat="44.35005" lon="2.55747">
        <ele>530.785</ele>
        <time>2009-01-30T19:57:25Z</time>
      </trkpt>
      <trkpt lat="44.35005" lon="2.55747">
        <ele>530.785</ele>
        <time>2009-01-30T19:57:26Z</time>
      </trkpt>
      <trkpt lat="44.35007" lon="2.55747">
        <ele>531.266</ele>
        <time>2009-01-30T19:57:28Z</time>
      </trkpt>
      <trkpt lat="44.35008" lon="2.55748">
        <ele>531.266</ele>
        <time>2009-01-30T19:57:29Z</time>
      </trkpt>
      <trkpt lat="44.35008" lon="2.55748">
        <ele>531.266</ele>
        <time>2009-01-30T19:57:30Z</time>
      </trkpt>
      <trkpt lat="44.35009" lon="2.55748">
        <ele>531.746</ele>
        <time>2009-01-30T19:57:31Z</time>
      </trkpt>
      <trkpt lat="44.3501" lon="2.55748">
        <ele>532.227</ele>
        <time>2009-01-30T19:57:32Z</time>
      </trkpt>
      <trkpt lat="44.35011" lon="2.55747">
        <ele>532.708</ele>
        <time>2009-01-30T19:57:33Z</time>
      </trkpt>
      <trkpt lat="44.35012" lon="2.55746">
        <ele>532.708</ele>
        <time>2009-01-30T19:57:34Z</time>
      </trkpt>
      <trkpt lat="44.35014" lon="2.55743">
        <ele>532.227</ele>
        <time>2009-01-30T19:57:35Z</time>
      </trkpt>
      <trkpt lat="44.35015" lon="2.5574">
        <ele>531.266</ele>
        <time>2009-01-30T19:57:36Z</time>
      </trkpt>
      <trkpt lat="44.35017" lon="2.55736">
        <ele>530.785</ele>
        <time>2009-01-30T19:57:37Z</time>
      </trkpt>
      <trkpt lat="44.35019" lon="2.55734">
        <ele>530.304</ele>
        <time>2009-01-30T19:57:38Z</time>
      </trkpt>
      <trkpt lat="44.3502" lon="2.55731">
        <ele>530.304</ele>
        <time>2009-01-30T19:57:39Z</time>
      </trkpt>
      <trkpt lat="44.35022" lon="2.55727">
        <ele>529.824</ele>
        <time>2009-01-30T19:57:40Z</time>
      </trkpt>
      <trkpt lat="44.35023" lon="2.55724">
        <ele>529.343</ele>
        <time>2009-01-30T19:57:41Z</time>
      </trkpt>
      <trkpt lat="44.35024" lon="2.55721">
        <ele>529.343</ele>
        <time>2009-01-30T19:57:42Z</time>
      </trkpt>
      <trkpt lat="44.35026" lon="2.55718">
        <ele>528.863</ele>
        <time>2009-01-30T19:57:43Z</time>
      </trkpt>
      <trkpt lat="44.35027" lon="2.55715">
        <ele>528.863</ele>
        <time>2009-01-30T19:57:44Z</time>
      </trkpt>
      <trkpt lat="44.35029" lon="2.55711">
        <ele>527.901</ele>
        <time>2009-01-30T19:57:45Z</time>
      </trkpt>
      <trkpt lat="44.35031" lon="2.55708">
        <ele>527.42</ele>
        <time>2009-01-30T19:57:46Z</time>
      </trkpt>
      <trkpt lat="44.35033" lon="2.55704">
        <ele>527.42</ele>
        <time>2009-01-30T19:57:47Z</time>
      </trkpt>
      <trkpt lat="44.35036" lon="2.557">
        <ele>527.901</ele>
        <time>2009-01-30T19:57:48Z</time>
      </trkpt>
      <trkpt lat="44.35038" lon="2.55697">
        <ele>527.901</ele>
        <time>2009-01-30T19:57:49Z</time>
      </trkpt>
      <trkpt lat="44.3504" lon="2.55694">
        <ele>527.42</ele>
        <time>2009-01-30T19:57:50Z</time>
      </trkpt>
      <trkpt lat="44.35042" lon="2.5569">
        <ele>527.42</ele>
        <time>2009-01-30T19:57:51Z</time>
      </trkpt>
      <trkpt lat="44.35044" lon="2.55687">
        <ele>526.94</ele>
        <time>2009-01-30T19:57:52Z</time>
      </trkpt>
      <trkpt lat="44.35046" lon="2.55684">
        <ele>526.94</ele>
        <time>2009-01-30T19:57:53Z</time>
      </trkpt>
      <trkpt lat="44.35048" lon="2.55681">
        <ele>526.94</ele>
        <time>2009-01-30T19:57:54Z</time>
      </trkpt>
      <trkpt lat="44.3505" lon="2.55678">
        <ele>526.459</ele>
        <time>2009-01-30T19:57:55Z</time>
      </trkpt>
      <trkpt lat="44.35052" lon="2.55675">
        <ele>526.459</ele>
        <time>2009-01-30T19:57:56Z</time>
      </trkpt>
      <trkpt lat="44.35054" lon="2.55672">
        <ele>525.978</ele>
        <time>2009-01-30T19:57:57Z</time>
      </trkpt>
      <trkpt lat="44.35056" lon="2.5567">
        <ele>525.978</ele>
        <time>2009-01-30T19:57:58Z</time>
      </trkpt>
      <trkpt lat="44.35058" lon="2.55667">
        <ele>525.498</ele>
        <time>2009-01-30T19:57:59Z</time>
      </trkpt>
      <trkpt lat="44.3506" lon="2.55664">
        <ele>524.536</ele>
        <time>2009-01-30T19:58:00Z</time>
      </trkpt>
      <trkpt lat="44.35062" lon="2.55661">
        <ele>524.056</ele>
        <time>2009-01-30T19:58:01Z</time>
      </trkpt>
      <trkpt lat="44.35064" lon="2.55658">
        <ele>523.095</ele>
        <time>2009-01-30T19:58:02Z</time>
      </trkpt>
      <trkpt lat="44.35066" lon="2.55655">
        <ele>522.614</ele>
        <time>2009-01-30T19:58:03Z</time>
      </trkpt>
      <trkpt lat="44.35068" lon="2.55651">
        <ele>522.133</ele>
        <time>2009-01-30T19:58:04Z</time>
      </trkpt>
      <trkpt lat="44.3507" lon="2.55647">
        <ele>521.653</ele>
        <time>2009-01-30T19:58:05Z</time>
      </trkpt>
      <trkpt lat="44.35072" lon="2.55644">
        <ele>521.172</ele>
        <time>2009-01-30T19:58:06Z</time>
      </trkpt>
      <trkpt lat="44.35073" lon="2.5564">
        <ele>520.691</ele>
        <time>2009-01-30T19:58:07Z</time>
      </trkpt>
      <trkpt lat="44.35074" lon="2.55635">
        <ele>520.211</ele>
        <time>2009-01-30T19:58:08Z</time>
      </trkpt>
      <trkpt lat="44.35075" lon="2.55631">
        <ele>519.249</ele>
        <time>2009-01-30T19:58:09Z</time>
      </trkpt>
      <trkpt lat="44.35076" lon="2.55627">
        <ele>518.769</ele>
        <time>2009-01-30T19:58:10Z</time>
      </trkpt>
      <trkpt lat="44.35076" lon="2.55622">
        <ele>518.769</ele>
        <time>2009-01-30T19:58:11Z</time>
      </trkpt>
      <trkpt lat="44.35077" lon="2.55617">
        <ele>518.288</ele>
        <time>2009-01-30T19:58:12Z</time>
      </trkpt>
      <trkpt lat="44.35077" lon="2.55613">
        <ele>517.807</ele>
        <time>2009-01-30T19:58:13Z</time>
      </trkpt>
      <trkpt lat="44.35077" lon="2.55608">
        <ele>517.327</ele>
        <time>2009-01-30T19:58:14Z</time>
      </trkpt>
      <trkpt lat="44.35078" lon="2.55603">
        <ele>516.846</ele>
        <time>2009-01-30T19:58:15Z</time>
      </trkpt>
      <trkpt lat="44.35078" lon="2.55599">
        <ele>516.846</ele>
        <time>2009-01-30T19:58:16Z</time>
      </trkpt>
      <trkpt lat="44.35079" lon="2.55595">
        <ele>516.365</ele>
        <time>2009-01-30T19:58:17Z</time>
      </trkpt>
      <trkpt lat="44.3508" lon="2.55591">
        <ele>515.885</ele>
        <time>2009-01-30T19:58:18Z</time>
      </trkpt>
      <trkpt lat="44.35081" lon="2.55587">
        <ele>515.885</ele>
        <time>2009-01-30T19:58:19Z</time>
      </trkpt>
      <trkpt lat="44.35083" lon="2.55582">
        <ele>515.404</ele>
        <time>2009-01-30T19:58:20Z</time>
      </trkpt>
      <trkpt lat="44.35084" lon="2.55579">
        <ele>515.404</ele>
        <time>2009-01-30T19:58:21Z</time>
      </trkpt>
      <trkpt lat="44.35086" lon="2.55575">
        <ele>514.923</ele>
        <time>2009-01-30T19:58:22Z</time>
      </trkpt>
      <trkpt lat="44.35088" lon="2.55572">
        <ele>515.404</ele>
        <time>2009-01-30T19:58:23Z</time>
      </trkpt>
      <trkpt lat="44.35091" lon="2.55569">
        <ele>514.923</ele>
        <time>2009-01-30T19:58:24Z</time>
      </trkpt>
      <trkpt lat="44.35093" lon="2.55567">
        <ele>514.923</ele>
        <time>2009-01-30T19:58:25Z</time>
      </trkpt>
      <trkpt lat="44.35096" lon="2.55564">
        <ele>514.923</ele>
        <time>2009-01-30T19:58:26Z</time>
      </trkpt>
      <trkpt lat="44.35098" lon="2.55561">
        <ele>514.923</ele>
        <time>2009-01-30T19:58:27Z</time>
      </trkpt>
      <trkpt lat="44.35101" lon="2.55558">
        <ele>514.923</ele>
        <time>2009-01-30T19:58:28Z</time>
      </trkpt>
      <trkpt lat="44.35103" lon="2.55554">
        <ele>514.923</ele>
        <time>2009-01-30T19:58:29Z</time>
      </trkpt>
      <trkpt lat="44.35104" lon="2.55551">
        <ele>514.923</ele>
        <time>2009-01-30T19:58:30Z</time>
      </trkpt>
      <trkpt lat="44.35106" lon="2.55547">
        <ele>514.923</ele>
        <time>2009-01-30T19:58:31Z</time>
      </trkpt>
      <trkpt lat="44.35106" lon="2.55542">
        <ele>514.443</ele>
        <time>2009-01-30T19:58:32Z</time>
      </trkpt>
      <trkpt lat="44.35107" lon="2.55538">
        <ele>514.443</ele>
        <time>2009-01-30T19:58:33Z</time>
      </trkpt>
      <trkpt lat="44.35107" lon="2.55533">
        <ele>513.962</ele>
        <time>2009-01-30T19:58:34Z</time>
      </trkpt>
      <trkpt lat="44.35107" lon="2.55529">
        <ele>513.481</ele>
        <time>2009-01-30T19:58:35Z</time>
      </trkpt>
      <trkpt lat="44.35107" lon="2.55525">
        <ele>513.481</ele>
        <time>2009-01-30T19:58:36Z</time>
      </trkpt>
      <trkpt lat="44.35107" lon="2.55521">
        <ele>513.001</ele>
        <time>2009-01-30T19:58:37Z</time>
      </trkpt>
      <trkpt lat="44.35107" lon="2.55516">
        <ele>513.001</ele>
        <time>2009-01-30T19:58:38Z</time>
      </trkpt>
      <trkpt lat="44.35106" lon="2.55512">
        <ele>512.52</ele>
        <time>2009-01-30T19:58:39Z</time>
      </trkpt>
      <trkpt lat="44.35106" lon="2.55507">
        <ele>512.52</ele>
        <time>2009-01-30T19:58:40Z</time>
      </trkpt>
      <trkpt lat="44.35106" lon="2.55503">
        <ele>512.039</ele>
        <time>2009-01-30T19:58:41Z</time>
      </trkpt>
      <trkpt lat="44.35106" lon="2.55498">
        <ele>512.039</ele>
        <time>2009-01-30T19:58:42Z</time>
      </trkpt>
      <trkpt lat="44.35106" lon="2.55494">
        <ele>511.559</ele>
        <time>2009-01-30T19:58:43Z</time>
      </trkpt>
      <trkpt lat="44.35107" lon="2.5549">
        <ele>511.559</ele>
        <time>2009-01-30T19:58:44Z</time>
      </trkpt>
      <trkpt lat="44.35107" lon="2.55486">
        <ele>511.078</ele>
        <time>2009-01-30T19:58:45Z</time>
      </trkpt>
      <trkpt lat="44.35108" lon="2.55481">
        <ele>511.078</ele>
        <time>2009-01-30T19:58:46Z</time>
      </trkpt>
      <trkpt lat="44.35109" lon="2.55477">
        <ele>511.078</ele>
        <time>2009-01-30T19:58:47Z</time>
      </trkpt>
      <trkpt lat="44.3511" lon="2.55473">
        <ele>510.597</ele>
        <time>2009-01-30T19:58:48Z</time>
      </trkpt>
      <trkpt lat="44.35112" lon="2.55469">
        <ele>510.597</ele>
        <time>2009-01-30T19:58:49Z</time>
      </trkpt>
      <trkpt lat="44.35113" lon="2.55465">
        <ele>510.597</ele>
        <time>2009-01-30T19:58:50Z</time>
      </trkpt>
      <trkpt lat="44.35115" lon="2.55461">
        <ele>510.597</ele>
        <time>2009-01-30T19:58:51Z</time>
      </trkpt>
      <trkpt lat="44.35117" lon="2.55458">
        <ele>510.597</ele>
        <time>2009-01-30T19:58:52Z</time>
      </trkpt>
      <trkpt lat="44.35118" lon="2.55454">
        <ele>510.597</ele>
        <time>2009-01-30T19:58:53Z</time>
      </trkpt>
      <trkpt lat="44.3512" lon="2.55451">
        <ele>511.078</ele>
        <time>2009-01-30T19:58:54Z</time>
      </trkpt>
      <trkpt lat="44.35122" lon="2.55447">
        <ele>511.078</ele>
        <time>2009-01-30T19:58:55Z</time>
      </trkpt>
      <trkpt lat="44.35124" lon="2.55444">
        <ele>511.559</ele>
        <time>2009-01-30T19:58:56Z</time>
      </trkpt>
      <trkpt lat="44.35126" lon="2.55441">
        <ele>511.559</ele>
        <time>2009-01-30T19:58:57Z</time>
      </trkpt>
      <trkpt lat="44.35129" lon="2.55437">
        <ele>512.039</ele>
        <time>2009-01-30T19:58:58Z</time>
      </trkpt>
      <trkpt lat="44.35131" lon="2.55434">
        <ele>512.039</ele>
        <time>2009-01-30T19:58:59Z</time>
      </trkpt>
      <trkpt lat="44.35133" lon="2.55431">
        <ele>512.039</ele>
        <time>2009-01-30T19:59:00Z</time>
      </trkpt>
      <trkpt lat="44.35135" lon="2.55428">
        <ele>512.039</ele>
        <time>2009-01-30T19:59:01Z</time>
      </trkpt>
      <trkpt lat="44.35137" lon="2.55425">
        <ele>512.52</ele>
        <time>2009-01-30T19:59:02Z</time>
      </trkpt>
      <trkpt lat="44.35139" lon="2.55422">
        <ele>512.52</ele>
        <time>2009-01-30T19:59:03Z</time>
      </trkpt>
      <trkpt lat="44.35141" lon="2.55419">
        <ele>512.52</ele>
        <time>2009-01-30T19:59:04Z</time>
      </trkpt>
      <trkpt lat="44.35143" lon="2.55417">
        <ele>512.039</ele>
        <time>2009-01-30T19:59:05Z</time>
      </trkpt>
      <trkpt lat="44.35145" lon="2.55415">
        <ele>512.52</ele>
        <time>2009-01-30T19:59:06Z</time>
      </trkpt>
      <trkpt lat="44.35148" lon="2.55412">
        <ele>512.039</ele>
        <time>2009-01-30T19:59:07Z</time>
      </trkpt>
      <trkpt lat="44.3515" lon="2.5541">
        <ele>511.559</ele>
        <time>2009-01-30T19:59:08Z</time>
      </trkpt>
      <trkpt lat="44.35153" lon="2.55408">
        <ele>511.559</ele>
        <time>2009-01-30T19:59:09Z</time>
      </trkpt>
      <trkpt lat="44.35155" lon="2.55405">
        <ele>511.078</ele>
        <time>2009-01-30T19:59:10Z</time>
      </trkpt>
      <trkpt lat="44.35157" lon="2.55403">
        <ele>511.078</ele>
        <time>2009-01-30T19:59:11Z</time>
      </trkpt>
      <trkpt lat="44.35159" lon="2.554">
        <ele>511.078</ele>
        <time>2009-01-30T19:59:12Z</time>
      </trkpt>
      <trkpt lat="44.35161" lon="2.55397">
        <ele>511.559</ele>
        <time>2009-01-30T19:59:13Z</time>
      </trkpt>
      <trkpt lat="44.35163" lon="2.55395">
        <ele>511.559</ele>
        <time>2009-01-30T19:59:14Z</time>
      </trkpt>
      <trkpt lat="44.35165" lon="2.55393">
        <ele>511.078</ele>
        <time>2009-01-30T19:59:15Z</time>
      </trkpt>
      <trkpt lat="44.35166" lon="2.55392">
        <ele>511.078</ele>
        <time>2009-01-30T19:59:16Z</time>
      </trkpt>
      <trkpt lat="44.35167" lon="2.55391">
        <ele>511.078</ele>
        <time>2009-01-30T19:59:17Z</time>
      </trkpt>
      <trkpt lat="44.35168" lon="2.5539">
        <ele>511.078</ele>
        <time>2009-01-30T19:59:18Z</time>
      </trkpt>
      <trkpt lat="44.35168" lon="2.55389">
        <ele>511.559</ele>
        <time>2009-01-30T19:59:19Z</time>
      </trkpt>
      <trkpt lat="44.35169" lon="2.55388">
        <ele>511.559</ele>
        <time>2009-01-30T19:59:20Z</time>
      </trkpt>
      <trkpt lat="44.3517" lon="2.55387">
        <ele>511.559</ele>
        <time>2009-01-30T19:59:21Z</time>
      </trkpt>
      <trkpt lat="44.3517" lon="2.55385">
        <ele>511.078</ele>
        <time>2009-01-30T19:59:22Z</time>
      </trkpt>
      <trkpt lat="44.35169" lon="2.55383">
        <ele>510.597</ele>
        <time>2009-01-30T19:59:23Z</time>
      </trkpt>
      <trkpt lat="44.35168" lon="2.5538">
        <ele>510.117</ele>
        <time>2009-01-30T19:59:24Z</time>
      </trkpt>
      <trkpt lat="44.35166" lon="2.55378">
        <ele>509.155</ele>
        <time>2009-01-30T19:59:25Z</time>
      </trkpt>
      <trkpt lat="44.35164" lon="2.55377">
        <ele>508.194</ele>
        <time>2009-01-30T19:59:26Z</time>
      </trkpt>
      <trkpt lat="44.35162" lon="2.55375">
        <ele>507.714</ele>
        <time>2009-01-30T19:59:27Z</time>
      </trkpt>
      <trkpt lat="44.3516" lon="2.55375">
        <ele>507.233</ele>
        <time>2009-01-30T19:59:28Z</time>
      </trkpt>
      <trkpt lat="44.35159" lon="2.55374">
        <ele>506.752</ele>
        <time>2009-01-30T19:59:29Z</time>
      </trkpt>
      <trkpt lat="44.35158" lon="2.55374">
        <ele>506.271</ele>
        <time>2009-01-30T19:59:30Z</time>
      </trkpt>
      <trkpt lat="44.35157" lon="2.55373">
        <ele>505.31</ele>
        <time>2009-01-30T19:59:31Z</time>
      </trkpt>
      <trkpt lat="44.35156" lon="2.55372">
        <ele>505.31</ele>
        <time>2009-01-30T19:59:32Z</time>
      </trkpt>
      <trkpt lat="44.35155" lon="2.55372">
        <ele>504.829</ele>
        <time>2009-01-30T19:59:33Z</time>
      </trkpt>
      <trkpt lat="44.35155" lon="2.55371">
        <ele>503.868</ele>
        <time>2009-01-30T19:59:34Z</time>
      </trkpt>
      <trkpt lat="44.35154" lon="2.5537">
        <ele>503.868</ele>
        <time>2009-01-30T19:59:35Z</time>
      </trkpt>
      <trkpt lat="44.35153" lon="2.5537">
        <ele>503.387</ele>
        <time>2009-01-30T19:59:36Z</time>
      </trkpt>
      <trkpt lat="44.35152" lon="2.55369">
        <ele>503.387</ele>
        <time>2009-01-30T19:59:37Z</time>
      </trkpt>
      <trkpt lat="44.35152" lon="2.55368">
        <ele>503.387</ele>
        <time>2009-01-30T19:59:38Z</time>
      </trkpt>
      <trkpt lat="44.35151" lon="2.55367">
        <ele>503.387</ele>
        <time>2009-01-30T19:59:39Z</time>
      </trkpt>
      <trkpt lat="44.35149" lon="2.55359">
        <ele>512.52</ele>
        <time>2009-01-30T19:59:58Z</time>
      </trkpt>
      <trkpt lat="44.35148" lon="2.55359">
        <ele>512.52</ele>
        <time>2009-01-30T19:59:59Z</time>
      </trkpt>
      <trkpt lat="44.35147" lon="2.55359">
        <ele>512.52</ele>
        <time>2009-01-30T20:00:00Z</time>
      </trkpt>
      <trkpt lat="44.35146" lon="2.5536">
        <ele>512.52</ele>
        <time>2009-01-30T20:00:01Z</time>
      </trkpt>
      <trkpt lat="44.35146" lon="2.5536">
        <ele>513.001</ele>
        <time>2009-01-30T20:00:02Z</time>
      </trkpt>
      <trkpt lat="44.35147" lon="2.55361">
        <ele>513.001</ele>
        <time>2009-01-30T20:00:08Z</time>
      </trkpt>
      <trkpt lat="44.35147" lon="2.5536">
        <ele>513.001</ele>
        <time>2009-01-30T20:00:09Z</time>
      </trkpt>
      <trkpt lat="44.35147" lon="2.55362">
        <ele>512.52</ele>
        <time>2009-01-30T20:00:17Z</time>
      </trkpt>
      <trkpt lat="44.35147" lon="2.55363">
        <ele>512.039</ele>
        <time>2009-01-30T20:00:18Z</time>
      </trkpt>
      <trkpt lat="44.35146" lon="2.55364">
        <ele>513.001</ele>
        <time>2009-01-30T20:00:19Z</time>
      </trkpt>
      <trkpt lat="44.3515" lon="2.55365">
        <ele>522.614</ele>
        <time>2009-01-30T20:00:26Z</time>
      </trkpt>
      <trkpt lat="44.35149" lon="2.55364">
        <ele>522.133</ele>
        <time>2009-01-30T20:00:27Z</time>
      </trkpt>
      <trkpt lat="44.35147" lon="2.55364">
        <ele>521.172</ele>
        <time>2009-01-30T20:00:28Z</time>
      </trkpt>
      <trkpt lat="44.35145" lon="2.55365">
        <ele>521.172</ele>
        <time>2009-01-30T20:00:29Z</time>
      </trkpt>
      <trkpt lat="44.35143" lon="2.55366">
        <ele>520.691</ele>
        <time>2009-01-30T20:00:30Z</time>
      </trkpt>
      <trkpt lat="44.35141" lon="2.55368">
        <ele>520.691</ele>
        <time>2009-01-30T20:00:31Z</time>
      </trkpt>
      <trkpt lat="44.35139" lon="2.5537">
        <ele>520.211</ele>
        <time>2009-01-30T20:00:32Z</time>
      </trkpt>
      <trkpt lat="44.35137" lon="2.55371">
        <ele>518.769</ele>
        <time>2009-01-30T20:00:33Z</time>
      </trkpt>
      <trkpt lat="44.35135" lon="2.55373">
        <ele>516.846</ele>
        <time>2009-01-30T20:00:34Z</time>
      </trkpt>
      <trkpt lat="44.35133" lon="2.55374">
        <ele>515.885</ele>
        <time>2009-01-30T20:00:35Z</time>
      </trkpt>
      <trkpt lat="44.3513" lon="2.55377">
        <ele>514.923</ele>
        <time>2009-01-30T20:00:36Z</time>
      </trkpt>
      <trkpt lat="44.35128" lon="2.55379">
        <ele>513.962</ele>
        <time>2009-01-30T20:00:37Z</time>
      </trkpt>
      <trkpt lat="44.35126" lon="2.5538">
        <ele>513.962</ele>
        <time>2009-01-30T20:00:38Z</time>
      </trkpt>
      <trkpt lat="44.35124" lon="2.55382">
        <ele>513.001</ele>
        <time>2009-01-30T20:00:39Z</time>
      </trkpt>
      <trkpt lat="44.35121" lon="2.55383">
        <ele>512.52</ele>
        <time>2009-01-30T20:00:40Z</time>
      </trkpt>
      <trkpt lat="44.35119" lon="2.55386">
        <ele>511.559</ele>
        <time>2009-01-30T20:00:41Z</time>
      </trkpt>
      <trkpt lat="44.35116" lon="2.55388">
        <ele>509.155</ele>
        <time>2009-01-30T20:00:42Z</time>
      </trkpt>
      <trkpt lat="44.35114" lon="2.5539">
        <ele>508.194</ele>
        <time>2009-01-30T20:00:43Z</time>
      </trkpt>
      <trkpt lat="44.35111" lon="2.5539">
        <ele>508.675</ele>
        <time>2009-01-30T20:00:44Z</time>
      </trkpt>
      <trkpt lat="44.35108" lon="2.55392">
        <ele>508.194</ele>
        <time>2009-01-30T20:00:45Z</time>
      </trkpt>
      <trkpt lat="44.35105" lon="2.55393">
        <ele>507.714</ele>
        <time>2009-01-30T20:00:46Z</time>
      </trkpt>
      <trkpt lat="44.35102" lon="2.55393">
        <ele>507.714</ele>
        <time>2009-01-30T20:00:47Z</time>
      </trkpt>
      <trkpt lat="44.35099" lon="2.55394">
        <ele>508.675</ele>
        <time>2009-01-30T20:00:48Z</time>
      </trkpt>
      <trkpt lat="44.35097" lon="2.55395">
        <ele>508.194</ele>
        <time>2009-01-30T20:00:49Z</time>
      </trkpt>
      <trkpt lat="44.35095" lon="2.55396">
        <ele>507.714</ele>
        <time>2009-01-30T20:00:50Z</time>
      </trkpt>
      <trkpt lat="44.35093" lon="2.55397">
        <ele>507.714</ele>
        <time>2009-01-30T20:00:51Z</time>
      </trkpt>
      <trkpt lat="44.3509" lon="2.55398">
        <ele>506.752</ele>
        <time>2009-01-30T20:00:52Z</time>
      </trkpt>
      <trkpt lat="44.35087" lon="2.55399">
        <ele>506.752</ele>
        <time>2009-01-30T20:00:53Z</time>
      </trkpt>
      <trkpt lat="44.35084" lon="2.55399">
        <ele>506.752</ele>
        <time>2009-01-30T20:00:54Z</time>
      </trkpt>
      <trkpt lat="44.35081" lon="2.554">
        <ele>506.271</ele>
        <time>2009-01-30T20:00:55Z</time>
      </trkpt>
      <trkpt lat="44.35078" lon="2.554">
        <ele>506.271</ele>
        <time>2009-01-30T20:00:56Z</time>
      </trkpt>
      <trkpt lat="44.35075" lon="2.55401">
        <ele>506.271</ele>
        <time>2009-01-30T20:00:57Z</time>
      </trkpt>
      <trkpt lat="44.35072" lon="2.55402">
        <ele>505.791</ele>
        <time>2009-01-30T20:00:58Z</time>
      </trkpt>
      <trkpt lat="44.35069" lon="2.55402">
        <ele>505.31</ele>
        <time>2009-01-30T20:00:59Z</time>
      </trkpt>
      <trkpt lat="44.35066" lon="2.55403">
        <ele>505.31</ele>
        <time>2009-01-30T20:01:00Z</time>
      </trkpt>
      <trkpt lat="44.35064" lon="2.55403">
        <ele>505.31</ele>
        <time>2009-01-30T20:01:01Z</time>
      </trkpt>
      <trkpt lat="44.35061" lon="2.55404">
        <ele>504.829</ele>
        <time>2009-01-30T20:01:02Z</time>
      </trkpt>
      <trkpt lat="44.35059" lon="2.55405">
        <ele>504.829</ele>
        <time>2009-01-30T20:01:03Z</time>
      </trkpt>
      <trkpt lat="44.35056" lon="2.55406">
        <ele>504.829</ele>
        <time>2009-01-30T20:01:04Z</time>
      </trkpt>
      <trkpt lat="44.35053" lon="2.55407">
        <ele>504.829</ele>
        <time>2009-01-30T20:01:05Z</time>
      </trkpt>
      <trkpt lat="44.35051" lon="2.55409">
        <ele>506.271</ele>
        <time>2009-01-30T20:01:06Z</time>
      </trkpt>
      <trkpt lat="44.35048" lon="2.55412">
        <ele>507.233</ele>
        <time>2009-01-30T20:01:07Z</time>
      </trkpt>
      <trkpt lat="44.35045" lon="2.55413">
        <ele>507.714</ele>
        <time>2009-01-30T20:01:08Z</time>
      </trkpt>
      <trkpt lat="44.35042" lon="2.55415">
        <ele>506.752</ele>
        <time>2009-01-30T20:01:09Z</time>
      </trkpt>
      <trkpt lat="44.35039" lon="2.55417">
        <ele>505.791</ele>
        <time>2009-01-30T20:01:10Z</time>
      </trkpt>
      <trkpt lat="44.35036" lon="2.55419">
        <ele>505.31</ele>
        <time>2009-01-30T20:01:11Z</time>
      </trkpt>
      <trkpt lat="44.35034" lon="2.5542">
        <ele>504.829</ele>
        <time>2009-01-30T20:01:12Z</time>
      </trkpt>
      <trkpt lat="44.35031" lon="2.55422">
        <ele>504.829</ele>
        <time>2009-01-30T20:01:13Z</time>
      </trkpt>
      <trkpt lat="44.35028" lon="2.55423">
        <ele>504.829</ele>
        <time>2009-01-30T20:01:14Z</time>
      </trkpt>
      <trkpt lat="44.35026" lon="2.55425">
        <ele>505.31</ele>
        <time>2009-01-30T20:01:15Z</time>
      </trkpt>
      <trkpt lat="44.35024" lon="2.55427">
        <ele>504.829</ele>
        <time>2009-01-30T20:01:16Z</time>
      </trkpt>
      <trkpt lat="44.35022" lon="2.55428">
        <ele>505.791</ele>
        <time>2009-01-30T20:01:17Z</time>
      </trkpt>
      <trkpt lat="44.35019" lon="2.55429">
        <ele>506.271</ele>
        <time>2009-01-30T20:01:18Z</time>
      </trkpt>
      <trkpt lat="44.35017" lon="2.55431">
        <ele>506.271</ele>
        <time>2009-01-30T20:01:19Z</time>
      </trkpt>
      <trkpt lat="44.35015" lon="2.55432">
        <ele>506.271</ele>
        <time>2009-01-30T20:01:20Z</time>
      </trkpt>
      <trkpt lat="44.35013" lon="2.55434">
        <ele>504.829</ele>
        <time>2009-01-30T20:01:21Z</time>
      </trkpt>
      <trkpt lat="44.35011" lon="2.55436">
        <ele>505.791</ele>
        <time>2009-01-30T20:01:22Z</time>
      </trkpt>
      <trkpt lat="44.3501" lon="2.55437">
        <ele>506.271</ele>
        <time>2009-01-30T20:01:23Z</time>
      </trkpt>
      <trkpt lat="44.35008" lon="2.55439">
        <ele>507.233</ele>
        <time>2009-01-30T20:01:24Z</time>
      </trkpt>
      <trkpt lat="44.35007" lon="2.5544">
        <ele>507.714</ele>
        <time>2009-01-30T20:01:25Z</time>
      </trkpt>
      <trkpt lat="44.35006" lon="2.55441">
        <ele>508.194</ele>
        <time>2009-01-30T20:01:26Z</time>
      </trkpt>
      <trkpt lat="44.35004" lon="2.55443">
        <ele>508.675</ele>
        <time>2009-01-30T20:01:27Z</time>
      </trkpt>
      <trkpt lat="44.35003" lon="2.55444">
        <ele>509.155</ele>
        <time>2009-01-30T20:01:28Z</time>
      </trkpt>
      <trkpt lat="44.35002" lon="2.55445">
        <ele>509.155</ele>
        <time>2009-01-30T20:01:29Z</time>
      </trkpt>
      <trkpt lat="44.35001" lon="2.55446">
        <ele>509.636</ele>
        <time>2009-01-30T20:01:30Z</time>
      </trkpt>
      <trkpt lat="44.34999" lon="2.55448">
        <ele>510.117</ele>
        <time>2009-01-30T20:01:31Z</time>
      </trkpt>
      <trkpt lat="44.34998" lon="2.55449">
        <ele>509.636</ele>
        <time>2009-01-30T20:01:32Z</time>
      </trkpt>
      <trkpt lat="44.34996" lon="2.5545">
        <ele>509.155</ele>
        <time>2009-01-30T20:01:33Z</time>
      </trkpt>
      <trkpt lat="44.34994" lon="2.55452">
        <ele>508.194</ele>
        <time>2009-01-30T20:01:34Z</time>
      </trkpt>
      <trkpt lat="44.34992" lon="2.55454">
        <ele>508.675</ele>
        <time>2009-01-30T20:01:35Z</time>
      </trkpt>
      <trkpt lat="44.3499" lon="2.55456">
        <ele>509.155</ele>
        <time>2009-01-30T20:01:36Z</time>
      </trkpt>
      <trkpt lat="44.34987" lon="2.55457">
        <ele>508.675</ele>
        <time>2009-01-30T20:01:37Z</time>
      </trkpt>
      <trkpt lat="44.34985" lon="2.55457">
        <ele>508.194</ele>
        <time>2009-01-30T20:01:38Z</time>
      </trkpt>
      <trkpt lat="44.34983" lon="2.55458">
        <ele>507.233</ele>
        <time>2009-01-30T20:01:39Z</time>
      </trkpt>
      <trkpt lat="44.34981" lon="2.5546">
        <ele>507.714</ele>
        <time>2009-01-30T20:01:40Z</time>
      </trkpt>
      <trkpt lat="44.34979" lon="2.55461">
        <ele>507.233</ele>
        <time>2009-01-30T20:01:41Z</time>
      </trkpt>
      <trkpt lat="44.34977" lon="2.55462">
        <ele>507.233</ele>
        <time>2009-01-30T20:01:42Z</time>
      </trkpt>
      <trkpt lat="44.34975" lon="2.55463">
        <ele>506.752</ele>
        <time>2009-01-30T20:01:43Z</time>
      </trkpt>
      <trkpt lat="44.34973" lon="2.55465">
        <ele>506.752</ele>
        <time>2009-01-30T20:01:44Z</time>
      </trkpt>
      <trkpt lat="44.34971" lon="2.55466">
        <ele>506.271</ele>
        <time>2009-01-30T20:01:45Z</time>
      </trkpt>
      <trkpt lat="44.34969" lon="2.55467">
        <ele>506.752</ele>
        <time>2009-01-30T20:01:46Z</time>
      </trkpt>
      <trkpt lat="44.34966" lon="2.55468">
        <ele>506.752</ele>
        <time>2009-01-30T20:01:47Z</time>
      </trkpt>
      <trkpt lat="44.34964" lon="2.55468">
        <ele>506.271</ele>
        <time>2009-01-30T20:01:48Z</time>
      </trkpt>
      <trkpt lat="44.34962" lon="2.5547">
        <ele>507.233</ele>
        <time>2009-01-30T20:01:49Z</time>
      </trkpt>
      <trkpt lat="44.34959" lon="2.55472">
        <ele>507.233</ele>
        <time>2009-01-30T20:01:50Z</time>
      </trkpt>
      <trkpt lat="44.34957" lon="2.55473">
        <ele>506.271</ele>
        <time>2009-01-30T20:01:51Z</time>
      </trkpt>
      <trkpt lat="44.34954" lon="2.55475">
        <ele>505.791</ele>
        <time>2009-01-30T20:01:52Z</time>
      </trkpt>
      <trkpt lat="44.34952" lon="2.55475">
        <ele>504.349</ele>
        <time>2009-01-30T20:01:53Z</time>
      </trkpt>
      <trkpt lat="44.34951" lon="2.55476">
        <ele>505.791</ele>
        <time>2009-01-30T20:01:54Z</time>
      </trkpt>
      <trkpt lat="44.3495" lon="2.55477">
        <ele>505.31</ele>
        <time>2009-01-30T20:01:55Z</time>
      </trkpt>
      <trkpt lat="44.34948" lon="2.55477">
        <ele>505.31</ele>
        <time>2009-01-30T20:01:56Z</time>
      </trkpt>
      <trkpt lat="44.34946" lon="2.55478">
        <ele>504.829</ele>
        <time>2009-01-30T20:01:57Z</time>
      </trkpt>
      <trkpt lat="44.34944" lon="2.5548">
        <ele>505.791</ele>
        <time>2009-01-30T20:01:58Z</time>
      </trkpt>
      <trkpt lat="44.34943" lon="2.55482">
        <ele>506.752</ele>
        <time>2009-01-30T20:01:59Z</time>
      </trkpt>
      <trkpt lat="44.34941" lon="2.55483">
        <ele>507.233</ele>
        <time>2009-01-30T20:02:00Z</time>
      </trkpt>
      <trkpt lat="44.3494" lon="2.55485">
        <ele>507.233</ele>
        <time>2009-01-30T20:02:01Z</time>
      </trkpt>
      <trkpt lat="44.34938" lon="2.55486">
        <ele>507.714</ele>
        <time>2009-01-30T20:02:02Z</time>
      </trkpt>
      <trkpt lat="44.34937" lon="2.55487">
        <ele>507.233</ele>
        <time>2009-01-30T20:02:03Z</time>
      </trkpt>
      <trkpt lat="44.34935" lon="2.5549">
        <ele>507.714</ele>
        <time>2009-01-30T20:02:06Z</time>
      </trkpt>
      <trkpt lat="44.34934" lon="2.55492">
        <ele>506.752</ele>
        <time>2009-01-30T20:02:07Z</time>
      </trkpt>
      <trkpt lat="44.34932" lon="2.55494">
        <ele>507.233</ele>
        <time>2009-01-30T20:02:08Z</time>
      </trkpt>
      <trkpt lat="44.34931" lon="2.55495">
        <ele>506.752</ele>
        <time>2009-01-30T20:02:09Z</time>
      </trkpt>
      <trkpt lat="44.3493" lon="2.55497">
        <ele>507.714</ele>
        <time>2009-01-30T20:02:10Z</time>
      </trkpt>
      <trkpt lat="44.34929" lon="2.55498">
        <ele>508.194</ele>
        <time>2009-01-30T20:02:11Z</time>
      </trkpt>
      <trkpt lat="44.34928" lon="2.555">
        <ele>508.675</ele>
        <time>2009-01-30T20:02:12Z</time>
      </trkpt>
      <trkpt lat="44.34927" lon="2.55502">
        <ele>509.155</ele>
        <time>2009-01-30T20:02:13Z</time>
      </trkpt>
      <trkpt lat="44.34925" lon="2.55504">
        <ele>508.675</ele>
        <time>2009-01-30T20:02:14Z</time>
      </trkpt>
      <trkpt lat="44.34923" lon="2.55505">
        <ele>508.194</ele>
        <time>2009-01-30T20:02:15Z</time>
      </trkpt>
      <trkpt lat="44.34921" lon="2.55507">
        <ele>509.636</ele>
        <time>2009-01-30T20:02:16Z</time>
      </trkpt>
      <trkpt lat="44.3492" lon="2.55508">
        <ele>510.117</ele>
        <time>2009-01-30T20:02:17Z</time>
      </trkpt>
      <trkpt lat="44.34918" lon="2.55509">
        <ele>510.117</ele>
        <time>2009-01-30T20:02:18Z</time>
      </trkpt>
      <trkpt lat="44.34917" lon="2.5551">
        <ele>510.597</ele>
        <time>2009-01-30T20:02:19Z</time>
      </trkpt>
      <trkpt lat="44.34916" lon="2.55511">
        <ele>510.597</ele>
        <time>2009-01-30T20:02:20Z</time>
      </trkpt>
      <trkpt lat="44.34914" lon="2.55512">
        <ele>509.636</ele>
        <time>2009-01-30T20:02:21Z</time>
      </trkpt>
      <trkpt lat="44.34912" lon="2.55514">
        <ele>508.675</ele>
        <time>2009-01-30T20:02:22Z</time>
      </trkpt>
      <trkpt lat="44.3491" lon="2.55517">
        <ele>508.675</ele>
        <time>2009-01-30T20:02:23Z</time>
      </trkpt>
      <trkpt lat="44.34909" lon="2.55519">
        <ele>508.675</ele>
        <time>2009-01-30T20:02:24Z</time>
      </trkpt>
      <trkpt lat="44.34907" lon="2.55521">
        <ele>508.194</ele>
        <time>2009-01-30T20:02:25Z</time>
      </trkpt>
      <trkpt lat="44.34906" lon="2.55523">
        <ele>508.675</ele>
        <time>2009-01-30T20:02:26Z</time>
      </trkpt>
      <trkpt lat="44.34905" lon="2.55524">
        <ele>508.194</ele>
        <time>2009-01-30T20:02:27Z</time>
      </trkpt>
      <trkpt lat="44.34903" lon="2.55525">
        <ele>507.714</ele>
        <time>2009-01-30T20:02:28Z</time>
      </trkpt>
      <trkpt lat="44.34901" lon="2.55527">
        <ele>507.233</ele>
        <time>2009-01-30T20:02:29Z</time>
      </trkpt>
      <trkpt lat="44.34899" lon="2.55529">
        <ele>506.752</ele>
        <time>2009-01-30T20:02:30Z</time>
      </trkpt>
      <trkpt lat="44.34898" lon="2.55531">
        <ele>506.271</ele>
        <time>2009-01-30T20:02:31Z</time>
      </trkpt>
      <trkpt lat="44.34897" lon="2.55533">
        <ele>505.791</ele>
        <time>2009-01-30T20:02:32Z</time>
      </trkpt>
      <trkpt lat="44.34895" lon="2.55535">
        <ele>504.829</ele>
        <time>2009-01-30T20:02:33Z</time>
      </trkpt>
      <trkpt lat="44.34893" lon="2.55537">
        <ele>504.349</ele>
        <time>2009-01-30T20:02:34Z</time>
      </trkpt>
      <trkpt lat="44.34891" lon="2.55539">
        <ele>502.907</ele>
        <time>2009-01-30T20:02:35Z</time>
      </trkpt>
      <trkpt lat="44.34889" lon="2.55541">
        <ele>503.868</ele>
        <time>2009-01-30T20:02:36Z</time>
      </trkpt>
      <trkpt lat="44.34887" lon="2.55543">
        <ele>503.868</ele>
        <time>2009-01-30T20:02:37Z</time>
      </trkpt>
      <trkpt lat="44.34886" lon="2.55545">
        <ele>503.868</ele>
        <time>2009-01-30T20:02:38Z</time>
      </trkpt>
      <trkpt lat="44.34885" lon="2.55547">
        <ele>503.387</ele>
        <time>2009-01-30T20:02:39Z</time>
      </trkpt>
      <trkpt lat="44.34883" lon="2.55549">
        <ele>503.868</ele>
        <time>2009-01-30T20:02:40Z</time>
      </trkpt>
      <trkpt lat="44.34882" lon="2.55551">
        <ele>503.387</ele>
        <time>2009-01-30T20:02:41Z</time>
      </trkpt>
      <trkpt lat="44.34879" lon="2.55553">
        <ele>502.907</ele>
        <time>2009-01-30T20:02:43Z</time>
      </trkpt>
      <trkpt lat="44.34878" lon="2.55555">
        <ele>503.387</ele>
        <time>2009-01-30T20:02:44Z</time>
      </trkpt>
      <trkpt lat="44.34876" lon="2.55557">
        <ele>504.349</ele>
        <time>2009-01-30T20:02:45Z</time>
      </trkpt>
      <trkpt lat="44.34874" lon="2.55558">
        <ele>503.387</ele>
        <time>2009-01-30T20:02:46Z</time>
      </trkpt>
      <trkpt lat="44.34873" lon="2.5556">
        <ele>502.907</ele>
        <time>2009-01-30T20:02:47Z</time>
      </trkpt>
      <trkpt lat="44.34871" lon="2.55561">
        <ele>502.907</ele>
        <time>2009-01-30T20:02:48Z</time>
      </trkpt>
      <trkpt lat="44.34869" lon="2.55562">
        <ele>502.907</ele>
        <time>2009-01-30T20:02:49Z</time>
      </trkpt>
      <trkpt lat="44.34867" lon="2.55563">
        <ele>502.426</ele>
        <time>2009-01-30T20:02:50Z</time>
      </trkpt>
      <trkpt lat="44.34865" lon="2.55565">
        <ele>502.426</ele>
        <time>2009-01-30T20:02:51Z</time>
      </trkpt>
      <trkpt lat="44.34863" lon="2.55566">
        <ele>501.946</ele>
        <time>2009-01-30T20:02:52Z</time>
      </trkpt>
      <trkpt lat="44.34862" lon="2.55569">
        <ele>501.465</ele>
        <time>2009-01-30T20:02:53Z</time>
      </trkpt>
      <trkpt lat="44.3486" lon="2.5557">
        <ele>501.465</ele>
        <time>2009-01-30T20:02:54Z</time>
      </trkpt>
      <trkpt lat="44.34858" lon="2.55571">
        <ele>500.984</ele>
        <time>2009-01-30T20:02:55Z</time>
      </trkpt>
      <trkpt lat="44.34856" lon="2.55572">
        <ele>501.465</ele>
        <time>2009-01-30T20:02:56Z</time>
      </trkpt>
      <trkpt lat="44.34853" lon="2.55575">
        <ele>500.984</ele>
        <time>2009-01-30T20:02:57Z</time>
      </trkpt>
      <trkpt lat="44.34852" lon="2.55576">
        <ele>501.465</ele>
        <time>2009-01-30T20:02:58Z</time>
      </trkpt>
      <trkpt lat="44.3485" lon="2.55578">
        <ele>500.984</ele>
        <time>2009-01-30T20:02:59Z</time>
      </trkpt>
      <trkpt lat="44.34849" lon="2.5558">
        <ele>500.023</ele>
        <time>2009-01-30T20:03:00Z</time>
      </trkpt>
      <trkpt lat="44.34847" lon="2.55582">
        <ele>499.062</ele>
        <time>2009-01-30T20:03:01Z</time>
      </trkpt>
      <trkpt lat="44.34844" lon="2.55584">
        <ele>498.1</ele>
        <time>2009-01-30T20:03:02Z</time>
      </trkpt>
      <trkpt lat="44.34842" lon="2.55586">
        <ele>497.139</ele>
        <time>2009-01-30T20:03:03Z</time>
      </trkpt>
      <trkpt lat="44.3484" lon="2.55589">
        <ele>496.658</ele>
        <time>2009-01-30T20:03:04Z</time>
      </trkpt>
      <trkpt lat="44.34839" lon="2.5559">
        <ele>496.178</ele>
        <time>2009-01-30T20:03:05Z</time>
      </trkpt>
      <trkpt lat="44.34837" lon="2.55593">
        <ele>495.697</ele>
        <time>2009-01-30T20:03:06Z</time>
      </trkpt>
      <trkpt lat="44.34835" lon="2.55595">
        <ele>495.216</ele>
        <time>2009-01-30T20:03:07Z</time>
      </trkpt>
      <trkpt lat="44.34833" lon="2.55598">
        <ele>494.255</ele>
        <time>2009-01-30T20:03:08Z</time>
      </trkpt>
      <trkpt lat="44.34831" lon="2.55599">
        <ele>494.255</ele>
        <time>2009-01-30T20:03:09Z</time>
      </trkpt>
      <trkpt lat="44.34829" lon="2.55601">
        <ele>493.294</ele>
        <time>2009-01-30T20:03:10Z</time>
      </trkpt>
      <trkpt lat="44.34826" lon="2.55605">
        <ele>491.852</ele>
        <time>2009-01-30T20:03:12Z</time>
      </trkpt>
      <trkpt lat="44.34824" lon="2.55607">
        <ele>491.852</ele>
        <time>2009-01-30T20:03:13Z</time>
      </trkpt>
      <trkpt lat="44.34823" lon="2.55609">
        <ele>492.813</ele>
        <time>2009-01-30T20:03:14Z</time>
      </trkpt>
      <trkpt lat="44.34821" lon="2.55611">
        <ele>492.332</ele>
        <time>2009-01-30T20:03:15Z</time>
      </trkpt>
      <trkpt lat="44.34819" lon="2.55613">
        <ele>492.332</ele>
        <time>2009-01-30T20:03:16Z</time>
      </trkpt>
      <trkpt lat="44.34816" lon="2.55616">
        <ele>492.332</ele>
        <time>2009-01-30T20:03:17Z</time>
      </trkpt>
      <trkpt lat="44.34815" lon="2.55619">
        <ele>492.813</ele>
        <time>2009-01-30T20:03:18Z</time>
      </trkpt>
      <trkpt lat="44.34813" lon="2.55621">
        <ele>493.294</ele>
        <time>2009-01-30T20:03:19Z</time>
      </trkpt>
      <trkpt lat="44.34811" lon="2.55624">
        <ele>493.294</ele>
        <time>2009-01-30T20:03:20Z</time>
      </trkpt>
      <trkpt lat="44.34809" lon="2.55626">
        <ele>492.813</ele>
        <time>2009-01-30T20:03:21Z</time>
      </trkpt>
      <trkpt lat="44.34807" lon="2.55629">
        <ele>492.813</ele>
        <time>2009-01-30T20:03:22Z</time>
      </trkpt>
      <trkpt lat="44.34805" lon="2.55631">
        <ele>492.813</ele>
        <time>2009-01-30T20:03:23Z</time>
      </trkpt>
      <trkpt lat="44.34803" lon="2.55634">
        <ele>493.294</ele>
        <time>2009-01-30T20:03:24Z</time>
      </trkpt>
      <trkpt lat="44.34801" lon="2.55636">
        <ele>494.255</ele>
        <time>2009-01-30T20:03:25Z</time>
      </trkpt>
      <trkpt lat="44.34798" lon="2.55639">
        <ele>494.736</ele>
        <time>2009-01-30T20:03:26Z</time>
      </trkpt>
      <trkpt lat="44.34796" lon="2.55641">
        <ele>495.216</ele>
        <time>2009-01-30T20:03:27Z</time>
      </trkpt>
      <trkpt lat="44.34794" lon="2.55644">
        <ele>495.216</ele>
        <time>2009-01-30T20:03:28Z</time>
      </trkpt>
      <trkpt lat="44.34793" lon="2.55646">
        <ele>495.216</ele>
        <time>2009-01-30T20:03:29Z</time>
      </trkpt>
      <trkpt lat="44.34792" lon="2.55648">
        <ele>495.697</ele>
        <time>2009-01-30T20:03:30Z</time>
      </trkpt>
      <trkpt lat="44.3479" lon="2.5565">
        <ele>495.697</ele>
        <time>2009-01-30T20:03:31Z</time>
      </trkpt>
      <trkpt lat="44.34788" lon="2.55652">
        <ele>496.658</ele>
        <time>2009-01-30T20:03:32Z</time>
      </trkpt>
      <trkpt lat="44.34786" lon="2.55654">
        <ele>496.658</ele>
        <time>2009-01-30T20:03:33Z</time>
      </trkpt>
      <trkpt lat="44.34784" lon="2.55656">
        <ele>497.139</ele>
        <time>2009-01-30T20:03:34Z</time>
      </trkpt>
      <trkpt lat="44.34783" lon="2.55658">
        <ele>497.62</ele>
        <time>2009-01-30T20:03:35Z</time>
      </trkpt>
      <trkpt lat="44.34781" lon="2.55661">
        <ele>498.1</ele>
        <time>2009-01-30T20:03:36Z</time>
      </trkpt>
      <trkpt lat="44.3478" lon="2.55663">
        <ele>498.581</ele>
        <time>2009-01-30T20:03:37Z</time>
      </trkpt>
      <trkpt lat="44.34778" lon="2.55666">
        <ele>498.581</ele>
        <time>2009-01-30T20:03:38Z</time>
      </trkpt>
      <trkpt lat="44.34776" lon="2.55668">
        <ele>498.581</ele>
        <time>2009-01-30T20:03:39Z</time>
      </trkpt>
      <trkpt lat="44.34774" lon="2.55671">
        <ele>499.542</ele>
        <time>2009-01-30T20:03:40Z</time>
      </trkpt>
      <trkpt lat="44.34773" lon="2.55673">
        <ele>499.542</ele>
        <time>2009-01-30T20:03:41Z</time>
      </trkpt>
      <trkpt lat="44.34771" lon="2.55676">
        <ele>500.023</ele>
        <time>2009-01-30T20:03:42Z</time>
      </trkpt>
      <trkpt lat="44.34769" lon="2.55679">
        <ele>501.465</ele>
        <time>2009-01-30T20:03:43Z</time>
      </trkpt>
      <trkpt lat="44.34768" lon="2.55681">
        <ele>501.465</ele>
        <time>2009-01-30T20:03:44Z</time>
      </trkpt>
      <trkpt lat="44.34766" lon="2.55684">
        <ele>502.426</ele>
        <time>2009-01-30T20:03:45Z</time>
      </trkpt>
      <trkpt lat="44.34764" lon="2.55686">
        <ele>502.907</ele>
        <time>2009-01-30T20:03:46Z</time>
      </trkpt>
      <trkpt lat="44.34763" lon="2.55689">
        <ele>503.387</ele>
        <time>2009-01-30T20:03:47Z</time>
      </trkpt>
      <trkpt lat="44.34761" lon="2.55692">
        <ele>504.349</ele>
        <time>2009-01-30T20:03:48Z</time>
      </trkpt>
      <trkpt lat="44.3476" lon="2.55695">
        <ele>505.31</ele>
        <time>2009-01-30T20:03:49Z</time>
      </trkpt>
      <trkpt lat="44.34758" lon="2.55698">
        <ele>505.791</ele>
        <time>2009-01-30T20:03:50Z</time>
      </trkpt>
      <trkpt lat="44.34757" lon="2.557">
        <ele>506.752</ele>
        <time>2009-01-30T20:03:51Z</time>
      </trkpt>
      <trkpt lat="44.34755" lon="2.55703">
        <ele>507.714</ele>
        <time>2009-01-30T20:03:52Z</time>
      </trkpt>
      <trkpt lat="44.34754" lon="2.55706">
        <ele>508.675</ele>
        <time>2009-01-30T20:03:53Z</time>
      </trkpt>
      <trkpt lat="44.34753" lon="2.55708">
        <ele>509.155</ele>
        <time>2009-01-30T20:03:54Z</time>
      </trkpt>
      <trkpt lat="44.34752" lon="2.55711">
        <ele>510.117</ele>
        <time>2009-01-30T20:03:55Z</time>
      </trkpt>
      <trkpt lat="44.3475" lon="2.55713">
        <ele>510.597</ele>
        <time>2009-01-30T20:03:56Z</time>
      </trkpt>
      <trkpt lat="44.34749" lon="2.55716">
        <ele>511.559</ele>
        <time>2009-01-30T20:03:57Z</time>
      </trkpt>
      <trkpt lat="44.34748" lon="2.55719">
        <ele>512.039</ele>
        <time>2009-01-30T20:03:58Z</time>
      </trkpt>
      <trkpt lat="44.34747" lon="2.55722">
        <ele>512.52</ele>
        <time>2009-01-30T20:03:59Z</time>
      </trkpt>
      <trkpt lat="44.34745" lon="2.55725">
        <ele>513.001</ele>
        <time>2009-01-30T20:04:00Z</time>
      </trkpt>
      <trkpt lat="44.34744" lon="2.55728">
        <ele>513.481</ele>
        <time>2009-01-30T20:04:01Z</time>
      </trkpt>
      <trkpt lat="44.34743" lon="2.55731">
        <ele>513.962</ele>
        <time>2009-01-30T20:04:02Z</time>
      </trkpt>
      <trkpt lat="44.34741" lon="2.55733">
        <ele>514.443</ele>
        <time>2009-01-30T20:04:03Z</time>
      </trkpt>
      <trkpt lat="44.34741" lon="2.55736">
        <ele>514.443</ele>
        <time>2009-01-30T20:04:04Z</time>
      </trkpt>
      <trkpt lat="44.3474" lon="2.55738">
        <ele>514.443</ele>
        <time>2009-01-30T20:04:05Z</time>
      </trkpt>
      <trkpt lat="44.34739" lon="2.5574">
        <ele>514.443</ele>
        <time>2009-01-30T20:04:06Z</time>
      </trkpt>
      <trkpt lat="44.34738" lon="2.55743">
        <ele>514.923</ele>
        <time>2009-01-30T20:04:07Z</time>
      </trkpt>
      <trkpt lat="44.34737" lon="2.55745">
        <ele>515.404</ele>
        <time>2009-01-30T20:04:08Z</time>
      </trkpt>
      <trkpt lat="44.34737" lon="2.55747">
        <ele>517.327</ele>
        <time>2009-01-30T20:04:09Z</time>
      </trkpt>
      <trkpt lat="44.34736" lon="2.5575">
        <ele>517.807</ele>
        <time>2009-01-30T20:04:10Z</time>
      </trkpt>
      <trkpt lat="44.34734" lon="2.55753">
        <ele>518.769</ele>
        <time>2009-01-30T20:04:11Z</time>
      </trkpt>
      <trkpt lat="44.34733" lon="2.55755">
        <ele>518.769</ele>
        <time>2009-01-30T20:04:12Z</time>
      </trkpt>
      <trkpt lat="44.34732" lon="2.55757">
        <ele>519.249</ele>
        <time>2009-01-30T20:04:13Z</time>
      </trkpt>
      <trkpt lat="44.34731" lon="2.55759">
        <ele>519.73</ele>
        <time>2009-01-30T20:04:14Z</time>
      </trkpt>
      <trkpt lat="44.3473" lon="2.55761">
        <ele>520.211</ele>
        <time>2009-01-30T20:04:15Z</time>
      </trkpt>
      <trkpt lat="44.34729" lon="2.55764">
        <ele>520.691</ele>
        <time>2009-01-30T20:04:16Z</time>
      </trkpt>
      <trkpt lat="44.34728" lon="2.55766">
        <ele>521.172</ele>
        <time>2009-01-30T20:04:17Z</time>
      </trkpt>
      <trkpt lat="44.34727" lon="2.55767">
        <ele>521.172</ele>
        <time>2009-01-30T20:04:18Z</time>
      </trkpt>
      <trkpt lat="44.34726" lon="2.55769">
        <ele>521.172</ele>
        <time>2009-01-30T20:04:19Z</time>
      </trkpt>
      <trkpt lat="44.34724" lon="2.55771">
        <ele>520.691</ele>
        <time>2009-01-30T20:04:20Z</time>
      </trkpt>
      <trkpt lat="44.34723" lon="2.55772">
        <ele>520.691</ele>
        <time>2009-01-30T20:04:21Z</time>
      </trkpt>
      <trkpt lat="44.34722" lon="2.55775">
        <ele>520.691</ele>
        <time>2009-01-30T20:04:22Z</time>
      </trkpt>
      <trkpt lat="44.3472" lon="2.55776">
        <ele>520.691</ele>
        <time>2009-01-30T20:04:23Z</time>
      </trkpt>
      <trkpt lat="44.34719" lon="2.55779">
        <ele>520.691</ele>
        <time>2009-01-30T20:04:24Z</time>
      </trkpt>
      <trkpt lat="44.34717" lon="2.55781">
        <ele>521.653</ele>
        <time>2009-01-30T20:04:25Z</time>
      </trkpt>
      <trkpt lat="44.34715" lon="2.55783">
        <ele>521.653</ele>
        <time>2009-01-30T20:04:26Z</time>
      </trkpt>
      <trkpt lat="44.34714" lon="2.55785">
        <ele>521.172</ele>
        <time>2009-01-30T20:04:27Z</time>
      </trkpt>
      <trkpt lat="44.34712" lon="2.55786">
        <ele>521.172</ele>
        <time>2009-01-30T20:04:28Z</time>
      </trkpt>
      <trkpt lat="44.34711" lon="2.55788">
        <ele>520.691</ele>
        <time>2009-01-30T20:04:29Z</time>
      </trkpt>
      <trkpt lat="44.3471" lon="2.55789">
        <ele>520.211</ele>
        <time>2009-01-30T20:04:30Z</time>
      </trkpt>
      <trkpt lat="44.34708" lon="2.55792">
        <ele>520.691</ele>
        <time>2009-01-30T20:04:33Z</time>
      </trkpt>
      <trkpt lat="44.34707" lon="2.55794">
        <ele>520.211</ele>
        <time>2009-01-30T20:04:34Z</time>
      </trkpt>
      <trkpt lat="44.34706" lon="2.55795">
        <ele>520.211</ele>
        <time>2009-01-30T20:04:35Z</time>
      </trkpt>
      <trkpt lat="44.34704" lon="2.55796">
        <ele>519.73</ele>
        <time>2009-01-30T20:04:36Z</time>
      </trkpt>
      <trkpt lat="44.34705" lon="2.55798">
        <ele>523.575</ele>
        <time>2009-01-30T20:04:37Z</time>
      </trkpt>
      <trkpt lat="44.34704" lon="2.55801">
        <ele>527.42</ele>
        <time>2009-01-30T20:04:39Z</time>
      </trkpt>
      <trkpt lat="44.34703" lon="2.55803">
        <ele>527.901</ele>
        <time>2009-01-30T20:04:40Z</time>
      </trkpt>
      <trkpt lat="44.34693" lon="2.55822">
        <ele>533.669</ele>
        <time>2009-01-30T20:04:44Z</time>
      </trkpt>
      <trkpt lat="44.34692" lon="2.55824">
        <ele>533.669</ele>
        <time>2009-01-30T20:04:45Z</time>
      </trkpt>
      <trkpt lat="44.34691" lon="2.55826">
        <ele>534.15</ele>
        <time>2009-01-30T20:04:46Z</time>
      </trkpt>
      <trkpt lat="44.34691" lon="2.55827">
        <ele>534.63</ele>
        <time>2009-01-30T20:04:47Z</time>
      </trkpt>
      <trkpt lat="44.34692" lon="2.55828">
        <ele>534.63</ele>
        <time>2009-01-30T20:04:48Z</time>
      </trkpt>
      <trkpt lat="44.34692" lon="2.55827">
        <ele>534.63</ele>
        <time>2009-01-30T20:04:49Z</time>
      </trkpt>
      <trkpt lat="44.34693" lon="2.55827">
        <ele>535.111</ele>
        <time>2009-01-30T20:04:50Z</time>
      </trkpt>
      <trkpt lat="44.34694" lon="2.55827">
        <ele>535.111</ele>
        <time>2009-01-30T20:04:51Z</time>
      </trkpt>
      <trkpt lat="44.34695" lon="2.55826">
        <ele>535.592</ele>
        <time>2009-01-30T20:04:52Z</time>
      </trkpt>
      <trkpt lat="44.34696" lon="2.55825">
        <ele>536.072</ele>
        <time>2009-01-30T20:04:53Z</time>
      </trkpt>
      <trkpt lat="44.34697" lon="2.55824">
        <ele>536.072</ele>
        <time>2009-01-30T20:04:54Z</time>
      </trkpt>
      <trkpt lat="44.34698" lon="2.55823">
        <ele>536.072</ele>
        <time>2009-01-30T20:04:55Z</time>
      </trkpt>
      <trkpt lat="44.34699" lon="2.55822">
        <ele>536.553</ele>
        <time>2009-01-30T20:04:56Z</time>
      </trkpt>
      <trkpt lat="44.347" lon="2.55821">
        <ele>536.553</ele>
        <time>2009-01-30T20:04:57Z</time>
      </trkpt>
      <trkpt lat="44.34701" lon="2.5582">
        <ele>536.553</ele>
        <time>2009-01-30T20:04:58Z</time>
      </trkpt>
      <trkpt lat="44.34701" lon="2.55819">
        <ele>535.592</ele>
        <time>2009-01-30T20:04:59Z</time>
      </trkpt>
      <trkpt lat="44.34702" lon="2.55818">
        <ele>535.592</ele>
        <time>2009-01-30T20:05:00Z</time>
      </trkpt>
      <trkpt lat="44.34703" lon="2.55816">
        <ele>535.592</ele>
        <time>2009-01-30T20:05:01Z</time>
      </trkpt>
      <trkpt lat="44.34704" lon="2.55815">
        <ele>535.592</ele>
        <time>2009-01-30T20:05:02Z</time>
      </trkpt>
      <trkpt lat="44.34704" lon="2.55814">
        <ele>535.111</ele>
        <time>2009-01-30T20:05:03Z</time>
      </trkpt>
      <trkpt lat="44.34705" lon="2.55813">
        <ele>535.111</ele>
        <time>2009-01-30T20:05:04Z</time>
      </trkpt>
      <trkpt lat="44.34705" lon="2.55812">
        <ele>535.592</ele>
        <time>2009-01-30T20:05:05Z</time>
      </trkpt>
      <trkpt lat="44.34706" lon="2.55811">
        <ele>535.592</ele>
        <time>2009-01-30T20:05:06Z</time>
      </trkpt>
      <trkpt lat="44.34707" lon="2.5581">
        <ele>535.111</ele>
        <time>2009-01-30T20:05:07Z</time>
      </trkpt>
      <trkpt lat="44.34707" lon="2.55809">
        <ele>534.63</ele>
        <time>2009-01-30T20:05:08Z</time>
      </trkpt>
      <trkpt lat="44.34708" lon="2.55808">
        <ele>535.111</ele>
        <time>2009-01-30T20:05:09Z</time>
      </trkpt>
      <trkpt lat="44.34709" lon="2.55806">
        <ele>534.63</ele>
        <time>2009-01-30T20:05:10Z</time>
      </trkpt>
      <trkpt lat="44.34711" lon="2.55805">
        <ele>534.63</ele>
        <time>2009-01-30T20:05:11Z</time>
      </trkpt>
      <trkpt lat="44.34711" lon="2.55803">
        <ele>534.63</ele>
        <time>2009-01-30T20:05:12Z</time>
      </trkpt>
      <trkpt lat="44.34712" lon="2.55801">
        <ele>534.15</ele>
        <time>2009-01-30T20:05:13Z</time>
      </trkpt>
      <trkpt lat="44.34713" lon="2.558">
        <ele>533.669</ele>
        <time>2009-01-30T20:05:14Z</time>
      </trkpt>
      <trkpt lat="44.34714" lon="2.55798">
        <ele>533.188</ele>
        <time>2009-01-30T20:05:15Z</time>
      </trkpt>
      <trkpt lat="44.34715" lon="2.55796">
        <ele>533.188</ele>
        <time>2009-01-30T20:05:16Z</time>
      </trkpt>
      <trkpt lat="44.34716" lon="2.55794">
        <ele>533.188</ele>
        <time>2009-01-30T20:05:17Z</time>
      </trkpt>
      <trkpt lat="44.34717" lon="2.55791">
        <ele>532.708</ele>
        <time>2009-01-30T20:05:18Z</time>
      </trkpt>
      <trkpt lat="44.34718" lon="2.55789">
        <ele>532.708</ele>
        <time>2009-01-30T20:05:19Z</time>
      </trkpt>
      <trkpt lat="44.34719" lon="2.55787">
        <ele>532.227</ele>
        <time>2009-01-30T20:05:20Z</time>
      </trkpt>
      <trkpt lat="44.3472" lon="2.55785">
        <ele>532.227</ele>
        <time>2009-01-30T20:05:21Z</time>
      </trkpt>
      <trkpt lat="44.34722" lon="2.55783">
        <ele>532.227</ele>
        <time>2009-01-30T20:05:22Z</time>
      </trkpt>
      <trkpt lat="44.34723" lon="2.55781">
        <ele>531.746</ele>
        <time>2009-01-30T20:05:23Z</time>
      </trkpt>
      <trkpt lat="44.34724" lon="2.55778">
        <ele>531.266</ele>
        <time>2009-01-30T20:05:24Z</time>
      </trkpt>
      <trkpt lat="44.34725" lon="2.55776">
        <ele>530.785</ele>
        <time>2009-01-30T20:05:25Z</time>
      </trkpt>
      <trkpt lat="44.34725" lon="2.55773">
        <ele>530.785</ele>
        <time>2009-01-30T20:05:26Z</time>
      </trkpt>
      <trkpt lat="44.34727" lon="2.55771">
        <ele>530.785</ele>
        <time>2009-01-30T20:05:27Z</time>
      </trkpt>
      <trkpt lat="44.34728" lon="2.55769">
        <ele>530.304</ele>
        <time>2009-01-30T20:05:28Z</time>
      </trkpt>
      <trkpt lat="44.34729" lon="2.55767">
        <ele>529.824</ele>
        <time>2009-01-30T20:05:29Z</time>
      </trkpt>
      <trkpt lat="44.34729" lon="2.55765">
        <ele>529.343</ele>
        <time>2009-01-30T20:05:30Z</time>
      </trkpt>
      <trkpt lat="44.3473" lon="2.55763">
        <ele>529.343</ele>
        <time>2009-01-30T20:05:31Z</time>
      </trkpt>
      <trkpt lat="44.34731" lon="2.55762">
        <ele>528.863</ele>
        <time>2009-01-30T20:05:32Z</time>
      </trkpt>
      <trkpt lat="44.34732" lon="2.55761">
        <ele>528.382</ele>
        <time>2009-01-30T20:05:33Z</time>
      </trkpt>
      <trkpt lat="44.34734" lon="2.55761">
        <ele>527.901</ele>
        <time>2009-01-30T20:05:34Z</time>
      </trkpt>
      <trkpt lat="44.34735" lon="2.5576">
        <ele>527.901</ele>
        <time>2009-01-30T20:05:35Z</time>
      </trkpt>
      <trkpt lat="44.34736" lon="2.55761">
        <ele>526.459</ele>
        <time>2009-01-30T20:05:36Z</time>
      </trkpt>
      <trkpt lat="44.34737" lon="2.55761">
        <ele>525.498</ele>
        <time>2009-01-30T20:05:37Z</time>
      </trkpt>
      <trkpt lat="44.34737" lon="2.55762">
        <ele>524.056</ele>
        <time>2009-01-30T20:05:38Z</time>
      </trkpt>
      <trkpt lat="44.34737" lon="2.55763">
        <ele>522.614</ele>
        <time>2009-01-30T20:05:39Z</time>
      </trkpt>
      <trkpt lat="44.34736" lon="2.55765">
        <ele>521.172</ele>
        <time>2009-01-30T20:05:40Z</time>
      </trkpt>
      <trkpt lat="44.34735" lon="2.55768">
        <ele>519.249</ele>
        <time>2009-01-30T20:05:41Z</time>
      </trkpt>
      <trkpt lat="44.34734" lon="2.5577">
        <ele>517.807</ele>
        <time>2009-01-30T20:05:42Z</time>
      </trkpt>
      <trkpt lat="44.34734" lon="2.55772">
        <ele>517.327</ele>
        <time>2009-01-30T20:05:43Z</time>
      </trkpt>
      <trkpt lat="44.34733" lon="2.55774">
        <ele>515.885</ele>
        <time>2009-01-30T20:05:44Z</time>
      </trkpt>
      <trkpt lat="44.34732" lon="2.55776">
        <ele>514.443</ele>
        <time>2009-01-30T20:05:45Z</time>
      </trkpt>
      <trkpt lat="44.34732" lon="2.55778">
        <ele>513.481</ele>
        <time>2009-01-30T20:05:46Z</time>
      </trkpt>
      <trkpt lat="44.34732" lon="2.55779">
        <ele>513.001</ele>
        <time>2009-01-30T20:05:47Z</time>
      </trkpt>
      <trkpt lat="44.34731" lon="2.55781">
        <ele>511.559</ele>
        <time>2009-01-30T20:05:48Z</time>
      </trkpt>
      <trkpt lat="44.34732" lon="2.55782">
        <ele>510.597</ele>
        <time>2009-01-30T20:05:49Z</time>
      </trkpt>
      <trkpt lat="44.34732" lon="2.55783">
        <ele>510.117</ele>
        <time>2009-01-30T20:05:50Z</time>
      </trkpt>
      <trkpt lat="44.34732" lon="2.55784">
        <ele>508.675</ele>
        <time>2009-01-30T20:05:51Z</time>
      </trkpt>
      <trkpt lat="44.34732" lon="2.55786">
        <ele>508.194</ele>
        <time>2009-01-30T20:05:52Z</time>
      </trkpt>
      <trkpt lat="44.34732" lon="2.55787">
        <ele>507.714</ele>
        <time>2009-01-30T20:05:53Z</time>
      </trkpt>
      <trkpt lat="44.34733" lon="2.55788">
        <ele>507.714</ele>
        <time>2009-01-30T20:05:54Z</time>
      </trkpt>
      <trkpt lat="44.34733" lon="2.55789">
        <ele>506.752</ele>
        <time>2009-01-30T20:05:55Z</time>
      </trkpt>
      <trkpt lat="44.34734" lon="2.55791">
        <ele>506.271</ele>
        <time>2009-01-30T20:05:56Z</time>
      </trkpt>
      <trkpt lat="44.34735" lon="2.55792">
        <ele>504.829</ele>
        <time>2009-01-30T20:05:57Z</time>
      </trkpt>
      <trkpt lat="44.34735" lon="2.55794">
        <ele>503.387</ele>
        <time>2009-01-30T20:05:58Z</time>
      </trkpt>
      <trkpt lat="44.34735" lon="2.55796">
        <ele>501.946</ele>
        <time>2009-01-30T20:05:59Z</time>
      </trkpt>
      <trkpt lat="44.34735" lon="2.55798">
        <ele>500.984</ele>
        <time>2009-01-30T20:06:00Z</time>
      </trkpt>
      <trkpt lat="44.34735" lon="2.558">
        <ele>499.542</ele>
        <time>2009-01-30T20:06:01Z</time>
      </trkpt>
      <trkpt lat="44.34735" lon="2.55802">
        <ele>499.062</ele>
        <time>2009-01-30T20:06:02Z</time>
      </trkpt>
      <trkpt lat="44.34735" lon="2.55804">
        <ele>498.1</ele>
        <time>2009-01-30T20:06:03Z</time>
      </trkpt>
      <trkpt lat="44.34736" lon="2.55806">
        <ele>496.658</ele>
        <time>2009-01-30T20:06:04Z</time>
      </trkpt>
      <trkpt lat="44.34736" lon="2.55807">
        <ele>494.736</ele>
        <time>2009-01-30T20:06:05Z</time>
      </trkpt>
      <trkpt lat="44.34738" lon="2.55809">
        <ele>495.216</ele>
        <time>2009-01-30T20:06:06Z</time>
      </trkpt>
      <trkpt lat="44.34739" lon="2.5581">
        <ele>493.294</ele>
        <time>2009-01-30T20:06:07Z</time>
      </trkpt>
      <trkpt lat="44.3474" lon="2.55813">
        <ele>493.774</ele>
        <time>2009-01-30T20:06:08Z</time>
      </trkpt>
      <trkpt lat="44.34741" lon="2.55815">
        <ele>492.332</ele>
        <time>2009-01-30T20:06:09Z</time>
      </trkpt>
      <trkpt lat="44.34742" lon="2.55817">
        <ele>492.332</ele>
        <time>2009-01-30T20:06:10Z</time>
      </trkpt>
      <trkpt lat="44.34743" lon="2.55818">
        <ele>490.89</ele>
        <time>2009-01-30T20:06:11Z</time>
      </trkpt>
      <trkpt lat="44.34744" lon="2.55822">
        <ele>491.371</ele>
        <time>2009-01-30T20:06:12Z</time>
      </trkpt>
      <trkpt lat="44.34745" lon="2.55824">
        <ele>489.929</ele>
        <time>2009-01-30T20:06:13Z</time>
      </trkpt>
      <trkpt lat="44.34745" lon="2.55829">
        <ele>489.929</ele>
        <time>2009-01-30T20:06:14Z</time>
      </trkpt>
      <trkpt lat="44.34745" lon="2.55832">
        <ele>489.448</ele>
        <time>2009-01-30T20:06:15Z</time>
      </trkpt>
      <trkpt lat="44.34746" lon="2.55834">
        <ele>488.968</ele>
        <time>2009-01-30T20:06:16Z</time>
      </trkpt>
      <trkpt lat="44.34746" lon="2.55837">
        <ele>488.487</ele>
        <time>2009-01-30T20:06:17Z</time>
      </trkpt>
      <trkpt lat="44.34745" lon="2.5584">
        <ele>488.006</ele>
        <time>2009-01-30T20:06:18Z</time>
      </trkpt>
      <trkpt lat="44.34744" lon="2.55843">
        <ele>488.968</ele>
        <time>2009-01-30T20:06:19Z</time>
      </trkpt>
      <trkpt lat="44.34742" lon="2.55846">
        <ele>488.006</ele>
        <time>2009-01-30T20:06:20Z</time>
      </trkpt>
      <trkpt lat="44.34741" lon="2.5585">
        <ele>488.487</ele>
        <time>2009-01-30T20:06:21Z</time>
      </trkpt>
      <trkpt lat="44.34741" lon="2.55853">
        <ele>489.448</ele>
        <time>2009-01-30T20:06:22Z</time>
      </trkpt>
      <trkpt lat="44.34741" lon="2.55857">
        <ele>488.968</ele>
        <time>2009-01-30T20:06:23Z</time>
      </trkpt>
      <trkpt lat="44.34741" lon="2.55861">
        <ele>489.929</ele>
        <time>2009-01-30T20:06:24Z</time>
      </trkpt>
      <trkpt lat="44.3474" lon="2.55864">
        <ele>489.929</ele>
        <time>2009-01-30T20:06:25Z</time>
      </trkpt>
      <trkpt lat="44.3474" lon="2.55867">
        <ele>489.929</ele>
        <time>2009-01-30T20:06:26Z</time>
      </trkpt>
      <trkpt lat="44.3474" lon="2.5587">
        <ele>489.929</ele>
        <time>2009-01-30T20:06:27Z</time>
      </trkpt>
      <trkpt lat="44.34741" lon="2.55873">
        <ele>489.929</ele>
        <time>2009-01-30T20:06:28Z</time>
      </trkpt>
      <trkpt lat="44.34741" lon="2.55876">
        <ele>489.929</ele>
        <time>2009-01-30T20:06:29Z</time>
      </trkpt>
      <trkpt lat="44.34741" lon="2.5588">
        <ele>491.852</ele>
        <time>2009-01-30T20:06:30Z</time>
      </trkpt>
      <trkpt lat="44.34741" lon="2.55883">
        <ele>490.89</ele>
        <time>2009-01-30T20:06:31Z</time>
      </trkpt>
      <trkpt lat="44.3474" lon="2.55887">
        <ele>491.852</ele>
        <time>2009-01-30T20:06:32Z</time>
      </trkpt>
      <trkpt lat="44.34738" lon="2.55891">
        <ele>492.813</ele>
        <time>2009-01-30T20:06:33Z</time>
      </trkpt>
      <trkpt lat="44.34736" lon="2.55895">
        <ele>494.255</ele>
        <time>2009-01-30T20:06:34Z</time>
      </trkpt>
      <trkpt lat="44.34734" lon="2.55899">
        <ele>495.216</ele>
        <time>2009-01-30T20:06:35Z</time>
      </trkpt>
      <trkpt lat="44.34734" lon="2.55904">
        <ele>499.542</ele>
        <time>2009-01-30T20:06:36Z</time>
      </trkpt>
      <trkpt lat="44.34734" lon="2.55908">
        <ele>502.907</ele>
        <time>2009-01-30T20:06:37Z</time>
      </trkpt>
      <trkpt lat="44.34733" lon="2.55912">
        <ele>504.829</ele>
        <time>2009-01-30T20:06:38Z</time>
      </trkpt>
      <trkpt lat="44.34732" lon="2.55915">
        <ele>507.233</ele>
        <time>2009-01-30T20:06:39Z</time>
      </trkpt>
      <trkpt lat="44.34731" lon="2.55919">
        <ele>509.636</ele>
        <time>2009-01-30T20:06:40Z</time>
      </trkpt>
      <trkpt lat="44.3473" lon="2.55922">
        <ele>511.078</ele>
        <time>2009-01-30T20:06:41Z</time>
      </trkpt>
      <trkpt lat="44.34729" lon="2.55925">
        <ele>512.52</ele>
        <time>2009-01-30T20:06:42Z</time>
      </trkpt>
      <trkpt lat="44.34727" lon="2.55928">
        <ele>513.001</ele>
        <time>2009-01-30T20:06:43Z</time>
      </trkpt>
      <trkpt lat="44.34726" lon="2.55931">
        <ele>513.001</ele>
        <time>2009-01-30T20:06:44Z</time>
      </trkpt>
      <trkpt lat="44.34725" lon="2.55933">
        <ele>513.481</ele>
        <time>2009-01-30T20:06:45Z</time>
      </trkpt>
      <trkpt lat="44.34724" lon="2.55935">
        <ele>513.962</ele>
        <time>2009-01-30T20:06:46Z</time>
      </trkpt>
      <trkpt lat="44.34724" lon="2.55938">
        <ele>515.404</ele>
        <time>2009-01-30T20:06:47Z</time>
      </trkpt>
      <trkpt lat="44.34723" lon="2.5594">
        <ele>515.885</ele>
        <time>2009-01-30T20:06:48Z</time>
      </trkpt>
      <trkpt lat="44.34721" lon="2.55943">
        <ele>516.846</ele>
        <time>2009-01-30T20:06:49Z</time>
      </trkpt>
      <trkpt lat="44.3472" lon="2.55945">
        <ele>516.846</ele>
        <time>2009-01-30T20:06:50Z</time>
      </trkpt>
      <trkpt lat="44.34718" lon="2.55948">
        <ele>516.846</ele>
        <time>2009-01-30T20:06:51Z</time>
      </trkpt>
      <trkpt lat="44.34717" lon="2.5595">
        <ele>516.846</ele>
        <time>2009-01-30T20:06:52Z</time>
      </trkpt>
      <trkpt lat="44.34716" lon="2.55952">
        <ele>517.327</ele>
        <time>2009-01-30T20:06:53Z</time>
      </trkpt>
      <trkpt lat="44.34715" lon="2.55954">
        <ele>517.807</ele>
        <time>2009-01-30T20:06:54Z</time>
      </trkpt>
      <trkpt lat="44.34714" lon="2.55956">
        <ele>518.288</ele>
        <time>2009-01-30T20:06:55Z</time>
      </trkpt>
      <trkpt lat="44.34713" lon="2.55958">
        <ele>518.769</ele>
        <time>2009-01-30T20:06:56Z</time>
      </trkpt>
      <trkpt lat="44.34712" lon="2.5596">
        <ele>519.73</ele>
        <time>2009-01-30T20:06:57Z</time>
      </trkpt>
      <trkpt lat="44.3471" lon="2.55963">
        <ele>519.73</ele>
        <time>2009-01-30T20:06:58Z</time>
      </trkpt>
      <trkpt lat="44.34708" lon="2.55966">
        <ele>520.211</ele>
        <time>2009-01-30T20:06:59Z</time>
      </trkpt>
      <trkpt lat="44.34707" lon="2.55968">
        <ele>521.172</ele>
        <time>2009-01-30T20:07:00Z</time>
      </trkpt>
      <trkpt lat="44.34705" lon="2.5597">
        <ele>521.172</ele>
        <time>2009-01-30T20:07:01Z</time>
      </trkpt>
      <trkpt lat="44.34702" lon="2.55972">
        <ele>522.133</ele>
        <time>2009-01-30T20:07:02Z</time>
      </trkpt>
      <trkpt lat="44.34698" lon="2.55975">
        <ele>523.095</ele>
        <time>2009-01-30T20:07:03Z</time>
      </trkpt>
      <trkpt lat="44.34696" lon="2.55977">
        <ele>522.614</ele>
        <time>2009-01-30T20:07:04Z</time>
      </trkpt>
      <trkpt lat="44.34693" lon="2.55979">
        <ele>522.614</ele>
        <time>2009-01-30T20:07:05Z</time>
      </trkpt>
      <trkpt lat="44.34688" lon="2.55983">
        <ele>522.614</ele>
        <time>2009-01-30T20:07:06Z</time>
      </trkpt>
      <trkpt lat="44.34684" lon="2.55986">
        <ele>522.133</ele>
        <time>2009-01-30T20:07:07Z</time>
      </trkpt>
      <trkpt lat="44.3468" lon="2.55989">
        <ele>522.614</ele>
        <time>2009-01-30T20:07:08Z</time>
      </trkpt>
      <trkpt lat="44.34677" lon="2.55991">
        <ele>523.095</ele>
        <time>2009-01-30T20:07:09Z</time>
      </trkpt>
      <trkpt lat="44.34674" lon="2.55992">
        <ele>524.536</ele>
        <time>2009-01-30T20:07:10Z</time>
      </trkpt>
      <trkpt lat="44.34671" lon="2.55993">
        <ele>524.536</ele>
        <time>2009-01-30T20:07:11Z</time>
      </trkpt>
      <trkpt lat="44.34669" lon="2.55994">
        <ele>524.056</ele>
        <time>2009-01-30T20:07:12Z</time>
      </trkpt>
      <trkpt lat="44.34667" lon="2.55995">
        <ele>523.575</ele>
        <time>2009-01-30T20:07:13Z</time>
      </trkpt>
      <trkpt lat="44.34665" lon="2.55995">
        <ele>523.575</ele>
        <time>2009-01-30T20:07:14Z</time>
      </trkpt>
      <trkpt lat="44.34664" lon="2.55994">
        <ele>523.095</ele>
        <time>2009-01-30T20:07:15Z</time>
      </trkpt>
      <trkpt lat="44.34662" lon="2.55995">
        <ele>522.614</ele>
        <time>2009-01-30T20:07:16Z</time>
      </trkpt>
      <trkpt lat="44.34661" lon="2.55995">
        <ele>522.614</ele>
        <time>2009-01-30T20:07:17Z</time>
      </trkpt>
      <trkpt lat="44.34659" lon="2.55996">
        <ele>522.133</ele>
        <time>2009-01-30T20:07:18Z</time>
      </trkpt>
      <trkpt lat="44.34658" lon="2.55996">
        <ele>522.133</ele>
        <time>2009-01-30T20:07:19Z</time>
      </trkpt>
      <trkpt lat="44.34656" lon="2.55997">
        <ele>522.614</ele>
        <time>2009-01-30T20:07:20Z</time>
      </trkpt>
      <trkpt lat="44.34655" lon="2.55997">
        <ele>522.133</ele>
        <time>2009-01-30T20:07:21Z</time>
      </trkpt>
      <trkpt lat="44.34653" lon="2.55998">
        <ele>522.133</ele>
        <time>2009-01-30T20:07:22Z</time>
      </trkpt>
      <trkpt lat="44.34652" lon="2.55999">
        <ele>522.614</ele>
        <time>2009-01-30T20:07:23Z</time>
      </trkpt>
      <trkpt lat="44.34649" lon="2.56">
        <ele>524.056</ele>
        <time>2009-01-30T20:07:24Z</time>
      </trkpt>
      <trkpt lat="44.34647" lon="2.56001">
        <ele>525.498</ele>
        <time>2009-01-30T20:07:25Z</time>
      </trkpt>
      <trkpt lat="44.34646" lon="2.56002">
        <ele>525.978</ele>
        <time>2009-01-30T20:07:26Z</time>
      </trkpt>
      <trkpt lat="44.34645" lon="2.56002">
        <ele>526.459</ele>
        <time>2009-01-30T20:07:27Z</time>
      </trkpt>
      <trkpt lat="44.34645" lon="2.56003">
        <ele>526.459</ele>
        <time>2009-01-30T20:07:28Z</time>
      </trkpt>
      <trkpt lat="44.34644" lon="2.56003">
        <ele>526.94</ele>
        <time>2009-01-30T20:07:29Z</time>
      </trkpt>
      <trkpt lat="44.34643" lon="2.56005">
        <ele>527.901</ele>
        <time>2009-01-30T20:07:30Z</time>
      </trkpt>
      <trkpt lat="44.34642" lon="2.56007">
        <ele>527.901</ele>
        <time>2009-01-30T20:07:31Z</time>
      </trkpt>
      <trkpt lat="44.34641" lon="2.56008">
        <ele>528.382</ele>
        <time>2009-01-30T20:07:32Z</time>
      </trkpt>
      <trkpt lat="44.3464" lon="2.5601">
        <ele>528.382</ele>
        <time>2009-01-30T20:07:33Z</time>
      </trkpt>
      <trkpt lat="44.34639" lon="2.56012">
        <ele>528.382</ele>
        <time>2009-01-30T20:07:34Z</time>
      </trkpt>
      <trkpt lat="44.34638" lon="2.56014">
        <ele>528.382</ele>
        <time>2009-01-30T20:07:35Z</time>
      </trkpt>
      <trkpt lat="44.34636" lon="2.56016">
        <ele>528.382</ele>
        <time>2009-01-30T20:07:36Z</time>
      </trkpt>
      <trkpt lat="44.34636" lon="2.56018">
        <ele>527.901</ele>
        <time>2009-01-30T20:07:37Z</time>
      </trkpt>
      <trkpt lat="44.34635" lon="2.5602">
        <ele>527.42</ele>
        <time>2009-01-30T20:07:38Z</time>
      </trkpt>
      <trkpt lat="44.34634" lon="2.56022">
        <ele>526.94</ele>
        <time>2009-01-30T20:07:39Z</time>
      </trkpt>
      <trkpt lat="44.34633" lon="2.56024">
        <ele>526.94</ele>
        <time>2009-01-30T20:07:40Z</time>
      </trkpt>
      <trkpt lat="44.34632" lon="2.56026">
        <ele>526.94</ele>
        <time>2009-01-30T20:07:41Z</time>
      </trkpt>
      <trkpt lat="44.34631" lon="2.56028">
        <ele>526.94</ele>
        <time>2009-01-30T20:07:42Z</time>
      </trkpt>
      <trkpt lat="44.3463" lon="2.5603">
        <ele>526.94</ele>
        <time>2009-01-30T20:07:43Z</time>
      </trkpt>
      <trkpt lat="44.34628" lon="2.56032">
        <ele>527.42</ele>
        <time>2009-01-30T20:07:44Z</time>
      </trkpt>
      <trkpt lat="44.34628" lon="2.56034">
        <ele>527.42</ele>
        <time>2009-01-30T20:07:45Z</time>
      </trkpt>
      <trkpt lat="44.34627" lon="2.56036">
        <ele>527.42</ele>
        <time>2009-01-30T20:07:46Z</time>
      </trkpt>
      <trkpt lat="44.34625" lon="2.56038">
        <ele>526.94</ele>
        <time>2009-01-30T20:07:47Z</time>
      </trkpt>
      <trkpt lat="44.34625" lon="2.5604">
        <ele>526.94</ele>
        <time>2009-01-30T20:07:48Z</time>
      </trkpt>
      <trkpt lat="44.34624" lon="2.56042">
        <ele>526.94</ele>
        <time>2009-01-30T20:07:49Z</time>
      </trkpt>
      <trkpt lat="44.34623" lon="2.56044">
        <ele>526.459</ele>
        <time>2009-01-30T20:07:50Z</time>
      </trkpt>
      <trkpt lat="44.34619" lon="2.56049">
        <ele>527.42</ele>
        <time>2009-01-30T20:07:51Z</time>
      </trkpt>
      <trkpt lat="44.34618" lon="2.56051">
        <ele>527.42</ele>
        <time>2009-01-30T20:07:52Z</time>
      </trkpt>
      <trkpt lat="44.34617" lon="2.56053">
        <ele>527.42</ele>
        <time>2009-01-30T20:07:53Z</time>
      </trkpt>
      <trkpt lat="44.34615" lon="2.56055">
        <ele>526.94</ele>
        <time>2009-01-30T20:07:54Z</time>
      </trkpt>
      <trkpt lat="44.34614" lon="2.56058">
        <ele>526.94</ele>
        <time>2009-01-30T20:07:55Z</time>
      </trkpt>
      <trkpt lat="44.34612" lon="2.56061">
        <ele>526.94</ele>
        <time>2009-01-30T20:07:56Z</time>
      </trkpt>
      <trkpt lat="44.34611" lon="2.56063">
        <ele>526.459</ele>
        <time>2009-01-30T20:07:57Z</time>
      </trkpt>
      <trkpt lat="44.34609" lon="2.56066">
        <ele>526.459</ele>
        <time>2009-01-30T20:07:58Z</time>
      </trkpt>
      <trkpt lat="44.34607" lon="2.56068">
        <ele>526.459</ele>
        <time>2009-01-30T20:07:59Z</time>
      </trkpt>
      <trkpt lat="44.34605" lon="2.56072">
        <ele>526.459</ele>
        <time>2009-01-30T20:08:00Z</time>
      </trkpt>
      <trkpt lat="44.34604" lon="2.56074">
        <ele>526.459</ele>
        <time>2009-01-30T20:08:01Z</time>
      </trkpt>
      <trkpt lat="44.34603" lon="2.56077">
        <ele>526.459</ele>
        <time>2009-01-30T20:08:02Z</time>
      </trkpt>
      <trkpt lat="44.34602" lon="2.5608">
        <ele>526.94</ele>
        <time>2009-01-30T20:08:03Z</time>
      </trkpt>
      <trkpt lat="44.346" lon="2.56082">
        <ele>527.42</ele>
        <time>2009-01-30T20:08:04Z</time>
      </trkpt>
      <trkpt lat="44.34597" lon="2.56086">
        <ele>528.863</ele>
        <time>2009-01-30T20:08:05Z</time>
      </trkpt>
      <trkpt lat="44.34594" lon="2.56091">
        <ele>529.824</ele>
        <time>2009-01-30T20:08:06Z</time>
      </trkpt>
      <trkpt lat="44.34592" lon="2.56094">
        <ele>530.785</ele>
        <time>2009-01-30T20:08:07Z</time>
      </trkpt>
      <trkpt lat="44.34589" lon="2.56097">
        <ele>532.227</ele>
        <time>2009-01-30T20:08:08Z</time>
      </trkpt>
      <trkpt lat="44.34587" lon="2.561">
        <ele>532.708</ele>
        <time>2009-01-30T20:08:09Z</time>
      </trkpt>
      <trkpt lat="44.34585" lon="2.56102">
        <ele>532.708</ele>
        <time>2009-01-30T20:08:10Z</time>
      </trkpt>
      <trkpt lat="44.34583" lon="2.56104">
        <ele>533.188</ele>
        <time>2009-01-30T20:08:11Z</time>
      </trkpt>
      <trkpt lat="44.3458" lon="2.56107">
        <ele>533.669</ele>
        <time>2009-01-30T20:08:12Z</time>
      </trkpt>
      <trkpt lat="44.34578" lon="2.56109">
        <ele>533.669</ele>
        <time>2009-01-30T20:08:13Z</time>
      </trkpt>
      <trkpt lat="44.34575" lon="2.56111">
        <ele>534.15</ele>
        <time>2009-01-30T20:08:14Z</time>
      </trkpt>
      <trkpt lat="44.34573" lon="2.56113">
        <ele>534.15</ele>
        <time>2009-01-30T20:08:15Z</time>
      </trkpt>
      <trkpt lat="44.3457" lon="2.56114">
        <ele>534.63</ele>
        <time>2009-01-30T20:08:16Z</time>
      </trkpt>
      <trkpt lat="44.34568" lon="2.56115">
        <ele>534.63</ele>
        <time>2009-01-30T20:08:17Z</time>
      </trkpt>
      <trkpt lat="44.34566" lon="2.56116">
        <ele>534.15</ele>
        <time>2009-01-30T20:08:18Z</time>
      </trkpt>
      <trkpt lat="44.34564" lon="2.56118">
        <ele>533.669</ele>
        <time>2009-01-30T20:08:19Z</time>
      </trkpt>
      <trkpt lat="44.34562" lon="2.56118">
        <ele>533.188</ele>
        <time>2009-01-30T20:08:20Z</time>
      </trkpt>
      <trkpt lat="44.3456" lon="2.56119">
        <ele>532.708</ele>
        <time>2009-01-30T20:08:21Z</time>
      </trkpt>
      <trkpt lat="44.34558" lon="2.56119">
        <ele>532.227</ele>
        <time>2009-01-30T20:08:22Z</time>
      </trkpt>
      <trkpt lat="44.34556" lon="2.56119">
        <ele>531.746</ele>
        <time>2009-01-30T20:08:23Z</time>
      </trkpt>
      <trkpt lat="44.34554" lon="2.56119">
        <ele>531.746</ele>
        <time>2009-01-30T20:08:24Z</time>
      </trkpt>
      <trkpt lat="44.34552" lon="2.56119">
        <ele>531.266</ele>
        <time>2009-01-30T20:08:25Z</time>
      </trkpt>
      <trkpt lat="44.34551" lon="2.56119">
        <ele>531.266</ele>
        <time>2009-01-30T20:08:26Z</time>
      </trkpt>
      <trkpt lat="44.34549" lon="2.5612">
        <ele>530.785</ele>
        <time>2009-01-30T20:08:27Z</time>
      </trkpt>
      <trkpt lat="44.34547" lon="2.5612">
        <ele>530.785</ele>
        <time>2009-01-30T20:08:28Z</time>
      </trkpt>
      <trkpt lat="44.34546" lon="2.5612">
        <ele>530.785</ele>
        <time>2009-01-30T20:08:29Z</time>
      </trkpt>
      <trkpt lat="44.34544" lon="2.5612">
        <ele>530.304</ele>
        <time>2009-01-30T20:08:30Z</time>
      </trkpt>
      <trkpt lat="44.34542" lon="2.56119">
        <ele>529.824</ele>
        <time>2009-01-30T20:08:31Z</time>
      </trkpt>
      <trkpt lat="44.3454" lon="2.56119">
        <ele>529.343</ele>
        <time>2009-01-30T20:08:32Z</time>
      </trkpt>
      <trkpt lat="44.34539" lon="2.56119">
        <ele>528.863</ele>
        <time>2009-01-30T20:08:33Z</time>
      </trkpt>
      <trkpt lat="44.34537" lon="2.56118">
        <ele>528.863</ele>
        <time>2009-01-30T20:08:34Z</time>
      </trkpt>
      <trkpt lat="44.34535" lon="2.56116">
        <ele>529.343</ele>
        <time>2009-01-30T20:08:35Z</time>
      </trkpt>
      <trkpt lat="44.34533" lon="2.56114">
        <ele>529.824</ele>
        <time>2009-01-30T20:08:36Z</time>
      </trkpt>
      <trkpt lat="44.34532" lon="2.56113">
        <ele>529.824</ele>
        <time>2009-01-30T20:08:37Z</time>
      </trkpt>
      <trkpt lat="44.3453" lon="2.56112">
        <ele>529.824</ele>
        <time>2009-01-30T20:08:38Z</time>
      </trkpt>
      <trkpt lat="44.34529" lon="2.5611">
        <ele>529.824</ele>
        <time>2009-01-30T20:08:39Z</time>
      </trkpt>
      <trkpt lat="44.34528" lon="2.56109">
        <ele>530.304</ele>
        <time>2009-01-30T20:08:40Z</time>
      </trkpt>
      <trkpt lat="44.34526" lon="2.56108">
        <ele>530.304</ele>
        <time>2009-01-30T20:08:41Z</time>
      </trkpt>
      <trkpt lat="44.34525" lon="2.56106">
        <ele>530.785</ele>
        <time>2009-01-30T20:08:42Z</time>
      </trkpt>
      <trkpt lat="44.34524" lon="2.56105">
        <ele>531.266</ele>
        <time>2009-01-30T20:08:43Z</time>
      </trkpt>
      <trkpt lat="44.34522" lon="2.56103">
        <ele>531.266</ele>
        <time>2009-01-30T20:08:44Z</time>
      </trkpt>
      <trkpt lat="44.34521" lon="2.56102">
        <ele>531.266</ele>
        <time>2009-01-30T20:08:45Z</time>
      </trkpt>
      <trkpt lat="44.3452" lon="2.561">
        <ele>531.746</ele>
        <time>2009-01-30T20:08:46Z</time>
      </trkpt>
      <trkpt lat="44.34518" lon="2.56098">
        <ele>532.708</ele>
        <time>2009-01-30T20:08:47Z</time>
      </trkpt>
      <trkpt lat="44.34517" lon="2.56097">
        <ele>533.188</ele>
        <time>2009-01-30T20:08:48Z</time>
      </trkpt>
      <trkpt lat="44.34516" lon="2.56095">
        <ele>534.15</ele>
        <time>2009-01-30T20:08:49Z</time>
      </trkpt>
      <trkpt lat="44.34514" lon="2.56092">
        <ele>535.111</ele>
        <time>2009-01-30T20:08:50Z</time>
      </trkpt>
      <trkpt lat="44.34513" lon="2.56091">
        <ele>536.072</ele>
        <time>2009-01-30T20:08:51Z</time>
      </trkpt>
      <trkpt lat="44.34511" lon="2.56089">
        <ele>536.553</ele>
        <time>2009-01-30T20:08:52Z</time>
      </trkpt>
      <trkpt lat="44.3451" lon="2.56087">
        <ele>537.514</ele>
        <time>2009-01-30T20:08:53Z</time>
      </trkpt>
      <trkpt lat="44.34508" lon="2.56085">
        <ele>538.476</ele>
        <time>2009-01-30T20:08:54Z</time>
      </trkpt>
      <trkpt lat="44.34507" lon="2.56083">
        <ele>539.437</ele>
        <time>2009-01-30T20:08:55Z</time>
      </trkpt>
      <trkpt lat="44.34505" lon="2.5608">
        <ele>539.918</ele>
        <time>2009-01-30T20:08:56Z</time>
      </trkpt>
      <trkpt lat="44.34504" lon="2.56078">
        <ele>540.398</ele>
        <time>2009-01-30T20:08:57Z</time>
      </trkpt>
      <trkpt lat="44.34502" lon="2.56076">
        <ele>540.879</ele>
        <time>2009-01-30T20:08:58Z</time>
      </trkpt>
      <trkpt lat="44.345" lon="2.56074">
        <ele>541.359</ele>
        <time>2009-01-30T20:08:59Z</time>
      </trkpt>
      <trkpt lat="44.34498" lon="2.56072">
        <ele>541.84</ele>
        <time>2009-01-30T20:09:00Z</time>
      </trkpt>
      <trkpt lat="44.34497" lon="2.5607">
        <ele>542.802</ele>
        <time>2009-01-30T20:09:01Z</time>
      </trkpt>
      <trkpt lat="44.34495" lon="2.56069">
        <ele>542.802</ele>
        <time>2009-01-30T20:09:02Z</time>
      </trkpt>
      <trkpt lat="44.34493" lon="2.56068">
        <ele>543.282</ele>
        <time>2009-01-30T20:09:03Z</time>
      </trkpt>
      <trkpt lat="44.34491" lon="2.56066">
        <ele>543.282</ele>
        <time>2009-01-30T20:09:04Z</time>
      </trkpt>
      <trkpt lat="44.34489" lon="2.56065">
        <ele>543.763</ele>
        <time>2009-01-30T20:09:05Z</time>
      </trkpt>
      <trkpt lat="44.34488" lon="2.56064">
        <ele>543.763</ele>
        <time>2009-01-30T20:09:06Z</time>
      </trkpt>
      <trkpt lat="44.34486" lon="2.56063">
        <ele>544.244</ele>
        <time>2009-01-30T20:09:07Z</time>
      </trkpt>
      <trkpt lat="44.34484" lon="2.56062">
        <ele>544.244</ele>
        <time>2009-01-30T20:09:08Z</time>
      </trkpt>
      <trkpt lat="44.34482" lon="2.56061">
        <ele>544.724</ele>
        <time>2009-01-30T20:09:09Z</time>
      </trkpt>
      <trkpt lat="44.3448" lon="2.56061">
        <ele>544.724</ele>
        <time>2009-01-30T20:09:10Z</time>
      </trkpt>
      <trkpt lat="44.34478" lon="2.5606">
        <ele>545.205</ele>
        <time>2009-01-30T20:09:11Z</time>
      </trkpt>
      <trkpt lat="44.34476" lon="2.56059">
        <ele>545.205</ele>
        <time>2009-01-30T20:09:12Z</time>
      </trkpt>
      <trkpt lat="44.34475" lon="2.56058">
        <ele>545.686</ele>
        <time>2009-01-30T20:09:13Z</time>
      </trkpt>
      <trkpt lat="44.34473" lon="2.56057">
        <ele>546.166</ele>
        <time>2009-01-30T20:09:14Z</time>
      </trkpt>
      <trkpt lat="44.34471" lon="2.56056">
        <ele>546.647</ele>
        <time>2009-01-30T20:09:15Z</time>
      </trkpt>
      <trkpt lat="44.34469" lon="2.56055">
        <ele>547.127</ele>
        <time>2009-01-30T20:09:16Z</time>
      </trkpt>
      <trkpt lat="44.34467" lon="2.56055">
        <ele>547.608</ele>
        <time>2009-01-30T20:09:17Z</time>
      </trkpt>
      <trkpt lat="44.34465" lon="2.56054">
        <ele>547.608</ele>
        <time>2009-01-30T20:09:18Z</time>
      </trkpt>
      <trkpt lat="44.34463" lon="2.56053">
        <ele>548.089</ele>
        <time>2009-01-30T20:09:19Z</time>
      </trkpt>
      <trkpt lat="44.34462" lon="2.56052">
        <ele>548.569</ele>
        <time>2009-01-30T20:09:20Z</time>
      </trkpt>
      <trkpt lat="44.3446" lon="2.56052">
        <ele>549.05</ele>
        <time>2009-01-30T20:09:21Z</time>
      </trkpt>
      <trkpt lat="44.34458" lon="2.56051">
        <ele>549.05</ele>
        <time>2009-01-30T20:09:22Z</time>
      </trkpt>
      <trkpt lat="44.34456" lon="2.56051">
        <ele>549.531</ele>
        <time>2009-01-30T20:09:23Z</time>
      </trkpt>
      <trkpt lat="44.34454" lon="2.5605">
        <ele>549.531</ele>
        <time>2009-01-30T20:09:24Z</time>
      </trkpt>
      <trkpt lat="44.34453" lon="2.5605">
        <ele>549.531</ele>
        <time>2009-01-30T20:09:25Z</time>
      </trkpt>
      <trkpt lat="44.34451" lon="2.5605">
        <ele>550.011</ele>
        <time>2009-01-30T20:09:26Z</time>
      </trkpt>
      <trkpt lat="44.34449" lon="2.56049">
        <ele>550.011</ele>
        <time>2009-01-30T20:09:27Z</time>
      </trkpt>
      <trkpt lat="44.34447" lon="2.56049">
        <ele>550.011</ele>
        <time>2009-01-30T20:09:28Z</time>
      </trkpt>
      <trkpt lat="44.34445" lon="2.56049">
        <ele>550.011</ele>
        <time>2009-01-30T20:09:29Z</time>
      </trkpt>
      <trkpt lat="44.34443" lon="2.56049">
        <ele>550.011</ele>
        <time>2009-01-30T20:09:30Z</time>
      </trkpt>
      <trkpt lat="44.34441" lon="2.56048">
        <ele>550.011</ele>
        <time>2009-01-30T20:09:31Z</time>
      </trkpt>
      <trkpt lat="44.34439" lon="2.56048">
        <ele>550.492</ele>
        <time>2009-01-30T20:09:32Z</time>
      </trkpt>
      <trkpt lat="44.34437" lon="2.56047">
        <ele>550.973</ele>
        <time>2009-01-30T20:09:33Z</time>
      </trkpt>
      <trkpt lat="44.34436" lon="2.56047">
        <ele>551.453</ele>
        <time>2009-01-30T20:09:34Z</time>
      </trkpt>
      <trkpt lat="44.34434" lon="2.56046">
        <ele>551.934</ele>
        <time>2009-01-30T20:09:35Z</time>
      </trkpt>
      <trkpt lat="44.34432" lon="2.56046">
        <ele>551.934</ele>
        <time>2009-01-30T20:09:36Z</time>
      </trkpt>
      <trkpt lat="44.34431" lon="2.56046">
        <ele>552.415</ele>
        <time>2009-01-30T20:09:37Z</time>
      </trkpt>
      <trkpt lat="44.34429" lon="2.56045">
        <ele>552.895</ele>
        <time>2009-01-30T20:09:38Z</time>
      </trkpt>
      <trkpt lat="44.34427" lon="2.56044">
        <ele>553.376</ele>
        <time>2009-01-30T20:09:39Z</time>
      </trkpt>
      <trkpt lat="44.34425" lon="2.56044">
        <ele>553.857</ele>
        <time>2009-01-30T20:09:40Z</time>
      </trkpt>
      <trkpt lat="44.34423" lon="2.56044">
        <ele>554.337</ele>
        <time>2009-01-30T20:09:41Z</time>
      </trkpt>
      <trkpt lat="44.34422" lon="2.56043">
        <ele>554.818</ele>
        <time>2009-01-30T20:09:42Z</time>
      </trkpt>
      <trkpt lat="44.3442" lon="2.56043">
        <ele>555.299</ele>
        <time>2009-01-30T20:09:43Z</time>
      </trkpt>
      <trkpt lat="44.34418" lon="2.56043">
        <ele>555.299</ele>
        <time>2009-01-30T20:09:44Z</time>
      </trkpt>
      <trkpt lat="44.34417" lon="2.56042">
        <ele>555.779</ele>
        <time>2009-01-30T20:09:45Z</time>
      </trkpt>
      <trkpt lat="44.34415" lon="2.56041">
        <ele>556.26</ele>
        <time>2009-01-30T20:09:46Z</time>
      </trkpt>
      <trkpt lat="44.34413" lon="2.56041">
        <ele>556.741</ele>
        <time>2009-01-30T20:09:47Z</time>
      </trkpt>
      <trkpt lat="44.34412" lon="2.56041">
        <ele>557.221</ele>
        <time>2009-01-30T20:09:48Z</time>
      </trkpt>
      <trkpt lat="44.3441" lon="2.56041">
        <ele>557.221</ele>
        <time>2009-01-30T20:09:49Z</time>
      </trkpt>
      <trkpt lat="44.34408" lon="2.56041">
        <ele>557.221</ele>
        <time>2009-01-30T20:09:50Z</time>
      </trkpt>
      <trkpt lat="44.34406" lon="2.56041">
        <ele>557.702</ele>
        <time>2009-01-30T20:09:51Z</time>
      </trkpt>
      <trkpt lat="44.34405" lon="2.56041">
        <ele>557.702</ele>
        <time>2009-01-30T20:09:52Z</time>
      </trkpt>
      <trkpt lat="44.34403" lon="2.56041">
        <ele>557.702</ele>
        <time>2009-01-30T20:09:53Z</time>
      </trkpt>
      <trkpt lat="44.34401" lon="2.56041">
        <ele>557.702</ele>
        <time>2009-01-30T20:09:54Z</time>
      </trkpt>
      <trkpt lat="44.34399" lon="2.56041">
        <ele>557.221</ele>
        <time>2009-01-30T20:09:55Z</time>
      </trkpt>
      <trkpt lat="44.34398" lon="2.56041">
        <ele>557.702</ele>
        <time>2009-01-30T20:09:56Z</time>
      </trkpt>
      <trkpt lat="44.34396" lon="2.56041">
        <ele>557.702</ele>
        <time>2009-01-30T20:09:57Z</time>
      </trkpt>
      <trkpt lat="44.34395" lon="2.56041">
        <ele>557.702</ele>
        <time>2009-01-30T20:09:58Z</time>
      </trkpt>
      <trkpt lat="44.34393" lon="2.56039">
        <ele>558.663</ele>
        <time>2009-01-30T20:09:59Z</time>
      </trkpt>
      <trkpt lat="44.34391" lon="2.56039">
        <ele>559.625</ele>
        <time>2009-01-30T20:10:00Z</time>
      </trkpt>
      <trkpt lat="44.34389" lon="2.56039">
        <ele>559.625</ele>
        <time>2009-01-30T20:10:01Z</time>
      </trkpt>
      <trkpt lat="44.34388" lon="2.56039">
        <ele>559.625</ele>
        <time>2009-01-30T20:10:02Z</time>
      </trkpt>
      <trkpt lat="44.34387" lon="2.56039">
        <ele>560.105</ele>
        <time>2009-01-30T20:10:03Z</time>
      </trkpt>
      <trkpt lat="44.34385" lon="2.56038">
        <ele>560.105</ele>
        <time>2009-01-30T20:10:04Z</time>
      </trkpt>
      <trkpt lat="44.34384" lon="2.56038">
        <ele>560.586</ele>
        <time>2009-01-30T20:10:05Z</time>
      </trkpt>
      <trkpt lat="44.34383" lon="2.56037">
        <ele>560.105</ele>
        <time>2009-01-30T20:10:06Z</time>
      </trkpt>
      <trkpt lat="44.34381" lon="2.56037">
        <ele>560.105</ele>
        <time>2009-01-30T20:10:07Z</time>
      </trkpt>
      <trkpt lat="44.3438" lon="2.56036">
        <ele>560.586</ele>
        <time>2009-01-30T20:10:08Z</time>
      </trkpt>
      <trkpt lat="44.34378" lon="2.56036">
        <ele>560.586</ele>
        <time>2009-01-30T20:10:09Z</time>
      </trkpt>
      <trkpt lat="44.34377" lon="2.56035">
        <ele>560.586</ele>
        <time>2009-01-30T20:10:10Z</time>
      </trkpt>
      <trkpt lat="44.34376" lon="2.56034">
        <ele>560.586</ele>
        <time>2009-01-30T20:10:11Z</time>
      </trkpt>
      <trkpt lat="44.34374" lon="2.56034">
        <ele>560.586</ele>
        <time>2009-01-30T20:10:12Z</time>
      </trkpt>
      <trkpt lat="44.34373" lon="2.56033">
        <ele>561.067</ele>
        <time>2009-01-30T20:10:13Z</time>
      </trkpt>
      <trkpt lat="44.34372" lon="2.56033">
        <ele>561.067</ele>
        <time>2009-01-30T20:10:14Z</time>
      </trkpt>
      <trkpt lat="44.34371" lon="2.56032">
        <ele>561.067</ele>
        <time>2009-01-30T20:10:15Z</time>
      </trkpt>
      <trkpt lat="44.34371" lon="2.5603">
        <ele>561.547</ele>
        <time>2009-01-30T20:10:16Z</time>
      </trkpt>
      <trkpt lat="44.3437" lon="2.5603">
        <ele>562.028</ele>
        <time>2009-01-30T20:10:17Z</time>
      </trkpt>
      <trkpt lat="44.34369" lon="2.56029">
        <ele>562.028</ele>
        <time>2009-01-30T20:10:18Z</time>
      </trkpt>
      <trkpt lat="44.34369" lon="2.56028">
        <ele>562.028</ele>
        <time>2009-01-30T20:10:19Z</time>
      </trkpt>
      <trkpt lat="44.34368" lon="2.56027">
        <ele>562.028</ele>
        <time>2009-01-30T20:10:20Z</time>
      </trkpt>
      <trkpt lat="44.34367" lon="2.56027">
        <ele>562.028</ele>
        <time>2009-01-30T20:10:21Z</time>
      </trkpt>
      <trkpt lat="44.34367" lon="2.56026">
        <ele>562.028</ele>
        <time>2009-01-30T20:10:22Z</time>
      </trkpt>
      <trkpt lat="44.34366" lon="2.56026">
        <ele>562.028</ele>
        <time>2009-01-30T20:10:23Z</time>
      </trkpt>
      <trkpt lat="44.34365" lon="2.56025">
        <ele>562.028</ele>
        <time>2009-01-30T20:10:24Z</time>
      </trkpt>
      <trkpt lat="44.34365" lon="2.56025">
        <ele>562.028</ele>
        <time>2009-01-30T20:10:25Z</time>
      </trkpt>
      <trkpt lat="44.34364" lon="2.56025">
        <ele>562.028</ele>
        <time>2009-01-30T20:10:26Z</time>
      </trkpt>
      <trkpt lat="44.34363" lon="2.56024">
        <ele>562.509</ele>
        <time>2009-01-30T20:10:27Z</time>
      </trkpt>
      <trkpt lat="44.34362" lon="2.56024">
        <ele>562.509</ele>
        <time>2009-01-30T20:10:28Z</time>
      </trkpt>
      <trkpt lat="44.34362" lon="2.56024">
        <ele>562.509</ele>
        <time>2009-01-30T20:10:29Z</time>
      </trkpt>
      <trkpt lat="44.34361" lon="2.56023">
        <ele>562.989</ele>
        <time>2009-01-30T20:10:30Z</time>
      </trkpt>
      <trkpt lat="44.34361" lon="2.56024">
        <ele>563.95</ele>
        <time>2009-01-30T20:10:39Z</time>
      </trkpt>
      <trkpt lat="44.34361" lon="2.56025">
        <ele>563.95</ele>
        <time>2009-01-30T20:10:40Z</time>
      </trkpt>
      <trkpt lat="44.34361" lon="2.56026">
        <ele>563.95</ele>
        <time>2009-01-30T20:10:41Z</time>
      </trkpt>
      <trkpt lat="44.34361" lon="2.56026">
        <ele>564.431</ele>
        <time>2009-01-30T20:10:47Z</time>
      </trkpt>
      <trkpt lat="44.34361" lon="2.56025">
        <ele>564.431</ele>
        <time>2009-01-30T20:10:48Z</time>
      </trkpt>
      <trkpt lat="44.34361" lon="2.56025">
        <ele>564.912</ele>
        <time>2009-01-30T20:10:49Z</time>
      </trkpt>
      <trkpt lat="44.3436" lon="2.56024">
        <ele>564.912</ele>
        <time>2009-01-30T20:10:50Z</time>
      </trkpt>
      <trkpt lat="44.34359" lon="2.56024">
        <ele>564.912</ele>
        <time>2009-01-30T20:10:51Z</time>
      </trkpt>
      <trkpt lat="44.34358" lon="2.56024">
        <ele>565.393</ele>
        <time>2009-01-30T20:10:52Z</time>
      </trkpt>
      <trkpt lat="44.34357" lon="2.56023">
        <ele>565.393</ele>
        <time>2009-01-30T20:10:53Z</time>
      </trkpt>
      <trkpt lat="44.34357" lon="2.56022">
        <ele>565.393</ele>
        <time>2009-01-30T20:10:54Z</time>
      </trkpt>
      <trkpt lat="44.34357" lon="2.5602">
        <ele>565.393</ele>
        <time>2009-01-30T20:10:55Z</time>
      </trkpt>
      <trkpt lat="44.34357" lon="2.56019">
        <ele>565.393</ele>
        <time>2009-01-30T20:10:56Z</time>
      </trkpt>
      <trkpt lat="44.34357" lon="2.56018">
        <ele>565.873</ele>
        <time>2009-01-30T20:10:57Z</time>
      </trkpt>
      <trkpt lat="44.34358" lon="2.56017">
        <ele>565.873</ele>
        <time>2009-01-30T20:10:58Z</time>
      </trkpt>
      <trkpt lat="44.34359" lon="2.56016">
        <ele>565.873</ele>
        <time>2009-01-30T20:10:59Z</time>
      </trkpt>
      <trkpt lat="44.34359" lon="2.56015">
        <ele>565.873</ele>
        <time>2009-01-30T20:11:00Z</time>
      </trkpt>
      <trkpt lat="44.3436" lon="2.56014">
        <ele>565.873</ele>
        <time>2009-01-30T20:11:01Z</time>
      </trkpt>
      <trkpt lat="44.34361" lon="2.56013">
        <ele>565.873</ele>
        <time>2009-01-30T20:11:02Z</time>
      </trkpt>
      <trkpt lat="44.34362" lon="2.56012">
        <ele>565.873</ele>
        <time>2009-01-30T20:11:03Z</time>
      </trkpt>
      <trkpt lat="44.34362" lon="2.56012">
        <ele>566.354</ele>
        <time>2009-01-30T20:11:04Z</time>
      </trkpt>
      <trkpt lat="44.34363" lon="2.56012">
        <ele>566.354</ele>
        <time>2009-01-30T20:11:05Z</time>
      </trkpt>
      <trkpt lat="44.34364" lon="2.56011">
        <ele>566.354</ele>
        <time>2009-01-30T20:11:06Z</time>
      </trkpt>
      <trkpt lat="44.34365" lon="2.56011">
        <ele>566.834</ele>
        <time>2009-01-30T20:11:07Z</time>
      </trkpt>
      <trkpt lat="44.34366" lon="2.5601">
        <ele>567.315</ele>
        <time>2009-01-30T20:11:08Z</time>
      </trkpt>
      <trkpt lat="44.34366" lon="2.5601">
        <ele>567.315</ele>
        <time>2009-01-30T20:11:09Z</time>
      </trkpt>
      <trkpt lat="44.34367" lon="2.5601">
        <ele>567.315</ele>
        <time>2009-01-30T20:11:10Z</time>
      </trkpt>
      <trkpt lat="44.34367" lon="2.5601">
        <ele>567.315</ele>
        <time>2009-01-30T20:11:11Z</time>
      </trkpt>
      <trkpt lat="44.34366" lon="2.5601">
        <ele>568.757</ele>
        <time>2009-01-30T20:11:39Z</time>
      </trkpt>
      <trkpt lat="44.34367" lon="2.5601">
        <ele>568.757</ele>
        <time>2009-01-30T20:11:40Z</time>
      </trkpt>
      <trkpt lat="44.34367" lon="2.56011">
        <ele>568.276</ele>
        <time>2009-01-30T20:11:41Z</time>
      </trkpt>
      <trkpt lat="44.34367" lon="2.56012">
        <ele>568.276</ele>
        <time>2009-01-30T20:11:42Z</time>
      </trkpt>
      <trkpt lat="44.34367" lon="2.56013">
        <ele>568.276</ele>
        <time>2009-01-30T20:11:43Z</time>
      </trkpt>
      <trkpt lat="44.34368" lon="2.56013">
        <ele>568.276</ele>
        <time>2009-01-30T20:11:52Z</time>
      </trkpt>
      <trkpt lat="44.34368" lon="2.56012">
        <ele>568.757</ele>
        <time>2009-01-30T20:11:53Z</time>
      </trkpt>
      <trkpt lat="44.3437" lon="2.56011">
        <ele>568.757</ele>
        <time>2009-01-30T20:11:54Z</time>
      </trkpt>
      <trkpt lat="44.34371" lon="2.5601">
        <ele>568.757</ele>
        <time>2009-01-30T20:11:55Z</time>
      </trkpt>
      <trkpt lat="44.34373" lon="2.56009">
        <ele>569.238</ele>
        <time>2009-01-30T20:11:56Z</time>
      </trkpt>
      <trkpt lat="44.34375" lon="2.56008">
        <ele>569.238</ele>
        <time>2009-01-30T20:11:57Z</time>
      </trkpt>
      <trkpt lat="44.34376" lon="2.56006">
        <ele>569.238</ele>
        <time>2009-01-30T20:11:58Z</time>
      </trkpt>
      <trkpt lat="44.34378" lon="2.56005">
        <ele>569.238</ele>
        <time>2009-01-30T20:11:59Z</time>
      </trkpt>
      <trkpt lat="44.3438" lon="2.56005">
        <ele>569.719</ele>
        <time>2009-01-30T20:12:00Z</time>
      </trkpt>
      <trkpt lat="44.34382" lon="2.56004">
        <ele>569.719</ele>
        <time>2009-01-30T20:12:01Z</time>
      </trkpt>
      <trkpt lat="44.34385" lon="2.56003">
        <ele>569.719</ele>
        <time>2009-01-30T20:12:02Z</time>
      </trkpt>
      <trkpt lat="44.34387" lon="2.56002">
        <ele>569.719</ele>
        <time>2009-01-30T20:12:03Z</time>
      </trkpt>
      <trkpt lat="44.34389" lon="2.56001">
        <ele>570.199</ele>
        <time>2009-01-30T20:12:04Z</time>
      </trkpt>
      <trkpt lat="44.34391" lon="2.56">
        <ele>570.199</ele>
        <time>2009-01-30T20:12:05Z</time>
      </trkpt>
      <trkpt lat="44.34393" lon="2.55999">
        <ele>570.68</ele>
        <time>2009-01-30T20:12:06Z</time>
      </trkpt>
      <trkpt lat="44.34395" lon="2.55998">
        <ele>571.16</ele>
        <time>2009-01-30T20:12:07Z</time>
      </trkpt>
      <trkpt lat="44.34397" lon="2.55996">
        <ele>571.641</ele>
        <time>2009-01-30T20:12:08Z</time>
      </trkpt>
      <trkpt lat="44.344" lon="2.55995">
        <ele>572.122</ele>
        <time>2009-01-30T20:12:09Z</time>
      </trkpt>
      <trkpt lat="44.34402" lon="2.55993">
        <ele>572.122</ele>
        <time>2009-01-30T20:12:10Z</time>
      </trkpt>
      <trkpt lat="44.34404" lon="2.55992">
        <ele>572.603</ele>
        <time>2009-01-30T20:12:11Z</time>
      </trkpt>
      <trkpt lat="44.34406" lon="2.55991">
        <ele>573.083</ele>
        <time>2009-01-30T20:12:12Z</time>
      </trkpt>
      <trkpt lat="44.34408" lon="2.55989">
        <ele>573.564</ele>
        <time>2009-01-30T20:12:13Z</time>
      </trkpt>
      <trkpt lat="44.3441" lon="2.55987">
        <ele>573.083</ele>
        <time>2009-01-30T20:12:14Z</time>
      </trkpt>
      <trkpt lat="44.34412" lon="2.55986">
        <ele>573.564</ele>
        <time>2009-01-30T20:12:15Z</time>
      </trkpt>
      <trkpt lat="44.34414" lon="2.55984">
        <ele>573.083</ele>
        <time>2009-01-30T20:12:16Z</time>
      </trkpt>
      <trkpt lat="44.34416" lon="2.55982">
        <ele>573.083</ele>
        <time>2009-01-30T20:12:17Z</time>
      </trkpt>
      <trkpt lat="44.34419" lon="2.55979">
        <ele>573.564</ele>
        <time>2009-01-30T20:12:18Z</time>
      </trkpt>
      <trkpt lat="44.34421" lon="2.55977">
        <ele>573.564</ele>
        <time>2009-01-30T20:12:19Z</time>
      </trkpt>
      <trkpt lat="44.34423" lon="2.55974">
        <ele>574.044</ele>
        <time>2009-01-30T20:12:20Z</time>
      </trkpt>
      <trkpt lat="44.34424" lon="2.55972">
        <ele>574.044</ele>
        <time>2009-01-30T20:12:21Z</time>
      </trkpt>
      <trkpt lat="44.34426" lon="2.55969">
        <ele>574.044</ele>
        <time>2009-01-30T20:12:22Z</time>
      </trkpt>
      <trkpt lat="44.34427" lon="2.55966">
        <ele>574.044</ele>
        <time>2009-01-30T20:12:23Z</time>
      </trkpt>
      <trkpt lat="44.34428" lon="2.55963">
        <ele>574.044</ele>
        <time>2009-01-30T20:12:24Z</time>
      </trkpt>
      <trkpt lat="44.3443" lon="2.5596">
        <ele>574.044</ele>
        <time>2009-01-30T20:12:25Z</time>
      </trkpt>
      <trkpt lat="44.34431" lon="2.55957">
        <ele>574.044</ele>
        <time>2009-01-30T20:12:26Z</time>
      </trkpt>
      <trkpt lat="44.34432" lon="2.55954">
        <ele>574.044</ele>
        <time>2009-01-30T20:12:27Z</time>
      </trkpt>
      <trkpt lat="44.34433" lon="2.55951">
        <ele>573.564</ele>
        <time>2009-01-30T20:12:28Z</time>
      </trkpt>
      <trkpt lat="44.34434" lon="2.55948">
        <ele>573.564</ele>
        <time>2009-01-30T20:12:29Z</time>
      </trkpt>
      <trkpt lat="44.34435" lon="2.55945">
        <ele>573.564</ele>
        <time>2009-01-30T20:12:30Z</time>
      </trkpt>
      <trkpt lat="44.34436" lon="2.55942">
        <ele>573.564</ele>
        <time>2009-01-30T20:12:31Z</time>
      </trkpt>
      <trkpt lat="44.34438" lon="2.55939">
        <ele>573.564</ele>
        <time>2009-01-30T20:12:32Z</time>
      </trkpt>
      <trkpt lat="44.34439" lon="2.55936">
        <ele>573.564</ele>
        <time>2009-01-30T20:12:33Z</time>
      </trkpt>
      <trkpt lat="44.3444" lon="2.55933">
        <ele>573.564</ele>
        <time>2009-01-30T20:12:34Z</time>
      </trkpt>
      <trkpt lat="44.34441" lon="2.5593">
        <ele>573.564</ele>
        <time>2009-01-30T20:12:35Z</time>
      </trkpt>
      <trkpt lat="44.34442" lon="2.55927">
        <ele>574.044</ele>
        <time>2009-01-30T20:12:36Z</time>
      </trkpt>
      <trkpt lat="44.34443" lon="2.55924">
        <ele>573.564</ele>
        <time>2009-01-30T20:12:37Z</time>
      </trkpt>
      <trkpt lat="44.34444" lon="2.55921">
        <ele>574.044</ele>
        <time>2009-01-30T20:12:38Z</time>
      </trkpt>
      <trkpt lat="44.34446" lon="2.55919">
        <ele>574.044</ele>
        <time>2009-01-30T20:12:39Z</time>
      </trkpt>
      <trkpt lat="44.34447" lon="2.55916">
        <ele>574.044</ele>
        <time>2009-01-30T20:12:40Z</time>
      </trkpt>
      <trkpt lat="44.34448" lon="2.55913">
        <ele>574.044</ele>
        <time>2009-01-30T20:12:41Z</time>
      </trkpt>
      <trkpt lat="44.3445" lon="2.55911">
        <ele>574.525</ele>
        <time>2009-01-30T20:12:42Z</time>
      </trkpt>
      <trkpt lat="44.34451" lon="2.55908">
        <ele>574.525</ele>
        <time>2009-01-30T20:12:43Z</time>
      </trkpt>
      <trkpt lat="44.34453" lon="2.55906">
        <ele>574.525</ele>
        <time>2009-01-30T20:12:44Z</time>
      </trkpt>
      <trkpt lat="44.34454" lon="2.55904">
        <ele>575.006</ele>
        <time>2009-01-30T20:12:45Z</time>
      </trkpt>
      <trkpt lat="44.34456" lon="2.55901">
        <ele>575.006</ele>
        <time>2009-01-30T20:12:46Z</time>
      </trkpt>
      <trkpt lat="44.34458" lon="2.559">
        <ele>575.006</ele>
        <time>2009-01-30T20:12:47Z</time>
      </trkpt>
      <trkpt lat="44.3446" lon="2.55898">
        <ele>575.486</ele>
        <time>2009-01-30T20:12:48Z</time>
      </trkpt>
      <trkpt lat="44.34462" lon="2.55897">
        <ele>575.486</ele>
        <time>2009-01-30T20:12:49Z</time>
      </trkpt>
      <trkpt lat="44.34464" lon="2.55895">
        <ele>575.486</ele>
        <time>2009-01-30T20:12:50Z</time>
      </trkpt>
      <trkpt lat="44.34466" lon="2.55894">
        <ele>575.486</ele>
        <time>2009-01-30T20:12:51Z</time>
      </trkpt>
      <trkpt lat="44.34468" lon="2.55893">
        <ele>575.967</ele>
        <time>2009-01-30T20:12:52Z</time>
      </trkpt>
      <trkpt lat="44.3447" lon="2.55891">
        <ele>575.967</ele>
        <time>2009-01-30T20:12:53Z</time>
      </trkpt>
      <trkpt lat="44.34472" lon="2.5589">
        <ele>575.967</ele>
        <time>2009-01-30T20:12:54Z</time>
      </trkpt>
      <trkpt lat="44.34474" lon="2.55889">
        <ele>576.448</ele>
        <time>2009-01-30T20:12:55Z</time>
      </trkpt>
      <trkpt lat="44.34476" lon="2.55888">
        <ele>576.448</ele>
        <time>2009-01-30T20:12:56Z</time>
      </trkpt>
      <trkpt lat="44.34478" lon="2.55888">
        <ele>576.928</ele>
        <time>2009-01-30T20:12:57Z</time>
      </trkpt>
      <trkpt lat="44.3448" lon="2.55887">
        <ele>577.409</ele>
        <time>2009-01-30T20:12:58Z</time>
      </trkpt>
      <trkpt lat="44.34482" lon="2.55886">
        <ele>577.409</ele>
        <time>2009-01-30T20:12:59Z</time>
      </trkpt>
      <trkpt lat="44.34484" lon="2.55885">
        <ele>577.89</ele>
        <time>2009-01-30T20:13:00Z</time>
      </trkpt>
      <trkpt lat="44.34486" lon="2.55884">
        <ele>577.89</ele>
        <time>2009-01-30T20:13:01Z</time>
      </trkpt>
      <trkpt lat="44.34488" lon="2.55883">
        <ele>578.37</ele>
        <time>2009-01-30T20:13:02Z</time>
      </trkpt>
      <trkpt lat="44.34491" lon="2.55883">
        <ele>578.851</ele>
        <time>2009-01-30T20:13:03Z</time>
      </trkpt>
      <trkpt lat="44.34493" lon="2.55882">
        <ele>578.851</ele>
        <time>2009-01-30T20:13:04Z</time>
      </trkpt>
      <trkpt lat="44.34495" lon="2.5588">
        <ele>578.851</ele>
        <time>2009-01-30T20:13:05Z</time>
      </trkpt>
      <trkpt lat="44.34497" lon="2.55879">
        <ele>579.332</ele>
        <time>2009-01-30T20:13:06Z</time>
      </trkpt>
      <trkpt lat="44.34499" lon="2.55878">
        <ele>579.332</ele>
        <time>2009-01-30T20:13:07Z</time>
      </trkpt>
      <trkpt lat="44.34501" lon="2.55877">
        <ele>579.332</ele>
        <time>2009-01-30T20:13:08Z</time>
      </trkpt>
      <trkpt lat="44.34503" lon="2.55875">
        <ele>579.812</ele>
        <time>2009-01-30T20:13:09Z</time>
      </trkpt>
      <trkpt lat="44.34505" lon="2.55874">
        <ele>579.812</ele>
        <time>2009-01-30T20:13:10Z</time>
      </trkpt>
      <trkpt lat="44.34507" lon="2.55873">
        <ele>579.812</ele>
        <time>2009-01-30T20:13:11Z</time>
      </trkpt>
      <trkpt lat="44.34509" lon="2.55871">
        <ele>580.293</ele>
        <time>2009-01-30T20:13:12Z</time>
      </trkpt>
      <trkpt lat="44.34511" lon="2.5587">
        <ele>580.293</ele>
        <time>2009-01-30T20:13:13Z</time>
      </trkpt>
      <trkpt lat="44.34512" lon="2.55868">
        <ele>580.293</ele>
        <time>2009-01-30T20:13:14Z</time>
      </trkpt>
      <trkpt lat="44.34514" lon="2.55866">
        <ele>580.774</ele>
        <time>2009-01-30T20:13:15Z</time>
      </trkpt>
      <trkpt lat="44.34516" lon="2.55864">
        <ele>580.774</ele>
        <time>2009-01-30T20:13:16Z</time>
      </trkpt>
      <trkpt lat="44.34517" lon="2.55861">
        <ele>580.774</ele>
        <time>2009-01-30T20:13:17Z</time>
      </trkpt>
      <trkpt lat="44.34519" lon="2.55859">
        <ele>581.254</ele>
        <time>2009-01-30T20:13:18Z</time>
      </trkpt>
      <trkpt lat="44.3452" lon="2.55857">
        <ele>581.254</ele>
        <time>2009-01-30T20:13:19Z</time>
      </trkpt>
      <trkpt lat="44.34522" lon="2.55854">
        <ele>581.735</ele>
        <time>2009-01-30T20:13:20Z</time>
      </trkpt>
      <trkpt lat="44.34523" lon="2.55852">
        <ele>581.735</ele>
        <time>2009-01-30T20:13:21Z</time>
      </trkpt>
      <trkpt lat="44.34524" lon="2.55849">
        <ele>582.216</ele>
        <time>2009-01-30T20:13:22Z</time>
      </trkpt>
      <trkpt lat="44.34525" lon="2.55847">
        <ele>582.216</ele>
        <time>2009-01-30T20:13:23Z</time>
      </trkpt>
      <trkpt lat="44.34527" lon="2.55844">
        <ele>582.696</ele>
        <time>2009-01-30T20:13:24Z</time>
      </trkpt>
      <trkpt lat="44.34528" lon="2.55841">
        <ele>583.177</ele>
        <time>2009-01-30T20:13:25Z</time>
      </trkpt>
      <trkpt lat="44.34529" lon="2.55839">
        <ele>583.177</ele>
        <time>2009-01-30T20:13:26Z</time>
      </trkpt>
      <trkpt lat="44.3453" lon="2.55836">
        <ele>583.177</ele>
        <time>2009-01-30T20:13:27Z</time>
      </trkpt>
      <trkpt lat="44.34531" lon="2.55834">
        <ele>583.657</ele>
        <time>2009-01-30T20:13:28Z</time>
      </trkpt>
      <trkpt lat="44.34532" lon="2.55831">
        <ele>583.657</ele>
        <time>2009-01-30T20:13:29Z</time>
      </trkpt>
      <trkpt lat="44.34533" lon="2.55829">
        <ele>583.657</ele>
        <time>2009-01-30T20:13:30Z</time>
      </trkpt>
      <trkpt lat="44.34534" lon="2.55826">
        <ele>584.138</ele>
        <time>2009-01-30T20:13:31Z</time>
      </trkpt>
      <trkpt lat="44.34535" lon="2.55823">
        <ele>584.138</ele>
        <time>2009-01-30T20:13:32Z</time>
      </trkpt>
      <trkpt lat="44.34535" lon="2.5582">
        <ele>584.619</ele>
        <time>2009-01-30T20:13:33Z</time>
      </trkpt>
      <trkpt lat="44.34534" lon="2.55818">
        <ele>584.619</ele>
        <time>2009-01-30T20:13:34Z</time>
      </trkpt>
      <trkpt lat="44.34532" lon="2.55816">
        <ele>584.619</ele>
        <time>2009-01-30T20:13:35Z</time>
      </trkpt>
      <trkpt lat="44.3453" lon="2.55816">
        <ele>584.619</ele>
        <time>2009-01-30T20:13:36Z</time>
      </trkpt>
      <trkpt lat="44.34527" lon="2.55817">
        <ele>584.138</ele>
        <time>2009-01-30T20:13:37Z</time>
      </trkpt>
      <trkpt lat="44.34525" lon="2.55818">
        <ele>584.138</ele>
        <time>2009-01-30T20:13:38Z</time>
      </trkpt>
      <trkpt lat="44.34524" lon="2.55819">
        <ele>584.138</ele>
        <time>2009-01-30T20:13:39Z</time>
      </trkpt>
      <trkpt lat="44.34522" lon="2.5582">
        <ele>583.657</ele>
        <time>2009-01-30T20:13:40Z</time>
      </trkpt>
      <trkpt lat="44.3452" lon="2.55821">
        <ele>584.138</ele>
        <time>2009-01-30T20:13:41Z</time>
      </trkpt>
      <trkpt lat="44.34519" lon="2.55822">
        <ele>583.657</ele>
        <time>2009-01-30T20:13:42Z</time>
      </trkpt>
      <trkpt lat="44.34517" lon="2.55823">
        <ele>583.657</ele>
        <time>2009-01-30T20:13:43Z</time>
      </trkpt>
      <trkpt lat="44.34515" lon="2.55824">
        <ele>583.657</ele>
        <time>2009-01-30T20:13:44Z</time>
      </trkpt>
      <trkpt lat="44.34514" lon="2.55825">
        <ele>583.177</ele>
        <time>2009-01-30T20:13:45Z</time>
      </trkpt>
      <trkpt lat="44.34512" lon="2.55827">
        <ele>583.177</ele>
        <time>2009-01-30T20:13:46Z</time>
      </trkpt>
      <trkpt lat="44.3451" lon="2.55828">
        <ele>583.177</ele>
        <time>2009-01-30T20:13:47Z</time>
      </trkpt>
      <trkpt lat="44.34509" lon="2.55829">
        <ele>583.657</ele>
        <time>2009-01-30T20:13:48Z</time>
      </trkpt>
      <trkpt lat="44.34507" lon="2.55829">
        <ele>583.657</ele>
        <time>2009-01-30T20:13:49Z</time>
      </trkpt>
      <trkpt lat="44.34505" lon="2.5583">
        <ele>584.138</ele>
        <time>2009-01-30T20:13:50Z</time>
      </trkpt>
      <trkpt lat="44.34503" lon="2.55832">
        <ele>584.138</ele>
        <time>2009-01-30T20:13:51Z</time>
      </trkpt>
      <trkpt lat="44.34501" lon="2.55832">
        <ele>584.619</ele>
        <time>2009-01-30T20:13:52Z</time>
      </trkpt>
      <trkpt lat="44.345" lon="2.55833">
        <ele>584.619</ele>
        <time>2009-01-30T20:13:53Z</time>
      </trkpt>
      <trkpt lat="44.34498" lon="2.55834">
        <ele>584.619</ele>
        <time>2009-01-30T20:13:54Z</time>
      </trkpt>
      <trkpt lat="44.34496" lon="2.55834">
        <ele>585.1</ele>
        <time>2009-01-30T20:13:55Z</time>
      </trkpt>
      <trkpt lat="44.34494" lon="2.55835">
        <ele>585.1</ele>
        <time>2009-01-30T20:13:56Z</time>
      </trkpt>
      <trkpt lat="44.34493" lon="2.55835">
        <ele>585.58</ele>
        <time>2009-01-30T20:13:57Z</time>
      </trkpt>
      <trkpt lat="44.34491" lon="2.55836">
        <ele>585.58</ele>
        <time>2009-01-30T20:13:58Z</time>
      </trkpt>
      <trkpt lat="44.34489" lon="2.55836">
        <ele>585.58</ele>
        <time>2009-01-30T20:13:59Z</time>
      </trkpt>
      <trkpt lat="44.34487" lon="2.55836">
        <ele>585.58</ele>
        <time>2009-01-30T20:14:00Z</time>
      </trkpt>
      <trkpt lat="44.34485" lon="2.55837">
        <ele>585.58</ele>
        <time>2009-01-30T20:14:01Z</time>
      </trkpt>
      <trkpt lat="44.34484" lon="2.55837">
        <ele>585.58</ele>
        <time>2009-01-30T20:14:02Z</time>
      </trkpt>
      <trkpt lat="44.34482" lon="2.55837">
        <ele>585.1</ele>
        <time>2009-01-30T20:14:03Z</time>
      </trkpt>
      <trkpt lat="44.3448" lon="2.55838">
        <ele>585.58</ele>
        <time>2009-01-30T20:14:04Z</time>
      </trkpt>
      <trkpt lat="44.34478" lon="2.55838">
        <ele>586.061</ele>
        <time>2009-01-30T20:14:05Z</time>
      </trkpt>
      <trkpt lat="44.34477" lon="2.55838">
        <ele>586.542</ele>
        <time>2009-01-30T20:14:06Z</time>
      </trkpt>
      <trkpt lat="44.34475" lon="2.55839">
        <ele>586.542</ele>
        <time>2009-01-30T20:14:07Z</time>
      </trkpt>
      <trkpt lat="44.34473" lon="2.55839">
        <ele>587.022</ele>
        <time>2009-01-30T20:14:08Z</time>
      </trkpt>
      <trkpt lat="44.34471" lon="2.55839">
        <ele>587.503</ele>
        <time>2009-01-30T20:14:09Z</time>
      </trkpt>
      <trkpt lat="44.34469" lon="2.55839">
        <ele>587.983</ele>
        <time>2009-01-30T20:14:10Z</time>
      </trkpt>
      <trkpt lat="44.34467" lon="2.55839">
        <ele>587.983</ele>
        <time>2009-01-30T20:14:11Z</time>
      </trkpt>
      <trkpt lat="44.34465" lon="2.55839">
        <ele>588.464</ele>
        <time>2009-01-30T20:14:12Z</time>
      </trkpt>
      <trkpt lat="44.34462" lon="2.55839">
        <ele>588.945</ele>
        <time>2009-01-30T20:14:13Z</time>
      </trkpt>
      <trkpt lat="44.3446" lon="2.55839">
        <ele>589.426</ele>
        <time>2009-01-30T20:14:14Z</time>
      </trkpt>
      <trkpt lat="44.34458" lon="2.55839">
        <ele>589.426</ele>
        <time>2009-01-30T20:14:15Z</time>
      </trkpt>
      <trkpt lat="44.34456" lon="2.55839">
        <ele>589.906</ele>
        <time>2009-01-30T20:14:16Z</time>
      </trkpt>
      <trkpt lat="44.34454" lon="2.55839">
        <ele>589.906</ele>
        <time>2009-01-30T20:14:17Z</time>
      </trkpt>
      <trkpt lat="44.34452" lon="2.55839">
        <ele>590.387</ele>
        <time>2009-01-30T20:14:18Z</time>
      </trkpt>
      <trkpt lat="44.3445" lon="2.55838">
        <ele>590.387</ele>
        <time>2009-01-30T20:14:19Z</time>
      </trkpt>
      <trkpt lat="44.34448" lon="2.55838">
        <ele>590.387</ele>
        <time>2009-01-30T20:14:20Z</time>
      </trkpt>
      <trkpt lat="44.34446" lon="2.55837">
        <ele>590.387</ele>
        <time>2009-01-30T20:14:21Z</time>
      </trkpt>
      <trkpt lat="44.34445" lon="2.55836">
        <ele>590.387</ele>
        <time>2009-01-30T20:14:22Z</time>
      </trkpt>
      <trkpt lat="44.34443" lon="2.55835">
        <ele>590.867</ele>
        <time>2009-01-30T20:14:23Z</time>
      </trkpt>
      <trkpt lat="44.34441" lon="2.55834">
        <ele>590.867</ele>
        <time>2009-01-30T20:14:24Z</time>
      </trkpt>
      <trkpt lat="44.34439" lon="2.55833">
        <ele>590.867</ele>
        <time>2009-01-30T20:14:25Z</time>
      </trkpt>
      <trkpt lat="44.34438" lon="2.55832">
        <ele>590.867</ele>
        <time>2009-01-30T20:14:26Z</time>
      </trkpt>
      <trkpt lat="44.34436" lon="2.5583">
        <ele>590.867</ele>
        <time>2009-01-30T20:14:27Z</time>
      </trkpt>
      <trkpt lat="44.34434" lon="2.55828">
        <ele>591.348</ele>
        <time>2009-01-30T20:14:28Z</time>
      </trkpt>
      <trkpt lat="44.34432" lon="2.55827">
        <ele>591.348</ele>
        <time>2009-01-30T20:14:29Z</time>
      </trkpt>
      <trkpt lat="44.34431" lon="2.55825">
        <ele>591.348</ele>
        <time>2009-01-30T20:14:30Z</time>
      </trkpt>
      <trkpt lat="44.34429" lon="2.55823">
        <ele>591.348</ele>
        <time>2009-01-30T20:14:31Z</time>
      </trkpt>
      <trkpt lat="44.34427" lon="2.55822">
        <ele>591.348</ele>
        <time>2009-01-30T20:14:32Z</time>
      </trkpt>
      <trkpt lat="44.34426" lon="2.5582">
        <ele>591.348</ele>
        <time>2009-01-30T20:14:33Z</time>
      </trkpt>
      <trkpt lat="44.34424" lon="2.55819">
        <ele>591.348</ele>
        <time>2009-01-30T20:14:34Z</time>
      </trkpt>
      <trkpt lat="44.34422" lon="2.55817">
        <ele>591.348</ele>
        <time>2009-01-30T20:14:35Z</time>
      </trkpt>
      <trkpt lat="44.3442" lon="2.55815">
        <ele>590.867</ele>
        <time>2009-01-30T20:14:36Z</time>
      </trkpt>
      <trkpt lat="44.34419" lon="2.55814">
        <ele>590.867</ele>
        <time>2009-01-30T20:14:37Z</time>
      </trkpt>
      <trkpt lat="44.34417" lon="2.55812">
        <ele>590.867</ele>
        <time>2009-01-30T20:14:38Z</time>
      </trkpt>
      <trkpt lat="44.34414" lon="2.55809">
        <ele>592.31</ele>
        <time>2009-01-30T20:14:39Z</time>
      </trkpt>
      <trkpt lat="44.34412" lon="2.55807">
        <ele>592.31</ele>
        <time>2009-01-30T20:14:40Z</time>
      </trkpt>
      <trkpt lat="44.3441" lon="2.55806">
        <ele>592.31</ele>
        <time>2009-01-30T20:14:41Z</time>
      </trkpt>
      <trkpt lat="44.34409" lon="2.55804">
        <ele>591.829</ele>
        <time>2009-01-30T20:14:42Z</time>
      </trkpt>
      <trkpt lat="44.34407" lon="2.55803">
        <ele>591.829</ele>
        <time>2009-01-30T20:14:43Z</time>
      </trkpt>
      <trkpt lat="44.34405" lon="2.55801">
        <ele>591.348</ele>
        <time>2009-01-30T20:14:44Z</time>
      </trkpt>
      <trkpt lat="44.34402" lon="2.55799">
        <ele>592.31</ele>
        <time>2009-01-30T20:14:45Z</time>
      </trkpt>
      <trkpt lat="44.344" lon="2.55796">
        <ele>592.79</ele>
        <time>2009-01-30T20:14:46Z</time>
      </trkpt>
      <trkpt lat="44.34397" lon="2.55793">
        <ele>593.751</ele>
        <time>2009-01-30T20:14:47Z</time>
      </trkpt>
      <trkpt lat="44.34395" lon="2.55791">
        <ele>594.713</ele>
        <time>2009-01-30T20:14:48Z</time>
      </trkpt>
      <trkpt lat="44.34392" lon="2.55788">
        <ele>596.155</ele>
        <time>2009-01-30T20:14:49Z</time>
      </trkpt>
      <trkpt lat="44.34389" lon="2.55788">
        <ele>595.674</ele>
        <time>2009-01-30T20:14:50Z</time>
      </trkpt>
      <trkpt lat="44.34387" lon="2.55788">
        <ele>595.674</ele>
        <time>2009-01-30T20:14:51Z</time>
      </trkpt>
      <trkpt lat="44.34385" lon="2.55787">
        <ele>595.193</ele>
        <time>2009-01-30T20:14:52Z</time>
      </trkpt>
      <trkpt lat="44.34383" lon="2.55787">
        <ele>595.193</ele>
        <time>2009-01-30T20:14:53Z</time>
      </trkpt>
      <trkpt lat="44.34381" lon="2.55788">
        <ele>595.193</ele>
        <time>2009-01-30T20:14:54Z</time>
      </trkpt>
      <trkpt lat="44.3438" lon="2.5579">
        <ele>594.713</ele>
        <time>2009-01-30T20:14:55Z</time>
      </trkpt>
      <trkpt lat="44.3438" lon="2.55793">
        <ele>594.232</ele>
        <time>2009-01-30T20:14:56Z</time>
      </trkpt>
      <trkpt lat="44.34379" lon="2.55796">
        <ele>593.271</ele>
        <time>2009-01-30T20:14:57Z</time>
      </trkpt>
      <trkpt lat="44.34378" lon="2.55797">
        <ele>593.271</ele>
        <time>2009-01-30T20:14:58Z</time>
      </trkpt>
      <trkpt lat="44.34377" lon="2.55797">
        <ele>593.271</ele>
        <time>2009-01-30T20:14:59Z</time>
      </trkpt>
      <trkpt lat="44.34375" lon="2.55797">
        <ele>592.79</ele>
        <time>2009-01-30T20:15:00Z</time>
      </trkpt>
      <trkpt lat="44.34373" lon="2.55797">
        <ele>592.31</ele>
        <time>2009-01-30T20:15:01Z</time>
      </trkpt>
      <trkpt lat="44.3437" lon="2.55796">
        <ele>592.31</ele>
        <time>2009-01-30T20:15:02Z</time>
      </trkpt>
      <trkpt lat="44.34367" lon="2.55794">
        <ele>592.79</ele>
        <time>2009-01-30T20:15:03Z</time>
      </trkpt>
      <trkpt lat="44.34365" lon="2.55793">
        <ele>593.751</ele>
        <time>2009-01-30T20:15:04Z</time>
      </trkpt>
      <trkpt lat="44.34362" lon="2.55791">
        <ele>594.232</ele>
        <time>2009-01-30T20:15:05Z</time>
      </trkpt>
      <trkpt lat="44.3436" lon="2.5579">
        <ele>594.232</ele>
        <time>2009-01-30T20:15:06Z</time>
      </trkpt>
      <trkpt lat="44.34357" lon="2.55788">
        <ele>594.713</ele>
        <time>2009-01-30T20:15:07Z</time>
      </trkpt>
      <trkpt lat="44.34355" lon="2.55787">
        <ele>595.193</ele>
        <time>2009-01-30T20:15:08Z</time>
      </trkpt>
      <trkpt lat="44.34352" lon="2.55786">
        <ele>595.674</ele>
        <time>2009-01-30T20:15:09Z</time>
      </trkpt>
      <trkpt lat="44.3435" lon="2.55785">
        <ele>596.155</ele>
        <time>2009-01-30T20:15:10Z</time>
      </trkpt>
      <trkpt lat="44.34348" lon="2.55783">
        <ele>596.155</ele>
        <time>2009-01-30T20:15:11Z</time>
      </trkpt>
      <trkpt lat="44.34345" lon="2.55782">
        <ele>596.155</ele>
        <time>2009-01-30T20:15:12Z</time>
      </trkpt>
      <trkpt lat="44.34342" lon="2.55782">
        <ele>596.155</ele>
        <time>2009-01-30T20:15:13Z</time>
      </trkpt>
      <trkpt lat="44.3434" lon="2.55783">
        <ele>596.155</ele>
        <time>2009-01-30T20:15:14Z</time>
      </trkpt>
      <trkpt lat="44.34337" lon="2.55784">
        <ele>596.635</ele>
        <time>2009-01-30T20:15:15Z</time>
      </trkpt>
      <trkpt lat="44.34335" lon="2.55785">
        <ele>596.635</ele>
        <time>2009-01-30T20:15:16Z</time>
      </trkpt>
      <trkpt lat="44.34333" lon="2.55788">
        <ele>596.635</ele>
        <time>2009-01-30T20:15:17Z</time>
      </trkpt>
      <trkpt lat="44.34333" lon="2.55792">
        <ele>596.635</ele>
        <time>2009-01-30T20:15:18Z</time>
      </trkpt>
      <trkpt lat="44.34333" lon="2.55796">
        <ele>595.674</ele>
        <time>2009-01-30T20:15:19Z</time>
      </trkpt>
      <trkpt lat="44.34333" lon="2.55799">
        <ele>595.193</ele>
        <time>2009-01-30T20:15:20Z</time>
      </trkpt>
      <trkpt lat="44.34333" lon="2.55803">
        <ele>595.193</ele>
        <time>2009-01-30T20:15:21Z</time>
      </trkpt>
      <trkpt lat="44.34333" lon="2.55806">
        <ele>594.232</ele>
        <time>2009-01-30T20:15:22Z</time>
      </trkpt>
      <trkpt lat="44.34334" lon="2.5581">
        <ele>593.751</ele>
        <time>2009-01-30T20:15:23Z</time>
      </trkpt>
      <trkpt lat="44.34334" lon="2.55813">
        <ele>593.271</ele>
        <time>2009-01-30T20:15:24Z</time>
      </trkpt>
      <trkpt lat="44.34334" lon="2.55817">
        <ele>593.271</ele>
        <time>2009-01-30T20:15:25Z</time>
      </trkpt>
      <trkpt lat="44.34334" lon="2.5582">
        <ele>592.31</ele>
        <time>2009-01-30T20:15:26Z</time>
      </trkpt>
      <trkpt lat="44.34334" lon="2.55823">
        <ele>592.31</ele>
        <time>2009-01-30T20:15:27Z</time>
      </trkpt>
      <trkpt lat="44.34333" lon="2.55826">
        <ele>591.829</ele>
        <time>2009-01-30T20:15:28Z</time>
      </trkpt>
      <trkpt lat="44.34332" lon="2.55829">
        <ele>591.348</ele>
        <time>2009-01-30T20:15:29Z</time>
      </trkpt>
      <trkpt lat="44.34331" lon="2.55832">
        <ele>591.348</ele>
        <time>2009-01-30T20:15:30Z</time>
      </trkpt>
      <trkpt lat="44.3433" lon="2.55834">
        <ele>591.348</ele>
        <time>2009-01-30T20:15:31Z</time>
      </trkpt>
      <trkpt lat="44.34329" lon="2.55836">
        <ele>591.348</ele>
        <time>2009-01-30T20:15:32Z</time>
      </trkpt>
      <trkpt lat="44.34328" lon="2.55837">
        <ele>591.348</ele>
        <time>2009-01-30T20:15:33Z</time>
      </trkpt>
      <trkpt lat="44.34328" lon="2.55839">
        <ele>591.348</ele>
        <time>2009-01-30T20:15:34Z</time>
      </trkpt>
      <trkpt lat="44.34327" lon="2.55839">
        <ele>591.348</ele>
        <time>2009-01-30T20:15:35Z</time>
      </trkpt>
      <trkpt lat="44.34327" lon="2.5584">
        <ele>591.348</ele>
        <time>2009-01-30T20:15:36Z</time>
      </trkpt>
      <trkpt lat="44.34326" lon="2.55842">
        <ele>591.348</ele>
        <time>2009-01-30T20:15:37Z</time>
      </trkpt>
      <trkpt lat="44.34326" lon="2.55843">
        <ele>590.867</ele>
        <time>2009-01-30T20:15:38Z</time>
      </trkpt>
      <trkpt lat="44.34324" lon="2.55845">
        <ele>590.387</ele>
        <time>2009-01-30T20:15:39Z</time>
      </trkpt>
      <trkpt lat="44.34323" lon="2.55847">
        <ele>590.387</ele>
        <time>2009-01-30T20:15:40Z</time>
      </trkpt>
      <trkpt lat="44.34321" lon="2.55848">
        <ele>590.387</ele>
        <time>2009-01-30T20:15:41Z</time>
      </trkpt>
      <trkpt lat="44.34319" lon="2.5585">
        <ele>589.906</ele>
        <time>2009-01-30T20:15:42Z</time>
      </trkpt>
      <trkpt lat="44.34317" lon="2.55851">
        <ele>589.906</ele>
        <time>2009-01-30T20:15:43Z</time>
      </trkpt>
      <trkpt lat="44.34315" lon="2.55853">
        <ele>588.945</ele>
        <time>2009-01-30T20:15:44Z</time>
      </trkpt>
      <trkpt lat="44.34312" lon="2.55855">
        <ele>588.464</ele>
        <time>2009-01-30T20:15:45Z</time>
      </trkpt>
      <trkpt lat="44.3431" lon="2.55856">
        <ele>587.983</ele>
        <time>2009-01-30T20:15:46Z</time>
      </trkpt>
      <trkpt lat="44.34307" lon="2.55858">
        <ele>587.983</ele>
        <time>2009-01-30T20:15:47Z</time>
      </trkpt>
      <trkpt lat="44.34304" lon="2.55859">
        <ele>587.503</ele>
        <time>2009-01-30T20:15:48Z</time>
      </trkpt>
      <trkpt lat="44.34302" lon="2.55861">
        <ele>587.503</ele>
        <time>2009-01-30T20:15:49Z</time>
      </trkpt>
      <trkpt lat="44.34299" lon="2.55862">
        <ele>587.022</ele>
        <time>2009-01-30T20:15:50Z</time>
      </trkpt>
      <trkpt lat="44.34297" lon="2.55863">
        <ele>587.022</ele>
        <time>2009-01-30T20:15:51Z</time>
      </trkpt>
      <trkpt lat="44.34294" lon="2.55865">
        <ele>587.503</ele>
        <time>2009-01-30T20:15:52Z</time>
      </trkpt>
      <trkpt lat="44.34292" lon="2.55866">
        <ele>587.022</ele>
        <time>2009-01-30T20:15:53Z</time>
      </trkpt>
      <trkpt lat="44.34289" lon="2.55867">
        <ele>587.503</ele>
        <time>2009-01-30T20:15:54Z</time>
      </trkpt>
      <trkpt lat="44.34287" lon="2.55868">
        <ele>587.503</ele>
        <time>2009-01-30T20:15:55Z</time>
      </trkpt>
      <trkpt lat="44.34285" lon="2.55868">
        <ele>587.022</ele>
        <time>2009-01-30T20:15:56Z</time>
      </trkpt>
      <trkpt lat="44.34282" lon="2.55866">
        <ele>587.503</ele>
        <time>2009-01-30T20:15:57Z</time>
      </trkpt>
      <trkpt lat="44.3428" lon="2.55864">
        <ele>587.983</ele>
        <time>2009-01-30T20:15:58Z</time>
      </trkpt>
      <trkpt lat="44.34278" lon="2.55862">
        <ele>587.983</ele>
        <time>2009-01-30T20:15:59Z</time>
      </trkpt>
      <trkpt lat="44.34277" lon="2.5586">
        <ele>588.464</ele>
        <time>2009-01-30T20:16:00Z</time>
      </trkpt>
      <trkpt lat="44.34276" lon="2.55858">
        <ele>588.464</ele>
        <time>2009-01-30T20:16:01Z</time>
      </trkpt>
      <trkpt lat="44.34275" lon="2.55856">
        <ele>587.983</ele>
        <time>2009-01-30T20:16:02Z</time>
      </trkpt>
      <trkpt lat="44.34273" lon="2.55853">
        <ele>587.983</ele>
        <time>2009-01-30T20:16:03Z</time>
      </trkpt>
      <trkpt lat="44.34272" lon="2.55851">
        <ele>588.464</ele>
        <time>2009-01-30T20:16:04Z</time>
      </trkpt>
      <trkpt lat="44.34271" lon="2.55849">
        <ele>588.464</ele>
        <time>2009-01-30T20:16:05Z</time>
      </trkpt>
      <trkpt lat="44.3427" lon="2.55847">
        <ele>588.464</ele>
        <time>2009-01-30T20:16:06Z</time>
      </trkpt>
      <trkpt lat="44.34268" lon="2.55846">
        <ele>588.464</ele>
        <time>2009-01-30T20:16:07Z</time>
      </trkpt>
      <trkpt lat="44.34266" lon="2.55845">
        <ele>587.983</ele>
        <time>2009-01-30T20:16:08Z</time>
      </trkpt>
      <trkpt lat="44.34264" lon="2.55844">
        <ele>587.983</ele>
        <time>2009-01-30T20:16:09Z</time>
      </trkpt>
      <trkpt lat="44.34262" lon="2.55843">
        <ele>587.983</ele>
        <time>2009-01-30T20:16:10Z</time>
      </trkpt>
      <trkpt lat="44.3426" lon="2.55842">
        <ele>587.983</ele>
        <time>2009-01-30T20:16:11Z</time>
      </trkpt>
      <trkpt lat="44.34258" lon="2.55841">
        <ele>587.983</ele>
        <time>2009-01-30T20:16:12Z</time>
      </trkpt>
      <trkpt lat="44.34255" lon="2.55841">
        <ele>588.464</ele>
        <time>2009-01-30T20:16:13Z</time>
      </trkpt>
      <trkpt lat="44.34253" lon="2.5584">
        <ele>588.945</ele>
        <time>2009-01-30T20:16:14Z</time>
      </trkpt>
      <trkpt lat="44.34251" lon="2.55841">
        <ele>588.945</ele>
        <time>2009-01-30T20:16:15Z</time>
      </trkpt>
      <trkpt lat="44.34249" lon="2.55843">
        <ele>588.945</ele>
        <time>2009-01-30T20:16:16Z</time>
      </trkpt>
      <trkpt lat="44.34247" lon="2.55844">
        <ele>589.426</ele>
        <time>2009-01-30T20:16:17Z</time>
      </trkpt>
      <trkpt lat="44.34245" lon="2.55845">
        <ele>589.426</ele>
        <time>2009-01-30T20:16:18Z</time>
      </trkpt>
      <trkpt lat="44.34243" lon="2.55846">
        <ele>589.906</ele>
        <time>2009-01-30T20:16:19Z</time>
      </trkpt>
      <trkpt lat="44.34242" lon="2.55847">
        <ele>589.906</ele>
        <time>2009-01-30T20:16:20Z</time>
      </trkpt>
      <trkpt lat="44.34241" lon="2.55849">
        <ele>589.906</ele>
        <time>2009-01-30T20:16:21Z</time>
      </trkpt>
      <trkpt lat="44.3424" lon="2.55852">
        <ele>590.387</ele>
        <time>2009-01-30T20:16:22Z</time>
      </trkpt>
      <trkpt lat="44.34239" lon="2.55855">
        <ele>590.387</ele>
        <time>2009-01-30T20:16:23Z</time>
      </trkpt>
      <trkpt lat="44.34239" lon="2.55858">
        <ele>590.387</ele>
        <time>2009-01-30T20:16:24Z</time>
      </trkpt>
      <trkpt lat="44.34238" lon="2.55861">
        <ele>590.387</ele>
        <time>2009-01-30T20:16:25Z</time>
      </trkpt>
      <trkpt lat="44.34237" lon="2.55863">
        <ele>590.867</ele>
        <time>2009-01-30T20:16:26Z</time>
      </trkpt>
      <trkpt lat="44.34236" lon="2.55867">
        <ele>590.867</ele>
        <time>2009-01-30T20:16:27Z</time>
      </trkpt>
      <trkpt lat="44.34235" lon="2.5587">
        <ele>590.867</ele>
        <time>2009-01-30T20:16:28Z</time>
      </trkpt>
      <trkpt lat="44.34234" lon="2.55873">
        <ele>590.867</ele>
        <time>2009-01-30T20:16:29Z</time>
      </trkpt>
      <trkpt lat="44.34234" lon="2.55876">
        <ele>590.867</ele>
        <time>2009-01-30T20:16:30Z</time>
      </trkpt>
      <trkpt lat="44.34233" lon="2.55879">
        <ele>590.867</ele>
        <time>2009-01-30T20:16:31Z</time>
      </trkpt>
      <trkpt lat="44.34233" lon="2.55882">
        <ele>590.867</ele>
        <time>2009-01-30T20:16:32Z</time>
      </trkpt>
      <trkpt lat="44.34232" lon="2.55885">
        <ele>590.867</ele>
        <time>2009-01-30T20:16:33Z</time>
      </trkpt>
      <trkpt lat="44.34231" lon="2.55888">
        <ele>591.348</ele>
        <time>2009-01-30T20:16:34Z</time>
      </trkpt>
      <trkpt lat="44.34231" lon="2.55891">
        <ele>591.348</ele>
        <time>2009-01-30T20:16:35Z</time>
      </trkpt>
      <trkpt lat="44.3423" lon="2.55894">
        <ele>591.348</ele>
        <time>2009-01-30T20:16:36Z</time>
      </trkpt>
      <trkpt lat="44.34229" lon="2.55897">
        <ele>590.867</ele>
        <time>2009-01-30T20:16:37Z</time>
      </trkpt>
      <trkpt lat="44.34228" lon="2.559">
        <ele>591.348</ele>
        <time>2009-01-30T20:16:38Z</time>
      </trkpt>
      <trkpt lat="44.34227" lon="2.55903">
        <ele>591.348</ele>
        <time>2009-01-30T20:16:39Z</time>
      </trkpt>
      <trkpt lat="44.34226" lon="2.55907">
        <ele>591.348</ele>
        <time>2009-01-30T20:16:40Z</time>
      </trkpt>
      <trkpt lat="44.34225" lon="2.5591">
        <ele>591.348</ele>
        <time>2009-01-30T20:16:41Z</time>
      </trkpt>
      <trkpt lat="44.34224" lon="2.55913">
        <ele>591.348</ele>
        <time>2009-01-30T20:16:42Z</time>
      </trkpt>
      <trkpt lat="44.34223" lon="2.55915">
        <ele>590.867</ele>
        <time>2009-01-30T20:16:43Z</time>
      </trkpt>
      <trkpt lat="44.34221" lon="2.55918">
        <ele>591.348</ele>
        <time>2009-01-30T20:16:44Z</time>
      </trkpt>
      <trkpt lat="44.34219" lon="2.5592">
        <ele>591.829</ele>
        <time>2009-01-30T20:16:45Z</time>
      </trkpt>
      <trkpt lat="44.34218" lon="2.5592">
        <ele>590.867</ele>
        <time>2009-01-30T20:16:46Z</time>
      </trkpt>
      <trkpt lat="44.34216" lon="2.5592">
        <ele>590.867</ele>
        <time>2009-01-30T20:16:47Z</time>
      </trkpt>
      <trkpt lat="44.34214" lon="2.55922">
        <ele>590.867</ele>
        <time>2009-01-30T20:16:48Z</time>
      </trkpt>
      <trkpt lat="44.34212" lon="2.55923">
        <ele>590.387</ele>
        <time>2009-01-30T20:16:49Z</time>
      </trkpt>
      <trkpt lat="44.3421" lon="2.55925">
        <ele>590.387</ele>
        <time>2009-01-30T20:16:50Z</time>
      </trkpt>
      <trkpt lat="44.34209" lon="2.55927">
        <ele>589.426</ele>
        <time>2009-01-30T20:16:51Z</time>
      </trkpt>
      <trkpt lat="44.34208" lon="2.55928">
        <ele>589.906</ele>
        <time>2009-01-30T20:16:52Z</time>
      </trkpt>
      <trkpt lat="44.34206" lon="2.55931">
        <ele>590.867</ele>
        <time>2009-01-30T20:16:53Z</time>
      </trkpt>
      <trkpt lat="44.34204" lon="2.55932">
        <ele>589.906</ele>
        <time>2009-01-30T20:16:54Z</time>
      </trkpt>
      <trkpt lat="44.34202" lon="2.55934">
        <ele>590.867</ele>
        <time>2009-01-30T20:16:55Z</time>
      </trkpt>
      <trkpt lat="44.34201" lon="2.55936">
        <ele>591.829</ele>
        <time>2009-01-30T20:16:56Z</time>
      </trkpt>
      <trkpt lat="44.34199" lon="2.55938">
        <ele>591.829</ele>
        <time>2009-01-30T20:16:57Z</time>
      </trkpt>
      <trkpt lat="44.34198" lon="2.5594">
        <ele>592.31</ele>
        <time>2009-01-30T20:16:58Z</time>
      </trkpt>
      <trkpt lat="44.34196" lon="2.55942">
        <ele>592.79</ele>
        <time>2009-01-30T20:16:59Z</time>
      </trkpt>
      <trkpt lat="44.34194" lon="2.55944">
        <ele>593.271</ele>
        <time>2009-01-30T20:17:00Z</time>
      </trkpt>
      <trkpt lat="44.34193" lon="2.55947">
        <ele>594.232</ele>
        <time>2009-01-30T20:17:01Z</time>
      </trkpt>
      <trkpt lat="44.3419" lon="2.55949">
        <ele>595.674</ele>
        <time>2009-01-30T20:17:02Z</time>
      </trkpt>
      <trkpt lat="44.34188" lon="2.55951">
        <ele>597.116</ele>
        <time>2009-01-30T20:17:03Z</time>
      </trkpt>
      <trkpt lat="44.34187" lon="2.55953">
        <ele>597.597</ele>
        <time>2009-01-30T20:17:04Z</time>
      </trkpt>
      <trkpt lat="44.34185" lon="2.55955">
        <ele>597.597</ele>
        <time>2009-01-30T20:17:05Z</time>
      </trkpt>
      <trkpt lat="44.34183" lon="2.55957">
        <ele>598.558</ele>
        <time>2009-01-30T20:17:06Z</time>
      </trkpt>
      <trkpt lat="44.34181" lon="2.5596">
        <ele>598.558</ele>
        <time>2009-01-30T20:17:07Z</time>
      </trkpt>
      <trkpt lat="44.3418" lon="2.55962">
        <ele>599.039</ele>
        <time>2009-01-30T20:17:08Z</time>
      </trkpt>
      <trkpt lat="44.34179" lon="2.55965">
        <ele>599.039</ele>
        <time>2009-01-30T20:17:09Z</time>
      </trkpt>
      <trkpt lat="44.34178" lon="2.55968">
        <ele>599.039</ele>
        <time>2009-01-30T20:17:10Z</time>
      </trkpt>
      <trkpt lat="44.34177" lon="2.55971">
        <ele>599.519</ele>
        <time>2009-01-30T20:17:11Z</time>
      </trkpt>
      <trkpt lat="44.34175" lon="2.55974">
        <ele>599.519</ele>
        <time>2009-01-30T20:17:12Z</time>
      </trkpt>
      <trkpt lat="44.34174" lon="2.55977">
        <ele>599.519</ele>
        <time>2009-01-30T20:17:13Z</time>
      </trkpt>
      <trkpt lat="44.34173" lon="2.55979">
        <ele>599.039</ele>
        <time>2009-01-30T20:17:14Z</time>
      </trkpt>
      <trkpt lat="44.34171" lon="2.55982">
        <ele>599.039</ele>
        <time>2009-01-30T20:17:15Z</time>
      </trkpt>
      <trkpt lat="44.3417" lon="2.55985">
        <ele>598.558</ele>
        <time>2009-01-30T20:17:16Z</time>
      </trkpt>
      <trkpt lat="44.34168" lon="2.55987">
        <ele>598.558</ele>
        <time>2009-01-30T20:17:17Z</time>
      </trkpt>
      <trkpt lat="44.34167" lon="2.5599">
        <ele>598.077</ele>
        <time>2009-01-30T20:17:18Z</time>
      </trkpt>
      <trkpt lat="44.34165" lon="2.55992">
        <ele>598.077</ele>
        <time>2009-01-30T20:17:19Z</time>
      </trkpt>
      <trkpt lat="44.34164" lon="2.55994">
        <ele>597.597</ele>
        <time>2009-01-30T20:17:20Z</time>
      </trkpt>
      <trkpt lat="44.34162" lon="2.55996">
        <ele>597.597</ele>
        <time>2009-01-30T20:17:21Z</time>
      </trkpt>
      <trkpt lat="44.3416" lon="2.55998">
        <ele>597.597</ele>
        <time>2009-01-30T20:17:22Z</time>
      </trkpt>
      <trkpt lat="44.34159" lon="2.55999">
        <ele>597.116</ele>
        <time>2009-01-30T20:17:23Z</time>
      </trkpt>
      <trkpt lat="44.34157" lon="2.56">
        <ele>597.116</ele>
        <time>2009-01-30T20:17:24Z</time>
      </trkpt>
      <trkpt lat="44.34155" lon="2.56001">
        <ele>597.116</ele>
        <time>2009-01-30T20:17:25Z</time>
      </trkpt>
      <trkpt lat="44.34153" lon="2.56001">
        <ele>597.116</ele>
        <time>2009-01-30T20:17:26Z</time>
      </trkpt>
      <trkpt lat="44.3415" lon="2.56001">
        <ele>597.116</ele>
        <time>2009-01-30T20:17:27Z</time>
      </trkpt>
      <trkpt lat="44.34148" lon="2.56001">
        <ele>596.635</ele>
        <time>2009-01-30T20:17:28Z</time>
      </trkpt>
      <trkpt lat="44.34146" lon="2.56001">
        <ele>596.635</ele>
        <time>2009-01-30T20:17:29Z</time>
      </trkpt>
      <trkpt lat="44.34144" lon="2.56001">
        <ele>596.635</ele>
        <time>2009-01-30T20:17:30Z</time>
      </trkpt>
      <trkpt lat="44.34142" lon="2.56001">
        <ele>596.155</ele>
        <time>2009-01-30T20:17:31Z</time>
      </trkpt>
      <trkpt lat="44.3414" lon="2.56002">
        <ele>596.155</ele>
        <time>2009-01-30T20:17:32Z</time>
      </trkpt>
      <trkpt lat="44.34137" lon="2.56002">
        <ele>596.635</ele>
        <time>2009-01-30T20:17:33Z</time>
      </trkpt>
      <trkpt lat="44.34135" lon="2.56001">
        <ele>596.155</ele>
        <time>2009-01-30T20:17:34Z</time>
      </trkpt>
      <trkpt lat="44.34133" lon="2.56001">
        <ele>596.155</ele>
        <time>2009-01-30T20:17:35Z</time>
      </trkpt>
      <trkpt lat="44.3413" lon="2.56">
        <ele>595.674</ele>
        <time>2009-01-30T20:17:36Z</time>
      </trkpt>
      <trkpt lat="44.34127" lon="2.56">
        <ele>595.674</ele>
        <time>2009-01-30T20:17:37Z</time>
      </trkpt>
      <trkpt lat="44.34124" lon="2.55999">
        <ele>596.155</ele>
        <time>2009-01-30T20:17:38Z</time>
      </trkpt>
      <trkpt lat="44.34122" lon="2.55998">
        <ele>596.155</ele>
        <time>2009-01-30T20:17:39Z</time>
      </trkpt>
      <trkpt lat="44.3412" lon="2.55997">
        <ele>596.155</ele>
        <time>2009-01-30T20:17:40Z</time>
      </trkpt>
      <trkpt lat="44.34117" lon="2.55996">
        <ele>597.597</ele>
        <time>2009-01-30T20:17:41Z</time>
      </trkpt>
      <trkpt lat="44.34114" lon="2.55996">
        <ele>598.077</ele>
        <time>2009-01-30T20:17:42Z</time>
      </trkpt>
      <trkpt lat="44.34111" lon="2.55995">
        <ele>598.558</ele>
        <time>2009-01-30T20:17:43Z</time>
      </trkpt>
      <trkpt lat="44.34108" lon="2.55994">
        <ele>599.039</ele>
        <time>2009-01-30T20:17:44Z</time>
      </trkpt>
      <trkpt lat="44.34105" lon="2.55992">
        <ele>599.039</ele>
        <time>2009-01-30T20:17:45Z</time>
      </trkpt>
      <trkpt lat="44.34103" lon="2.5599">
        <ele>599.039</ele>
        <time>2009-01-30T20:17:46Z</time>
      </trkpt>
      <trkpt lat="44.34102" lon="2.55987">
        <ele>599.039</ele>
        <time>2009-01-30T20:17:47Z</time>
      </trkpt>
      <trkpt lat="44.34101" lon="2.55985">
        <ele>599.519</ele>
        <time>2009-01-30T20:17:48Z</time>
      </trkpt>
      <trkpt lat="44.341" lon="2.55984">
        <ele>599.519</ele>
        <time>2009-01-30T20:17:49Z</time>
      </trkpt>
      <trkpt lat="44.34099" lon="2.55983">
        <ele>599.519</ele>
        <time>2009-01-30T20:17:50Z</time>
      </trkpt>
      <trkpt lat="44.34099" lon="2.55982">
        <ele>599.519</ele>
        <time>2009-01-30T20:17:51Z</time>
      </trkpt>
      <trkpt lat="44.34098" lon="2.55981">
        <ele>599.519</ele>
        <time>2009-01-30T20:17:52Z</time>
      </trkpt>
      <trkpt lat="44.34097" lon="2.5598">
        <ele>600</ele>
        <time>2009-01-30T20:17:53Z</time>
      </trkpt>
      <trkpt lat="44.34097" lon="2.55978">
        <ele>600</ele>
        <time>2009-01-30T20:17:54Z</time>
      </trkpt>
      <trkpt lat="44.34096" lon="2.55978">
        <ele>600</ele>
        <time>2009-01-30T20:17:55Z</time>
      </trkpt>
      <trkpt lat="44.34095" lon="2.55976">
        <ele>600</ele>
        <time>2009-01-30T20:17:56Z</time>
      </trkpt>
      <trkpt lat="44.34094" lon="2.55975">
        <ele>600</ele>
        <time>2009-01-30T20:17:57Z</time>
      </trkpt>
      <trkpt lat="44.34094" lon="2.55974">
        <ele>600</ele>
        <time>2009-01-30T20:17:58Z</time>
      </trkpt>
      <trkpt lat="44.34093" lon="2.55972">
        <ele>600</ele>
        <time>2009-01-30T20:17:59Z</time>
      </trkpt>
      <trkpt lat="44.34092" lon="2.55971">
        <ele>600</ele>
        <time>2009-01-30T20:18:00Z</time>
      </trkpt>
      <trkpt lat="44.34091" lon="2.5597">
        <ele>600</ele>
        <time>2009-01-30T20:18:01Z</time>
      </trkpt>
      <trkpt lat="44.3409" lon="2.55969">
        <ele>600</ele>
        <time>2009-01-30T20:18:02Z</time>
      </trkpt>
      <trkpt lat="44.34089" lon="2.55968">
        <ele>600</ele>
        <time>2009-01-30T20:18:03Z</time>
      </trkpt>
      <trkpt lat="44.34088" lon="2.55967">
        <ele>600</ele>
        <time>2009-01-30T20:18:04Z</time>
      </trkpt>
      <trkpt lat="44.34087" lon="2.55966">
        <ele>600</ele>
        <time>2009-01-30T20:18:05Z</time>
      </trkpt>
      <trkpt lat="44.34087" lon="2.55966">
        <ele>599.519</ele>
        <time>2009-01-30T20:18:06Z</time>
      </trkpt>
      <trkpt lat="44.34086" lon="2.55965">
        <ele>599.519</ele>
        <time>2009-01-30T20:18:07Z</time>
      </trkpt>
      <trkpt lat="44.34085" lon="2.55965">
        <ele>599.519</ele>
        <time>2009-01-30T20:18:08Z</time>
      </trkpt>
      <trkpt lat="44.34085" lon="2.55965">
        <ele>600</ele>
        <time>2009-01-30T20:18:09Z</time>
      </trkpt>
      <trkpt lat="44.34084" lon="2.55964">
        <ele>600</ele>
        <time>2009-01-30T20:18:10Z</time>
      </trkpt>
      <trkpt lat="44.34085" lon="2.55967">
        <ele>601.923</ele>
        <time>2009-01-30T20:18:42Z</time>
      </trkpt>
      <trkpt lat="44.34086" lon="2.55968">
        <ele>601.923</ele>
        <time>2009-01-30T20:18:43Z</time>
      </trkpt>
      <trkpt lat="44.34086" lon="2.55968">
        <ele>601.923</ele>
        <time>2009-01-30T20:18:44Z</time>
      </trkpt>
      <trkpt lat="44.34087" lon="2.55968">
        <ele>601.923</ele>
        <time>2009-01-30T20:18:45Z</time>
      </trkpt>
      <trkpt lat="44.34085" lon="2.55968">
        <ele>601.442</ele>
        <time>2009-01-30T20:19:42Z</time>
      </trkpt>
      <trkpt lat="44.34085" lon="2.55969">
        <ele>600.961</ele>
        <time>2009-01-30T20:19:43Z</time>
      </trkpt>
      <trkpt lat="44.34084" lon="2.55969">
        <ele>600.961</ele>
        <time>2009-01-30T20:19:44Z</time>
      </trkpt>
      <trkpt lat="44.34084" lon="2.5597">
        <ele>600.481</ele>
        <time>2009-01-30T20:19:45Z</time>
      </trkpt>
      <trkpt lat="44.34083" lon="2.5597">
        <ele>600.481</ele>
        <time>2009-01-30T20:19:46Z</time>
      </trkpt>
      <trkpt lat="44.34083" lon="2.55971">
        <ele>600</ele>
        <time>2009-01-30T20:19:47Z</time>
      </trkpt>
      <trkpt lat="44.34082" lon="2.55972">
        <ele>600</ele>
        <time>2009-01-30T20:19:48Z</time>
      </trkpt>
      <trkpt lat="44.34081" lon="2.55972">
        <ele>599.519</ele>
        <time>2009-01-30T20:19:49Z</time>
      </trkpt>
      <trkpt lat="44.3408" lon="2.55974">
        <ele>599.519</ele>
        <time>2009-01-30T20:19:50Z</time>
      </trkpt>
      <trkpt lat="44.3408" lon="2.55975">
        <ele>599.519</ele>
        <time>2009-01-30T20:19:51Z</time>
      </trkpt>
      <trkpt lat="44.34079" lon="2.55976">
        <ele>599.039</ele>
        <time>2009-01-30T20:19:52Z</time>
      </trkpt>
      <trkpt lat="44.34078" lon="2.55977">
        <ele>599.039</ele>
        <time>2009-01-30T20:19:53Z</time>
      </trkpt>
      <trkpt lat="44.34076" lon="2.55978">
        <ele>599.039</ele>
        <time>2009-01-30T20:19:54Z</time>
      </trkpt>
      <trkpt lat="44.34075" lon="2.5598">
        <ele>599.039</ele>
        <time>2009-01-30T20:19:55Z</time>
      </trkpt>
      <trkpt lat="44.34073" lon="2.55981">
        <ele>599.039</ele>
        <time>2009-01-30T20:19:56Z</time>
      </trkpt>
      <trkpt lat="44.34072" lon="2.55983">
        <ele>599.039</ele>
        <time>2009-01-30T20:19:57Z</time>
      </trkpt>
      <trkpt lat="44.3407" lon="2.55984">
        <ele>598.558</ele>
        <time>2009-01-30T20:19:58Z</time>
      </trkpt>
      <trkpt lat="44.34069" lon="2.55985">
        <ele>598.077</ele>
        <time>2009-01-30T20:19:59Z</time>
      </trkpt>
      <trkpt lat="44.34067" lon="2.55986">
        <ele>598.077</ele>
        <time>2009-01-30T20:20:00Z</time>
      </trkpt>
      <trkpt lat="44.34065" lon="2.55987">
        <ele>597.597</ele>
        <time>2009-01-30T20:20:01Z</time>
      </trkpt>
      <trkpt lat="44.34063" lon="2.55988">
        <ele>597.116</ele>
        <time>2009-01-30T20:20:02Z</time>
      </trkpt>
      <trkpt lat="44.34061" lon="2.55988">
        <ele>596.155</ele>
        <time>2009-01-30T20:20:03Z</time>
      </trkpt>
      <trkpt lat="44.34059" lon="2.55989">
        <ele>595.674</ele>
        <time>2009-01-30T20:20:04Z</time>
      </trkpt>
      <trkpt lat="44.34058" lon="2.55991">
        <ele>594.713</ele>
        <time>2009-01-30T20:20:05Z</time>
      </trkpt>
      <trkpt lat="44.34056" lon="2.55992">
        <ele>594.713</ele>
        <time>2009-01-30T20:20:06Z</time>
      </trkpt>
      <trkpt lat="44.34054" lon="2.55993">
        <ele>593.751</ele>
        <time>2009-01-30T20:20:07Z</time>
      </trkpt>
      <trkpt lat="44.34053" lon="2.55994">
        <ele>593.751</ele>
        <time>2009-01-30T20:20:08Z</time>
      </trkpt>
      <trkpt lat="44.34051" lon="2.55994">
        <ele>593.271</ele>
        <time>2009-01-30T20:20:09Z</time>
      </trkpt>
      <trkpt lat="44.3405" lon="2.55995">
        <ele>593.751</ele>
        <time>2009-01-30T20:20:10Z</time>
      </trkpt>
      <trkpt lat="44.34049" lon="2.55995">
        <ele>593.751</ele>
        <time>2009-01-30T20:20:11Z</time>
      </trkpt>
      <trkpt lat="44.34048" lon="2.55994">
        <ele>593.751</ele>
        <time>2009-01-30T20:20:12Z</time>
      </trkpt>
      <trkpt lat="44.34047" lon="2.55994">
        <ele>593.751</ele>
        <time>2009-01-30T20:20:13Z</time>
      </trkpt>
      <trkpt lat="44.34047" lon="2.55993">
        <ele>593.751</ele>
        <time>2009-01-30T20:20:14Z</time>
      </trkpt>
      <trkpt lat="44.34046" lon="2.55993">
        <ele>593.751</ele>
        <time>2009-01-30T20:20:15Z</time>
      </trkpt>
      <trkpt lat="44.34045" lon="2.55992">
        <ele>593.751</ele>
        <time>2009-01-30T20:20:16Z</time>
      </trkpt>
      <trkpt lat="44.34043" lon="2.55992">
        <ele>595.674</ele>
        <time>2009-01-30T20:20:22Z</time>
      </trkpt>
      <trkpt lat="44.34043" lon="2.55993">
        <ele>596.155</ele>
        <time>2009-01-30T20:20:23Z</time>
      </trkpt>
      <trkpt lat="44.3404" lon="2.55994">
        <ele>596.635</ele>
        <time>2009-01-30T20:20:29Z</time>
      </trkpt>
      <trkpt lat="44.3404" lon="2.55995">
        <ele>596.635</ele>
        <time>2009-01-30T20:20:30Z</time>
      </trkpt>
      <trkpt lat="44.3404" lon="2.55995">
        <ele>596.635</ele>
        <time>2009-01-30T20:20:31Z</time>
      </trkpt>
      <trkpt lat="44.34039" lon="2.55996">
        <ele>597.116</ele>
        <time>2009-01-30T20:20:32Z</time>
      </trkpt>
      <trkpt lat="44.34039" lon="2.55996">
        <ele>597.116</ele>
        <time>2009-01-30T20:20:33Z</time>
      </trkpt>
      <trkpt lat="44.34038" lon="2.55997">
        <ele>597.116</ele>
        <time>2009-01-30T20:20:34Z</time>
      </trkpt>
      <trkpt lat="44.34038" lon="2.55998">
        <ele>596.635</ele>
        <time>2009-01-30T20:20:35Z</time>
      </trkpt>
      <trkpt lat="44.34037" lon="2.55999">
        <ele>596.635</ele>
        <time>2009-01-30T20:20:36Z</time>
      </trkpt>
      <trkpt lat="44.34036" lon="2.56">
        <ele>596.155</ele>
        <time>2009-01-30T20:20:37Z</time>
      </trkpt>
      <trkpt lat="44.34036" lon="2.56001">
        <ele>596.155</ele>
        <time>2009-01-30T20:20:38Z</time>
      </trkpt>
      <trkpt lat="44.34036" lon="2.56002">
        <ele>595.674</ele>
        <time>2009-01-30T20:20:39Z</time>
      </trkpt>
      <trkpt lat="44.34035" lon="2.56003">
        <ele>595.193</ele>
        <time>2009-01-30T20:20:40Z</time>
      </trkpt>
      <trkpt lat="44.34034" lon="2.56004">
        <ele>594.232</ele>
        <time>2009-01-30T20:20:41Z</time>
      </trkpt>
      <trkpt lat="44.34034" lon="2.56005">
        <ele>594.232</ele>
        <time>2009-01-30T20:20:42Z</time>
      </trkpt>
      <trkpt lat="44.34033" lon="2.56006">
        <ele>593.271</ele>
        <time>2009-01-30T20:20:43Z</time>
      </trkpt>
      <trkpt lat="44.34033" lon="2.56007">
        <ele>593.271</ele>
        <time>2009-01-30T20:20:44Z</time>
      </trkpt>
      <trkpt lat="44.34032" lon="2.56009">
        <ele>592.79</ele>
        <time>2009-01-30T20:20:45Z</time>
      </trkpt>
      <trkpt lat="44.34031" lon="2.56011">
        <ele>592.79</ele>
        <time>2009-01-30T20:20:46Z</time>
      </trkpt>
      <trkpt lat="44.34031" lon="2.56013">
        <ele>592.79</ele>
        <time>2009-01-30T20:20:47Z</time>
      </trkpt>
      <trkpt lat="44.34032" lon="2.56016">
        <ele>592.31</ele>
        <time>2009-01-30T20:20:48Z</time>
      </trkpt>
      <trkpt lat="44.34033" lon="2.56019">
        <ele>591.829</ele>
        <time>2009-01-30T20:20:49Z</time>
      </trkpt>
      <trkpt lat="44.34034" lon="2.56022">
        <ele>591.348</ele>
        <time>2009-01-30T20:20:50Z</time>
      </trkpt>
      <trkpt lat="44.34035" lon="2.56025">
        <ele>591.348</ele>
        <time>2009-01-30T20:20:51Z</time>
      </trkpt>
      <trkpt lat="44.34036" lon="2.56029">
        <ele>591.829</ele>
        <time>2009-01-30T20:20:52Z</time>
      </trkpt>
      <trkpt lat="44.34037" lon="2.56032">
        <ele>591.829</ele>
        <time>2009-01-30T20:20:53Z</time>
      </trkpt>
      <trkpt lat="44.34038" lon="2.56035">
        <ele>591.829</ele>
        <time>2009-01-30T20:20:54Z</time>
      </trkpt>
      <trkpt lat="44.3404" lon="2.56037">
        <ele>591.348</ele>
        <time>2009-01-30T20:20:55Z</time>
      </trkpt>
      <trkpt lat="44.34041" lon="2.5604">
        <ele>590.867</ele>
        <time>2009-01-30T20:20:56Z</time>
      </trkpt>
      <trkpt lat="44.34043" lon="2.56043">
        <ele>590.867</ele>
        <time>2009-01-30T20:20:57Z</time>
      </trkpt>
      <trkpt lat="44.34044" lon="2.56047">
        <ele>591.829</ele>
        <time>2009-01-30T20:20:58Z</time>
      </trkpt>
      <trkpt lat="44.34045" lon="2.56051">
        <ele>591.829</ele>
        <time>2009-01-30T20:20:59Z</time>
      </trkpt>
      <trkpt lat="44.34046" lon="2.56054">
        <ele>590.867</ele>
        <time>2009-01-30T20:21:00Z</time>
      </trkpt>
      <trkpt lat="44.34047" lon="2.56056">
        <ele>590.387</ele>
        <time>2009-01-30T20:21:01Z</time>
      </trkpt>
      <trkpt lat="44.34048" lon="2.5606">
        <ele>589.426</ele>
        <time>2009-01-30T20:21:02Z</time>
      </trkpt>
      <trkpt lat="44.34049" lon="2.56063">
        <ele>588.464</ele>
        <time>2009-01-30T20:21:03Z</time>
      </trkpt>
      <trkpt lat="44.34051" lon="2.56065">
        <ele>587.503</ele>
        <time>2009-01-30T20:21:04Z</time>
      </trkpt>
      <trkpt lat="44.34052" lon="2.56067">
        <ele>586.061</ele>
        <time>2009-01-30T20:21:05Z</time>
      </trkpt>
      <trkpt lat="44.34054" lon="2.56069">
        <ele>585.1</ele>
        <time>2009-01-30T20:21:06Z</time>
      </trkpt>
      <trkpt lat="44.34055" lon="2.56072">
        <ele>584.138</ele>
        <time>2009-01-30T20:21:07Z</time>
      </trkpt>
      <trkpt lat="44.34057" lon="2.56075">
        <ele>582.696</ele>
        <time>2009-01-30T20:21:08Z</time>
      </trkpt>
      <trkpt lat="44.34058" lon="2.56078">
        <ele>582.216</ele>
        <time>2009-01-30T20:21:09Z</time>
      </trkpt>
      <trkpt lat="44.34059" lon="2.56081">
        <ele>580.774</ele>
        <time>2009-01-30T20:21:10Z</time>
      </trkpt>
      <trkpt lat="44.34061" lon="2.56084">
        <ele>580.293</ele>
        <time>2009-01-30T20:21:11Z</time>
      </trkpt>
      <trkpt lat="44.34062" lon="2.56087">
        <ele>580.774</ele>
        <time>2009-01-30T20:21:12Z</time>
      </trkpt>
      <trkpt lat="44.34064" lon="2.56089">
        <ele>580.293</ele>
        <time>2009-01-30T20:21:13Z</time>
      </trkpt>
      <trkpt lat="44.34066" lon="2.56092">
        <ele>579.332</ele>
        <time>2009-01-30T20:21:14Z</time>
      </trkpt>
      <trkpt lat="44.34068" lon="2.56094">
        <ele>578.37</ele>
        <time>2009-01-30T20:21:15Z</time>
      </trkpt>
      <trkpt lat="44.34069" lon="2.56097">
        <ele>577.89</ele>
        <time>2009-01-30T20:21:16Z</time>
      </trkpt>
      <trkpt lat="44.34071" lon="2.56099">
        <ele>577.409</ele>
        <time>2009-01-30T20:21:17Z</time>
      </trkpt>
      <trkpt lat="44.34074" lon="2.56102">
        <ele>576.928</ele>
        <time>2009-01-30T20:21:18Z</time>
      </trkpt>
      <trkpt lat="44.34075" lon="2.56104">
        <ele>576.448</ele>
        <time>2009-01-30T20:21:19Z</time>
      </trkpt>
      <trkpt lat="44.34077" lon="2.56105">
        <ele>575.967</ele>
        <time>2009-01-30T20:21:20Z</time>
      </trkpt>
      <trkpt lat="44.34078" lon="2.56108">
        <ele>575.967</ele>
        <time>2009-01-30T20:21:21Z</time>
      </trkpt>
      <trkpt lat="44.34077" lon="2.5611">
        <ele>576.448</ele>
        <time>2009-01-30T20:21:22Z</time>
      </trkpt>
      <trkpt lat="44.34076" lon="2.56112">
        <ele>576.448</ele>
        <time>2009-01-30T20:21:23Z</time>
      </trkpt>
      <trkpt lat="44.34074" lon="2.56114">
        <ele>576.448</ele>
        <time>2009-01-30T20:21:24Z</time>
      </trkpt>
      <trkpt lat="44.34072" lon="2.56116">
        <ele>577.409</ele>
        <time>2009-01-30T20:21:25Z</time>
      </trkpt>
      <trkpt lat="44.3407" lon="2.56119">
        <ele>577.409</ele>
        <time>2009-01-30T20:21:26Z</time>
      </trkpt>
      <trkpt lat="44.34069" lon="2.5612">
        <ele>577.409</ele>
        <time>2009-01-30T20:21:27Z</time>
      </trkpt>
      <trkpt lat="44.34067" lon="2.56122">
        <ele>577.89</ele>
        <time>2009-01-30T20:21:28Z</time>
      </trkpt>
      <trkpt lat="44.34066" lon="2.56123">
        <ele>577.89</ele>
        <time>2009-01-30T20:21:29Z</time>
      </trkpt>
      <trkpt lat="44.34064" lon="2.56124">
        <ele>577.89</ele>
        <time>2009-01-30T20:21:30Z</time>
      </trkpt>
      <trkpt lat="44.34062" lon="2.56125">
        <ele>577.409</ele>
        <time>2009-01-30T20:21:31Z</time>
      </trkpt>
      <trkpt lat="44.34061" lon="2.56126">
        <ele>576.928</ele>
        <time>2009-01-30T20:21:32Z</time>
      </trkpt>
      <trkpt lat="44.3406" lon="2.56127">
        <ele>576.448</ele>
        <time>2009-01-30T20:21:33Z</time>
      </trkpt>
      <trkpt lat="44.34059" lon="2.56128">
        <ele>575.967</ele>
        <time>2009-01-30T20:21:34Z</time>
      </trkpt>
      <trkpt lat="44.34058" lon="2.56128">
        <ele>575.486</ele>
        <time>2009-01-30T20:21:35Z</time>
      </trkpt>
      <trkpt lat="44.34057" lon="2.56128">
        <ele>575.486</ele>
        <time>2009-01-30T20:21:36Z</time>
      </trkpt>
      <trkpt lat="44.34056" lon="2.56129">
        <ele>575.006</ele>
        <time>2009-01-30T20:21:37Z</time>
      </trkpt>
      <trkpt lat="44.34055" lon="2.5613">
        <ele>575.006</ele>
        <time>2009-01-30T20:21:38Z</time>
      </trkpt>
      <trkpt lat="44.34055" lon="2.5613">
        <ele>574.525</ele>
        <time>2009-01-30T20:21:39Z</time>
      </trkpt>
      <trkpt lat="44.34056" lon="2.56131">
        <ele>575.006</ele>
        <time>2009-01-30T20:21:40Z</time>
      </trkpt>
      <trkpt lat="44.34056" lon="2.56131">
        <ele>574.525</ele>
        <time>2009-01-30T20:21:41Z</time>
      </trkpt>
      <trkpt lat="44.34057" lon="2.56132">
        <ele>575.006</ele>
        <time>2009-01-30T20:21:42Z</time>
      </trkpt>
      <trkpt lat="44.34058" lon="2.56134">
        <ele>574.044</ele>
        <time>2009-01-30T20:21:43Z</time>
      </trkpt>
      <trkpt lat="44.34059" lon="2.56135">
        <ele>573.564</ele>
        <time>2009-01-30T20:21:44Z</time>
      </trkpt>
      <trkpt lat="44.34061" lon="2.56136">
        <ele>572.122</ele>
        <time>2009-01-30T20:21:45Z</time>
      </trkpt>
      <trkpt lat="44.34063" lon="2.56137">
        <ele>570.68</ele>
        <time>2009-01-30T20:21:46Z</time>
      </trkpt>
      <trkpt lat="44.34065" lon="2.56138">
        <ele>568.757</ele>
        <time>2009-01-30T20:21:47Z</time>
      </trkpt>
      <trkpt lat="44.34067" lon="2.56139">
        <ele>568.276</ele>
        <time>2009-01-30T20:21:48Z</time>
      </trkpt>
      <trkpt lat="44.3407" lon="2.5614">
        <ele>565.393</ele>
        <time>2009-01-30T20:21:49Z</time>
      </trkpt>
      <trkpt lat="44.34073" lon="2.56141">
        <ele>562.989</ele>
        <time>2009-01-30T20:21:50Z</time>
      </trkpt>
      <trkpt lat="44.34074" lon="2.56142">
        <ele>562.028</ele>
        <time>2009-01-30T20:21:51Z</time>
      </trkpt>
      <trkpt lat="44.34076" lon="2.56144">
        <ele>561.067</ele>
        <time>2009-01-30T20:21:52Z</time>
      </trkpt>
      <trkpt lat="44.34077" lon="2.56147">
        <ele>561.547</ele>
        <time>2009-01-30T20:21:53Z</time>
      </trkpt>
      <trkpt lat="44.34078" lon="2.56151">
        <ele>564.431</ele>
        <time>2009-01-30T20:21:54Z</time>
      </trkpt>
      <trkpt lat="44.3408" lon="2.56152">
        <ele>566.834</ele>
        <time>2009-01-30T20:21:55Z</time>
      </trkpt>
      <trkpt lat="44.34082" lon="2.56153">
        <ele>568.757</ele>
        <time>2009-01-30T20:21:56Z</time>
      </trkpt>
      <trkpt lat="44.34084" lon="2.56154">
        <ele>570.68</ele>
        <time>2009-01-30T20:21:57Z</time>
      </trkpt>
      <trkpt lat="44.34086" lon="2.56154">
        <ele>571.641</ele>
        <time>2009-01-30T20:21:58Z</time>
      </trkpt>
      <trkpt lat="44.34089" lon="2.56153">
        <ele>572.122</ele>
        <time>2009-01-30T20:21:59Z</time>
      </trkpt>
      <trkpt lat="44.34091" lon="2.56153">
        <ele>573.083</ele>
        <time>2009-01-30T20:22:00Z</time>
      </trkpt>
      <trkpt lat="44.34093" lon="2.56152">
        <ele>573.564</ele>
        <time>2009-01-30T20:22:01Z</time>
      </trkpt>
      <trkpt lat="44.34095" lon="2.56152">
        <ele>574.525</ele>
        <time>2009-01-30T20:22:02Z</time>
      </trkpt>
      <trkpt lat="44.34097" lon="2.56151">
        <ele>575.006</ele>
        <time>2009-01-30T20:22:03Z</time>
      </trkpt>
      <trkpt lat="44.34099" lon="2.56149">
        <ele>575.486</ele>
        <time>2009-01-30T20:22:04Z</time>
      </trkpt>
      <trkpt lat="44.34102" lon="2.56148">
        <ele>575.486</ele>
        <time>2009-01-30T20:22:05Z</time>
      </trkpt>
      <trkpt lat="44.34104" lon="2.56147">
        <ele>575.967</ele>
        <time>2009-01-30T20:22:06Z</time>
      </trkpt>
      <trkpt lat="44.34107" lon="2.56146">
        <ele>575.967</ele>
        <time>2009-01-30T20:22:07Z</time>
      </trkpt>
      <trkpt lat="44.34109" lon="2.56145">
        <ele>575.967</ele>
        <time>2009-01-30T20:22:08Z</time>
      </trkpt>
      <trkpt lat="44.34111" lon="2.56144">
        <ele>575.967</ele>
        <time>2009-01-30T20:22:09Z</time>
      </trkpt>
      <trkpt lat="44.34113" lon="2.56144">
        <ele>575.967</ele>
        <time>2009-01-30T20:22:10Z</time>
      </trkpt>
      <trkpt lat="44.34115" lon="2.56144">
        <ele>575.967</ele>
        <time>2009-01-30T20:22:11Z</time>
      </trkpt>
      <trkpt lat="44.34116" lon="2.56143">
        <ele>576.448</ele>
        <time>2009-01-30T20:22:12Z</time>
      </trkpt>
      <trkpt lat="44.34117" lon="2.56143">
        <ele>576.448</ele>
        <time>2009-01-30T20:22:13Z</time>
      </trkpt>
      <trkpt lat="44.34118" lon="2.56144">
        <ele>575.967</ele>
        <time>2009-01-30T20:22:14Z</time>
      </trkpt>
      <trkpt lat="44.34119" lon="2.56144">
        <ele>575.967</ele>
        <time>2009-01-30T20:22:15Z</time>
      </trkpt>
      <trkpt lat="44.3412" lon="2.56145">
        <ele>575.967</ele>
        <time>2009-01-30T20:22:16Z</time>
      </trkpt>
      <trkpt lat="44.34121" lon="2.56145">
        <ele>575.967</ele>
        <time>2009-01-30T20:22:17Z</time>
      </trkpt>
      <trkpt lat="44.34122" lon="2.56145">
        <ele>575.967</ele>
        <time>2009-01-30T20:22:18Z</time>
      </trkpt>
      <trkpt lat="44.34123" lon="2.56145">
        <ele>575.967</ele>
        <time>2009-01-30T20:22:19Z</time>
      </trkpt>
      <trkpt lat="44.34123" lon="2.56146">
        <ele>575.967</ele>
        <time>2009-01-30T20:22:20Z</time>
      </trkpt>
      <trkpt lat="44.34126" lon="2.56148">
        <ele>576.928</ele>
        <time>2009-01-30T20:22:25Z</time>
      </trkpt>
      <trkpt lat="44.34126" lon="2.56148">
        <ele>576.928</ele>
        <time>2009-01-30T20:22:26Z</time>
      </trkpt>
      <trkpt lat="44.34127" lon="2.56149">
        <ele>576.928</ele>
        <time>2009-01-30T20:22:27Z</time>
      </trkpt>
      <trkpt lat="44.34127" lon="2.56149">
        <ele>576.928</ele>
        <time>2009-01-30T20:22:28Z</time>
      </trkpt>
      <trkpt lat="44.34128" lon="2.5615">
        <ele>576.928</ele>
        <time>2009-01-30T20:22:29Z</time>
      </trkpt>
      <trkpt lat="44.34129" lon="2.56151">
        <ele>576.928</ele>
        <time>2009-01-30T20:22:30Z</time>
      </trkpt>
      <trkpt lat="44.3413" lon="2.56152">
        <ele>576.928</ele>
        <time>2009-01-30T20:22:31Z</time>
      </trkpt>
      <trkpt lat="44.34131" lon="2.56152">
        <ele>576.928</ele>
        <time>2009-01-30T20:22:32Z</time>
      </trkpt>
      <trkpt lat="44.34132" lon="2.56154">
        <ele>576.448</ele>
        <time>2009-01-30T20:22:33Z</time>
      </trkpt>
      <trkpt lat="44.34134" lon="2.56155">
        <ele>575.967</ele>
        <time>2009-01-30T20:22:34Z</time>
      </trkpt>
      <trkpt lat="44.34135" lon="2.56156">
        <ele>575.967</ele>
        <time>2009-01-30T20:22:35Z</time>
      </trkpt>
      <trkpt lat="44.34137" lon="2.56157">
        <ele>575.486</ele>
        <time>2009-01-30T20:22:36Z</time>
      </trkpt>
      <trkpt lat="44.34139" lon="2.56159">
        <ele>575.486</ele>
        <time>2009-01-30T20:22:37Z</time>
      </trkpt>
      <trkpt lat="44.3414" lon="2.5616">
        <ele>575.006</ele>
        <time>2009-01-30T20:22:38Z</time>
      </trkpt>
      <trkpt lat="44.3414" lon="2.5616">
        <ele>575.486</ele>
        <time>2009-01-30T20:22:39Z</time>
      </trkpt>
      <trkpt lat="44.34141" lon="2.56161">
        <ele>575.486</ele>
        <time>2009-01-30T20:22:40Z</time>
      </trkpt>
      <trkpt lat="44.34141" lon="2.56161">
        <ele>575.486</ele>
        <time>2009-01-30T20:22:41Z</time>
      </trkpt>
      <trkpt lat="44.34142" lon="2.56161">
        <ele>575.486</ele>
        <time>2009-01-30T20:22:42Z</time>
      </trkpt>
      <trkpt lat="44.34143" lon="2.56162">
        <ele>575.006</ele>
        <time>2009-01-30T20:22:45Z</time>
      </trkpt>
      <trkpt lat="44.34144" lon="2.56163">
        <ele>574.525</ele>
        <time>2009-01-30T20:22:46Z</time>
      </trkpt>
      <trkpt lat="44.34146" lon="2.56164">
        <ele>574.044</ele>
        <time>2009-01-30T20:22:47Z</time>
      </trkpt>
      <trkpt lat="44.34148" lon="2.56165">
        <ele>574.044</ele>
        <time>2009-01-30T20:22:48Z</time>
      </trkpt>
      <trkpt lat="44.34149" lon="2.56167">
        <ele>574.044</ele>
        <time>2009-01-30T20:22:49Z</time>
      </trkpt>
      <trkpt lat="44.3415" lon="2.56168">
        <ele>574.044</ele>
        <time>2009-01-30T20:22:50Z</time>
      </trkpt>
      <trkpt lat="44.34151" lon="2.56169">
        <ele>574.044</ele>
        <time>2009-01-30T20:22:51Z</time>
      </trkpt>
      <trkpt lat="44.34152" lon="2.5617">
        <ele>574.044</ele>
        <time>2009-01-30T20:22:52Z</time>
      </trkpt>
      <trkpt lat="44.34153" lon="2.5617">
        <ele>574.044</ele>
        <time>2009-01-30T20:22:53Z</time>
      </trkpt>
      <trkpt lat="44.34154" lon="2.56171">
        <ele>573.564</ele>
        <time>2009-01-30T20:22:54Z</time>
      </trkpt>
      <trkpt lat="44.34155" lon="2.56172">
        <ele>573.564</ele>
        <time>2009-01-30T20:22:55Z</time>
      </trkpt>
      <trkpt lat="44.34155" lon="2.56173">
        <ele>572.603</ele>
        <time>2009-01-30T20:22:56Z</time>
      </trkpt>
      <trkpt lat="44.34156" lon="2.56174">
        <ele>572.603</ele>
        <time>2009-01-30T20:22:57Z</time>
      </trkpt>
      <trkpt lat="44.34157" lon="2.56175">
        <ele>572.122</ele>
        <time>2009-01-30T20:22:58Z</time>
      </trkpt>
      <trkpt lat="44.34159" lon="2.56176">
        <ele>572.122</ele>
        <time>2009-01-30T20:22:59Z</time>
      </trkpt>
      <trkpt lat="44.3416" lon="2.56177">
        <ele>571.16</ele>
        <time>2009-01-30T20:23:00Z</time>
      </trkpt>
      <trkpt lat="44.34162" lon="2.56178">
        <ele>571.16</ele>
        <time>2009-01-30T20:23:01Z</time>
      </trkpt>
      <trkpt lat="44.34165" lon="2.56179">
        <ele>570.68</ele>
        <time>2009-01-30T20:23:02Z</time>
      </trkpt>
      <trkpt lat="44.34167" lon="2.5618">
        <ele>570.199</ele>
        <time>2009-01-30T20:23:03Z</time>
      </trkpt>
      <trkpt lat="44.34169" lon="2.5618">
        <ele>569.719</ele>
        <time>2009-01-30T20:23:04Z</time>
      </trkpt>
      <trkpt lat="44.34171" lon="2.56179">
        <ele>569.719</ele>
        <time>2009-01-30T20:23:05Z</time>
      </trkpt>
      <trkpt lat="44.34173" lon="2.56179">
        <ele>569.719</ele>
        <time>2009-01-30T20:23:06Z</time>
      </trkpt>
      <trkpt lat="44.34175" lon="2.56178">
        <ele>569.719</ele>
        <time>2009-01-30T20:23:07Z</time>
      </trkpt>
      <trkpt lat="44.34176" lon="2.56177">
        <ele>569.238</ele>
        <time>2009-01-30T20:23:08Z</time>
      </trkpt>
      <trkpt lat="44.34178" lon="2.56176">
        <ele>569.238</ele>
        <time>2009-01-30T20:23:09Z</time>
      </trkpt>
      <trkpt lat="44.3418" lon="2.56174">
        <ele>569.238</ele>
        <time>2009-01-30T20:23:10Z</time>
      </trkpt>
      <trkpt lat="44.34182" lon="2.56172">
        <ele>568.757</ele>
        <time>2009-01-30T20:23:11Z</time>
      </trkpt>
      <trkpt lat="44.34183" lon="2.5617">
        <ele>569.238</ele>
        <time>2009-01-30T20:23:12Z</time>
      </trkpt>
      <trkpt lat="44.34185" lon="2.56169">
        <ele>569.238</ele>
        <time>2009-01-30T20:23:13Z</time>
      </trkpt>
      <trkpt lat="44.34187" lon="2.56167">
        <ele>569.238</ele>
        <time>2009-01-30T20:23:14Z</time>
      </trkpt>
      <trkpt lat="44.34189" lon="2.56165">
        <ele>569.238</ele>
        <time>2009-01-30T20:23:15Z</time>
      </trkpt>
      <trkpt lat="44.34191" lon="2.56163">
        <ele>569.238</ele>
        <time>2009-01-30T20:23:16Z</time>
      </trkpt>
      <trkpt lat="44.34192" lon="2.5616">
        <ele>569.238</ele>
        <time>2009-01-30T20:23:17Z</time>
      </trkpt>
      <trkpt lat="44.34194" lon="2.56158">
        <ele>569.238</ele>
        <time>2009-01-30T20:23:18Z</time>
      </trkpt>
      <trkpt lat="44.34196" lon="2.56156">
        <ele>568.757</ele>
        <time>2009-01-30T20:23:19Z</time>
      </trkpt>
      <trkpt lat="44.34197" lon="2.56154">
        <ele>569.238</ele>
        <time>2009-01-30T20:23:20Z</time>
      </trkpt>
      <trkpt lat="44.34199" lon="2.56153">
        <ele>569.238</ele>
        <time>2009-01-30T20:23:21Z</time>
      </trkpt>
      <trkpt lat="44.342" lon="2.56151">
        <ele>569.238</ele>
        <time>2009-01-30T20:23:22Z</time>
      </trkpt>
      <trkpt lat="44.34202" lon="2.56149">
        <ele>569.719</ele>
        <time>2009-01-30T20:23:23Z</time>
      </trkpt>
      <trkpt lat="44.34203" lon="2.56148">
        <ele>569.238</ele>
        <time>2009-01-30T20:23:24Z</time>
      </trkpt>
      <trkpt lat="44.34204" lon="2.56147">
        <ele>569.719</ele>
        <time>2009-01-30T20:23:25Z</time>
      </trkpt>
      <trkpt lat="44.34206" lon="2.56147">
        <ele>569.238</ele>
        <time>2009-01-30T20:23:26Z</time>
      </trkpt>
      <trkpt lat="44.34208" lon="2.56147">
        <ele>568.757</ele>
        <time>2009-01-30T20:23:27Z</time>
      </trkpt>
      <trkpt lat="44.34209" lon="2.56147">
        <ele>568.276</ele>
        <time>2009-01-30T20:23:28Z</time>
      </trkpt>
      <trkpt lat="44.34211" lon="2.56147">
        <ele>567.796</ele>
        <time>2009-01-30T20:23:29Z</time>
      </trkpt>
      <trkpt lat="44.34213" lon="2.56149">
        <ele>566.834</ele>
        <time>2009-01-30T20:23:30Z</time>
      </trkpt>
      <trkpt lat="44.34214" lon="2.56151">
        <ele>566.354</ele>
        <time>2009-01-30T20:23:31Z</time>
      </trkpt>
      <trkpt lat="44.34216" lon="2.56153">
        <ele>565.873</ele>
        <time>2009-01-30T20:23:32Z</time>
      </trkpt>
      <trkpt lat="44.34218" lon="2.56156">
        <ele>565.393</ele>
        <time>2009-01-30T20:23:33Z</time>
      </trkpt>
      <trkpt lat="44.3422" lon="2.56158">
        <ele>564.912</ele>
        <time>2009-01-30T20:23:34Z</time>
      </trkpt>
      <trkpt lat="44.34222" lon="2.5616">
        <ele>563.95</ele>
        <time>2009-01-30T20:23:35Z</time>
      </trkpt>
      <trkpt lat="44.34224" lon="2.56162">
        <ele>563.95</ele>
        <time>2009-01-30T20:23:36Z</time>
      </trkpt>
      <trkpt lat="44.34226" lon="2.56162">
        <ele>563.47</ele>
        <time>2009-01-30T20:23:37Z</time>
      </trkpt>
      <trkpt lat="44.34229" lon="2.56162">
        <ele>563.47</ele>
        <time>2009-01-30T20:23:38Z</time>
      </trkpt>
      <trkpt lat="44.34231" lon="2.5616">
        <ele>562.989</ele>
        <time>2009-01-30T20:23:39Z</time>
      </trkpt>
      <trkpt lat="44.34234" lon="2.56158">
        <ele>562.509</ele>
        <time>2009-01-30T20:23:40Z</time>
      </trkpt>
      <trkpt lat="44.34236" lon="2.56156">
        <ele>562.028</ele>
        <time>2009-01-30T20:23:41Z</time>
      </trkpt>
      <trkpt lat="44.34237" lon="2.56153">
        <ele>562.028</ele>
        <time>2009-01-30T20:23:42Z</time>
      </trkpt>
      <trkpt lat="44.34239" lon="2.5615">
        <ele>561.067</ele>
        <time>2009-01-30T20:23:43Z</time>
      </trkpt>
      <trkpt lat="44.34241" lon="2.56148">
        <ele>560.586</ele>
        <time>2009-01-30T20:23:44Z</time>
      </trkpt>
      <trkpt lat="44.34242" lon="2.56145">
        <ele>560.586</ele>
        <time>2009-01-30T20:23:45Z</time>
      </trkpt>
      <trkpt lat="44.34243" lon="2.56141">
        <ele>560.105</ele>
        <time>2009-01-30T20:23:46Z</time>
      </trkpt>
      <trkpt lat="44.34245" lon="2.56138">
        <ele>560.105</ele>
        <time>2009-01-30T20:23:47Z</time>
      </trkpt>
      <trkpt lat="44.34246" lon="2.56135">
        <ele>560.105</ele>
        <time>2009-01-30T20:23:48Z</time>
      </trkpt>
      <trkpt lat="44.34247" lon="2.56132">
        <ele>559.144</ele>
        <time>2009-01-30T20:23:49Z</time>
      </trkpt>
      <trkpt lat="44.34248" lon="2.56129">
        <ele>559.144</ele>
        <time>2009-01-30T20:23:50Z</time>
      </trkpt>
      <trkpt lat="44.3425" lon="2.56126">
        <ele>559.144</ele>
        <time>2009-01-30T20:23:51Z</time>
      </trkpt>
      <trkpt lat="44.34251" lon="2.56124">
        <ele>558.663</ele>
        <time>2009-01-30T20:23:52Z</time>
      </trkpt>
      <trkpt lat="44.34252" lon="2.56121">
        <ele>558.183</ele>
        <time>2009-01-30T20:23:53Z</time>
      </trkpt>
      <trkpt lat="44.34253" lon="2.5612">
        <ele>557.702</ele>
        <time>2009-01-30T20:23:54Z</time>
      </trkpt>
      <trkpt lat="44.34255" lon="2.5612">
        <ele>557.221</ele>
        <time>2009-01-30T20:23:55Z</time>
      </trkpt>
      <trkpt lat="44.34257" lon="2.56121">
        <ele>557.221</ele>
        <time>2009-01-30T20:23:56Z</time>
      </trkpt>
      <trkpt lat="44.34257" lon="2.56124">
        <ele>557.221</ele>
        <time>2009-01-30T20:23:57Z</time>
      </trkpt>
      <trkpt lat="44.34257" lon="2.56126">
        <ele>556.741</ele>
        <time>2009-01-30T20:23:58Z</time>
      </trkpt>
      <trkpt lat="44.34257" lon="2.56129">
        <ele>556.26</ele>
        <time>2009-01-30T20:23:59Z</time>
      </trkpt>
      <trkpt lat="44.34256" lon="2.56131">
        <ele>555.779</ele>
        <time>2009-01-30T20:24:00Z</time>
      </trkpt>
      <trkpt lat="44.34255" lon="2.56134">
        <ele>555.299</ele>
        <time>2009-01-30T20:24:01Z</time>
      </trkpt>
      <trkpt lat="44.34255" lon="2.56136">
        <ele>554.337</ele>
        <time>2009-01-30T20:24:02Z</time>
      </trkpt>
      <trkpt lat="44.34254" lon="2.56138">
        <ele>552.895</ele>
        <time>2009-01-30T20:24:03Z</time>
      </trkpt>
      <trkpt lat="44.34254" lon="2.56141">
        <ele>551.934</ele>
        <time>2009-01-30T20:24:04Z</time>
      </trkpt>
      <trkpt lat="44.34253" lon="2.56144">
        <ele>550.492</ele>
        <time>2009-01-30T20:24:05Z</time>
      </trkpt>
      <trkpt lat="44.34252" lon="2.56146">
        <ele>549.05</ele>
        <time>2009-01-30T20:24:06Z</time>
      </trkpt>
      <trkpt lat="44.34251" lon="2.56148">
        <ele>547.608</ele>
        <time>2009-01-30T20:24:07Z</time>
      </trkpt>
      <trkpt lat="44.34251" lon="2.56151">
        <ele>546.166</ele>
        <time>2009-01-30T20:24:08Z</time>
      </trkpt>
      <trkpt lat="44.3425" lon="2.56154">
        <ele>545.686</ele>
        <time>2009-01-30T20:24:09Z</time>
      </trkpt>
      <trkpt lat="44.34249" lon="2.56156">
        <ele>544.724</ele>
        <time>2009-01-30T20:24:10Z</time>
      </trkpt>
      <trkpt lat="44.34248" lon="2.56159">
        <ele>543.763</ele>
        <time>2009-01-30T20:24:11Z</time>
      </trkpt>
      <trkpt lat="44.34248" lon="2.56162">
        <ele>542.802</ele>
        <time>2009-01-30T20:24:12Z</time>
      </trkpt>
      <trkpt lat="44.34247" lon="2.56165">
        <ele>541.84</ele>
        <time>2009-01-30T20:24:13Z</time>
      </trkpt>
      <trkpt lat="44.34246" lon="2.56168">
        <ele>540.879</ele>
        <time>2009-01-30T20:24:14Z</time>
      </trkpt>
      <trkpt lat="44.34245" lon="2.56171">
        <ele>539.918</ele>
        <time>2009-01-30T20:24:15Z</time>
      </trkpt>
      <trkpt lat="44.34244" lon="2.56173">
        <ele>538.956</ele>
        <time>2009-01-30T20:24:16Z</time>
      </trkpt>
      <trkpt lat="44.34242" lon="2.56176">
        <ele>537.995</ele>
        <time>2009-01-30T20:24:17Z</time>
      </trkpt>
      <trkpt lat="44.34241" lon="2.56178">
        <ele>537.034</ele>
        <time>2009-01-30T20:24:18Z</time>
      </trkpt>
      <trkpt lat="44.3424" lon="2.5618">
        <ele>536.553</ele>
        <time>2009-01-30T20:24:19Z</time>
      </trkpt>
      <trkpt lat="44.34238" lon="2.56183">
        <ele>535.592</ele>
        <time>2009-01-30T20:24:20Z</time>
      </trkpt>
      <trkpt lat="44.34237" lon="2.56185">
        <ele>534.63</ele>
        <time>2009-01-30T20:24:21Z</time>
      </trkpt>
      <trkpt lat="44.34235" lon="2.56188">
        <ele>533.669</ele>
        <time>2009-01-30T20:24:22Z</time>
      </trkpt>
      <trkpt lat="44.34233" lon="2.5619">
        <ele>533.188</ele>
        <time>2009-01-30T20:24:23Z</time>
      </trkpt>
      <trkpt lat="44.34232" lon="2.56193">
        <ele>533.188</ele>
        <time>2009-01-30T20:24:24Z</time>
      </trkpt>
      <trkpt lat="44.3423" lon="2.56196">
        <ele>532.708</ele>
        <time>2009-01-30T20:24:25Z</time>
      </trkpt>
      <trkpt lat="44.34228" lon="2.56199">
        <ele>532.708</ele>
        <time>2009-01-30T20:24:26Z</time>
      </trkpt>
      <trkpt lat="44.34227" lon="2.56202">
        <ele>532.227</ele>
        <time>2009-01-30T20:24:27Z</time>
      </trkpt>
      <trkpt lat="44.34225" lon="2.56206">
        <ele>534.15</ele>
        <time>2009-01-30T20:24:28Z</time>
      </trkpt>
      <trkpt lat="44.34223" lon="2.56212">
        <ele>536.553</ele>
        <time>2009-01-30T20:24:29Z</time>
      </trkpt>
      <trkpt lat="44.34221" lon="2.56216">
        <ele>537.514</ele>
        <time>2009-01-30T20:24:30Z</time>
      </trkpt>
      <trkpt lat="44.3422" lon="2.5622">
        <ele>538.476</ele>
        <time>2009-01-30T20:24:31Z</time>
      </trkpt>
      <trkpt lat="44.34218" lon="2.56224">
        <ele>538.956</ele>
        <time>2009-01-30T20:24:32Z</time>
      </trkpt>
      <trkpt lat="44.34217" lon="2.56228">
        <ele>539.437</ele>
        <time>2009-01-30T20:24:33Z</time>
      </trkpt>
      <trkpt lat="44.34215" lon="2.56231">
        <ele>540.398</ele>
        <time>2009-01-30T20:24:34Z</time>
      </trkpt>
      <trkpt lat="44.34214" lon="2.56235">
        <ele>540.398</ele>
        <time>2009-01-30T20:24:35Z</time>
      </trkpt>
      <trkpt lat="44.34213" lon="2.56239">
        <ele>540.879</ele>
        <time>2009-01-30T20:24:36Z</time>
      </trkpt>
      <trkpt lat="44.34211" lon="2.56243">
        <ele>541.359</ele>
        <time>2009-01-30T20:24:37Z</time>
      </trkpt>
      <trkpt lat="44.34211" lon="2.56246">
        <ele>541.359</ele>
        <time>2009-01-30T20:24:38Z</time>
      </trkpt>
      <trkpt lat="44.3421" lon="2.56249">
        <ele>541.84</ele>
        <time>2009-01-30T20:24:39Z</time>
      </trkpt>
      <trkpt lat="44.34209" lon="2.56253">
        <ele>541.84</ele>
        <time>2009-01-30T20:24:40Z</time>
      </trkpt>
      <trkpt lat="44.34209" lon="2.56256">
        <ele>541.84</ele>
        <time>2009-01-30T20:24:41Z</time>
      </trkpt>
      <trkpt lat="44.34208" lon="2.56258">
        <ele>541.84</ele>
        <time>2009-01-30T20:24:42Z</time>
      </trkpt>
      <trkpt lat="44.34208" lon="2.56261">
        <ele>541.84</ele>
        <time>2009-01-30T20:24:43Z</time>
      </trkpt>
      <trkpt lat="44.34207" lon="2.56264">
        <ele>541.359</ele>
        <time>2009-01-30T20:24:44Z</time>
      </trkpt>
      <trkpt lat="44.34207" lon="2.56267">
        <ele>541.359</ele>
        <time>2009-01-30T20:24:45Z</time>
      </trkpt>
      <trkpt lat="44.34207" lon="2.5627">
        <ele>540.879</ele>
        <time>2009-01-30T20:24:46Z</time>
      </trkpt>
      <trkpt lat="44.34206" lon="2.56272">
        <ele>539.918</ele>
        <time>2009-01-30T20:24:47Z</time>
      </trkpt>
      <trkpt lat="44.34206" lon="2.56275">
        <ele>539.437</ele>
        <time>2009-01-30T20:24:48Z</time>
      </trkpt>
      <trkpt lat="44.34205" lon="2.56278">
        <ele>538.956</ele>
        <time>2009-01-30T20:24:49Z</time>
      </trkpt>
      <trkpt lat="44.34204" lon="2.56282">
        <ele>538.956</ele>
        <time>2009-01-30T20:24:50Z</time>
      </trkpt>
      <trkpt lat="44.34204" lon="2.56284">
        <ele>538.476</ele>
        <time>2009-01-30T20:24:51Z</time>
      </trkpt>
      <trkpt lat="44.34203" lon="2.56287">
        <ele>537.514</ele>
        <time>2009-01-30T20:24:52Z</time>
      </trkpt>
      <trkpt lat="44.34202" lon="2.56289">
        <ele>536.072</ele>
        <time>2009-01-30T20:24:53Z</time>
      </trkpt>
      <trkpt lat="44.34202" lon="2.56292">
        <ele>534.63</ele>
        <time>2009-01-30T20:24:54Z</time>
      </trkpt>
      <trkpt lat="44.34201" lon="2.56293">
        <ele>533.188</ele>
        <time>2009-01-30T20:24:55Z</time>
      </trkpt>
      <trkpt lat="44.342" lon="2.56295">
        <ele>531.746</ele>
        <time>2009-01-30T20:24:56Z</time>
      </trkpt>
      <trkpt lat="44.34199" lon="2.56297">
        <ele>529.824</ele>
        <time>2009-01-30T20:24:57Z</time>
      </trkpt>
      <trkpt lat="44.34198" lon="2.56299">
        <ele>528.382</ele>
        <time>2009-01-30T20:24:58Z</time>
      </trkpt>
      <trkpt lat="44.34197" lon="2.563">
        <ele>526.459</ele>
        <time>2009-01-30T20:24:59Z</time>
      </trkpt>
      <trkpt lat="44.34197" lon="2.56301">
        <ele>524.536</ele>
        <time>2009-01-30T20:25:00Z</time>
      </trkpt>
      <trkpt lat="44.34196" lon="2.56303">
        <ele>522.614</ele>
        <time>2009-01-30T20:25:01Z</time>
      </trkpt>
      <trkpt lat="44.34195" lon="2.56304">
        <ele>521.172</ele>
        <time>2009-01-30T20:25:02Z</time>
      </trkpt>
      <trkpt lat="44.34194" lon="2.56305">
        <ele>519.249</ele>
        <time>2009-01-30T20:25:03Z</time>
      </trkpt>
      <trkpt lat="44.34193" lon="2.56307">
        <ele>517.807</ele>
        <time>2009-01-30T20:25:04Z</time>
      </trkpt>
      <trkpt lat="44.34192" lon="2.56308">
        <ele>516.365</ele>
        <time>2009-01-30T20:25:05Z</time>
      </trkpt>
      <trkpt lat="44.34192" lon="2.56309">
        <ele>514.923</ele>
        <time>2009-01-30T20:25:06Z</time>
      </trkpt>
      <trkpt lat="44.34191" lon="2.56309">
        <ele>513.481</ele>
        <time>2009-01-30T20:25:07Z</time>
      </trkpt>
      <trkpt lat="44.34191" lon="2.5631">
        <ele>511.078</ele>
        <time>2009-01-30T20:25:08Z</time>
      </trkpt>
      <trkpt lat="44.3419" lon="2.56312">
        <ele>509.636</ele>
        <time>2009-01-30T20:25:09Z</time>
      </trkpt>
      <trkpt lat="44.34189" lon="2.56314">
        <ele>507.714</ele>
        <time>2009-01-30T20:25:10Z</time>
      </trkpt>
      <trkpt lat="44.34188" lon="2.56316">
        <ele>506.271</ele>
        <time>2009-01-30T20:25:11Z</time>
      </trkpt>
      <trkpt lat="44.34187" lon="2.56317">
        <ele>504.829</ele>
        <time>2009-01-30T20:25:12Z</time>
      </trkpt>
      <trkpt lat="44.34186" lon="2.56319">
        <ele>503.387</ele>
        <time>2009-01-30T20:25:13Z</time>
      </trkpt>
      <trkpt lat="44.34185" lon="2.56321">
        <ele>501.946</ele>
        <time>2009-01-30T20:25:14Z</time>
      </trkpt>
      <trkpt lat="44.34185" lon="2.56323">
        <ele>500.023</ele>
        <time>2009-01-30T20:25:15Z</time>
      </trkpt>
      <trkpt lat="44.34183" lon="2.56324">
        <ele>498.581</ele>
        <time>2009-01-30T20:25:16Z</time>
      </trkpt>
      <trkpt lat="44.34183" lon="2.56326">
        <ele>496.658</ele>
        <time>2009-01-30T20:25:17Z</time>
      </trkpt>
      <trkpt lat="44.34182" lon="2.56328">
        <ele>495.216</ele>
        <time>2009-01-30T20:25:18Z</time>
      </trkpt>
      <trkpt lat="44.34181" lon="2.5633">
        <ele>494.255</ele>
        <time>2009-01-30T20:25:19Z</time>
      </trkpt>
      <trkpt lat="44.34181" lon="2.56333">
        <ele>493.294</ele>
        <time>2009-01-30T20:25:20Z</time>
      </trkpt>
      <trkpt lat="44.3418" lon="2.56335">
        <ele>491.852</ele>
        <time>2009-01-30T20:25:21Z</time>
      </trkpt>
      <trkpt lat="44.3418" lon="2.56338">
        <ele>490.89</ele>
        <time>2009-01-30T20:25:22Z</time>
      </trkpt>
      <trkpt lat="44.34179" lon="2.56341">
        <ele>489.448</ele>
        <time>2009-01-30T20:25:23Z</time>
      </trkpt>
      <trkpt lat="44.34179" lon="2.56344">
        <ele>488.487</ele>
        <time>2009-01-30T20:25:24Z</time>
      </trkpt>
      <trkpt lat="44.34178" lon="2.56346">
        <ele>486.564</ele>
        <time>2009-01-30T20:25:25Z</time>
      </trkpt>
      <trkpt lat="44.34178" lon="2.56349">
        <ele>486.084</ele>
        <time>2009-01-30T20:25:26Z</time>
      </trkpt>
      <trkpt lat="44.34177" lon="2.56352">
        <ele>485.122</ele>
        <time>2009-01-30T20:25:27Z</time>
      </trkpt>
      <trkpt lat="44.34176" lon="2.56355">
        <ele>484.161</ele>
        <time>2009-01-30T20:25:28Z</time>
      </trkpt>
      <trkpt lat="44.34175" lon="2.56357">
        <ele>483.2</ele>
        <time>2009-01-30T20:25:29Z</time>
      </trkpt>
      <trkpt lat="44.34174" lon="2.5636">
        <ele>482.239</ele>
        <time>2009-01-30T20:25:30Z</time>
      </trkpt>
      <trkpt lat="44.34173" lon="2.56362">
        <ele>481.277</ele>
        <time>2009-01-30T20:25:31Z</time>
      </trkpt>
      <trkpt lat="44.34172" lon="2.56365">
        <ele>480.797</ele>
        <time>2009-01-30T20:25:32Z</time>
      </trkpt>
      <trkpt lat="44.34171" lon="2.56368">
        <ele>480.316</ele>
        <time>2009-01-30T20:25:33Z</time>
      </trkpt>
      <trkpt lat="44.34169" lon="2.5637">
        <ele>479.354</ele>
        <time>2009-01-30T20:25:34Z</time>
      </trkpt>
      <trkpt lat="44.34168" lon="2.56372">
        <ele>478.393</ele>
        <time>2009-01-30T20:25:35Z</time>
      </trkpt>
      <trkpt lat="44.34166" lon="2.56375">
        <ele>477.912</ele>
        <time>2009-01-30T20:25:36Z</time>
      </trkpt>
      <trkpt lat="44.34164" lon="2.56377">
        <ele>477.432</ele>
        <time>2009-01-30T20:25:37Z</time>
      </trkpt>
      <trkpt lat="44.34163" lon="2.56379">
        <ele>477.432</ele>
        <time>2009-01-30T20:25:38Z</time>
      </trkpt>
      <trkpt lat="44.34162" lon="2.56381">
        <ele>477.432</ele>
        <time>2009-01-30T20:25:39Z</time>
      </trkpt>
      <trkpt lat="44.34162" lon="2.56383">
        <ele>477.432</ele>
        <time>2009-01-30T20:25:40Z</time>
      </trkpt>
      <trkpt lat="44.34161" lon="2.56386">
        <ele>478.874</ele>
        <time>2009-01-30T20:25:41Z</time>
      </trkpt>
      <trkpt lat="44.3416" lon="2.56389">
        <ele>479.835</ele>
        <time>2009-01-30T20:25:42Z</time>
      </trkpt>
      <trkpt lat="44.34159" lon="2.56391">
        <ele>479.835</ele>
        <time>2009-01-30T20:25:43Z</time>
      </trkpt>
      <trkpt lat="44.34158" lon="2.56394">
        <ele>480.797</ele>
        <time>2009-01-30T20:25:44Z</time>
      </trkpt>
      <trkpt lat="44.34157" lon="2.56397">
        <ele>481.277</ele>
        <time>2009-01-30T20:25:45Z</time>
      </trkpt>
      <trkpt lat="44.34156" lon="2.564">
        <ele>481.758</ele>
        <time>2009-01-30T20:25:46Z</time>
      </trkpt>
      <trkpt lat="44.34154" lon="2.56404">
        <ele>483.2</ele>
        <time>2009-01-30T20:25:47Z</time>
      </trkpt>
      <trkpt lat="44.34153" lon="2.56407">
        <ele>483.2</ele>
        <time>2009-01-30T20:25:48Z</time>
      </trkpt>
      <trkpt lat="44.34152" lon="2.5641">
        <ele>483.2</ele>
        <time>2009-01-30T20:25:49Z</time>
      </trkpt>
      <trkpt lat="44.34151" lon="2.56413">
        <ele>483.68</ele>
        <time>2009-01-30T20:25:50Z</time>
      </trkpt>
      <trkpt lat="44.3415" lon="2.56418">
        <ele>485.122</ele>
        <time>2009-01-30T20:25:51Z</time>
      </trkpt>
      <trkpt lat="44.34149" lon="2.56422">
        <ele>485.122</ele>
        <time>2009-01-30T20:25:52Z</time>
      </trkpt>
      <trkpt lat="44.34148" lon="2.56427">
        <ele>485.603</ele>
        <time>2009-01-30T20:25:53Z</time>
      </trkpt>
      <trkpt lat="44.34147" lon="2.5643">
        <ele>485.603</ele>
        <time>2009-01-30T20:25:54Z</time>
      </trkpt>
      <trkpt lat="44.34147" lon="2.56433">
        <ele>484.642</ele>
        <time>2009-01-30T20:25:55Z</time>
      </trkpt>
      <trkpt lat="44.34147" lon="2.56438">
        <ele>487.526</ele>
        <time>2009-01-30T20:25:56Z</time>
      </trkpt>
      <trkpt lat="44.34149" lon="2.56443">
        <ele>488.968</ele>
        <time>2009-01-30T20:25:57Z</time>
      </trkpt>
      <trkpt lat="44.3415" lon="2.56446">
        <ele>489.448</ele>
        <time>2009-01-30T20:25:58Z</time>
      </trkpt>
      <trkpt lat="44.34152" lon="2.56448">
        <ele>488.968</ele>
        <time>2009-01-30T20:25:59Z</time>
      </trkpt>
      <trkpt lat="44.34154" lon="2.5645">
        <ele>488.968</ele>
        <time>2009-01-30T20:26:00Z</time>
      </trkpt>
      <trkpt lat="44.34156" lon="2.56452">
        <ele>489.448</ele>
        <time>2009-01-30T20:26:01Z</time>
      </trkpt>
      <trkpt lat="44.34158" lon="2.56455">
        <ele>489.929</ele>
        <time>2009-01-30T20:26:02Z</time>
      </trkpt>
      <trkpt lat="44.3416" lon="2.56458">
        <ele>489.929</ele>
        <time>2009-01-30T20:26:03Z</time>
      </trkpt>
      <trkpt lat="44.34162" lon="2.5646">
        <ele>490.41</ele>
        <time>2009-01-30T20:26:04Z</time>
      </trkpt>
      <trkpt lat="44.34165" lon="2.56461">
        <ele>490.41</ele>
        <time>2009-01-30T20:26:05Z</time>
      </trkpt>
      <trkpt lat="44.34167" lon="2.56463">
        <ele>490.89</ele>
        <time>2009-01-30T20:26:06Z</time>
      </trkpt>
      <trkpt lat="44.34169" lon="2.56464">
        <ele>490.89</ele>
        <time>2009-01-30T20:26:07Z</time>
      </trkpt>
      <trkpt lat="44.34171" lon="2.56465">
        <ele>491.371</ele>
        <time>2009-01-30T20:26:08Z</time>
      </trkpt>
      <trkpt lat="44.34173" lon="2.56467">
        <ele>491.852</ele>
        <time>2009-01-30T20:26:09Z</time>
      </trkpt>
      <trkpt lat="44.34175" lon="2.56469">
        <ele>491.852</ele>
        <time>2009-01-30T20:26:10Z</time>
      </trkpt>
      <trkpt lat="44.34178" lon="2.5647">
        <ele>492.813</ele>
        <time>2009-01-30T20:26:11Z</time>
      </trkpt>
      <trkpt lat="44.3418" lon="2.56471">
        <ele>492.813</ele>
        <time>2009-01-30T20:26:12Z</time>
      </trkpt>
      <trkpt lat="44.34182" lon="2.56472">
        <ele>493.774</ele>
        <time>2009-01-30T20:26:13Z</time>
      </trkpt>
      <trkpt lat="44.34184" lon="2.56475">
        <ele>495.216</ele>
        <time>2009-01-30T20:26:14Z</time>
      </trkpt>
      <trkpt lat="44.34186" lon="2.56478">
        <ele>496.658</ele>
        <time>2009-01-30T20:26:15Z</time>
      </trkpt>
      <trkpt lat="44.34189" lon="2.5648">
        <ele>498.1</ele>
        <time>2009-01-30T20:26:16Z</time>
      </trkpt>
      <trkpt lat="44.34191" lon="2.56483">
        <ele>499.542</ele>
        <time>2009-01-30T20:26:17Z</time>
      </trkpt>
      <trkpt lat="44.34193" lon="2.56485">
        <ele>500.984</ele>
        <time>2009-01-30T20:26:18Z</time>
      </trkpt>
      <trkpt lat="44.34195" lon="2.56488">
        <ele>503.387</ele>
        <time>2009-01-30T20:26:19Z</time>
      </trkpt>
      <trkpt lat="44.34197" lon="2.56491">
        <ele>505.791</ele>
        <time>2009-01-30T20:26:20Z</time>
      </trkpt>
      <trkpt lat="44.34199" lon="2.56494">
        <ele>507.714</ele>
        <time>2009-01-30T20:26:21Z</time>
      </trkpt>
      <trkpt lat="44.34201" lon="2.56496">
        <ele>508.675</ele>
        <time>2009-01-30T20:26:22Z</time>
      </trkpt>
      <trkpt lat="44.34204" lon="2.56498">
        <ele>509.155</ele>
        <time>2009-01-30T20:26:23Z</time>
      </trkpt>
      <trkpt lat="44.34206" lon="2.56498">
        <ele>509.155</ele>
        <time>2009-01-30T20:26:24Z</time>
      </trkpt>
      <trkpt lat="44.34209" lon="2.56499">
        <ele>509.155</ele>
        <time>2009-01-30T20:26:25Z</time>
      </trkpt>
      <trkpt lat="44.34211" lon="2.565">
        <ele>509.155</ele>
        <time>2009-01-30T20:26:26Z</time>
      </trkpt>
      <trkpt lat="44.34214" lon="2.56502">
        <ele>510.597</ele>
        <time>2009-01-30T20:26:27Z</time>
      </trkpt>
      <trkpt lat="44.34216" lon="2.56503">
        <ele>511.078</ele>
        <time>2009-01-30T20:26:28Z</time>
      </trkpt>
      <trkpt lat="44.34218" lon="2.56504">
        <ele>511.559</ele>
        <time>2009-01-30T20:26:29Z</time>
      </trkpt>
      <trkpt lat="44.34221" lon="2.56506">
        <ele>512.52</ele>
        <time>2009-01-30T20:26:30Z</time>
      </trkpt>
      <trkpt lat="44.34223" lon="2.56507">
        <ele>513.481</ele>
        <time>2009-01-30T20:26:31Z</time>
      </trkpt>
      <trkpt lat="44.34225" lon="2.56508">
        <ele>514.443</ele>
        <time>2009-01-30T20:26:32Z</time>
      </trkpt>
      <trkpt lat="44.34228" lon="2.56509">
        <ele>513.962</ele>
        <time>2009-01-30T20:26:33Z</time>
      </trkpt>
      <trkpt lat="44.3423" lon="2.5651">
        <ele>513.962</ele>
        <time>2009-01-30T20:26:34Z</time>
      </trkpt>
      <trkpt lat="44.34233" lon="2.5651">
        <ele>513.962</ele>
        <time>2009-01-30T20:26:35Z</time>
      </trkpt>
      <trkpt lat="44.34235" lon="2.5651">
        <ele>513.481</ele>
        <time>2009-01-30T20:26:36Z</time>
      </trkpt>
      <trkpt lat="44.34238" lon="2.56511">
        <ele>513.481</ele>
        <time>2009-01-30T20:26:37Z</time>
      </trkpt>
      <trkpt lat="44.34241" lon="2.56511">
        <ele>513.481</ele>
        <time>2009-01-30T20:26:38Z</time>
      </trkpt>
      <trkpt lat="44.34243" lon="2.56511">
        <ele>513.001</ele>
        <time>2009-01-30T20:26:39Z</time>
      </trkpt>
      <trkpt lat="44.34245" lon="2.56511">
        <ele>513.481</ele>
        <time>2009-01-30T20:26:40Z</time>
      </trkpt>
      <trkpt lat="44.34248" lon="2.5651">
        <ele>514.923</ele>
        <time>2009-01-30T20:26:41Z</time>
      </trkpt>
      <trkpt lat="44.3425" lon="2.56508">
        <ele>514.923</ele>
        <time>2009-01-30T20:26:42Z</time>
      </trkpt>
      <trkpt lat="44.34253" lon="2.56506">
        <ele>514.923</ele>
        <time>2009-01-30T20:26:43Z</time>
      </trkpt>
      <trkpt lat="44.34255" lon="2.56504">
        <ele>515.404</ele>
        <time>2009-01-30T20:26:44Z</time>
      </trkpt>
      <trkpt lat="44.34257" lon="2.56502">
        <ele>515.404</ele>
        <time>2009-01-30T20:26:45Z</time>
      </trkpt>
      <trkpt lat="44.34259" lon="2.565">
        <ele>515.404</ele>
        <time>2009-01-30T20:26:46Z</time>
      </trkpt>
      <trkpt lat="44.34261" lon="2.56498">
        <ele>515.404</ele>
        <time>2009-01-30T20:26:47Z</time>
      </trkpt>
      <trkpt lat="44.34263" lon="2.56495">
        <ele>515.404</ele>
        <time>2009-01-30T20:26:48Z</time>
      </trkpt>
      <trkpt lat="44.34265" lon="2.56493">
        <ele>515.404</ele>
        <time>2009-01-30T20:26:49Z</time>
      </trkpt>
      <trkpt lat="44.34267" lon="2.56491">
        <ele>515.404</ele>
        <time>2009-01-30T20:26:50Z</time>
      </trkpt>
      <trkpt lat="44.3427" lon="2.56489">
        <ele>515.404</ele>
        <time>2009-01-30T20:26:51Z</time>
      </trkpt>
      <trkpt lat="44.34272" lon="2.56487">
        <ele>515.885</ele>
        <time>2009-01-30T20:26:52Z</time>
      </trkpt>
      <trkpt lat="44.34274" lon="2.56484">
        <ele>515.885</ele>
        <time>2009-01-30T20:26:53Z</time>
      </trkpt>
      <trkpt lat="44.34275" lon="2.56482">
        <ele>515.885</ele>
        <time>2009-01-30T20:26:54Z</time>
      </trkpt>
      <trkpt lat="44.34277" lon="2.5648">
        <ele>515.885</ele>
        <time>2009-01-30T20:26:55Z</time>
      </trkpt>
      <trkpt lat="44.34279" lon="2.56477">
        <ele>516.365</ele>
        <time>2009-01-30T20:26:56Z</time>
      </trkpt>
      <trkpt lat="44.3428" lon="2.56475">
        <ele>516.365</ele>
        <time>2009-01-30T20:26:57Z</time>
      </trkpt>
      <trkpt lat="44.34282" lon="2.56473">
        <ele>516.846</ele>
        <time>2009-01-30T20:26:58Z</time>
      </trkpt>
      <trkpt lat="44.34283" lon="2.56472">
        <ele>516.846</ele>
        <time>2009-01-30T20:26:59Z</time>
      </trkpt>
      <trkpt lat="44.34285" lon="2.56471">
        <ele>516.846</ele>
        <time>2009-01-30T20:27:00Z</time>
      </trkpt>
      <trkpt lat="44.34286" lon="2.56471">
        <ele>517.327</ele>
        <time>2009-01-30T20:27:01Z</time>
      </trkpt>
      <trkpt lat="44.34288" lon="2.56472">
        <ele>517.807</ele>
        <time>2009-01-30T20:27:02Z</time>
      </trkpt>
      <trkpt lat="44.3429" lon="2.56473">
        <ele>517.807</ele>
        <time>2009-01-30T20:27:03Z</time>
      </trkpt>
      <trkpt lat="44.34292" lon="2.56474">
        <ele>517.807</ele>
        <time>2009-01-30T20:27:04Z</time>
      </trkpt>
      <trkpt lat="44.34294" lon="2.56474">
        <ele>517.807</ele>
        <time>2009-01-30T20:27:05Z</time>
      </trkpt>
      <trkpt lat="44.34296" lon="2.56475">
        <ele>518.288</ele>
        <time>2009-01-30T20:27:06Z</time>
      </trkpt>
      <trkpt lat="44.34297" lon="2.56475">
        <ele>518.288</ele>
        <time>2009-01-30T20:27:07Z</time>
      </trkpt>
      <trkpt lat="44.34298" lon="2.56475">
        <ele>518.288</ele>
        <time>2009-01-30T20:27:08Z</time>
      </trkpt>
      <trkpt lat="44.34299" lon="2.56475">
        <ele>518.288</ele>
        <time>2009-01-30T20:27:09Z</time>
      </trkpt>
      <trkpt lat="44.34301" lon="2.56475">
        <ele>518.769</ele>
        <time>2009-01-30T20:27:10Z</time>
      </trkpt>
      <trkpt lat="44.34302" lon="2.56475">
        <ele>518.769</ele>
        <time>2009-01-30T20:27:11Z</time>
      </trkpt>
      <trkpt lat="44.34303" lon="2.56475">
        <ele>519.249</ele>
        <time>2009-01-30T20:27:12Z</time>
      </trkpt>
      <trkpt lat="44.34304" lon="2.56475">
        <ele>519.249</ele>
        <time>2009-01-30T20:27:13Z</time>
      </trkpt>
      <trkpt lat="44.34304" lon="2.56476">
        <ele>519.249</ele>
        <time>2009-01-30T20:27:17Z</time>
      </trkpt>
      <trkpt lat="44.34304" lon="2.56477">
        <ele>519.249</ele>
        <time>2009-01-30T20:27:18Z</time>
      </trkpt>
      <trkpt lat="44.34305" lon="2.56478">
        <ele>519.249</ele>
        <time>2009-01-30T20:27:19Z</time>
      </trkpt>
      <trkpt lat="44.34306" lon="2.5648">
        <ele>519.249</ele>
        <time>2009-01-30T20:27:20Z</time>
      </trkpt>
      <trkpt lat="44.34306" lon="2.56481">
        <ele>519.249</ele>
        <time>2009-01-30T20:27:21Z</time>
      </trkpt>
      <trkpt lat="44.34307" lon="2.56482">
        <ele>518.769</ele>
        <time>2009-01-30T20:27:22Z</time>
      </trkpt>
      <trkpt lat="44.34308" lon="2.56483">
        <ele>519.249</ele>
        <time>2009-01-30T20:27:23Z</time>
      </trkpt>
      <trkpt lat="44.34309" lon="2.56484">
        <ele>519.249</ele>
        <time>2009-01-30T20:27:24Z</time>
      </trkpt>
      <trkpt lat="44.34309" lon="2.56485">
        <ele>519.249</ele>
        <time>2009-01-30T20:27:25Z</time>
      </trkpt>
      <trkpt lat="44.3431" lon="2.56485">
        <ele>519.73</ele>
        <time>2009-01-30T20:27:26Z</time>
      </trkpt>
      <trkpt lat="44.34311" lon="2.56486">
        <ele>520.211</ele>
        <time>2009-01-30T20:27:27Z</time>
      </trkpt>
      <trkpt lat="44.34312" lon="2.56486">
        <ele>520.691</ele>
        <time>2009-01-30T20:27:28Z</time>
      </trkpt>
      <trkpt lat="44.34314" lon="2.56485">
        <ele>525.017</ele>
        <time>2009-01-30T20:27:56Z</time>
      </trkpt>
      <trkpt lat="44.34315" lon="2.56484">
        <ele>524.536</ele>
        <time>2009-01-30T20:27:57Z</time>
      </trkpt>
      <trkpt lat="44.34315" lon="2.56483">
        <ele>524.056</ele>
        <time>2009-01-30T20:27:58Z</time>
      </trkpt>
      <trkpt lat="44.34315" lon="2.56483">
        <ele>523.575</ele>
        <time>2009-01-30T20:27:59Z</time>
      </trkpt>
      <trkpt lat="44.34316" lon="2.56482">
        <ele>523.575</ele>
        <time>2009-01-30T20:28:00Z</time>
      </trkpt>
      <trkpt lat="44.34316" lon="2.56482">
        <ele>523.095</ele>
        <time>2009-01-30T20:28:01Z</time>
      </trkpt>
      <trkpt lat="44.34316" lon="2.56482">
        <ele>523.095</ele>
        <time>2009-01-30T20:28:02Z</time>
      </trkpt>
      <trkpt lat="44.34317" lon="2.5648">
        <ele>523.095</ele>
        <time>2009-01-30T20:28:07Z</time>
      </trkpt>
      <trkpt lat="44.34316" lon="2.5648">
        <ele>522.614</ele>
        <time>2009-01-30T20:28:08Z</time>
      </trkpt>
      <trkpt lat="44.34317" lon="2.5648">
        <ele>522.133</ele>
        <time>2009-01-30T20:28:12Z</time>
      </trkpt>
      <trkpt lat="44.34317" lon="2.56479">
        <ele>521.653</ele>
        <time>2009-01-30T20:28:13Z</time>
      </trkpt>
      <trkpt lat="44.34318" lon="2.56479">
        <ele>521.653</ele>
        <time>2009-01-30T20:28:14Z</time>
      </trkpt>
      <trkpt lat="44.34319" lon="2.5648">
        <ele>521.653</ele>
        <time>2009-01-30T20:28:15Z</time>
      </trkpt>
      <trkpt lat="44.3432" lon="2.5648">
        <ele>521.653</ele>
        <time>2009-01-30T20:28:16Z</time>
      </trkpt>
      <trkpt lat="44.34321" lon="2.56481">
        <ele>520.691</ele>
        <time>2009-01-30T20:28:17Z</time>
      </trkpt>
      <trkpt lat="44.34323" lon="2.56482">
        <ele>520.691</ele>
        <time>2009-01-30T20:28:18Z</time>
      </trkpt>
      <trkpt lat="44.34325" lon="2.56483">
        <ele>520.691</ele>
        <time>2009-01-30T20:28:19Z</time>
      </trkpt>
      <trkpt lat="44.34327" lon="2.56483">
        <ele>520.691</ele>
        <time>2009-01-30T20:28:20Z</time>
      </trkpt>
      <trkpt lat="44.34328" lon="2.56483">
        <ele>521.172</ele>
        <time>2009-01-30T20:28:21Z</time>
      </trkpt>
      <trkpt lat="44.3433" lon="2.56483">
        <ele>521.653</ele>
        <time>2009-01-30T20:28:22Z</time>
      </trkpt>
      <trkpt lat="44.34332" lon="2.56483">
        <ele>521.653</ele>
        <time>2009-01-30T20:28:23Z</time>
      </trkpt>
      <trkpt lat="44.34334" lon="2.56483">
        <ele>522.133</ele>
        <time>2009-01-30T20:28:24Z</time>
      </trkpt>
      <trkpt lat="44.34336" lon="2.56483">
        <ele>522.133</ele>
        <time>2009-01-30T20:28:25Z</time>
      </trkpt>
      <trkpt lat="44.34338" lon="2.56482">
        <ele>523.095</ele>
        <time>2009-01-30T20:28:26Z</time>
      </trkpt>
      <trkpt lat="44.3434" lon="2.56481">
        <ele>523.095</ele>
        <time>2009-01-30T20:28:27Z</time>
      </trkpt>
      <trkpt lat="44.34341" lon="2.56479">
        <ele>523.095</ele>
        <time>2009-01-30T20:28:28Z</time>
      </trkpt>
      <trkpt lat="44.34342" lon="2.56477">
        <ele>522.614</ele>
        <time>2009-01-30T20:28:29Z</time>
      </trkpt>
      <trkpt lat="44.34344" lon="2.56476">
        <ele>522.614</ele>
        <time>2009-01-30T20:28:30Z</time>
      </trkpt>
      <trkpt lat="44.34345" lon="2.56475">
        <ele>522.614</ele>
        <time>2009-01-30T20:28:31Z</time>
      </trkpt>
      <trkpt lat="44.34346" lon="2.56474">
        <ele>523.095</ele>
        <time>2009-01-30T20:28:32Z</time>
      </trkpt>
      <trkpt lat="44.34348" lon="2.56473">
        <ele>523.095</ele>
        <time>2009-01-30T20:28:33Z</time>
      </trkpt>
      <trkpt lat="44.34349" lon="2.56472">
        <ele>523.575</ele>
        <time>2009-01-30T20:28:34Z</time>
      </trkpt>
      <trkpt lat="44.34351" lon="2.56471">
        <ele>524.056</ele>
        <time>2009-01-30T20:28:35Z</time>
      </trkpt>
      <trkpt lat="44.34352" lon="2.5647">
        <ele>524.056</ele>
        <time>2009-01-30T20:28:36Z</time>
      </trkpt>
      <trkpt lat="44.34354" lon="2.56469">
        <ele>524.056</ele>
        <time>2009-01-30T20:28:37Z</time>
      </trkpt>
      <trkpt lat="44.34356" lon="2.56467">
        <ele>524.056</ele>
        <time>2009-01-30T20:28:38Z</time>
      </trkpt>
      <trkpt lat="44.34357" lon="2.56466">
        <ele>524.056</ele>
        <time>2009-01-30T20:28:39Z</time>
      </trkpt>
      <trkpt lat="44.34358" lon="2.56466">
        <ele>524.056</ele>
        <time>2009-01-30T20:28:40Z</time>
      </trkpt>
      <trkpt lat="44.3436" lon="2.56465">
        <ele>524.536</ele>
        <time>2009-01-30T20:28:41Z</time>
      </trkpt>
      <trkpt lat="44.34361" lon="2.56464">
        <ele>524.536</ele>
        <time>2009-01-30T20:28:42Z</time>
      </trkpt>
      <trkpt lat="44.34361" lon="2.56464">
        <ele>524.536</ele>
        <time>2009-01-30T20:28:43Z</time>
      </trkpt>
      <trkpt lat="44.34362" lon="2.56464">
        <ele>524.056</ele>
        <time>2009-01-30T20:28:44Z</time>
      </trkpt>
      <trkpt lat="44.34362" lon="2.56463">
        <ele>524.056</ele>
        <time>2009-01-30T20:28:45Z</time>
      </trkpt>
      <trkpt lat="44.34363" lon="2.56463">
        <ele>523.575</ele>
        <time>2009-01-30T20:28:46Z</time>
      </trkpt>
      <trkpt lat="44.34363" lon="2.56464">
        <ele>523.575</ele>
        <time>2009-01-30T20:28:47Z</time>
      </trkpt>
      <trkpt lat="44.34365" lon="2.56464">
        <ele>523.095</ele>
        <time>2009-01-30T20:28:48Z</time>
      </trkpt>
      <trkpt lat="44.34366" lon="2.56464">
        <ele>523.575</ele>
        <time>2009-01-30T20:28:49Z</time>
      </trkpt>
      <trkpt lat="44.34368" lon="2.56465">
        <ele>524.536</ele>
        <time>2009-01-30T20:28:50Z</time>
      </trkpt>
      <trkpt lat="44.3437" lon="2.56466">
        <ele>525.017</ele>
        <time>2009-01-30T20:28:51Z</time>
      </trkpt>
      <trkpt lat="44.34371" lon="2.56467">
        <ele>525.017</ele>
        <time>2009-01-30T20:28:52Z</time>
      </trkpt>
      <trkpt lat="44.34373" lon="2.56467">
        <ele>525.978</ele>
        <time>2009-01-30T20:28:53Z</time>
      </trkpt>
      <trkpt lat="44.34376" lon="2.56467">
        <ele>526.459</ele>
        <time>2009-01-30T20:28:54Z</time>
      </trkpt>
      <trkpt lat="44.34377" lon="2.56467">
        <ele>526.459</ele>
        <time>2009-01-30T20:28:55Z</time>
      </trkpt>
      <trkpt lat="44.34379" lon="2.56466">
        <ele>526.459</ele>
        <time>2009-01-30T20:28:56Z</time>
      </trkpt>
      <trkpt lat="44.3438" lon="2.56465">
        <ele>525.978</ele>
        <time>2009-01-30T20:28:57Z</time>
      </trkpt>
      <trkpt lat="44.34381" lon="2.56465">
        <ele>525.498</ele>
        <time>2009-01-30T20:28:58Z</time>
      </trkpt>
      <trkpt lat="44.34383" lon="2.56464">
        <ele>525.498</ele>
        <time>2009-01-30T20:28:59Z</time>
      </trkpt>
      <trkpt lat="44.34384" lon="2.56462">
        <ele>525.017</ele>
        <time>2009-01-30T20:29:00Z</time>
      </trkpt>
      <trkpt lat="44.34385" lon="2.56461">
        <ele>524.536</ele>
        <time>2009-01-30T20:29:01Z</time>
      </trkpt>
      <trkpt lat="44.34387" lon="2.5646">
        <ele>524.056</ele>
        <time>2009-01-30T20:29:02Z</time>
      </trkpt>
      <trkpt lat="44.34389" lon="2.56458">
        <ele>523.575</ele>
        <time>2009-01-30T20:29:03Z</time>
      </trkpt>
      <trkpt lat="44.3439" lon="2.56457">
        <ele>523.575</ele>
        <time>2009-01-30T20:29:04Z</time>
      </trkpt>
      <trkpt lat="44.34392" lon="2.56456">
        <ele>523.575</ele>
        <time>2009-01-30T20:29:05Z</time>
      </trkpt>
      <trkpt lat="44.34394" lon="2.56454">
        <ele>523.575</ele>
        <time>2009-01-30T20:29:06Z</time>
      </trkpt>
      <trkpt lat="44.34396" lon="2.56453">
        <ele>523.575</ele>
        <time>2009-01-30T20:29:07Z</time>
      </trkpt>
      <trkpt lat="44.34398" lon="2.56452">
        <ele>523.095</ele>
        <time>2009-01-30T20:29:08Z</time>
      </trkpt>
      <trkpt lat="44.34399" lon="2.5645">
        <ele>522.614</ele>
        <time>2009-01-30T20:29:09Z</time>
      </trkpt>
      <trkpt lat="44.34401" lon="2.56449">
        <ele>522.614</ele>
        <time>2009-01-30T20:29:10Z</time>
      </trkpt>
      <trkpt lat="44.34403" lon="2.56448">
        <ele>522.614</ele>
        <time>2009-01-30T20:29:11Z</time>
      </trkpt>
      <trkpt lat="44.34405" lon="2.56447">
        <ele>523.095</ele>
        <time>2009-01-30T20:29:12Z</time>
      </trkpt>
      <trkpt lat="44.34406" lon="2.56445">
        <ele>522.614</ele>
        <time>2009-01-30T20:29:13Z</time>
      </trkpt>
      <trkpt lat="44.34408" lon="2.56444">
        <ele>522.614</ele>
        <time>2009-01-30T20:29:14Z</time>
      </trkpt>
      <trkpt lat="44.3441" lon="2.56443">
        <ele>522.133</ele>
        <time>2009-01-30T20:29:15Z</time>
      </trkpt>
      <trkpt lat="44.34411" lon="2.56442">
        <ele>522.133</ele>
        <time>2009-01-30T20:29:16Z</time>
      </trkpt>
      <trkpt lat="44.34412" lon="2.56441">
        <ele>522.614</ele>
        <time>2009-01-30T20:29:17Z</time>
      </trkpt>
      <trkpt lat="44.34415" lon="2.5644">
        <ele>523.575</ele>
        <time>2009-01-30T20:29:18Z</time>
      </trkpt>
      <trkpt lat="44.34418" lon="2.5644">
        <ele>525.498</ele>
        <time>2009-01-30T20:29:19Z</time>
      </trkpt>
      <trkpt lat="44.34421" lon="2.56439">
        <ele>527.42</ele>
        <time>2009-01-30T20:29:20Z</time>
      </trkpt>
      <trkpt lat="44.34424" lon="2.56439">
        <ele>528.382</ele>
        <time>2009-01-30T20:29:21Z</time>
      </trkpt>
      <trkpt lat="44.34427" lon="2.56439">
        <ele>529.343</ele>
        <time>2009-01-30T20:29:22Z</time>
      </trkpt>
      <trkpt lat="44.3443" lon="2.56438">
        <ele>529.824</ele>
        <time>2009-01-30T20:29:23Z</time>
      </trkpt>
      <trkpt lat="44.34432" lon="2.56438">
        <ele>530.304</ele>
        <time>2009-01-30T20:29:24Z</time>
      </trkpt>
      <trkpt lat="44.34435" lon="2.56438">
        <ele>530.785</ele>
        <time>2009-01-30T20:29:25Z</time>
      </trkpt>
      <trkpt lat="44.34437" lon="2.56438">
        <ele>531.266</ele>
        <time>2009-01-30T20:29:26Z</time>
      </trkpt>
      <trkpt lat="44.3444" lon="2.56438">
        <ele>531.266</ele>
        <time>2009-01-30T20:29:27Z</time>
      </trkpt>
      <trkpt lat="44.34442" lon="2.56439">
        <ele>531.746</ele>
        <time>2009-01-30T20:29:28Z</time>
      </trkpt>
      <trkpt lat="44.34445" lon="2.56439">
        <ele>531.746</ele>
        <time>2009-01-30T20:29:29Z</time>
      </trkpt>
      <trkpt lat="44.34447" lon="2.56439">
        <ele>532.227</ele>
        <time>2009-01-30T20:29:30Z</time>
      </trkpt>
      <trkpt lat="44.34449" lon="2.5644">
        <ele>532.227</ele>
        <time>2009-01-30T20:29:31Z</time>
      </trkpt>
      <trkpt lat="44.34451" lon="2.56441">
        <ele>532.227</ele>
        <time>2009-01-30T20:29:32Z</time>
      </trkpt>
      <trkpt lat="44.34453" lon="2.56441">
        <ele>532.708</ele>
        <time>2009-01-30T20:29:33Z</time>
      </trkpt>
      <trkpt lat="44.34455" lon="2.56443">
        <ele>532.708</ele>
        <time>2009-01-30T20:29:34Z</time>
      </trkpt>
      <trkpt lat="44.34457" lon="2.56444">
        <ele>532.227</ele>
        <time>2009-01-30T20:29:35Z</time>
      </trkpt>
      <trkpt lat="44.34459" lon="2.56446">
        <ele>532.227</ele>
        <time>2009-01-30T20:29:36Z</time>
      </trkpt>
      <trkpt lat="44.34461" lon="2.56447">
        <ele>532.227</ele>
        <time>2009-01-30T20:29:37Z</time>
      </trkpt>
      <trkpt lat="44.34463" lon="2.5645">
        <ele>532.708</ele>
        <time>2009-01-30T20:29:38Z</time>
      </trkpt>
      <trkpt lat="44.34465" lon="2.56452">
        <ele>532.708</ele>
        <time>2009-01-30T20:29:39Z</time>
      </trkpt>
      <trkpt lat="44.34467" lon="2.56454">
        <ele>532.708</ele>
        <time>2009-01-30T20:29:40Z</time>
      </trkpt>
      <trkpt lat="44.34468" lon="2.56456">
        <ele>533.188</ele>
        <time>2009-01-30T20:29:41Z</time>
      </trkpt>
      <trkpt lat="44.3447" lon="2.56458">
        <ele>533.188</ele>
        <time>2009-01-30T20:29:42Z</time>
      </trkpt>
      <trkpt lat="44.34472" lon="2.5646">
        <ele>533.188</ele>
        <time>2009-01-30T20:29:43Z</time>
      </trkpt>
      <trkpt lat="44.34473" lon="2.56463">
        <ele>533.188</ele>
        <time>2009-01-30T20:29:44Z</time>
      </trkpt>
      <trkpt lat="44.34475" lon="2.56465">
        <ele>533.188</ele>
        <time>2009-01-30T20:29:45Z</time>
      </trkpt>
      <trkpt lat="44.34476" lon="2.56467">
        <ele>533.188</ele>
        <time>2009-01-30T20:29:46Z</time>
      </trkpt>
      <trkpt lat="44.34477" lon="2.5647">
        <ele>533.669</ele>
        <time>2009-01-30T20:29:47Z</time>
      </trkpt>
      <trkpt lat="44.34479" lon="2.56472">
        <ele>533.669</ele>
        <time>2009-01-30T20:29:48Z</time>
      </trkpt>
      <trkpt lat="44.3448" lon="2.56475">
        <ele>533.669</ele>
        <time>2009-01-30T20:29:49Z</time>
      </trkpt>
      <trkpt lat="44.34481" lon="2.56477">
        <ele>533.669</ele>
        <time>2009-01-30T20:29:50Z</time>
      </trkpt>
      <trkpt lat="44.34482" lon="2.5648">
        <ele>533.669</ele>
        <time>2009-01-30T20:29:51Z</time>
      </trkpt>
      <trkpt lat="44.34483" lon="2.56482">
        <ele>533.188</ele>
        <time>2009-01-30T20:29:52Z</time>
      </trkpt>
      <trkpt lat="44.34484" lon="2.56484">
        <ele>533.188</ele>
        <time>2009-01-30T20:29:53Z</time>
      </trkpt>
      <trkpt lat="44.34484" lon="2.56487">
        <ele>533.669</ele>
        <time>2009-01-30T20:29:54Z</time>
      </trkpt>
      <trkpt lat="44.34484" lon="2.56489">
        <ele>533.669</ele>
        <time>2009-01-30T20:29:55Z</time>
      </trkpt>
      <trkpt lat="44.34485" lon="2.56492">
        <ele>533.669</ele>
        <time>2009-01-30T20:29:56Z</time>
      </trkpt>
      <trkpt lat="44.34485" lon="2.56495">
        <ele>533.669</ele>
        <time>2009-01-30T20:29:57Z</time>
      </trkpt>
      <trkpt lat="44.34485" lon="2.56497">
        <ele>533.188</ele>
        <time>2009-01-30T20:29:58Z</time>
      </trkpt>
      <trkpt lat="44.34485" lon="2.565">
        <ele>533.188</ele>
        <time>2009-01-30T20:29:59Z</time>
      </trkpt>
      <trkpt lat="44.34486" lon="2.56502">
        <ele>532.708</ele>
        <time>2009-01-30T20:30:00Z</time>
      </trkpt>
      <trkpt lat="44.34486" lon="2.56504">
        <ele>532.227</ele>
        <time>2009-01-30T20:30:01Z</time>
      </trkpt>
      <trkpt lat="44.34486" lon="2.56507">
        <ele>532.227</ele>
        <time>2009-01-30T20:30:02Z</time>
      </trkpt>
      <trkpt lat="44.34486" lon="2.5651">
        <ele>532.227</ele>
        <time>2009-01-30T20:30:03Z</time>
      </trkpt>
      <trkpt lat="44.34486" lon="2.56512">
        <ele>532.227</ele>
        <time>2009-01-30T20:30:04Z</time>
      </trkpt>
      <trkpt lat="44.34486" lon="2.56515">
        <ele>532.227</ele>
        <time>2009-01-30T20:30:05Z</time>
      </trkpt>
      <trkpt lat="44.34486" lon="2.56519">
        <ele>532.227</ele>
        <time>2009-01-30T20:30:06Z</time>
      </trkpt>
      <trkpt lat="44.34485" lon="2.56522">
        <ele>532.708</ele>
        <time>2009-01-30T20:30:07Z</time>
      </trkpt>
      <trkpt lat="44.34485" lon="2.56524">
        <ele>532.708</ele>
        <time>2009-01-30T20:30:08Z</time>
      </trkpt>
      <trkpt lat="44.34485" lon="2.56527">
        <ele>532.227</ele>
        <time>2009-01-30T20:30:09Z</time>
      </trkpt>
      <trkpt lat="44.34485" lon="2.5653">
        <ele>532.227</ele>
        <time>2009-01-30T20:30:10Z</time>
      </trkpt>
      <trkpt lat="44.34485" lon="2.56532">
        <ele>531.266</ele>
        <time>2009-01-30T20:30:11Z</time>
      </trkpt>
      <trkpt lat="44.34485" lon="2.56535">
        <ele>531.266</ele>
        <time>2009-01-30T20:30:12Z</time>
      </trkpt>
      <trkpt lat="44.34485" lon="2.56538">
        <ele>531.266</ele>
        <time>2009-01-30T20:30:13Z</time>
      </trkpt>
      <trkpt lat="44.34486" lon="2.56541">
        <ele>531.746</ele>
        <time>2009-01-30T20:30:14Z</time>
      </trkpt>
      <trkpt lat="44.34486" lon="2.56544">
        <ele>532.227</ele>
        <time>2009-01-30T20:30:15Z</time>
      </trkpt>
      <trkpt lat="44.34486" lon="2.56547">
        <ele>532.708</ele>
        <time>2009-01-30T20:30:16Z</time>
      </trkpt>
      <trkpt lat="44.34487" lon="2.5655">
        <ele>532.708</ele>
        <time>2009-01-30T20:30:17Z</time>
      </trkpt>
      <trkpt lat="44.34487" lon="2.56553">
        <ele>532.708</ele>
        <time>2009-01-30T20:30:18Z</time>
      </trkpt>
      <trkpt lat="44.34488" lon="2.56556">
        <ele>533.188</ele>
        <time>2009-01-30T20:30:19Z</time>
      </trkpt>
      <trkpt lat="44.34488" lon="2.56559">
        <ele>533.188</ele>
        <time>2009-01-30T20:30:20Z</time>
      </trkpt>
      <trkpt lat="44.34488" lon="2.56562">
        <ele>533.669</ele>
        <time>2009-01-30T20:30:21Z</time>
      </trkpt>
      <trkpt lat="44.34488" lon="2.56565">
        <ele>533.669</ele>
        <time>2009-01-30T20:30:22Z</time>
      </trkpt>
      <trkpt lat="44.34489" lon="2.56568">
        <ele>533.669</ele>
        <time>2009-01-30T20:30:23Z</time>
      </trkpt>
      <trkpt lat="44.34489" lon="2.5657">
        <ele>534.15</ele>
        <time>2009-01-30T20:30:24Z</time>
      </trkpt>
      <trkpt lat="44.34489" lon="2.56573">
        <ele>534.63</ele>
        <time>2009-01-30T20:30:25Z</time>
      </trkpt>
      <trkpt lat="44.3449" lon="2.56576">
        <ele>534.63</ele>
        <time>2009-01-30T20:30:26Z</time>
      </trkpt>
      <trkpt lat="44.3449" lon="2.56579">
        <ele>535.111</ele>
        <time>2009-01-30T20:30:27Z</time>
      </trkpt>
      <trkpt lat="44.34491" lon="2.56581">
        <ele>535.111</ele>
        <time>2009-01-30T20:30:28Z</time>
      </trkpt>
      <trkpt lat="44.34491" lon="2.56584">
        <ele>535.592</ele>
        <time>2009-01-30T20:30:29Z</time>
      </trkpt>
      <trkpt lat="44.34492" lon="2.56587">
        <ele>535.592</ele>
        <time>2009-01-30T20:30:30Z</time>
      </trkpt>
      <trkpt lat="44.34493" lon="2.56589">
        <ele>536.072</ele>
        <time>2009-01-30T20:30:31Z</time>
      </trkpt>
      <trkpt lat="44.34493" lon="2.56592">
        <ele>536.553</ele>
        <time>2009-01-30T20:30:32Z</time>
      </trkpt>
      <trkpt lat="44.34494" lon="2.56595">
        <ele>536.553</ele>
        <time>2009-01-30T20:30:33Z</time>
      </trkpt>
      <trkpt lat="44.34495" lon="2.56597">
        <ele>536.553</ele>
        <time>2009-01-30T20:30:34Z</time>
      </trkpt>
      <trkpt lat="44.34497" lon="2.56599">
        <ele>537.034</ele>
        <time>2009-01-30T20:30:35Z</time>
      </trkpt>
      <trkpt lat="44.34498" lon="2.56601">
        <ele>537.034</ele>
        <time>2009-01-30T20:30:36Z</time>
      </trkpt>
      <trkpt lat="44.34499" lon="2.56604">
        <ele>537.514</ele>
        <time>2009-01-30T20:30:37Z</time>
      </trkpt>
      <trkpt lat="44.345" lon="2.56606">
        <ele>537.514</ele>
        <time>2009-01-30T20:30:38Z</time>
      </trkpt>
      <trkpt lat="44.34501" lon="2.56608">
        <ele>537.514</ele>
        <time>2009-01-30T20:30:39Z</time>
      </trkpt>
      <trkpt lat="44.34502" lon="2.56611">
        <ele>537.514</ele>
        <time>2009-01-30T20:30:40Z</time>
      </trkpt>
      <trkpt lat="44.34503" lon="2.56613">
        <ele>537.514</ele>
        <time>2009-01-30T20:30:41Z</time>
      </trkpt>
      <trkpt lat="44.34504" lon="2.56616">
        <ele>537.514</ele>
        <time>2009-01-30T20:30:42Z</time>
      </trkpt>
      <trkpt lat="44.34506" lon="2.56618">
        <ele>537.514</ele>
        <time>2009-01-30T20:30:43Z</time>
      </trkpt>
      <trkpt lat="44.34507" lon="2.56621">
        <ele>537.995</ele>
        <time>2009-01-30T20:30:44Z</time>
      </trkpt>
      <trkpt lat="44.34508" lon="2.56623">
        <ele>537.995</ele>
        <time>2009-01-30T20:30:45Z</time>
      </trkpt>
      <trkpt lat="44.34509" lon="2.56626">
        <ele>537.995</ele>
        <time>2009-01-30T20:30:46Z</time>
      </trkpt>
      <trkpt lat="44.3451" lon="2.56629">
        <ele>537.995</ele>
        <time>2009-01-30T20:30:47Z</time>
      </trkpt>
      <trkpt lat="44.34512" lon="2.56631">
        <ele>538.476</ele>
        <time>2009-01-30T20:30:48Z</time>
      </trkpt>
      <trkpt lat="44.34513" lon="2.56634">
        <ele>538.956</ele>
        <time>2009-01-30T20:30:49Z</time>
      </trkpt>
      <trkpt lat="44.34514" lon="2.56637">
        <ele>538.956</ele>
        <time>2009-01-30T20:30:50Z</time>
      </trkpt>
      <trkpt lat="44.34515" lon="2.56639">
        <ele>539.437</ele>
        <time>2009-01-30T20:30:51Z</time>
      </trkpt>
      <trkpt lat="44.34517" lon="2.56642">
        <ele>539.437</ele>
        <time>2009-01-30T20:30:52Z</time>
      </trkpt>
      <trkpt lat="44.34518" lon="2.56645">
        <ele>539.437</ele>
        <time>2009-01-30T20:30:53Z</time>
      </trkpt>
      <trkpt lat="44.34519" lon="2.56647">
        <ele>539.437</ele>
        <time>2009-01-30T20:30:54Z</time>
      </trkpt>
      <trkpt lat="44.3452" lon="2.5665">
        <ele>539.918</ele>
        <time>2009-01-30T20:30:55Z</time>
      </trkpt>
      <trkpt lat="44.34521" lon="2.56653">
        <ele>539.918</ele>
        <time>2009-01-30T20:30:56Z</time>
      </trkpt>
      <trkpt lat="44.34523" lon="2.56656">
        <ele>539.918</ele>
        <time>2009-01-30T20:30:57Z</time>
      </trkpt>
      <trkpt lat="44.34524" lon="2.56659">
        <ele>539.918</ele>
        <time>2009-01-30T20:30:58Z</time>
      </trkpt>
      <trkpt lat="44.34525" lon="2.56663">
        <ele>540.398</ele>
        <time>2009-01-30T20:30:59Z</time>
      </trkpt>
      <trkpt lat="44.34526" lon="2.56666">
        <ele>540.398</ele>
        <time>2009-01-30T20:31:00Z</time>
      </trkpt>
      <trkpt lat="44.34528" lon="2.56669">
        <ele>540.398</ele>
        <time>2009-01-30T20:31:01Z</time>
      </trkpt>
      <trkpt lat="44.34529" lon="2.56671">
        <ele>540.398</ele>
        <time>2009-01-30T20:31:02Z</time>
      </trkpt>
      <trkpt lat="44.3453" lon="2.56674">
        <ele>540.398</ele>
        <time>2009-01-30T20:31:03Z</time>
      </trkpt>
      <trkpt lat="44.34531" lon="2.56676">
        <ele>539.918</ele>
        <time>2009-01-30T20:31:04Z</time>
      </trkpt>
      <trkpt lat="44.34533" lon="2.56679">
        <ele>539.437</ele>
        <time>2009-01-30T20:31:05Z</time>
      </trkpt>
      <trkpt lat="44.34534" lon="2.56682">
        <ele>538.956</ele>
        <time>2009-01-30T20:31:06Z</time>
      </trkpt>
      <trkpt lat="44.34535" lon="2.56685">
        <ele>538.956</ele>
        <time>2009-01-30T20:31:07Z</time>
      </trkpt>
      <trkpt lat="44.34536" lon="2.56688">
        <ele>538.476</ele>
        <time>2009-01-30T20:31:08Z</time>
      </trkpt>
      <trkpt lat="44.34537" lon="2.56691">
        <ele>538.476</ele>
        <time>2009-01-30T20:31:09Z</time>
      </trkpt>
      <trkpt lat="44.34538" lon="2.56694">
        <ele>537.995</ele>
        <time>2009-01-30T20:31:10Z</time>
      </trkpt>
      <trkpt lat="44.34539" lon="2.56696">
        <ele>537.514</ele>
        <time>2009-01-30T20:31:11Z</time>
      </trkpt>
      <trkpt lat="44.3454" lon="2.56698">
        <ele>537.034</ele>
        <time>2009-01-30T20:31:12Z</time>
      </trkpt>
      <trkpt lat="44.34542" lon="2.56701">
        <ele>537.034</ele>
        <time>2009-01-30T20:31:13Z</time>
      </trkpt>
      <trkpt lat="44.34543" lon="2.56703">
        <ele>536.553</ele>
        <time>2009-01-30T20:31:14Z</time>
      </trkpt>
      <trkpt lat="44.34544" lon="2.56706">
        <ele>536.072</ele>
        <time>2009-01-30T20:31:15Z</time>
      </trkpt>
      <trkpt lat="44.34545" lon="2.56708">
        <ele>535.111</ele>
        <time>2009-01-30T20:31:16Z</time>
      </trkpt>
      <trkpt lat="44.34546" lon="2.5671">
        <ele>535.111</ele>
        <time>2009-01-30T20:31:17Z</time>
      </trkpt>
      <trkpt lat="44.34547" lon="2.56713">
        <ele>534.15</ele>
        <time>2009-01-30T20:31:18Z</time>
      </trkpt>
      <trkpt lat="44.34549" lon="2.56715">
        <ele>534.15</ele>
        <time>2009-01-30T20:31:19Z</time>
      </trkpt>
      <trkpt lat="44.3455" lon="2.56718">
        <ele>533.669</ele>
        <time>2009-01-30T20:31:20Z</time>
      </trkpt>
      <trkpt lat="44.34551" lon="2.5672">
        <ele>533.188</ele>
        <time>2009-01-30T20:31:21Z</time>
      </trkpt>
      <trkpt lat="44.34552" lon="2.56723">
        <ele>533.188</ele>
        <time>2009-01-30T20:31:22Z</time>
      </trkpt>
      <trkpt lat="44.34554" lon="2.56726">
        <ele>533.669</ele>
        <time>2009-01-30T20:31:23Z</time>
      </trkpt>
      <trkpt lat="44.34555" lon="2.56728">
        <ele>533.188</ele>
        <time>2009-01-30T20:31:24Z</time>
      </trkpt>
      <trkpt lat="44.34556" lon="2.56731">
        <ele>533.188</ele>
        <time>2009-01-30T20:31:25Z</time>
      </trkpt>
      <trkpt lat="44.34558" lon="2.56734">
        <ele>532.708</ele>
        <time>2009-01-30T20:31:26Z</time>
      </trkpt>
      <trkpt lat="44.34559" lon="2.56736">
        <ele>532.227</ele>
        <time>2009-01-30T20:31:27Z</time>
      </trkpt>
      <trkpt lat="44.3456" lon="2.56738">
        <ele>531.746</ele>
        <time>2009-01-30T20:31:28Z</time>
      </trkpt>
      <trkpt lat="44.34561" lon="2.56741">
        <ele>532.227</ele>
        <time>2009-01-30T20:31:29Z</time>
      </trkpt>
      <trkpt lat="44.34563" lon="2.56743">
        <ele>532.227</ele>
        <time>2009-01-30T20:31:30Z</time>
      </trkpt>
      <trkpt lat="44.34564" lon="2.56745">
        <ele>532.708</ele>
        <time>2009-01-30T20:31:31Z</time>
      </trkpt>
      <trkpt lat="44.34565" lon="2.56748">
        <ele>533.188</ele>
        <time>2009-01-30T20:31:32Z</time>
      </trkpt>
      <trkpt lat="44.34567" lon="2.56751">
        <ele>533.669</ele>
        <time>2009-01-30T20:31:33Z</time>
      </trkpt>
      <trkpt lat="44.34568" lon="2.56754">
        <ele>534.15</ele>
        <time>2009-01-30T20:31:34Z</time>
      </trkpt>
      <trkpt lat="44.34569" lon="2.56758">
        <ele>534.63</ele>
        <time>2009-01-30T20:31:35Z</time>
      </trkpt>
      <trkpt lat="44.3457" lon="2.56761">
        <ele>535.592</ele>
        <time>2009-01-30T20:31:36Z</time>
      </trkpt>
      <trkpt lat="44.34572" lon="2.56764">
        <ele>536.072</ele>
        <time>2009-01-30T20:31:37Z</time>
      </trkpt>
      <trkpt lat="44.34573" lon="2.56767">
        <ele>537.034</ele>
        <time>2009-01-30T20:31:38Z</time>
      </trkpt>
      <trkpt lat="44.34574" lon="2.5677">
        <ele>537.514</ele>
        <time>2009-01-30T20:31:39Z</time>
      </trkpt>
      <trkpt lat="44.34575" lon="2.56772">
        <ele>538.476</ele>
        <time>2009-01-30T20:31:40Z</time>
      </trkpt>
      <trkpt lat="44.34576" lon="2.56776">
        <ele>538.956</ele>
        <time>2009-01-30T20:31:41Z</time>
      </trkpt>
      <trkpt lat="44.34577" lon="2.56778">
        <ele>539.437</ele>
        <time>2009-01-30T20:31:42Z</time>
      </trkpt>
      <trkpt lat="44.34578" lon="2.56781">
        <ele>539.918</ele>
        <time>2009-01-30T20:31:43Z</time>
      </trkpt>
      <trkpt lat="44.3458" lon="2.56783">
        <ele>539.918</ele>
        <time>2009-01-30T20:31:44Z</time>
      </trkpt>
      <trkpt lat="44.34581" lon="2.56785">
        <ele>538.956</ele>
        <time>2009-01-30T20:31:45Z</time>
      </trkpt>
      <trkpt lat="44.34583" lon="2.56787">
        <ele>539.437</ele>
        <time>2009-01-30T20:31:46Z</time>
      </trkpt>
      <trkpt lat="44.34584" lon="2.56788">
        <ele>539.918</ele>
        <time>2009-01-30T20:31:47Z</time>
      </trkpt>
      <trkpt lat="44.34585" lon="2.56789">
        <ele>539.437</ele>
        <time>2009-01-30T20:31:48Z</time>
      </trkpt>
      <trkpt lat="44.34587" lon="2.56791">
        <ele>538.956</ele>
        <time>2009-01-30T20:31:49Z</time>
      </trkpt>
      <trkpt lat="44.34589" lon="2.56792">
        <ele>537.995</ele>
        <time>2009-01-30T20:31:50Z</time>
      </trkpt>
      <trkpt lat="44.3459" lon="2.56794">
        <ele>537.995</ele>
        <time>2009-01-30T20:31:51Z</time>
      </trkpt>
      <trkpt lat="44.34592" lon="2.56795">
        <ele>537.034</ele>
        <time>2009-01-30T20:31:52Z</time>
      </trkpt>
      <trkpt lat="44.34594" lon="2.56797">
        <ele>536.553</ele>
        <time>2009-01-30T20:31:53Z</time>
      </trkpt>
      <trkpt lat="44.34596" lon="2.56798">
        <ele>536.553</ele>
        <time>2009-01-30T20:31:54Z</time>
      </trkpt>
      <trkpt lat="44.34597" lon="2.568">
        <ele>537.514</ele>
        <time>2009-01-30T20:31:55Z</time>
      </trkpt>
      <trkpt lat="44.34599" lon="2.56802">
        <ele>537.995</ele>
        <time>2009-01-30T20:31:56Z</time>
      </trkpt>
      <trkpt lat="44.346" lon="2.56804">
        <ele>538.956</ele>
        <time>2009-01-30T20:31:57Z</time>
      </trkpt>
      <trkpt lat="44.34602" lon="2.56805">
        <ele>538.956</ele>
        <time>2009-01-30T20:31:58Z</time>
      </trkpt>
      <trkpt lat="44.34604" lon="2.56807">
        <ele>539.437</ele>
        <time>2009-01-30T20:31:59Z</time>
      </trkpt>
      <trkpt lat="44.34606" lon="2.56808">
        <ele>538.956</ele>
        <time>2009-01-30T20:32:00Z</time>
      </trkpt>
      <trkpt lat="44.34608" lon="2.56809">
        <ele>537.995</ele>
        <time>2009-01-30T20:32:01Z</time>
      </trkpt>
      <trkpt lat="44.3461" lon="2.56809">
        <ele>537.034</ele>
        <time>2009-01-30T20:32:02Z</time>
      </trkpt>
      <trkpt lat="44.34612" lon="2.5681">
        <ele>536.553</ele>
        <time>2009-01-30T20:32:03Z</time>
      </trkpt>
      <trkpt lat="44.34614" lon="2.56811">
        <ele>535.592</ele>
        <time>2009-01-30T20:32:04Z</time>
      </trkpt>
      <trkpt lat="44.34616" lon="2.56812">
        <ele>534.15</ele>
        <time>2009-01-30T20:32:05Z</time>
      </trkpt>
      <trkpt lat="44.34618" lon="2.56813">
        <ele>533.188</ele>
        <time>2009-01-30T20:32:06Z</time>
      </trkpt>
      <trkpt lat="44.3462" lon="2.56814">
        <ele>533.188</ele>
        <time>2009-01-30T20:32:07Z</time>
      </trkpt>
      <trkpt lat="44.34622" lon="2.56815">
        <ele>532.227</ele>
        <time>2009-01-30T20:32:08Z</time>
      </trkpt>
      <trkpt lat="44.34624" lon="2.56816">
        <ele>532.227</ele>
        <time>2009-01-30T20:32:09Z</time>
      </trkpt>
      <trkpt lat="44.34626" lon="2.56818">
        <ele>532.708</ele>
        <time>2009-01-30T20:32:10Z</time>
      </trkpt>
      <trkpt lat="44.34627" lon="2.56821">
        <ele>533.669</ele>
        <time>2009-01-30T20:32:11Z</time>
      </trkpt>
      <trkpt lat="44.34628" lon="2.56825">
        <ele>536.553</ele>
        <time>2009-01-30T20:32:12Z</time>
      </trkpt>
      <trkpt lat="44.34629" lon="2.56828">
        <ele>537.995</ele>
        <time>2009-01-30T20:32:13Z</time>
      </trkpt>
      <trkpt lat="44.34629" lon="2.5683">
        <ele>539.437</ele>
        <time>2009-01-30T20:32:14Z</time>
      </trkpt>
      <trkpt lat="44.3463" lon="2.56833">
        <ele>540.398</ele>
        <time>2009-01-30T20:32:15Z</time>
      </trkpt>
      <trkpt lat="44.34631" lon="2.56835">
        <ele>541.359</ele>
        <time>2009-01-30T20:32:16Z</time>
      </trkpt>
      <trkpt lat="44.34632" lon="2.56837">
        <ele>540.879</ele>
        <time>2009-01-30T20:32:17Z</time>
      </trkpt>
      <trkpt lat="44.34632" lon="2.56839">
        <ele>541.84</ele>
        <time>2009-01-30T20:32:18Z</time>
      </trkpt>
      <trkpt lat="44.34633" lon="2.5684">
        <ele>541.359</ele>
        <time>2009-01-30T20:32:19Z</time>
      </trkpt>
      <trkpt lat="44.34633" lon="2.56841">
        <ele>540.879</ele>
        <time>2009-01-30T20:32:20Z</time>
      </trkpt>
      <trkpt lat="44.34634" lon="2.56842">
        <ele>541.359</ele>
        <time>2009-01-30T20:32:21Z</time>
      </trkpt>
      <trkpt lat="44.34636" lon="2.56843">
        <ele>542.321</ele>
        <time>2009-01-30T20:32:22Z</time>
      </trkpt>
      <trkpt lat="44.34639" lon="2.56844">
        <ele>543.763</ele>
        <time>2009-01-30T20:32:23Z</time>
      </trkpt>
      <trkpt lat="44.34642" lon="2.56843">
        <ele>544.724</ele>
        <time>2009-01-30T20:32:24Z</time>
      </trkpt>
      <trkpt lat="44.34645" lon="2.56844">
        <ele>545.686</ele>
        <time>2009-01-30T20:32:25Z</time>
      </trkpt>
      <trkpt lat="44.34648" lon="2.56844">
        <ele>546.647</ele>
        <time>2009-01-30T20:32:26Z</time>
      </trkpt>
      <trkpt lat="44.34651" lon="2.56844">
        <ele>547.127</ele>
        <time>2009-01-30T20:32:27Z</time>
      </trkpt>
      <trkpt lat="44.34653" lon="2.56844">
        <ele>547.608</ele>
        <time>2009-01-30T20:32:28Z</time>
      </trkpt>
      <trkpt lat="44.34656" lon="2.56844">
        <ele>548.089</ele>
        <time>2009-01-30T20:32:29Z</time>
      </trkpt>
      <trkpt lat="44.34659" lon="2.56844">
        <ele>549.05</ele>
        <time>2009-01-30T20:32:30Z</time>
      </trkpt>
      <trkpt lat="44.34661" lon="2.56845">
        <ele>550.011</ele>
        <time>2009-01-30T20:32:31Z</time>
      </trkpt>
      <trkpt lat="44.34663" lon="2.56845">
        <ele>550.492</ele>
        <time>2009-01-30T20:32:32Z</time>
      </trkpt>
      <trkpt lat="44.34666" lon="2.56846">
        <ele>551.934</ele>
        <time>2009-01-30T20:32:33Z</time>
      </trkpt>
      <trkpt lat="44.34668" lon="2.56847">
        <ele>552.415</ele>
        <time>2009-01-30T20:32:34Z</time>
      </trkpt>
      <trkpt lat="44.3467" lon="2.56847">
        <ele>552.895</ele>
        <time>2009-01-30T20:32:35Z</time>
      </trkpt>
      <trkpt lat="44.34672" lon="2.56848">
        <ele>553.376</ele>
        <time>2009-01-30T20:32:36Z</time>
      </trkpt>
      <trkpt lat="44.34674" lon="2.56848">
        <ele>553.857</ele>
        <time>2009-01-30T20:32:37Z</time>
      </trkpt>
      <trkpt lat="44.34677" lon="2.56848">
        <ele>553.857</ele>
        <time>2009-01-30T20:32:38Z</time>
      </trkpt>
      <trkpt lat="44.34679" lon="2.56848">
        <ele>554.337</ele>
        <time>2009-01-30T20:32:39Z</time>
      </trkpt>
      <trkpt lat="44.34681" lon="2.56849">
        <ele>554.337</ele>
        <time>2009-01-30T20:32:40Z</time>
      </trkpt>
      <trkpt lat="44.34683" lon="2.56849">
        <ele>553.857</ele>
        <time>2009-01-30T20:32:41Z</time>
      </trkpt>
      <trkpt lat="44.34685" lon="2.5685">
        <ele>554.337</ele>
        <time>2009-01-30T20:32:42Z</time>
      </trkpt>
      <trkpt lat="44.34687" lon="2.5685">
        <ele>554.337</ele>
        <time>2009-01-30T20:32:43Z</time>
      </trkpt>
      <trkpt lat="44.34689" lon="2.5685">
        <ele>554.337</ele>
        <time>2009-01-30T20:32:44Z</time>
      </trkpt>
      <trkpt lat="44.34691" lon="2.5685">
        <ele>554.337</ele>
        <time>2009-01-30T20:32:45Z</time>
      </trkpt>
      <trkpt lat="44.34694" lon="2.5685">
        <ele>554.337</ele>
        <time>2009-01-30T20:32:46Z</time>
      </trkpt>
      <trkpt lat="44.34696" lon="2.5685">
        <ele>554.818</ele>
        <time>2009-01-30T20:32:47Z</time>
      </trkpt>
      <trkpt lat="44.34698" lon="2.5685">
        <ele>554.337</ele>
        <time>2009-01-30T20:32:48Z</time>
      </trkpt>
      <trkpt lat="44.347" lon="2.56849">
        <ele>553.857</ele>
        <time>2009-01-30T20:32:49Z</time>
      </trkpt>
      <trkpt lat="44.34703" lon="2.56849">
        <ele>553.376</ele>
        <time>2009-01-30T20:32:50Z</time>
      </trkpt>
      <trkpt lat="44.34705" lon="2.56848">
        <ele>553.376</ele>
        <time>2009-01-30T20:32:51Z</time>
      </trkpt>
      <trkpt lat="44.34707" lon="2.56847">
        <ele>552.895</ele>
        <time>2009-01-30T20:32:52Z</time>
      </trkpt>
      <trkpt lat="44.34709" lon="2.56846">
        <ele>552.895</ele>
        <time>2009-01-30T20:32:53Z</time>
      </trkpt>
      <trkpt lat="44.34711" lon="2.56846">
        <ele>552.895</ele>
        <time>2009-01-30T20:32:54Z</time>
      </trkpt>
      <trkpt lat="44.34712" lon="2.56846">
        <ele>553.376</ele>
        <time>2009-01-30T20:32:55Z</time>
      </trkpt>
      <trkpt lat="44.34714" lon="2.56846">
        <ele>553.857</ele>
        <time>2009-01-30T20:32:56Z</time>
      </trkpt>
      <trkpt lat="44.34716" lon="2.56848">
        <ele>554.337</ele>
        <time>2009-01-30T20:32:57Z</time>
      </trkpt>
      <trkpt lat="44.34716" lon="2.5685">
        <ele>554.818</ele>
        <time>2009-01-30T20:32:58Z</time>
      </trkpt>
      <trkpt lat="44.34717" lon="2.56852">
        <ele>554.818</ele>
        <time>2009-01-30T20:32:59Z</time>
      </trkpt>
      <trkpt lat="44.34717" lon="2.56855">
        <ele>554.818</ele>
        <time>2009-01-30T20:33:00Z</time>
      </trkpt>
      <trkpt lat="44.34717" lon="2.56857">
        <ele>554.818</ele>
        <time>2009-01-30T20:33:01Z</time>
      </trkpt>
      <trkpt lat="44.34717" lon="2.56858">
        <ele>554.818</ele>
        <time>2009-01-30T20:33:02Z</time>
      </trkpt>
      <trkpt lat="44.34717" lon="2.5686">
        <ele>554.337</ele>
        <time>2009-01-30T20:33:03Z</time>
      </trkpt>
      <trkpt lat="44.34717" lon="2.56862">
        <ele>554.337</ele>
        <time>2009-01-30T20:33:04Z</time>
      </trkpt>
      <trkpt lat="44.34717" lon="2.56864">
        <ele>554.337</ele>
        <time>2009-01-30T20:33:05Z</time>
      </trkpt>
      <trkpt lat="44.34717" lon="2.56867">
        <ele>554.337</ele>
        <time>2009-01-30T20:33:06Z</time>
      </trkpt>
      <trkpt lat="44.34716" lon="2.56869">
        <ele>554.818</ele>
        <time>2009-01-30T20:33:07Z</time>
      </trkpt>
      <trkpt lat="44.34716" lon="2.56872">
        <ele>554.818</ele>
        <time>2009-01-30T20:33:08Z</time>
      </trkpt>
      <trkpt lat="44.34717" lon="2.56875">
        <ele>554.818</ele>
        <time>2009-01-30T20:33:09Z</time>
      </trkpt>
      <trkpt lat="44.34717" lon="2.56877">
        <ele>555.299</ele>
        <time>2009-01-30T20:33:10Z</time>
      </trkpt>
      <trkpt lat="44.34717" lon="2.5688">
        <ele>556.26</ele>
        <time>2009-01-30T20:33:11Z</time>
      </trkpt>
      <trkpt lat="44.34717" lon="2.56883">
        <ele>556.26</ele>
        <time>2009-01-30T20:33:12Z</time>
      </trkpt>
      <trkpt lat="44.34717" lon="2.56886">
        <ele>556.741</ele>
        <time>2009-01-30T20:33:13Z</time>
      </trkpt>
      <trkpt lat="44.34716" lon="2.56889">
        <ele>556.26</ele>
        <time>2009-01-30T20:33:14Z</time>
      </trkpt>
      <trkpt lat="44.34715" lon="2.56892">
        <ele>556.741</ele>
        <time>2009-01-30T20:33:15Z</time>
      </trkpt>
      <trkpt lat="44.34715" lon="2.56894">
        <ele>556.26</ele>
        <time>2009-01-30T20:33:16Z</time>
      </trkpt>
      <trkpt lat="44.34715" lon="2.56897">
        <ele>555.779</ele>
        <time>2009-01-30T20:33:17Z</time>
      </trkpt>
      <trkpt lat="44.34714" lon="2.569">
        <ele>555.299</ele>
        <time>2009-01-30T20:33:18Z</time>
      </trkpt>
      <trkpt lat="44.34714" lon="2.56902">
        <ele>555.299</ele>
        <time>2009-01-30T20:33:19Z</time>
      </trkpt>
      <trkpt lat="44.34714" lon="2.56905">
        <ele>555.299</ele>
        <time>2009-01-30T20:33:20Z</time>
      </trkpt>
      <trkpt lat="44.34713" lon="2.56908">
        <ele>555.299</ele>
        <time>2009-01-30T20:33:21Z</time>
      </trkpt>
      <trkpt lat="44.34713" lon="2.56911">
        <ele>555.779</ele>
        <time>2009-01-30T20:33:22Z</time>
      </trkpt>
      <trkpt lat="44.34712" lon="2.56913">
        <ele>555.779</ele>
        <time>2009-01-30T20:33:23Z</time>
      </trkpt>
      <trkpt lat="44.34712" lon="2.56915">
        <ele>556.26</ele>
        <time>2009-01-30T20:33:24Z</time>
      </trkpt>
      <trkpt lat="44.34712" lon="2.56918">
        <ele>556.26</ele>
        <time>2009-01-30T20:33:25Z</time>
      </trkpt>
      <trkpt lat="44.34712" lon="2.56921">
        <ele>556.26</ele>
        <time>2009-01-30T20:33:26Z</time>
      </trkpt>
      <trkpt lat="44.34712" lon="2.56923">
        <ele>556.741</ele>
        <time>2009-01-30T20:33:27Z</time>
      </trkpt>
      <trkpt lat="44.34711" lon="2.56926">
        <ele>556.26</ele>
        <time>2009-01-30T20:33:28Z</time>
      </trkpt>
      <trkpt lat="44.34711" lon="2.56929">
        <ele>556.26</ele>
        <time>2009-01-30T20:33:29Z</time>
      </trkpt>
      <trkpt lat="44.34711" lon="2.5693">
        <ele>555.779</ele>
        <time>2009-01-30T20:33:30Z</time>
      </trkpt>
      <trkpt lat="44.34711" lon="2.56933">
        <ele>555.779</ele>
        <time>2009-01-30T20:33:31Z</time>
      </trkpt>
      <trkpt lat="44.34711" lon="2.56935">
        <ele>555.779</ele>
        <time>2009-01-30T20:33:32Z</time>
      </trkpt>
      <trkpt lat="44.34711" lon="2.56937">
        <ele>555.779</ele>
        <time>2009-01-30T20:33:33Z</time>
      </trkpt>
      <trkpt lat="44.34711" lon="2.56939">
        <ele>555.779</ele>
        <time>2009-01-30T20:33:34Z</time>
      </trkpt>
      <trkpt lat="44.34712" lon="2.56941">
        <ele>557.221</ele>
        <time>2009-01-30T20:33:35Z</time>
      </trkpt>
      <trkpt lat="44.34712" lon="2.56943">
        <ele>557.221</ele>
        <time>2009-01-30T20:33:36Z</time>
      </trkpt>
      <trkpt lat="44.34713" lon="2.56945">
        <ele>558.183</ele>
        <time>2009-01-30T20:33:37Z</time>
      </trkpt>
      <trkpt lat="44.34713" lon="2.56948">
        <ele>559.144</ele>
        <time>2009-01-30T20:33:38Z</time>
      </trkpt>
      <trkpt lat="44.34713" lon="2.56951">
        <ele>559.625</ele>
        <time>2009-01-30T20:33:39Z</time>
      </trkpt>
      <trkpt lat="44.34713" lon="2.56954">
        <ele>560.586</ele>
        <time>2009-01-30T20:33:40Z</time>
      </trkpt>
      <trkpt lat="44.34712" lon="2.56958">
        <ele>560.586</ele>
        <time>2009-01-30T20:33:41Z</time>
      </trkpt>
      <trkpt lat="44.34712" lon="2.56961">
        <ele>561.067</ele>
        <time>2009-01-30T20:33:42Z</time>
      </trkpt>
      <trkpt lat="44.34711" lon="2.56964">
        <ele>561.067</ele>
        <time>2009-01-30T20:33:43Z</time>
      </trkpt>
      <trkpt lat="44.34711" lon="2.56967">
        <ele>561.547</ele>
        <time>2009-01-30T20:33:44Z</time>
      </trkpt>
      <trkpt lat="44.3471" lon="2.5697">
        <ele>561.067</ele>
        <time>2009-01-30T20:33:45Z</time>
      </trkpt>
      <trkpt lat="44.3471" lon="2.56973">
        <ele>561.067</ele>
        <time>2009-01-30T20:33:46Z</time>
      </trkpt>
      <trkpt lat="44.3471" lon="2.56976">
        <ele>561.547</ele>
        <time>2009-01-30T20:33:47Z</time>
      </trkpt>
      <trkpt lat="44.34709" lon="2.56979">
        <ele>561.547</ele>
        <time>2009-01-30T20:33:48Z</time>
      </trkpt>
      <trkpt lat="44.34709" lon="2.56982">
        <ele>561.547</ele>
        <time>2009-01-30T20:33:49Z</time>
      </trkpt>
      <trkpt lat="44.34708" lon="2.56985">
        <ele>562.028</ele>
        <time>2009-01-30T20:33:50Z</time>
      </trkpt>
      <trkpt lat="44.34708" lon="2.56988">
        <ele>562.028</ele>
        <time>2009-01-30T20:33:51Z</time>
      </trkpt>
      <trkpt lat="44.34708" lon="2.56991">
        <ele>562.989</ele>
        <time>2009-01-30T20:33:52Z</time>
      </trkpt>
      <trkpt lat="44.34707" lon="2.56995">
        <ele>563.47</ele>
        <time>2009-01-30T20:33:53Z</time>
      </trkpt>
      <trkpt lat="44.34707" lon="2.56997">
        <ele>563.47</ele>
        <time>2009-01-30T20:33:54Z</time>
      </trkpt>
      <trkpt lat="44.34706" lon="2.56999">
        <ele>564.431</ele>
        <time>2009-01-30T20:33:55Z</time>
      </trkpt>
      <trkpt lat="44.34706" lon="2.57002">
        <ele>563.95</ele>
        <time>2009-01-30T20:33:56Z</time>
      </trkpt>
      <trkpt lat="44.34706" lon="2.57004">
        <ele>564.431</ele>
        <time>2009-01-30T20:33:57Z</time>
      </trkpt>
      <trkpt lat="44.34706" lon="2.57006">
        <ele>563.95</ele>
        <time>2009-01-30T20:33:58Z</time>
      </trkpt>
      <trkpt lat="44.34706" lon="2.57008">
        <ele>563.95</ele>
        <time>2009-01-30T20:33:59Z</time>
      </trkpt>
      <trkpt lat="44.34706" lon="2.5701">
        <ele>564.431</ele>
        <time>2009-01-30T20:34:00Z</time>
      </trkpt>
      <trkpt lat="44.34706" lon="2.57013">
        <ele>564.431</ele>
        <time>2009-01-30T20:34:01Z</time>
      </trkpt>
      <trkpt lat="44.34706" lon="2.57015">
        <ele>564.912</ele>
        <time>2009-01-30T20:34:02Z</time>
      </trkpt>
      <trkpt lat="44.34705" lon="2.57017">
        <ele>564.912</ele>
        <time>2009-01-30T20:34:03Z</time>
      </trkpt>
      <trkpt lat="44.34705" lon="2.5702">
        <ele>565.393</ele>
        <time>2009-01-30T20:34:04Z</time>
      </trkpt>
      <trkpt lat="44.34705" lon="2.57024">
        <ele>567.796</ele>
        <time>2009-01-30T20:34:05Z</time>
      </trkpt>
      <trkpt lat="44.34704" lon="2.57027">
        <ele>568.757</ele>
        <time>2009-01-30T20:34:06Z</time>
      </trkpt>
      <trkpt lat="44.34704" lon="2.57029">
        <ele>569.238</ele>
        <time>2009-01-30T20:34:07Z</time>
      </trkpt>
      <trkpt lat="44.34703" lon="2.57032">
        <ele>569.238</ele>
        <time>2009-01-30T20:34:08Z</time>
      </trkpt>
      <trkpt lat="44.34703" lon="2.57034">
        <ele>569.719</ele>
        <time>2009-01-30T20:34:09Z</time>
      </trkpt>
      <trkpt lat="44.34703" lon="2.57036">
        <ele>569.238</ele>
        <time>2009-01-30T20:34:10Z</time>
      </trkpt>
      <trkpt lat="44.34704" lon="2.57038">
        <ele>568.757</ele>
        <time>2009-01-30T20:34:11Z</time>
      </trkpt>
      <trkpt lat="44.34705" lon="2.5704">
        <ele>568.757</ele>
        <time>2009-01-30T20:34:12Z</time>
      </trkpt>
      <trkpt lat="44.34706" lon="2.57041">
        <ele>568.757</ele>
        <time>2009-01-30T20:34:13Z</time>
      </trkpt>
      <trkpt lat="44.34707" lon="2.57043">
        <ele>568.276</ele>
        <time>2009-01-30T20:34:14Z</time>
      </trkpt>
      <trkpt lat="44.34709" lon="2.57044">
        <ele>568.757</ele>
        <time>2009-01-30T20:34:15Z</time>
      </trkpt>
      <trkpt lat="44.3471" lon="2.57046">
        <ele>568.757</ele>
        <time>2009-01-30T20:34:16Z</time>
      </trkpt>
      <trkpt lat="44.34711" lon="2.57047">
        <ele>569.719</ele>
        <time>2009-01-30T20:34:17Z</time>
      </trkpt>
      <trkpt lat="44.34712" lon="2.57049">
        <ele>570.68</ele>
        <time>2009-01-30T20:34:18Z</time>
      </trkpt>
      <trkpt lat="44.34713" lon="2.57051">
        <ele>574.525</ele>
        <time>2009-01-30T20:34:19Z</time>
      </trkpt>
      <trkpt lat="44.34713" lon="2.57054">
        <ele>577.89</ele>
        <time>2009-01-30T20:34:20Z</time>
      </trkpt>
      <trkpt lat="44.34713" lon="2.57055">
        <ele>578.37</ele>
        <time>2009-01-30T20:34:21Z</time>
      </trkpt>
      <trkpt lat="44.34713" lon="2.57057">
        <ele>578.37</ele>
        <time>2009-01-30T20:34:22Z</time>
      </trkpt>
      <trkpt lat="44.34714" lon="2.57059">
        <ele>579.332</ele>
        <time>2009-01-30T20:34:23Z</time>
      </trkpt>
      <trkpt lat="44.34715" lon="2.5706">
        <ele>579.812</ele>
        <time>2009-01-30T20:34:24Z</time>
      </trkpt>
      <trkpt lat="44.34715" lon="2.57062">
        <ele>579.812</ele>
        <time>2009-01-30T20:34:25Z</time>
      </trkpt>
      <trkpt lat="44.34716" lon="2.57064">
        <ele>579.332</ele>
        <time>2009-01-30T20:34:26Z</time>
      </trkpt>
      <trkpt lat="44.34715" lon="2.57067">
        <ele>578.851</ele>
        <time>2009-01-30T20:34:27Z</time>
      </trkpt>
      <trkpt lat="44.34715" lon="2.5707">
        <ele>579.332</ele>
        <time>2009-01-30T20:34:28Z</time>
      </trkpt>
      <trkpt lat="44.34714" lon="2.57072">
        <ele>580.293</ele>
        <time>2009-01-30T20:34:29Z</time>
      </trkpt>
      <trkpt lat="44.34713" lon="2.57075">
        <ele>580.774</ele>
        <time>2009-01-30T20:34:30Z</time>
      </trkpt>
      <trkpt lat="44.34713" lon="2.57078">
        <ele>580.774</ele>
        <time>2009-01-30T20:34:31Z</time>
      </trkpt>
      <trkpt lat="44.34713" lon="2.5708">
        <ele>580.293</ele>
        <time>2009-01-30T20:34:32Z</time>
      </trkpt>
      <trkpt lat="44.34713" lon="2.57082">
        <ele>579.812</ele>
        <time>2009-01-30T20:34:33Z</time>
      </trkpt>
      <trkpt lat="44.34712" lon="2.57084">
        <ele>579.332</ele>
        <time>2009-01-30T20:34:34Z</time>
      </trkpt>
      <trkpt lat="44.34712" lon="2.57085">
        <ele>578.851</ele>
        <time>2009-01-30T20:34:35Z</time>
      </trkpt>
      <trkpt lat="44.34712" lon="2.57087">
        <ele>578.851</ele>
        <time>2009-01-30T20:34:36Z</time>
      </trkpt>
      <trkpt lat="44.34711" lon="2.57088">
        <ele>580.293</ele>
        <time>2009-01-30T20:34:37Z</time>
      </trkpt>
      <trkpt lat="44.3471" lon="2.5709">
        <ele>580.293</ele>
        <time>2009-01-30T20:34:38Z</time>
      </trkpt>
      <trkpt lat="44.3471" lon="2.57091">
        <ele>580.774</ele>
        <time>2009-01-30T20:34:39Z</time>
      </trkpt>
      <trkpt lat="44.3471" lon="2.57093">
        <ele>580.774</ele>
        <time>2009-01-30T20:34:40Z</time>
      </trkpt>
      <trkpt lat="44.34709" lon="2.57093">
        <ele>580.774</ele>
        <time>2009-01-30T20:34:41Z</time>
      </trkpt>
      <trkpt lat="44.34709" lon="2.57094">
        <ele>581.254</ele>
        <time>2009-01-30T20:34:42Z</time>
      </trkpt>
      <trkpt lat="44.34708" lon="2.57096">
        <ele>580.774</ele>
        <time>2009-01-30T20:34:43Z</time>
      </trkpt>
      <trkpt lat="44.34708" lon="2.57097">
        <ele>580.774</ele>
        <time>2009-01-30T20:34:44Z</time>
      </trkpt>
      <trkpt lat="44.34708" lon="2.57098">
        <ele>580.774</ele>
        <time>2009-01-30T20:34:45Z</time>
      </trkpt>
      <trkpt lat="44.34708" lon="2.57099">
        <ele>580.293</ele>
        <time>2009-01-30T20:34:46Z</time>
      </trkpt>
      <trkpt lat="44.34709" lon="2.571">
        <ele>579.812</ele>
        <time>2009-01-30T20:34:47Z</time>
      </trkpt>
      <trkpt lat="44.34708" lon="2.57101">
        <ele>579.812</ele>
        <time>2009-01-30T20:34:48Z</time>
      </trkpt>
      <trkpt lat="44.34708" lon="2.57102">
        <ele>579.812</ele>
        <time>2009-01-30T20:34:49Z</time>
      </trkpt>
      <trkpt lat="44.34709" lon="2.57105">
        <ele>579.812</ele>
        <time>2009-01-30T20:34:52Z</time>
      </trkpt>
      <trkpt lat="44.34709" lon="2.57105">
        <ele>579.812</ele>
        <time>2009-01-30T20:34:53Z</time>
      </trkpt>
      <trkpt lat="44.34709" lon="2.57107">
        <ele>579.812</ele>
        <time>2009-01-30T20:34:54Z</time>
      </trkpt>
      <trkpt lat="44.3471" lon="2.57108">
        <ele>579.812</ele>
        <time>2009-01-30T20:34:55Z</time>
      </trkpt>
      <trkpt lat="44.3471" lon="2.57111">
        <ele>579.332</ele>
        <time>2009-01-30T20:34:56Z</time>
      </trkpt>
      <trkpt lat="44.34711" lon="2.57113">
        <ele>579.332</ele>
        <time>2009-01-30T20:34:57Z</time>
      </trkpt>
      <trkpt lat="44.34712" lon="2.57116">
        <ele>579.332</ele>
        <time>2009-01-30T20:34:58Z</time>
      </trkpt>
      <trkpt lat="44.34714" lon="2.57118">
        <ele>578.851</ele>
        <time>2009-01-30T20:34:59Z</time>
      </trkpt>
      <trkpt lat="44.34715" lon="2.5712">
        <ele>578.37</ele>
        <time>2009-01-30T20:35:00Z</time>
      </trkpt>
      <trkpt lat="44.34717" lon="2.57121">
        <ele>578.851</ele>
        <time>2009-01-30T20:35:01Z</time>
      </trkpt>
      <trkpt lat="44.34718" lon="2.57122">
        <ele>578.37</ele>
        <time>2009-01-30T20:35:02Z</time>
      </trkpt>
      <trkpt lat="44.34719" lon="2.57123">
        <ele>577.89</ele>
        <time>2009-01-30T20:35:03Z</time>
      </trkpt>
      <trkpt lat="44.34718" lon="2.57124">
        <ele>578.37</ele>
        <time>2009-01-30T20:35:04Z</time>
      </trkpt>
      <trkpt lat="44.34718" lon="2.57126">
        <ele>578.851</ele>
        <time>2009-01-30T20:35:05Z</time>
      </trkpt>
      <trkpt lat="44.34717" lon="2.57127">
        <ele>579.332</ele>
        <time>2009-01-30T20:35:06Z</time>
      </trkpt>
      <trkpt lat="44.34716" lon="2.57128">
        <ele>579.332</ele>
        <time>2009-01-30T20:35:07Z</time>
      </trkpt>
      <trkpt lat="44.34715" lon="2.57129">
        <ele>579.332</ele>
        <time>2009-01-30T20:35:08Z</time>
      </trkpt>
      <trkpt lat="44.34714" lon="2.57129">
        <ele>579.332</ele>
        <time>2009-01-30T20:35:09Z</time>
      </trkpt>
      <trkpt lat="44.34713" lon="2.5713">
        <ele>579.332</ele>
        <time>2009-01-30T20:35:10Z</time>
      </trkpt>
      <trkpt lat="44.34712" lon="2.5713">
        <ele>578.851</ele>
        <time>2009-01-30T20:35:11Z</time>
      </trkpt>
      <trkpt lat="44.34711" lon="2.57131">
        <ele>578.851</ele>
        <time>2009-01-30T20:35:12Z</time>
      </trkpt>
      <trkpt lat="44.3471" lon="2.57132">
        <ele>578.37</ele>
        <time>2009-01-30T20:35:13Z</time>
      </trkpt>
      <trkpt lat="44.34709" lon="2.57132">
        <ele>578.37</ele>
        <time>2009-01-30T20:35:14Z</time>
      </trkpt>
      <trkpt lat="44.34708" lon="2.57133">
        <ele>578.851</ele>
        <time>2009-01-30T20:35:15Z</time>
      </trkpt>
      <trkpt lat="44.34707" lon="2.57133">
        <ele>578.851</ele>
        <time>2009-01-30T20:35:16Z</time>
      </trkpt>
      <trkpt lat="44.34706" lon="2.57134">
        <ele>578.851</ele>
        <time>2009-01-30T20:35:17Z</time>
      </trkpt>
      <trkpt lat="44.34705" lon="2.57134">
        <ele>578.851</ele>
        <time>2009-01-30T20:35:18Z</time>
      </trkpt>
      <trkpt lat="44.34704" lon="2.57134">
        <ele>579.332</ele>
        <time>2009-01-30T20:35:19Z</time>
      </trkpt>
      <trkpt lat="44.34703" lon="2.57134">
        <ele>579.332</ele>
        <time>2009-01-30T20:35:20Z</time>
      </trkpt>
      <trkpt lat="44.34701" lon="2.57134">
        <ele>579.812</ele>
        <time>2009-01-30T20:35:21Z</time>
      </trkpt>
      <trkpt lat="44.347" lon="2.57134">
        <ele>580.293</ele>
        <time>2009-01-30T20:35:22Z</time>
      </trkpt>
      <trkpt lat="44.34699" lon="2.57134">
        <ele>580.774</ele>
        <time>2009-01-30T20:35:23Z</time>
      </trkpt>
      <trkpt lat="44.34698" lon="2.57134">
        <ele>580.774</ele>
        <time>2009-01-30T20:35:24Z</time>
      </trkpt>
      <trkpt lat="44.34697" lon="2.57135">
        <ele>581.735</ele>
        <time>2009-01-30T20:35:25Z</time>
      </trkpt>
      <trkpt lat="44.34697" lon="2.57137">
        <ele>581.735</ele>
        <time>2009-01-30T20:35:26Z</time>
      </trkpt>
      <trkpt lat="44.34698" lon="2.57138">
        <ele>581.735</ele>
        <time>2009-01-30T20:35:27Z</time>
      </trkpt>
      <trkpt lat="44.34699" lon="2.57139">
        <ele>582.216</ele>
        <time>2009-01-30T20:35:28Z</time>
      </trkpt>
      <trkpt lat="44.347" lon="2.5714">
        <ele>582.216</ele>
        <time>2009-01-30T20:35:29Z</time>
      </trkpt>
      <trkpt lat="44.34701" lon="2.5714">
        <ele>581.735</ele>
        <time>2009-01-30T20:35:30Z</time>
      </trkpt>
      <trkpt lat="44.34703" lon="2.57141">
        <ele>581.735</ele>
        <time>2009-01-30T20:35:31Z</time>
      </trkpt>
      <trkpt lat="44.34704" lon="2.57142">
        <ele>581.735</ele>
        <time>2009-01-30T20:35:32Z</time>
      </trkpt>
      <trkpt lat="44.34705" lon="2.57143">
        <ele>581.735</ele>
        <time>2009-01-30T20:35:33Z</time>
      </trkpt>
      <trkpt lat="44.34706" lon="2.57144">
        <ele>581.254</ele>
        <time>2009-01-30T20:35:34Z</time>
      </trkpt>
      <trkpt lat="44.34707" lon="2.57145">
        <ele>581.254</ele>
        <time>2009-01-30T20:35:35Z</time>
      </trkpt>
      <trkpt lat="44.34708" lon="2.57145">
        <ele>581.254</ele>
        <time>2009-01-30T20:35:36Z</time>
      </trkpt>
      <trkpt lat="44.34709" lon="2.57146">
        <ele>580.774</ele>
        <time>2009-01-30T20:35:37Z</time>
      </trkpt>
      <trkpt lat="44.3471" lon="2.57147">
        <ele>581.254</ele>
        <time>2009-01-30T20:35:38Z</time>
      </trkpt>
      <trkpt lat="44.34711" lon="2.57149">
        <ele>581.735</ele>
        <time>2009-01-30T20:35:39Z</time>
      </trkpt>
      <trkpt lat="44.34712" lon="2.5715">
        <ele>581.735</ele>
        <time>2009-01-30T20:35:40Z</time>
      </trkpt>
      <trkpt lat="44.34713" lon="2.57151">
        <ele>582.216</ele>
        <time>2009-01-30T20:35:41Z</time>
      </trkpt>
      <trkpt lat="44.34713" lon="2.57152">
        <ele>582.216</ele>
        <time>2009-01-30T20:35:42Z</time>
      </trkpt>
      <trkpt lat="44.34713" lon="2.57154">
        <ele>582.696</ele>
        <time>2009-01-30T20:35:43Z</time>
      </trkpt>
      <trkpt lat="44.34713" lon="2.57156">
        <ele>583.177</ele>
        <time>2009-01-30T20:35:44Z</time>
      </trkpt>
      <trkpt lat="44.34713" lon="2.57157">
        <ele>583.177</ele>
        <time>2009-01-30T20:35:45Z</time>
      </trkpt>
      <trkpt lat="44.34712" lon="2.57159">
        <ele>583.657</ele>
        <time>2009-01-30T20:35:46Z</time>
      </trkpt>
      <trkpt lat="44.34712" lon="2.5716">
        <ele>584.619</ele>
        <time>2009-01-30T20:35:47Z</time>
      </trkpt>
      <trkpt lat="44.34711" lon="2.57162">
        <ele>586.061</ele>
        <time>2009-01-30T20:35:48Z</time>
      </trkpt>
      <trkpt lat="44.3471" lon="2.57164">
        <ele>587.022</ele>
        <time>2009-01-30T20:35:49Z</time>
      </trkpt>
      <trkpt lat="44.3471" lon="2.57165">
        <ele>587.503</ele>
        <time>2009-01-30T20:35:50Z</time>
      </trkpt>
      <trkpt lat="44.3471" lon="2.57166">
        <ele>588.464</ele>
        <time>2009-01-30T20:35:51Z</time>
      </trkpt>
      <trkpt lat="44.3471" lon="2.57167">
        <ele>588.464</ele>
        <time>2009-01-30T20:35:52Z</time>
      </trkpt>
      <trkpt lat="44.3471" lon="2.57168">
        <ele>588.945</ele>
        <time>2009-01-30T20:35:53Z</time>
      </trkpt>
      <trkpt lat="44.3471" lon="2.57168">
        <ele>589.906</ele>
        <time>2009-01-30T20:35:54Z</time>
      </trkpt>
      <trkpt lat="44.34709" lon="2.57169">
        <ele>590.867</ele>
        <time>2009-01-30T20:35:56Z</time>
      </trkpt>
      <trkpt lat="44.3471" lon="2.5717">
        <ele>591.348</ele>
        <time>2009-01-30T20:35:57Z</time>
      </trkpt>
      <trkpt lat="44.34711" lon="2.5717">
        <ele>592.31</ele>
        <time>2009-01-30T20:35:58Z</time>
      </trkpt>
      <trkpt lat="44.34711" lon="2.57171">
        <ele>592.79</ele>
        <time>2009-01-30T20:35:59Z</time>
      </trkpt>
      <trkpt lat="44.34712" lon="2.57171">
        <ele>592.79</ele>
        <time>2009-01-30T20:36:00Z</time>
      </trkpt>
      <trkpt lat="44.34712" lon="2.57171">
        <ele>592.79</ele>
        <time>2009-01-30T20:36:01Z</time>
      </trkpt>
      <trkpt lat="44.34713" lon="2.57172">
        <ele>593.271</ele>
        <time>2009-01-30T20:36:02Z</time>
      </trkpt>
      <trkpt lat="44.34709" lon="2.57175">
        <ele>596.635</ele>
        <time>2009-01-30T20:36:16Z</time>
      </trkpt>
      <trkpt lat="44.34709" lon="2.57175">
        <ele>597.116</ele>
        <time>2009-01-30T20:36:17Z</time>
      </trkpt>
      <trkpt lat="44.3471" lon="2.57176">
        <ele>597.116</ele>
        <time>2009-01-30T20:36:18Z</time>
      </trkpt>
      <trkpt lat="44.3471" lon="2.57177">
        <ele>597.116</ele>
        <time>2009-01-30T20:36:19Z</time>
      </trkpt>
      <trkpt lat="44.34709" lon="2.57178">
        <ele>597.597</ele>
        <time>2009-01-30T20:36:20Z</time>
      </trkpt>
      <trkpt lat="44.34709" lon="2.57178">
        <ele>598.077</ele>
        <time>2009-01-30T20:36:21Z</time>
      </trkpt>
      <trkpt lat="44.34708" lon="2.57178">
        <ele>600.481</ele>
        <time>2009-01-30T20:36:23Z</time>
      </trkpt>
      <trkpt lat="44.34708" lon="2.57179">
        <ele>600.481</ele>
        <time>2009-01-30T20:36:24Z</time>
      </trkpt>
      <trkpt lat="44.34708" lon="2.5718">
        <ele>600.481</ele>
        <time>2009-01-30T20:36:25Z</time>
      </trkpt>
      <trkpt lat="44.34708" lon="2.5718">
        <ele>601.442</ele>
        <time>2009-01-30T20:36:26Z</time>
      </trkpt>
      <trkpt lat="44.34708" lon="2.5718">
        <ele>601.923</ele>
        <time>2009-01-30T20:36:27Z</time>
      </trkpt>
      <trkpt lat="44.34707" lon="2.57182">
        <ele>601.442</ele>
        <time>2009-01-30T20:36:28Z</time>
      </trkpt>
      <trkpt lat="44.34707" lon="2.57182">
        <ele>601.442</ele>
        <time>2009-01-30T20:36:29Z</time>
      </trkpt>
      <trkpt lat="44.34707" lon="2.57183">
        <ele>602.403</ele>
        <time>2009-01-30T20:36:30Z</time>
      </trkpt>
      <trkpt lat="44.34707" lon="2.57183">
        <ele>602.884</ele>
        <time>2009-01-30T20:36:31Z</time>
      </trkpt>
      <trkpt lat="44.34709" lon="2.57185">
        <ele>602.403</ele>
        <time>2009-01-30T20:36:32Z</time>
      </trkpt>
      <trkpt lat="44.34709" lon="2.57185">
        <ele>602.884</ele>
        <time>2009-01-30T20:36:33Z</time>
      </trkpt>
      <trkpt lat="44.3471" lon="2.57186">
        <ele>602.884</ele>
        <time>2009-01-30T20:36:34Z</time>
      </trkpt>
      <trkpt lat="44.3471" lon="2.57187">
        <ele>603.365</ele>
        <time>2009-01-30T20:36:35Z</time>
      </trkpt>
      <trkpt lat="44.3471" lon="2.57188">
        <ele>603.365</ele>
        <time>2009-01-30T20:36:36Z</time>
      </trkpt>
      <trkpt lat="44.3471" lon="2.57189">
        <ele>602.884</ele>
        <time>2009-01-30T20:36:37Z</time>
      </trkpt>
      <trkpt lat="44.34709" lon="2.5719">
        <ele>603.365</ele>
        <time>2009-01-30T20:36:38Z</time>
      </trkpt>
      <trkpt lat="44.34709" lon="2.57191">
        <ele>603.845</ele>
        <time>2009-01-30T20:36:39Z</time>
      </trkpt>
      <trkpt lat="44.3471" lon="2.57191">
        <ele>603.365</ele>
        <time>2009-01-30T20:36:40Z</time>
      </trkpt>
      <trkpt lat="44.3471" lon="2.57192">
        <ele>603.365</ele>
        <time>2009-01-30T20:36:41Z</time>
      </trkpt>
      <trkpt lat="44.3471" lon="2.57193">
        <ele>604.326</ele>
        <time>2009-01-30T20:36:42Z</time>
      </trkpt>
      <trkpt lat="44.34709" lon="2.57194">
        <ele>604.807</ele>
        <time>2009-01-30T20:36:43Z</time>
      </trkpt>
      <trkpt lat="44.34708" lon="2.57195">
        <ele>606.249</ele>
        <time>2009-01-30T20:36:44Z</time>
      </trkpt>
      <trkpt lat="44.34708" lon="2.57196">
        <ele>607.21</ele>
        <time>2009-01-30T20:36:45Z</time>
      </trkpt>
      <trkpt lat="44.34707" lon="2.57198">
        <ele>608.652</ele>
        <time>2009-01-30T20:36:46Z</time>
      </trkpt>
      <trkpt lat="44.34707" lon="2.57199">
        <ele>609.613</ele>
        <time>2009-01-30T20:36:47Z</time>
      </trkpt>
      <trkpt lat="44.34706" lon="2.572">
        <ele>610.574</ele>
        <time>2009-01-30T20:36:48Z</time>
      </trkpt>
      <trkpt lat="44.34706" lon="2.57202">
        <ele>611.055</ele>
        <time>2009-01-30T20:36:49Z</time>
      </trkpt>
      <trkpt lat="44.34704" lon="2.57203">
        <ele>613.458</ele>
        <time>2009-01-30T20:36:50Z</time>
      </trkpt>
      <trkpt lat="44.34703" lon="2.57204">
        <ele>614.42</ele>
        <time>2009-01-30T20:36:51Z</time>
      </trkpt>
      <trkpt lat="44.34702" lon="2.57206">
        <ele>616.342</ele>
        <time>2009-01-30T20:36:52Z</time>
      </trkpt>
      <trkpt lat="44.34701" lon="2.57207">
        <ele>618.265</ele>
        <time>2009-01-30T20:36:53Z</time>
      </trkpt>
      <trkpt lat="44.347" lon="2.57208">
        <ele>619.707</ele>
        <time>2009-01-30T20:36:54Z</time>
      </trkpt>
      <trkpt lat="44.347" lon="2.57209">
        <ele>621.149</ele>
        <time>2009-01-30T20:36:55Z</time>
      </trkpt>
      <trkpt lat="44.347" lon="2.57211">
        <ele>622.591</ele>
        <time>2009-01-30T20:36:56Z</time>
      </trkpt>
      <trkpt lat="44.347" lon="2.57213">
        <ele>622.591</ele>
        <time>2009-01-30T20:36:57Z</time>
      </trkpt>
      <trkpt lat="44.34699" lon="2.57215">
        <ele>622.591</ele>
        <time>2009-01-30T20:36:58Z</time>
      </trkpt>
      <trkpt lat="44.34698" lon="2.57216">
        <ele>623.072</ele>
        <time>2009-01-30T20:36:59Z</time>
      </trkpt>
      <trkpt lat="44.34697" lon="2.57218">
        <ele>623.072</ele>
        <time>2009-01-30T20:37:00Z</time>
      </trkpt>
      <trkpt lat="44.34697" lon="2.57219">
        <ele>623.072</ele>
        <time>2009-01-30T20:37:01Z</time>
      </trkpt>
      <trkpt lat="44.34697" lon="2.5722">
        <ele>623.072</ele>
        <time>2009-01-30T20:37:02Z</time>
      </trkpt>
      <trkpt lat="44.34696" lon="2.57222">
        <ele>623.072</ele>
        <time>2009-01-30T20:37:03Z</time>
      </trkpt>
      <trkpt lat="44.34696" lon="2.57223">
        <ele>623.552</ele>
        <time>2009-01-30T20:37:04Z</time>
      </trkpt>
      <trkpt lat="44.34696" lon="2.57225">
        <ele>623.072</ele>
        <time>2009-01-30T20:37:05Z</time>
      </trkpt>
      <trkpt lat="44.34695" lon="2.57227">
        <ele>623.552</ele>
        <time>2009-01-30T20:37:06Z</time>
      </trkpt>
      <trkpt lat="44.34696" lon="2.57229">
        <ele>623.552</ele>
        <time>2009-01-30T20:37:07Z</time>
      </trkpt>
      <trkpt lat="44.34697" lon="2.57231">
        <ele>623.552</ele>
        <time>2009-01-30T20:37:08Z</time>
      </trkpt>
      <trkpt lat="44.34699" lon="2.57235">
        <ele>621.63</ele>
        <time>2009-01-30T20:37:09Z</time>
      </trkpt>
      <trkpt lat="44.34702" lon="2.57238">
        <ele>619.707</ele>
        <time>2009-01-30T20:37:10Z</time>
      </trkpt>
      <trkpt lat="44.34702" lon="2.5724">
        <ele>618.265</ele>
        <time>2009-01-30T20:37:11Z</time>
      </trkpt>
      <trkpt lat="44.34703" lon="2.57242">
        <ele>617.304</ele>
        <time>2009-01-30T20:37:12Z</time>
      </trkpt>
      <trkpt lat="44.34703" lon="2.57244">
        <ele>616.823</ele>
        <time>2009-01-30T20:37:13Z</time>
      </trkpt>
      <trkpt lat="44.34704" lon="2.57246">
        <ele>616.823</ele>
        <time>2009-01-30T20:37:14Z</time>
      </trkpt>
      <trkpt lat="44.34704" lon="2.57248">
        <ele>616.342</ele>
        <time>2009-01-30T20:37:15Z</time>
      </trkpt>
      <trkpt lat="44.34704" lon="2.57249">
        <ele>615.862</ele>
        <time>2009-01-30T20:37:16Z</time>
      </trkpt>
      <trkpt lat="44.34704" lon="2.57249">
        <ele>615.381</ele>
        <time>2009-01-30T20:37:17Z</time>
      </trkpt>
      <trkpt lat="44.34704" lon="2.5725">
        <ele>615.381</ele>
        <time>2009-01-30T20:37:18Z</time>
      </trkpt>
      <trkpt lat="44.34702" lon="2.57254">
        <ele>616.823</ele>
        <time>2009-01-30T20:37:24Z</time>
      </trkpt>
      <trkpt lat="44.34702" lon="2.57255">
        <ele>617.784</ele>
        <time>2009-01-30T20:37:25Z</time>
      </trkpt>
      <trkpt lat="44.34702" lon="2.57256">
        <ele>618.265</ele>
        <time>2009-01-30T20:37:26Z</time>
      </trkpt>
      <trkpt lat="44.34703" lon="2.57257">
        <ele>618.265</ele>
        <time>2009-01-30T20:37:27Z</time>
      </trkpt>
      <trkpt lat="44.34704" lon="2.57257">
        <ele>618.746</ele>
        <time>2009-01-30T20:37:28Z</time>
      </trkpt>
      <trkpt lat="44.34705" lon="2.57257">
        <ele>619.226</ele>
        <time>2009-01-30T20:37:29Z</time>
      </trkpt>
      <trkpt lat="44.34706" lon="2.57257">
        <ele>619.707</ele>
        <time>2009-01-30T20:37:30Z</time>
      </trkpt>
      <trkpt lat="44.34706" lon="2.57258">
        <ele>619.226</ele>
        <time>2009-01-30T20:37:31Z</time>
      </trkpt>
      <trkpt lat="44.34709" lon="2.57257">
        <ele>620.188</ele>
        <time>2009-01-30T20:37:34Z</time>
      </trkpt>
      <trkpt lat="44.3471" lon="2.57256">
        <ele>620.188</ele>
        <time>2009-01-30T20:37:35Z</time>
      </trkpt>
      <trkpt lat="44.34712" lon="2.57256">
        <ele>619.226</ele>
        <time>2009-01-30T20:37:40Z</time>
      </trkpt>
      <trkpt lat="44.34712" lon="2.57257">
        <ele>619.226</ele>
        <time>2009-01-30T20:37:41Z</time>
      </trkpt>
      <trkpt lat="44.34712" lon="2.57257">
        <ele>619.707</ele>
        <time>2009-01-30T20:37:42Z</time>
      </trkpt>
      <trkpt lat="44.34713" lon="2.57258">
        <ele>619.226</ele>
        <time>2009-01-30T20:37:43Z</time>
      </trkpt>
      <trkpt lat="44.34713" lon="2.57258">
        <ele>618.746</ele>
        <time>2009-01-30T20:37:44Z</time>
      </trkpt>
      <trkpt lat="44.34713" lon="2.57259">
        <ele>618.265</ele>
        <time>2009-01-30T20:37:45Z</time>
      </trkpt>
      <trkpt lat="44.34713" lon="2.57259">
        <ele>617.784</ele>
        <time>2009-01-30T20:37:46Z</time>
      </trkpt>
      <trkpt lat="44.34714" lon="2.57259">
        <ele>616.823</ele>
        <time>2009-01-30T20:37:47Z</time>
      </trkpt>
      <trkpt lat="44.34714" lon="2.5726">
        <ele>616.342</ele>
        <time>2009-01-30T20:37:48Z</time>
      </trkpt>
      <trkpt lat="44.34714" lon="2.5726">
        <ele>616.342</ele>
        <time>2009-01-30T20:37:49Z</time>
      </trkpt>
      <trkpt lat="44.34714" lon="2.57261">
        <ele>615.862</ele>
        <time>2009-01-30T20:37:50Z</time>
      </trkpt>
      <trkpt lat="44.34714" lon="2.57262">
        <ele>614.9</ele>
        <time>2009-01-30T20:37:51Z</time>
      </trkpt>
      <trkpt lat="44.34713" lon="2.57262">
        <ele>615.381</ele>
        <time>2009-01-30T20:37:52Z</time>
      </trkpt>
      <trkpt lat="44.34703" lon="2.57263">
        <ele>625.956</ele>
        <time>2009-01-30T20:38:19Z</time>
      </trkpt>
      <trkpt lat="44.34702" lon="2.57264">
        <ele>626.436</ele>
        <time>2009-01-30T20:38:20Z</time>
      </trkpt>
      <trkpt lat="44.34707" lon="2.57259">
        <ele>628.359</ele>
        <time>2009-01-30T20:39:46Z</time>
      </trkpt>
      <trkpt lat="44.34707" lon="2.57259">
        <ele>627.398</ele>
        <time>2009-01-30T20:39:47Z</time>
      </trkpt>
      <trkpt lat="44.34708" lon="2.5726">
        <ele>627.398</ele>
        <time>2009-01-30T20:39:48Z</time>
      </trkpt>
      <trkpt lat="44.34709" lon="2.57261">
        <ele>625.956</ele>
        <time>2009-01-30T20:39:49Z</time>
      </trkpt>
      <trkpt lat="44.3471" lon="2.57262">
        <ele>624.514</ele>
        <time>2009-01-30T20:39:50Z</time>
      </trkpt>
      <trkpt lat="44.34711" lon="2.57262">
        <ele>624.033</ele>
        <time>2009-01-30T20:39:51Z</time>
      </trkpt>
      <trkpt lat="44.34712" lon="2.57263">
        <ele>624.033</ele>
        <time>2009-01-30T20:39:52Z</time>
      </trkpt>
      <trkpt lat="44.34712" lon="2.57264">
        <ele>624.033</ele>
        <time>2009-01-30T20:39:53Z</time>
      </trkpt>
      <trkpt lat="44.34713" lon="2.57265">
        <ele>624.514</ele>
        <time>2009-01-30T20:39:54Z</time>
      </trkpt>
      <trkpt lat="44.34714" lon="2.57265">
        <ele>624.514</ele>
        <time>2009-01-30T20:39:55Z</time>
      </trkpt>
      <trkpt lat="44.34714" lon="2.57265">
        <ele>624.514</ele>
        <time>2009-01-30T20:39:56Z</time>
      </trkpt>
      <trkpt lat="44.34715" lon="2.57266">
        <ele>624.514</ele>
        <time>2009-01-30T20:39:57Z</time>
      </trkpt>
      <trkpt lat="44.34716" lon="2.57266">
        <ele>624.514</ele>
        <time>2009-01-30T20:39:58Z</time>
      </trkpt>
      <trkpt lat="44.34717" lon="2.57267">
        <ele>624.514</ele>
        <time>2009-01-30T20:39:59Z</time>
      </trkpt>
      <trkpt lat="44.34718" lon="2.57268">
        <ele>625.475</ele>
        <time>2009-01-30T20:40:00Z</time>
      </trkpt>
      <trkpt lat="44.34719" lon="2.57268">
        <ele>625.475</ele>
        <time>2009-01-30T20:40:01Z</time>
      </trkpt>
      <trkpt lat="44.3472" lon="2.57268">
        <ele>625.956</ele>
        <time>2009-01-30T20:40:02Z</time>
      </trkpt>
      <trkpt lat="44.34721" lon="2.57267">
        <ele>626.436</ele>
        <time>2009-01-30T20:40:03Z</time>
      </trkpt>
      <trkpt lat="44.34723" lon="2.57267">
        <ele>625.475</ele>
        <time>2009-01-30T20:40:04Z</time>
      </trkpt>
      <trkpt lat="44.34724" lon="2.57268">
        <ele>624.994</ele>
        <time>2009-01-30T20:40:05Z</time>
      </trkpt>
      <trkpt lat="44.34725" lon="2.57268">
        <ele>624.514</ele>
        <time>2009-01-30T20:40:06Z</time>
      </trkpt>
      <trkpt lat="44.34726" lon="2.5727">
        <ele>624.994</ele>
        <time>2009-01-30T20:40:07Z</time>
      </trkpt>
      <trkpt lat="44.34727" lon="2.57273">
        <ele>623.552</ele>
        <time>2009-01-30T20:40:08Z</time>
      </trkpt>
      <trkpt lat="44.34728" lon="2.57275">
        <ele>621.63</ele>
        <time>2009-01-30T20:40:09Z</time>
      </trkpt>
      <trkpt lat="44.34728" lon="2.57278">
        <ele>620.668</ele>
        <time>2009-01-30T20:40:10Z</time>
      </trkpt>
      <trkpt lat="44.34729" lon="2.57279">
        <ele>619.707</ele>
        <time>2009-01-30T20:40:11Z</time>
      </trkpt>
      <trkpt lat="44.34729" lon="2.57281">
        <ele>618.746</ele>
        <time>2009-01-30T20:40:12Z</time>
      </trkpt>
      <trkpt lat="44.34729" lon="2.57282">
        <ele>618.746</ele>
        <time>2009-01-30T20:40:13Z</time>
      </trkpt>
      <trkpt lat="44.34728" lon="2.57284">
        <ele>619.226</ele>
        <time>2009-01-30T20:40:14Z</time>
      </trkpt>
      <trkpt lat="44.34729" lon="2.57285">
        <ele>619.226</ele>
        <time>2009-01-30T20:40:15Z</time>
      </trkpt>
      <trkpt lat="44.34729" lon="2.57286">
        <ele>619.226</ele>
        <time>2009-01-30T20:40:16Z</time>
      </trkpt>
      <trkpt lat="44.34729" lon="2.57288">
        <ele>619.707</ele>
        <time>2009-01-30T20:40:17Z</time>
      </trkpt>
      <trkpt lat="44.34729" lon="2.5729">
        <ele>618.746</ele>
        <time>2009-01-30T20:40:18Z</time>
      </trkpt>
      <trkpt lat="44.34729" lon="2.57291">
        <ele>619.226</ele>
        <time>2009-01-30T20:40:19Z</time>
      </trkpt>
      <trkpt lat="44.34729" lon="2.57292">
        <ele>619.226</ele>
        <time>2009-01-30T20:40:20Z</time>
      </trkpt>
      <trkpt lat="44.34729" lon="2.57293">
        <ele>620.188</ele>
        <time>2009-01-30T20:40:21Z</time>
      </trkpt>
      <trkpt lat="44.34728" lon="2.57298">
        <ele>622.591</ele>
        <time>2009-01-30T20:40:25Z</time>
      </trkpt>
      <trkpt lat="44.34728" lon="2.57299">
        <ele>623.072</ele>
        <time>2009-01-30T20:40:26Z</time>
      </trkpt>
      <trkpt lat="44.34727" lon="2.57301">
        <ele>623.552</ele>
        <time>2009-01-30T20:40:29Z</time>
      </trkpt>
      <trkpt lat="44.34725" lon="2.57302">
        <ele>624.994</ele>
        <time>2009-01-30T20:40:30Z</time>
      </trkpt>
      <trkpt lat="44.34725" lon="2.57302">
        <ele>624.994</ele>
        <time>2009-01-30T20:40:31Z</time>
      </trkpt>
      <trkpt lat="44.34725" lon="2.57304">
        <ele>624.514</ele>
        <time>2009-01-30T20:40:32Z</time>
      </trkpt>
      <trkpt lat="44.34725" lon="2.57304">
        <ele>624.033</ele>
        <time>2009-01-30T20:40:33Z</time>
      </trkpt>
      <trkpt lat="44.34725" lon="2.57306">
        <ele>624.514</ele>
        <time>2009-01-30T20:40:34Z</time>
      </trkpt>
      <trkpt lat="44.34725" lon="2.57308">
        <ele>628.359</ele>
        <time>2009-01-30T20:40:39Z</time>
      </trkpt>
      <trkpt lat="44.34725" lon="2.57308">
        <ele>628.84</ele>
        <time>2009-01-30T20:40:40Z</time>
      </trkpt>
      <trkpt lat="44.34734" lon="2.57304">
        <ele>638.934</ele>
        <time>2009-01-30T20:41:13Z</time>
      </trkpt>
      <trkpt lat="44.34736" lon="2.57303">
        <ele>637.972</ele>
        <time>2009-01-30T20:41:14Z</time>
      </trkpt>
      <trkpt lat="44.34739" lon="2.57302">
        <ele>637.972</ele>
        <time>2009-01-30T20:41:15Z</time>
      </trkpt>
      <trkpt lat="44.34742" lon="2.57302">
        <ele>638.453</ele>
        <time>2009-01-30T20:41:16Z</time>
      </trkpt>
      <trkpt lat="44.34747" lon="2.573">
        <ele>639.895</ele>
        <time>2009-01-30T20:41:17Z</time>
      </trkpt>
      <trkpt lat="44.34751" lon="2.573">
        <ele>640.856</ele>
        <time>2009-01-30T20:41:18Z</time>
      </trkpt>
      <trkpt lat="44.34755" lon="2.57299">
        <ele>641.817</ele>
        <time>2009-01-30T20:41:19Z</time>
      </trkpt>
      <trkpt lat="44.34758" lon="2.57298">
        <ele>643.259</ele>
        <time>2009-01-30T20:41:20Z</time>
      </trkpt>
      <trkpt lat="44.34761" lon="2.57298">
        <ele>643.259</ele>
        <time>2009-01-30T20:41:21Z</time>
      </trkpt>
      <trkpt lat="44.34765" lon="2.57298">
        <ele>644.221</ele>
        <time>2009-01-30T20:41:22Z</time>
      </trkpt>
      <trkpt lat="44.34767" lon="2.57297">
        <ele>644.221</ele>
        <time>2009-01-30T20:41:23Z</time>
      </trkpt>
      <trkpt lat="44.34769" lon="2.57296">
        <ele>644.701</ele>
        <time>2009-01-30T20:41:24Z</time>
      </trkpt>
      <trkpt lat="44.34771" lon="2.57295">
        <ele>644.701</ele>
        <time>2009-01-30T20:41:25Z</time>
      </trkpt>
      <trkpt lat="44.34772" lon="2.57294">
        <ele>644.701</ele>
        <time>2009-01-30T20:41:26Z</time>
      </trkpt>
      <trkpt lat="44.34774" lon="2.57294">
        <ele>645.182</ele>
        <time>2009-01-30T20:41:27Z</time>
      </trkpt>
      <trkpt lat="44.34778" lon="2.57294">
        <ele>646.143</ele>
        <time>2009-01-30T20:41:28Z</time>
      </trkpt>
      <trkpt lat="44.3478" lon="2.57293">
        <ele>646.143</ele>
        <time>2009-01-30T20:41:29Z</time>
      </trkpt>
      <trkpt lat="44.34781" lon="2.57293">
        <ele>645.663</ele>
        <time>2009-01-30T20:41:30Z</time>
      </trkpt>
      <trkpt lat="44.34783" lon="2.57293">
        <ele>646.624</ele>
        <time>2009-01-30T20:41:31Z</time>
      </trkpt>
      <trkpt lat="44.34786" lon="2.57293">
        <ele>646.624</ele>
        <time>2009-01-30T20:41:32Z</time>
      </trkpt>
      <trkpt lat="44.3479" lon="2.57294">
        <ele>646.143</ele>
        <time>2009-01-30T20:41:33Z</time>
      </trkpt>
      <trkpt lat="44.34794" lon="2.57294">
        <ele>646.624</ele>
        <time>2009-01-30T20:41:34Z</time>
      </trkpt>
      <trkpt lat="44.34797" lon="2.57294">
        <ele>645.182</ele>
        <time>2009-01-30T20:41:35Z</time>
      </trkpt>
      <trkpt lat="44.34797" lon="2.57294">
        <ele>643.259</ele>
        <time>2009-01-30T20:41:36Z</time>
      </trkpt>
      <trkpt lat="44.34799" lon="2.57294">
        <ele>642.298</ele>
        <time>2009-01-30T20:41:37Z</time>
      </trkpt>
      <trkpt lat="44.34799" lon="2.57293">
        <ele>639.895</ele>
        <time>2009-01-30T20:41:38Z</time>
      </trkpt>
      <trkpt lat="44.34801" lon="2.57293">
        <ele>638.453</ele>
        <time>2009-01-30T20:41:39Z</time>
      </trkpt>
      <trkpt lat="44.34803" lon="2.57293">
        <ele>637.491</ele>
        <time>2009-01-30T20:41:40Z</time>
      </trkpt>
      <trkpt lat="44.34804" lon="2.57293">
        <ele>636.53</ele>
        <time>2009-01-30T20:41:41Z</time>
      </trkpt>
      <trkpt lat="44.34806" lon="2.57292">
        <ele>635.569</ele>
        <time>2009-01-30T20:41:42Z</time>
      </trkpt>
      <trkpt lat="44.34807" lon="2.57291">
        <ele>634.127</ele>
        <time>2009-01-30T20:41:43Z</time>
      </trkpt>
      <trkpt lat="44.34809" lon="2.57291">
        <ele>632.685</ele>
        <time>2009-01-30T20:41:44Z</time>
      </trkpt>
      <trkpt lat="44.3481" lon="2.5729">
        <ele>631.723</ele>
        <time>2009-01-30T20:41:45Z</time>
      </trkpt>
      <trkpt lat="44.34811" lon="2.5729">
        <ele>630.762</ele>
        <time>2009-01-30T20:41:46Z</time>
      </trkpt>
      <trkpt lat="44.34813" lon="2.5729">
        <ele>629.801</ele>
        <time>2009-01-30T20:41:47Z</time>
      </trkpt>
      <trkpt lat="44.34815" lon="2.57291">
        <ele>628.84</ele>
        <time>2009-01-30T20:41:48Z</time>
      </trkpt>
      <trkpt lat="44.34816" lon="2.57292">
        <ele>627.878</ele>
        <time>2009-01-30T20:41:49Z</time>
      </trkpt>
      <trkpt lat="44.34816" lon="2.57294">
        <ele>625.956</ele>
        <time>2009-01-30T20:41:50Z</time>
      </trkpt>
      <trkpt lat="44.34816" lon="2.57294">
        <ele>625.956</ele>
        <time>2009-01-30T20:41:51Z</time>
      </trkpt>
      <trkpt lat="44.34818" lon="2.57293">
        <ele>626.436</ele>
        <time>2009-01-30T20:41:52Z</time>
      </trkpt>
      <trkpt lat="44.3482" lon="2.57292">
        <ele>626.436</ele>
        <time>2009-01-30T20:41:53Z</time>
      </trkpt>
      <trkpt lat="44.34821" lon="2.57291">
        <ele>625.956</ele>
        <time>2009-01-30T20:41:54Z</time>
      </trkpt>
      <trkpt lat="44.34824" lon="2.57291">
        <ele>625.956</ele>
        <time>2009-01-30T20:41:55Z</time>
      </trkpt>
      <trkpt lat="44.34826" lon="2.57291">
        <ele>624.994</ele>
        <time>2009-01-30T20:41:56Z</time>
      </trkpt>
      <trkpt lat="44.34828" lon="2.5729">
        <ele>624.033</ele>
        <time>2009-01-30T20:41:57Z</time>
      </trkpt>
      <trkpt lat="44.3483" lon="2.5729">
        <ele>623.552</ele>
        <time>2009-01-30T20:41:58Z</time>
      </trkpt>
      <trkpt lat="44.34833" lon="2.5729">
        <ele>623.072</ele>
        <time>2009-01-30T20:41:59Z</time>
      </trkpt>
      <trkpt lat="44.34836" lon="2.57289">
        <ele>622.591</ele>
        <time>2009-01-30T20:42:00Z</time>
      </trkpt>
      <trkpt lat="44.34838" lon="2.57288">
        <ele>621.63</ele>
        <time>2009-01-30T20:42:01Z</time>
      </trkpt>
      <trkpt lat="44.34841" lon="2.57287">
        <ele>620.668</ele>
        <time>2009-01-30T20:42:02Z</time>
      </trkpt>
      <trkpt lat="44.34842" lon="2.57286">
        <ele>619.707</ele>
        <time>2009-01-30T20:42:03Z</time>
      </trkpt>
      <trkpt lat="44.34845" lon="2.57285">
        <ele>619.707</ele>
        <time>2009-01-30T20:42:04Z</time>
      </trkpt>
      <trkpt lat="44.34846" lon="2.57285">
        <ele>619.226</ele>
        <time>2009-01-30T20:42:05Z</time>
      </trkpt>
      <trkpt lat="44.34848" lon="2.57284">
        <ele>619.226</ele>
        <time>2009-01-30T20:42:06Z</time>
      </trkpt>
      <trkpt lat="44.34849" lon="2.57283">
        <ele>619.226</ele>
        <time>2009-01-30T20:42:07Z</time>
      </trkpt>
      <trkpt lat="44.34851" lon="2.57282">
        <ele>619.226</ele>
        <time>2009-01-30T20:42:08Z</time>
      </trkpt>
      <trkpt lat="44.34854" lon="2.57282">
        <ele>619.707</ele>
        <time>2009-01-30T20:42:09Z</time>
      </trkpt>
      <trkpt lat="44.34857" lon="2.57281">
        <ele>619.226</ele>
        <time>2009-01-30T20:42:10Z</time>
      </trkpt>
      <trkpt lat="44.3486" lon="2.57281">
        <ele>619.707</ele>
        <time>2009-01-30T20:42:11Z</time>
      </trkpt>
      <trkpt lat="44.34863" lon="2.5728">
        <ele>619.707</ele>
        <time>2009-01-30T20:42:12Z</time>
      </trkpt>
      <trkpt lat="44.34865" lon="2.5728">
        <ele>619.226</ele>
        <time>2009-01-30T20:42:13Z</time>
      </trkpt>
      <trkpt lat="44.34867" lon="2.5728">
        <ele>618.746</ele>
        <time>2009-01-30T20:42:14Z</time>
      </trkpt>
      <trkpt lat="44.34869" lon="2.57279">
        <ele>619.226</ele>
        <time>2009-01-30T20:42:15Z</time>
      </trkpt>
      <trkpt lat="44.3487" lon="2.57279">
        <ele>619.226</ele>
        <time>2009-01-30T20:42:16Z</time>
      </trkpt>
      <trkpt lat="44.34872" lon="2.57278">
        <ele>619.226</ele>
        <time>2009-01-30T20:42:17Z</time>
      </trkpt>
      <trkpt lat="44.34873" lon="2.57277">
        <ele>619.707</ele>
        <time>2009-01-30T20:42:18Z</time>
      </trkpt>
      <trkpt lat="44.34876" lon="2.57277">
        <ele>618.746</ele>
        <time>2009-01-30T20:42:19Z</time>
      </trkpt>
      <trkpt lat="44.34877" lon="2.57277">
        <ele>617.784</ele>
        <time>2009-01-30T20:42:20Z</time>
      </trkpt>
      <trkpt lat="44.34879" lon="2.57276">
        <ele>616.823</ele>
        <time>2009-01-30T20:42:21Z</time>
      </trkpt>
      <trkpt lat="44.34881" lon="2.57276">
        <ele>616.823</ele>
        <time>2009-01-30T20:42:22Z</time>
      </trkpt>
      <trkpt lat="44.34882" lon="2.57276">
        <ele>615.862</ele>
        <time>2009-01-30T20:42:23Z</time>
      </trkpt>
      <trkpt lat="44.34883" lon="2.57275">
        <ele>614.9</ele>
        <time>2009-01-30T20:42:24Z</time>
      </trkpt>
      <trkpt lat="44.34884" lon="2.57274">
        <ele>613.939</ele>
        <time>2009-01-30T20:42:25Z</time>
      </trkpt>
      <trkpt lat="44.34885" lon="2.57273">
        <ele>612.978</ele>
        <time>2009-01-30T20:42:26Z</time>
      </trkpt>
      <trkpt lat="44.34886" lon="2.57272">
        <ele>612.017</ele>
        <time>2009-01-30T20:42:27Z</time>
      </trkpt>
      <trkpt lat="44.34887" lon="2.57271">
        <ele>611.055</ele>
        <time>2009-01-30T20:42:28Z</time>
      </trkpt>
      <trkpt lat="44.3489" lon="2.57269">
        <ele>612.017</ele>
        <time>2009-01-30T20:42:29Z</time>
      </trkpt>
      <trkpt lat="44.34893" lon="2.57268">
        <ele>613.458</ele>
        <time>2009-01-30T20:42:30Z</time>
      </trkpt>
      <trkpt lat="44.34895" lon="2.57266">
        <ele>614.42</ele>
        <time>2009-01-30T20:42:31Z</time>
      </trkpt>
      <trkpt lat="44.34898" lon="2.57264">
        <ele>614.9</ele>
        <time>2009-01-30T20:42:32Z</time>
      </trkpt>
      <trkpt lat="44.349" lon="2.57262">
        <ele>615.381</ele>
        <time>2009-01-30T20:42:33Z</time>
      </trkpt>
      <trkpt lat="44.34901" lon="2.57261">
        <ele>615.381</ele>
        <time>2009-01-30T20:42:34Z</time>
      </trkpt>
      <trkpt lat="44.34903" lon="2.5726">
        <ele>614.42</ele>
        <time>2009-01-30T20:42:35Z</time>
      </trkpt>
      <trkpt lat="44.34905" lon="2.57259">
        <ele>614.42</ele>
        <time>2009-01-30T20:42:36Z</time>
      </trkpt>
      <trkpt lat="44.34907" lon="2.57257">
        <ele>613.458</ele>
        <time>2009-01-30T20:42:37Z</time>
      </trkpt>
      <trkpt lat="44.3491" lon="2.57256">
        <ele>613.458</ele>
        <time>2009-01-30T20:42:38Z</time>
      </trkpt>
      <trkpt lat="44.34912" lon="2.57255">
        <ele>612.497</ele>
        <time>2009-01-30T20:42:39Z</time>
      </trkpt>
      <trkpt lat="44.34914" lon="2.57254">
        <ele>612.017</ele>
        <time>2009-01-30T20:42:40Z</time>
      </trkpt>
      <trkpt lat="44.34916" lon="2.57253">
        <ele>611.536</ele>
        <time>2009-01-30T20:42:41Z</time>
      </trkpt>
      <trkpt lat="44.34917" lon="2.57251">
        <ele>611.055</ele>
        <time>2009-01-30T20:42:42Z</time>
      </trkpt>
      <trkpt lat="44.3492" lon="2.5725">
        <ele>611.536</ele>
        <time>2009-01-30T20:42:43Z</time>
      </trkpt>
      <trkpt lat="44.34921" lon="2.5725">
        <ele>611.055</ele>
        <time>2009-01-30T20:42:44Z</time>
      </trkpt>
      <trkpt lat="44.34921" lon="2.57248">
        <ele>612.017</ele>
        <time>2009-01-30T20:42:45Z</time>
      </trkpt>
      <trkpt lat="44.34921" lon="2.57247">
        <ele>612.497</ele>
        <time>2009-01-30T20:42:46Z</time>
      </trkpt>
      <trkpt lat="44.34922" lon="2.57249">
        <ele>612.497</ele>
        <time>2009-01-30T20:42:47Z</time>
      </trkpt>
      <trkpt lat="44.34923" lon="2.57251">
        <ele>611.055</ele>
        <time>2009-01-30T20:42:48Z</time>
      </trkpt>
      <trkpt lat="44.34925" lon="2.57252">
        <ele>609.613</ele>
        <time>2009-01-30T20:42:49Z</time>
      </trkpt>
      <trkpt lat="44.34927" lon="2.57255">
        <ele>609.133</ele>
        <time>2009-01-30T20:42:50Z</time>
      </trkpt>
      <trkpt lat="44.34927" lon="2.57256">
        <ele>607.691</ele>
        <time>2009-01-30T20:42:51Z</time>
      </trkpt>
      <trkpt lat="44.34929" lon="2.57258">
        <ele>606.729</ele>
        <time>2009-01-30T20:42:52Z</time>
      </trkpt>
      <trkpt lat="44.3493" lon="2.5726">
        <ele>605.768</ele>
        <time>2009-01-30T20:42:53Z</time>
      </trkpt>
      <trkpt lat="44.3493" lon="2.57262">
        <ele>604.326</ele>
        <time>2009-01-30T20:42:54Z</time>
      </trkpt>
      <trkpt lat="44.34931" lon="2.57263">
        <ele>603.365</ele>
        <time>2009-01-30T20:42:55Z</time>
      </trkpt>
      <trkpt lat="44.34931" lon="2.57265">
        <ele>602.884</ele>
        <time>2009-01-30T20:42:56Z</time>
      </trkpt>
      <trkpt lat="44.34932" lon="2.57266">
        <ele>601.923</ele>
        <time>2009-01-30T20:42:57Z</time>
      </trkpt>
      <trkpt lat="44.34938" lon="2.57266">
        <ele>604.807</ele>
        <time>2009-01-30T20:42:58Z</time>
      </trkpt>
      <trkpt lat="44.34942" lon="2.57267">
        <ele>605.287</ele>
        <time>2009-01-30T20:42:59Z</time>
      </trkpt>
      <trkpt lat="44.34945" lon="2.57267">
        <ele>605.287</ele>
        <time>2009-01-30T20:43:00Z</time>
      </trkpt>
      <trkpt lat="44.34947" lon="2.57268">
        <ele>604.807</ele>
        <time>2009-01-30T20:43:01Z</time>
      </trkpt>
      <trkpt lat="44.34949" lon="2.57269">
        <ele>603.365</ele>
        <time>2009-01-30T20:43:02Z</time>
      </trkpt>
      <trkpt lat="44.34952" lon="2.57269">
        <ele>602.884</ele>
        <time>2009-01-30T20:43:03Z</time>
      </trkpt>
      <trkpt lat="44.34953" lon="2.57269">
        <ele>601.923</ele>
        <time>2009-01-30T20:43:04Z</time>
      </trkpt>
      <trkpt lat="44.34955" lon="2.5727">
        <ele>600.481</ele>
        <time>2009-01-30T20:43:05Z</time>
      </trkpt>
      <trkpt lat="44.34958" lon="2.57271">
        <ele>600.481</ele>
        <time>2009-01-30T20:43:06Z</time>
      </trkpt>
      <trkpt lat="44.3496" lon="2.57271">
        <ele>600</ele>
        <time>2009-01-30T20:43:07Z</time>
      </trkpt>
      <trkpt lat="44.34962" lon="2.57272">
        <ele>599.039</ele>
        <time>2009-01-30T20:43:08Z</time>
      </trkpt>
      <trkpt lat="44.34963" lon="2.57273">
        <ele>598.558</ele>
        <time>2009-01-30T20:43:09Z</time>
      </trkpt>
      <trkpt lat="44.34965" lon="2.57274">
        <ele>599.039</ele>
        <time>2009-01-30T20:43:10Z</time>
      </trkpt>
      <trkpt lat="44.34966" lon="2.57275">
        <ele>598.077</ele>
        <time>2009-01-30T20:43:11Z</time>
      </trkpt>
      <trkpt lat="44.34968" lon="2.57276">
        <ele>597.116</ele>
        <time>2009-01-30T20:43:12Z</time>
      </trkpt>
      <trkpt lat="44.34969" lon="2.57277">
        <ele>597.116</ele>
        <time>2009-01-30T20:43:13Z</time>
      </trkpt>
      <trkpt lat="44.34971" lon="2.57278">
        <ele>596.155</ele>
        <time>2009-01-30T20:43:14Z</time>
      </trkpt>
      <trkpt lat="44.34972" lon="2.57279">
        <ele>595.674</ele>
        <time>2009-01-30T20:43:15Z</time>
      </trkpt>
      <trkpt lat="44.34972" lon="2.5728">
        <ele>595.193</ele>
        <time>2009-01-30T20:43:16Z</time>
      </trkpt>
      <trkpt lat="44.34973" lon="2.57281">
        <ele>595.193</ele>
        <time>2009-01-30T20:43:17Z</time>
      </trkpt>
      <trkpt lat="44.34973" lon="2.57283">
        <ele>597.116</ele>
        <time>2009-01-30T20:43:18Z</time>
      </trkpt>
      <trkpt lat="44.34973" lon="2.57284">
        <ele>600.961</ele>
        <time>2009-01-30T20:43:19Z</time>
      </trkpt>
      <trkpt lat="44.34973" lon="2.57287">
        <ele>603.845</ele>
        <time>2009-01-30T20:43:20Z</time>
      </trkpt>
      <trkpt lat="44.34974" lon="2.57289">
        <ele>604.807</ele>
        <time>2009-01-30T20:43:21Z</time>
      </trkpt>
      <trkpt lat="44.34976" lon="2.5729">
        <ele>605.287</ele>
        <time>2009-01-30T20:43:22Z</time>
      </trkpt>
      <trkpt lat="44.34977" lon="2.57291">
        <ele>604.326</ele>
        <time>2009-01-30T20:43:23Z</time>
      </trkpt>
      <trkpt lat="44.34978" lon="2.57293">
        <ele>604.326</ele>
        <time>2009-01-30T20:43:24Z</time>
      </trkpt>
      <trkpt lat="44.34979" lon="2.57294">
        <ele>603.845</ele>
        <time>2009-01-30T20:43:25Z</time>
      </trkpt>
      <trkpt lat="44.34979" lon="2.57296">
        <ele>604.326</ele>
        <time>2009-01-30T20:43:26Z</time>
      </trkpt>
      <trkpt lat="44.34979" lon="2.57298">
        <ele>603.845</ele>
        <time>2009-01-30T20:43:28Z</time>
      </trkpt>
      <trkpt lat="44.34979" lon="2.57299">
        <ele>603.365</ele>
        <time>2009-01-30T20:43:29Z</time>
      </trkpt>
      <trkpt lat="44.34979" lon="2.57301">
        <ele>603.365</ele>
        <time>2009-01-30T20:43:30Z</time>
      </trkpt>
      <trkpt lat="44.34979" lon="2.57301">
        <ele>602.884</ele>
        <time>2009-01-30T20:43:31Z</time>
      </trkpt>
      <trkpt lat="44.34978" lon="2.57302">
        <ele>603.365</ele>
        <time>2009-01-30T20:43:33Z</time>
      </trkpt>
      <trkpt lat="44.34978" lon="2.57303">
        <ele>604.326</ele>
        <time>2009-01-30T20:43:34Z</time>
      </trkpt>
      <trkpt lat="44.34979" lon="2.57318">
        <ele>601.442</ele>
        <time>2009-01-30T20:43:49Z</time>
      </trkpt>
      <trkpt lat="44.3498" lon="2.57319">
        <ele>600.961</ele>
        <time>2009-01-30T20:43:50Z</time>
      </trkpt>
      <trkpt lat="44.34981" lon="2.5732">
        <ele>600.961</ele>
        <time>2009-01-30T20:43:51Z</time>
      </trkpt>
      <trkpt lat="44.34982" lon="2.57321">
        <ele>602.403</ele>
        <time>2009-01-30T20:43:52Z</time>
      </trkpt>
      <trkpt lat="44.34982" lon="2.57323">
        <ele>603.845</ele>
        <time>2009-01-30T20:43:53Z</time>
      </trkpt>
      <trkpt lat="44.34982" lon="2.57325">
        <ele>606.729</ele>
        <time>2009-01-30T20:43:54Z</time>
      </trkpt>
      <trkpt lat="44.34983" lon="2.57337">
        <ele>630.762</ele>
        <time>2009-01-30T20:44:07Z</time>
      </trkpt>
      <trkpt lat="44.34984" lon="2.57339">
        <ele>631.723</ele>
        <time>2009-01-30T20:44:08Z</time>
      </trkpt>
      <trkpt lat="44.34984" lon="2.57339">
        <ele>632.204</ele>
        <time>2009-01-30T20:44:09Z</time>
      </trkpt>
      <trkpt lat="44.34984" lon="2.5734">
        <ele>631.723</ele>
        <time>2009-01-30T20:44:10Z</time>
      </trkpt>
      <trkpt lat="44.34984" lon="2.57342">
        <ele>631.243</ele>
        <time>2009-01-30T20:44:12Z</time>
      </trkpt>
      <trkpt lat="44.34983" lon="2.57342">
        <ele>632.204</ele>
        <time>2009-01-30T20:44:13Z</time>
      </trkpt>
      <trkpt lat="44.34982" lon="2.57343">
        <ele>632.685</ele>
        <time>2009-01-30T20:44:14Z</time>
      </trkpt>
      <trkpt lat="44.34982" lon="2.57342">
        <ele>633.165</ele>
        <time>2009-01-30T20:44:16Z</time>
      </trkpt>
      <trkpt lat="44.34982" lon="2.57342">
        <ele>633.646</ele>
        <time>2009-01-30T20:44:17Z</time>
      </trkpt>
      <trkpt lat="44.34983" lon="2.57341">
        <ele>633.646</ele>
        <time>2009-01-30T20:44:18Z</time>
      </trkpt>
      <trkpt lat="44.34983" lon="2.5734">
        <ele>632.685</ele>
        <time>2009-01-30T20:44:19Z</time>
      </trkpt>
      <trkpt lat="44.34983" lon="2.5734">
        <ele>632.685</ele>
        <time>2009-01-30T20:44:20Z</time>
      </trkpt>
      <trkpt lat="44.34983" lon="2.57339">
        <ele>632.204</ele>
        <time>2009-01-30T20:44:21Z</time>
      </trkpt>
      <trkpt lat="44.34983" lon="2.57338">
        <ele>631.243</ele>
        <time>2009-01-30T20:44:22Z</time>
      </trkpt>
      <trkpt lat="44.34984" lon="2.57337">
        <ele>630.281</ele>
        <time>2009-01-30T20:44:23Z</time>
      </trkpt>
      <trkpt lat="44.34985" lon="2.57336">
        <ele>629.32</ele>
        <time>2009-01-30T20:44:24Z</time>
      </trkpt>
      <trkpt lat="44.34986" lon="2.57336">
        <ele>628.84</ele>
        <time>2009-01-30T20:44:25Z</time>
      </trkpt>
      <trkpt lat="44.34986" lon="2.57335">
        <ele>627.878</ele>
        <time>2009-01-30T20:44:26Z</time>
      </trkpt>
      <trkpt lat="44.34987" lon="2.57336">
        <ele>626.917</ele>
        <time>2009-01-30T20:44:27Z</time>
      </trkpt>
      <trkpt lat="44.34988" lon="2.57335">
        <ele>626.436</ele>
        <time>2009-01-30T20:44:28Z</time>
      </trkpt>
      <trkpt lat="44.34989" lon="2.57335">
        <ele>625.475</ele>
        <time>2009-01-30T20:44:29Z</time>
      </trkpt>
      <trkpt lat="44.34989" lon="2.57334">
        <ele>624.994</ele>
        <time>2009-01-30T20:44:30Z</time>
      </trkpt>
      <trkpt lat="44.3499" lon="2.57334">
        <ele>624.514</ele>
        <time>2009-01-30T20:44:31Z</time>
      </trkpt>
      <trkpt lat="44.34991" lon="2.57333">
        <ele>623.072</ele>
        <time>2009-01-30T20:44:32Z</time>
      </trkpt>
      <trkpt lat="44.34992" lon="2.57332">
        <ele>622.591</ele>
        <time>2009-01-30T20:44:33Z</time>
      </trkpt>
      <trkpt lat="44.34993" lon="2.57332">
        <ele>621.63</ele>
        <time>2009-01-30T20:44:34Z</time>
      </trkpt>
      <trkpt lat="44.34994" lon="2.57331">
        <ele>620.188</ele>
        <time>2009-01-30T20:44:35Z</time>
      </trkpt>
      <trkpt lat="44.34995" lon="2.5733">
        <ele>619.226</ele>
        <time>2009-01-30T20:44:36Z</time>
      </trkpt>
      <trkpt lat="44.34997" lon="2.57329">
        <ele>618.265</ele>
        <time>2009-01-30T20:44:37Z</time>
      </trkpt>
      <trkpt lat="44.34997" lon="2.57326">
        <ele>618.265</ele>
        <time>2009-01-30T20:44:38Z</time>
      </trkpt>
      <trkpt lat="44.34998" lon="2.57322">
        <ele>620.188</ele>
        <time>2009-01-30T20:44:39Z</time>
      </trkpt>
      <trkpt lat="44.35" lon="2.57318">
        <ele>622.591</ele>
        <time>2009-01-30T20:44:40Z</time>
      </trkpt>
      <trkpt lat="44.35004" lon="2.57316">
        <ele>624.994</ele>
        <time>2009-01-30T20:44:41Z</time>
      </trkpt>
      <trkpt lat="44.35006" lon="2.57314">
        <ele>624.994</ele>
        <time>2009-01-30T20:44:42Z</time>
      </trkpt>
      <trkpt lat="44.35009" lon="2.57313">
        <ele>624.994</ele>
        <time>2009-01-30T20:44:43Z</time>
      </trkpt>
      <trkpt lat="44.3501" lon="2.57311">
        <ele>623.072</ele>
        <time>2009-01-30T20:44:44Z</time>
      </trkpt>
      <trkpt lat="44.35012" lon="2.57309">
        <ele>622.11</ele>
        <time>2009-01-30T20:44:45Z</time>
      </trkpt>
      <trkpt lat="44.35014" lon="2.57307">
        <ele>622.11</ele>
        <time>2009-01-30T20:44:46Z</time>
      </trkpt>
      <trkpt lat="44.35016" lon="2.57304">
        <ele>621.63</ele>
        <time>2009-01-30T20:44:47Z</time>
      </trkpt>
      <trkpt lat="44.35021" lon="2.573">
        <ele>625.475</ele>
        <time>2009-01-30T20:44:48Z</time>
      </trkpt>
      <trkpt lat="44.35025" lon="2.57297">
        <ele>627.398</ele>
        <time>2009-01-30T20:44:49Z</time>
      </trkpt>
      <trkpt lat="44.35029" lon="2.57294">
        <ele>629.801</ele>
        <time>2009-01-30T20:44:50Z</time>
      </trkpt>
      <trkpt lat="44.35033" lon="2.57291">
        <ele>632.204</ele>
        <time>2009-01-30T20:44:51Z</time>
      </trkpt>
      <trkpt lat="44.35037" lon="2.57288">
        <ele>633.165</ele>
        <time>2009-01-30T20:44:52Z</time>
      </trkpt>
      <trkpt lat="44.3504" lon="2.57286">
        <ele>633.165</ele>
        <time>2009-01-30T20:44:53Z</time>
      </trkpt>
      <trkpt lat="44.35041" lon="2.57283">
        <ele>632.685</ele>
        <time>2009-01-30T20:44:54Z</time>
      </trkpt>
      <trkpt lat="44.35042" lon="2.5728">
        <ele>632.204</ele>
        <time>2009-01-30T20:44:55Z</time>
      </trkpt>
      <trkpt lat="44.35044" lon="2.57278">
        <ele>632.204</ele>
        <time>2009-01-30T20:44:56Z</time>
      </trkpt>
      <trkpt lat="44.35045" lon="2.57275">
        <ele>631.723</ele>
        <time>2009-01-30T20:44:57Z</time>
      </trkpt>
      <trkpt lat="44.35046" lon="2.57272">
        <ele>631.723</ele>
        <time>2009-01-30T20:44:58Z</time>
      </trkpt>
      <trkpt lat="44.35048" lon="2.5727">
        <ele>631.243</ele>
        <time>2009-01-30T20:44:59Z</time>
      </trkpt>
      <trkpt lat="44.35049" lon="2.57268">
        <ele>629.801</ele>
        <time>2009-01-30T20:45:00Z</time>
      </trkpt>
      <trkpt lat="44.35051" lon="2.57267">
        <ele>628.359</ele>
        <time>2009-01-30T20:45:01Z</time>
      </trkpt>
      <trkpt lat="44.35054" lon="2.57266">
        <ele>628.359</ele>
        <time>2009-01-30T20:45:02Z</time>
      </trkpt>
      <trkpt lat="44.35057" lon="2.57264">
        <ele>628.84</ele>
        <time>2009-01-30T20:45:03Z</time>
      </trkpt>
      <trkpt lat="44.35061" lon="2.57262">
        <ele>630.281</ele>
        <time>2009-01-30T20:45:04Z</time>
      </trkpt>
      <trkpt lat="44.35065" lon="2.5726">
        <ele>631.243</ele>
        <time>2009-01-30T20:45:05Z</time>
      </trkpt>
      <trkpt lat="44.35067" lon="2.57258">
        <ele>632.204</ele>
        <time>2009-01-30T20:45:06Z</time>
      </trkpt>
      <trkpt lat="44.35069" lon="2.57257">
        <ele>633.165</ele>
        <time>2009-01-30T20:45:07Z</time>
      </trkpt>
      <trkpt lat="44.3507" lon="2.57255">
        <ele>634.127</ele>
        <time>2009-01-30T20:45:08Z</time>
      </trkpt>
      <trkpt lat="44.35071" lon="2.57255">
        <ele>634.607</ele>
        <time>2009-01-30T20:45:09Z</time>
      </trkpt>
      <trkpt lat="44.35071" lon="2.57254">
        <ele>635.088</ele>
        <time>2009-01-30T20:45:10Z</time>
      </trkpt>
      <trkpt lat="44.35071" lon="2.57252">
        <ele>636.05</ele>
        <time>2009-01-30T20:45:11Z</time>
      </trkpt>
      <trkpt lat="44.35071" lon="2.57249">
        <ele>635.569</ele>
        <time>2009-01-30T20:45:12Z</time>
      </trkpt>
      <trkpt lat="44.35071" lon="2.57246">
        <ele>633.646</ele>
        <time>2009-01-30T20:45:13Z</time>
      </trkpt>
      <trkpt lat="44.35071" lon="2.57242">
        <ele>633.646</ele>
        <time>2009-01-30T20:45:14Z</time>
      </trkpt>
      <trkpt lat="44.35071" lon="2.57239">
        <ele>632.204</ele>
        <time>2009-01-30T20:45:15Z</time>
      </trkpt>
      <trkpt lat="44.35071" lon="2.57236">
        <ele>630.281</ele>
        <time>2009-01-30T20:45:16Z</time>
      </trkpt>
      <trkpt lat="44.35071" lon="2.57233">
        <ele>629.801</ele>
        <time>2009-01-30T20:45:17Z</time>
      </trkpt>
      <trkpt lat="44.35071" lon="2.57229">
        <ele>628.84</ele>
        <time>2009-01-30T20:45:18Z</time>
      </trkpt>
      <trkpt lat="44.35071" lon="2.57226">
        <ele>628.359</ele>
        <time>2009-01-30T20:45:19Z</time>
      </trkpt>
      <trkpt lat="44.35072" lon="2.57223">
        <ele>628.359</ele>
        <time>2009-01-30T20:45:20Z</time>
      </trkpt>
      <trkpt lat="44.35073" lon="2.5722">
        <ele>627.878</ele>
        <time>2009-01-30T20:45:21Z</time>
      </trkpt>
      <trkpt lat="44.35074" lon="2.57217">
        <ele>627.878</ele>
        <time>2009-01-30T20:45:22Z</time>
      </trkpt>
      <trkpt lat="44.35074" lon="2.57214">
        <ele>626.917</ele>
        <time>2009-01-30T20:45:23Z</time>
      </trkpt>
      <trkpt lat="44.35076" lon="2.57212">
        <ele>626.436</ele>
        <time>2009-01-30T20:45:24Z</time>
      </trkpt>
      <trkpt lat="44.35076" lon="2.5721">
        <ele>625.956</ele>
        <time>2009-01-30T20:45:25Z</time>
      </trkpt>
      <trkpt lat="44.35078" lon="2.57208">
        <ele>625.956</ele>
        <time>2009-01-30T20:45:26Z</time>
      </trkpt>
      <trkpt lat="44.35083" lon="2.57203">
        <ele>630.281</ele>
        <time>2009-01-30T20:45:27Z</time>
      </trkpt>
      <trkpt lat="44.35091" lon="2.572">
        <ele>635.569</ele>
        <time>2009-01-30T20:45:28Z</time>
      </trkpt>
      <trkpt lat="44.35098" lon="2.572">
        <ele>635.569</ele>
        <time>2009-01-30T20:45:29Z</time>
      </trkpt>
      <trkpt lat="44.35106" lon="2.57197">
        <ele>639.414</ele>
        <time>2009-01-30T20:45:30Z</time>
      </trkpt>
      <trkpt lat="44.35113" lon="2.57194">
        <ele>642.298</ele>
        <time>2009-01-30T20:45:31Z</time>
      </trkpt>
      <trkpt lat="44.35117" lon="2.57189">
        <ele>644.221</ele>
        <time>2009-01-30T20:45:32Z</time>
      </trkpt>
      <trkpt lat="44.3512" lon="2.57184">
        <ele>645.182</ele>
        <time>2009-01-30T20:45:33Z</time>
      </trkpt>
      <trkpt lat="44.35122" lon="2.57181">
        <ele>643.259</ele>
        <time>2009-01-30T20:45:34Z</time>
      </trkpt>
      <trkpt lat="44.35124" lon="2.57178">
        <ele>642.298</ele>
        <time>2009-01-30T20:45:35Z</time>
      </trkpt>
      <trkpt lat="44.35124" lon="2.57176">
        <ele>640.375</ele>
        <time>2009-01-30T20:45:36Z</time>
      </trkpt>
      <trkpt lat="44.35125" lon="2.57173">
        <ele>639.414</ele>
        <time>2009-01-30T20:45:37Z</time>
      </trkpt>
      <trkpt lat="44.35126" lon="2.57169">
        <ele>639.414</ele>
        <time>2009-01-30T20:45:38Z</time>
      </trkpt>
      <trkpt lat="44.35125" lon="2.57166">
        <ele>638.453</ele>
        <time>2009-01-30T20:45:39Z</time>
      </trkpt>
      <trkpt lat="44.35125" lon="2.57162">
        <ele>637.972</ele>
        <time>2009-01-30T20:45:40Z</time>
      </trkpt>
      <trkpt lat="44.35125" lon="2.57159">
        <ele>637.011</ele>
        <time>2009-01-30T20:45:41Z</time>
      </trkpt>
      <trkpt lat="44.35124" lon="2.57156">
        <ele>636.05</ele>
        <time>2009-01-30T20:45:42Z</time>
      </trkpt>
      <trkpt lat="44.35124" lon="2.57152">
        <ele>635.569</ele>
        <time>2009-01-30T20:45:43Z</time>
      </trkpt>
      <trkpt lat="44.35124" lon="2.57149">
        <ele>634.607</ele>
        <time>2009-01-30T20:45:44Z</time>
      </trkpt>
      <trkpt lat="44.35124" lon="2.57146">
        <ele>633.646</ele>
        <time>2009-01-30T20:45:45Z</time>
      </trkpt>
      <trkpt lat="44.35123" lon="2.57143">
        <ele>633.646</ele>
        <time>2009-01-30T20:45:46Z</time>
      </trkpt>
      <trkpt lat="44.35123" lon="2.5714">
        <ele>633.165</ele>
        <time>2009-01-30T20:45:47Z</time>
      </trkpt>
      <trkpt lat="44.35123" lon="2.57137">
        <ele>632.204</ele>
        <time>2009-01-30T20:45:48Z</time>
      </trkpt>
      <trkpt lat="44.35123" lon="2.57134">
        <ele>632.204</ele>
        <time>2009-01-30T20:45:49Z</time>
      </trkpt>
      <trkpt lat="44.35123" lon="2.57131">
        <ele>631.723</ele>
        <time>2009-01-30T20:45:50Z</time>
      </trkpt>
      <trkpt lat="44.35123" lon="2.57128">
        <ele>631.723</ele>
        <time>2009-01-30T20:45:51Z</time>
      </trkpt>
      <trkpt lat="44.35123" lon="2.57126">
        <ele>630.762</ele>
        <time>2009-01-30T20:45:52Z</time>
      </trkpt>
      <trkpt lat="44.35125" lon="2.57125">
        <ele>630.281</ele>
        <time>2009-01-30T20:45:53Z</time>
      </trkpt>
      <trkpt lat="44.35126" lon="2.57124">
        <ele>629.801</ele>
        <time>2009-01-30T20:45:54Z</time>
      </trkpt>
      <trkpt lat="44.35128" lon="2.57123">
        <ele>629.32</ele>
        <time>2009-01-30T20:45:55Z</time>
      </trkpt>
      <trkpt lat="44.35129" lon="2.57122">
        <ele>627.878</ele>
        <time>2009-01-30T20:45:56Z</time>
      </trkpt>
      <trkpt lat="44.3513" lon="2.57121">
        <ele>626.917</ele>
        <time>2009-01-30T20:45:57Z</time>
      </trkpt>
      <trkpt lat="44.35131" lon="2.57118">
        <ele>626.436</ele>
        <time>2009-01-30T20:45:58Z</time>
      </trkpt>
      <trkpt lat="44.35132" lon="2.57116">
        <ele>624.994</ele>
        <time>2009-01-30T20:45:59Z</time>
      </trkpt>
      <trkpt lat="44.35133" lon="2.57114">
        <ele>624.033</ele>
        <time>2009-01-30T20:46:00Z</time>
      </trkpt>
      <trkpt lat="44.35135" lon="2.57112">
        <ele>623.072</ele>
        <time>2009-01-30T20:46:01Z</time>
      </trkpt>
      <trkpt lat="44.35136" lon="2.5711">
        <ele>622.591</ele>
        <time>2009-01-30T20:46:02Z</time>
      </trkpt>
      <trkpt lat="44.35137" lon="2.57109">
        <ele>621.149</ele>
        <time>2009-01-30T20:46:03Z</time>
      </trkpt>
      <trkpt lat="44.35138" lon="2.57107">
        <ele>619.707</ele>
        <time>2009-01-30T20:46:04Z</time>
      </trkpt>
      <trkpt lat="44.35139" lon="2.57105">
        <ele>618.746</ele>
        <time>2009-01-30T20:46:05Z</time>
      </trkpt>
      <trkpt lat="44.3514" lon="2.57103">
        <ele>617.784</ele>
        <time>2009-01-30T20:46:06Z</time>
      </trkpt>
      <trkpt lat="44.35141" lon="2.57101">
        <ele>616.342</ele>
        <time>2009-01-30T20:46:07Z</time>
      </trkpt>
      <trkpt lat="44.35141" lon="2.571">
        <ele>614.9</ele>
        <time>2009-01-30T20:46:08Z</time>
      </trkpt>
      <trkpt lat="44.35142" lon="2.57099">
        <ele>613.458</ele>
        <time>2009-01-30T20:46:09Z</time>
      </trkpt>
      <trkpt lat="44.35142" lon="2.57097">
        <ele>612.497</ele>
        <time>2009-01-30T20:46:10Z</time>
      </trkpt>
      <trkpt lat="44.35142" lon="2.57094">
        <ele>611.055</ele>
        <time>2009-01-30T20:46:11Z</time>
      </trkpt>
      <trkpt lat="44.35142" lon="2.5709">
        <ele>610.094</ele>
        <time>2009-01-30T20:46:12Z</time>
      </trkpt>
      <trkpt lat="44.35141" lon="2.57087">
        <ele>608.652</ele>
        <time>2009-01-30T20:46:13Z</time>
      </trkpt>
      <trkpt lat="44.35141" lon="2.57085">
        <ele>607.691</ele>
        <time>2009-01-30T20:46:14Z</time>
      </trkpt>
      <trkpt lat="44.35141" lon="2.57082">
        <ele>606.249</ele>
        <time>2009-01-30T20:46:15Z</time>
      </trkpt>
      <trkpt lat="44.35141" lon="2.57079">
        <ele>606.249</ele>
        <time>2009-01-30T20:46:16Z</time>
      </trkpt>
      <trkpt lat="44.35142" lon="2.57076">
        <ele>606.249</ele>
        <time>2009-01-30T20:46:17Z</time>
      </trkpt>
      <trkpt lat="44.35141" lon="2.57072">
        <ele>607.21</ele>
        <time>2009-01-30T20:46:18Z</time>
      </trkpt>
      <trkpt lat="44.35142" lon="2.57068">
        <ele>608.652</ele>
        <time>2009-01-30T20:46:19Z</time>
      </trkpt>
      <trkpt lat="44.35142" lon="2.57066">
        <ele>608.652</ele>
        <time>2009-01-30T20:46:20Z</time>
      </trkpt>
      <trkpt lat="44.35142" lon="2.57063">
        <ele>609.133</ele>
        <time>2009-01-30T20:46:21Z</time>
      </trkpt>
      <trkpt lat="44.35142" lon="2.5706">
        <ele>610.574</ele>
        <time>2009-01-30T20:46:22Z</time>
      </trkpt>
      <trkpt lat="44.35141" lon="2.57055">
        <ele>612.017</ele>
        <time>2009-01-30T20:46:23Z</time>
      </trkpt>
      <trkpt lat="44.35141" lon="2.57052">
        <ele>612.978</ele>
        <time>2009-01-30T20:46:24Z</time>
      </trkpt>
      <trkpt lat="44.3514" lon="2.57049">
        <ele>613.939</ele>
        <time>2009-01-30T20:46:25Z</time>
      </trkpt>
      <trkpt lat="44.3514" lon="2.57046">
        <ele>615.381</ele>
        <time>2009-01-30T20:46:26Z</time>
      </trkpt>
      <trkpt lat="44.3514" lon="2.57044">
        <ele>616.342</ele>
        <time>2009-01-30T20:46:27Z</time>
      </trkpt>
      <trkpt lat="44.3514" lon="2.57042">
        <ele>616.823</ele>
        <time>2009-01-30T20:46:28Z</time>
      </trkpt>
      <trkpt lat="44.3514" lon="2.5704">
        <ele>617.304</ele>
        <time>2009-01-30T20:46:29Z</time>
      </trkpt>
      <trkpt lat="44.3514" lon="2.57039">
        <ele>617.784</ele>
        <time>2009-01-30T20:46:30Z</time>
      </trkpt>
      <trkpt lat="44.3514" lon="2.57037">
        <ele>617.784</ele>
        <time>2009-01-30T20:46:31Z</time>
      </trkpt>
      <trkpt lat="44.3514" lon="2.57035">
        <ele>618.265</ele>
        <time>2009-01-30T20:46:32Z</time>
      </trkpt>
      <trkpt lat="44.3514" lon="2.57034">
        <ele>618.265</ele>
        <time>2009-01-30T20:46:33Z</time>
      </trkpt>
      <trkpt lat="44.35141" lon="2.57032">
        <ele>618.746</ele>
        <time>2009-01-30T20:46:34Z</time>
      </trkpt>
      <trkpt lat="44.35142" lon="2.5703">
        <ele>618.746</ele>
        <time>2009-01-30T20:46:35Z</time>
      </trkpt>
      <trkpt lat="44.35142" lon="2.57028">
        <ele>618.746</ele>
        <time>2009-01-30T20:46:36Z</time>
      </trkpt>
      <trkpt lat="44.35142" lon="2.57026">
        <ele>619.226</ele>
        <time>2009-01-30T20:46:37Z</time>
      </trkpt>
      <trkpt lat="44.35143" lon="2.57025">
        <ele>618.746</ele>
        <time>2009-01-30T20:46:38Z</time>
      </trkpt>
      <trkpt lat="44.35143" lon="2.57023">
        <ele>618.746</ele>
        <time>2009-01-30T20:46:39Z</time>
      </trkpt>
      <trkpt lat="44.35143" lon="2.57021">
        <ele>618.746</ele>
        <time>2009-01-30T20:46:40Z</time>
      </trkpt>
      <trkpt lat="44.35144" lon="2.57019">
        <ele>618.746</ele>
        <time>2009-01-30T20:46:41Z</time>
      </trkpt>
      <trkpt lat="44.35144" lon="2.57017">
        <ele>619.226</ele>
        <time>2009-01-30T20:46:42Z</time>
      </trkpt>
      <trkpt lat="44.35144" lon="2.57016">
        <ele>619.226</ele>
        <time>2009-01-30T20:46:43Z</time>
      </trkpt>
      <trkpt lat="44.35144" lon="2.57014">
        <ele>619.226</ele>
        <time>2009-01-30T20:46:44Z</time>
      </trkpt>
      <trkpt lat="44.35145" lon="2.57012">
        <ele>619.226</ele>
        <time>2009-01-30T20:46:45Z</time>
      </trkpt>
      <trkpt lat="44.35145" lon="2.5701">
        <ele>619.226</ele>
        <time>2009-01-30T20:46:46Z</time>
      </trkpt>
      <trkpt lat="44.35145" lon="2.57009">
        <ele>619.226</ele>
        <time>2009-01-30T20:46:47Z</time>
      </trkpt>
      <trkpt lat="44.35145" lon="2.57007">
        <ele>619.226</ele>
        <time>2009-01-30T20:46:48Z</time>
      </trkpt>
      <trkpt lat="44.35145" lon="2.57005">
        <ele>619.226</ele>
        <time>2009-01-30T20:46:49Z</time>
      </trkpt>
      <trkpt lat="44.35146" lon="2.57003">
        <ele>619.226</ele>
        <time>2009-01-30T20:46:50Z</time>
      </trkpt>
      <trkpt lat="44.35146" lon="2.57002">
        <ele>619.226</ele>
        <time>2009-01-30T20:46:51Z</time>
      </trkpt>
      <trkpt lat="44.35146" lon="2.57">
        <ele>619.226</ele>
        <time>2009-01-30T20:46:52Z</time>
      </trkpt>
      <trkpt lat="44.35146" lon="2.56999">
        <ele>619.226</ele>
        <time>2009-01-30T20:46:53Z</time>
      </trkpt>
      <trkpt lat="44.35146" lon="2.56999">
        <ele>619.226</ele>
        <time>2009-01-30T20:46:54Z</time>
      </trkpt>
      <trkpt lat="44.35146" lon="2.56999">
        <ele>616.342</ele>
        <time>2009-01-30T20:47:20Z</time>
      </trkpt>
      <trkpt lat="44.35146" lon="2.56999">
        <ele>616.342</ele>
        <time>2009-01-30T20:47:21Z</time>
      </trkpt>
      <trkpt lat="44.35145" lon="2.56998">
        <ele>615.381</ele>
        <time>2009-01-30T20:47:22Z</time>
      </trkpt>
      <trkpt lat="44.35144" lon="2.56998">
        <ele>614.9</ele>
        <time>2009-01-30T20:47:23Z</time>
      </trkpt>
      <trkpt lat="44.35144" lon="2.56997">
        <ele>614.42</ele>
        <time>2009-01-30T20:47:24Z</time>
      </trkpt>
      <trkpt lat="44.35143" lon="2.56996">
        <ele>613.458</ele>
        <time>2009-01-30T20:47:27Z</time>
      </trkpt>
      <trkpt lat="44.35143" lon="2.56996">
        <ele>613.458</ele>
        <time>2009-01-30T20:47:27Z</time>
      </trkpt>
      <trkpt lat="44.35143" lon="2.56995">
        <ele>613.458</ele>
        <time>2009-01-30T20:47:29Z</time>
      </trkpt>
      <trkpt lat="44.35143" lon="2.56995">
        <ele>613.458</ele>
        <time>2009-01-30T20:47:30Z</time>
      </trkpt>
    </trkseg>
  </trk>
</gpx>